<?xml version="1.0" encoding="UTF-8" standalone="no" ?>
<gpx xmlns="http://www.topografix.com/GPX/1/1" xmlns:xsi="http://www.w3.org/2001/XMLSchema-instance" xsi:schemaLocation="http://www.topografix.com/GPX/1/1 http://www.topografix.com/GPX/1/1/gpx.xsd" version="1.1" creator="VisuGPX - https://www.visugpx.com">
  <metadata>
    <name>Randonnée Pont de l\'Arche</name>
    <desc><![CDATA[Circuit au départ de Pont de l\'Arche dans la forêt de Bord en passant par Tostes]]></desc>
  </metadata>
  <trk>
    <name><![CDATA[Randonnée Pont de l\'Arche_1]]></name>
    <trkseg>
      <trkpt lat="49.30535" lon="1.15827">
        <ele>6.7</ele>
        <time>2015-07-02T09:23:32Z</time>
      </trkpt>
      <trkpt lat="49.30535" lon="1.15826">
        <ele>6.7</ele>
        <time>2015-07-02T09:23:37Z</time>
      </trkpt>
      <trkpt lat="49.30535" lon="1.15826">
        <ele>6.7</ele>
        <time>2015-07-02T09:23:42Z</time>
      </trkpt>
      <trkpt lat="49.30534" lon="1.15826">
        <ele>6.7</ele>
        <time>2015-07-02T09:23:47Z</time>
      </trkpt>
      <trkpt lat="49.30534" lon="1.15826">
        <ele>6.7</ele>
        <time>2015-07-02T09:23:52Z</time>
      </trkpt>
      <trkpt lat="49.30534" lon="1.15826">
        <ele>6.7</ele>
        <time>2015-07-02T09:23:57Z</time>
      </trkpt>
      <trkpt lat="49.30533" lon="1.15827">
        <ele>6.7</ele>
        <time>2015-07-02T09:24:02Z</time>
      </trkpt>
      <trkpt lat="49.30534" lon="1.15828">
        <ele>6.7</ele>
        <time>2015-07-02T09:24:07Z</time>
      </trkpt>
      <trkpt lat="49.30534" lon="1.15827">
        <ele>6.7</ele>
        <time>2015-07-02T09:24:12Z</time>
      </trkpt>
      <trkpt lat="49.30532" lon="1.15827">
        <ele>6.7</ele>
        <time>2015-07-02T09:24:17Z</time>
      </trkpt>
      <trkpt lat="49.30532" lon="1.15826">
        <ele>6.7</ele>
        <time>2015-07-02T09:24:22Z</time>
      </trkpt>
      <trkpt lat="49.30532" lon="1.15826">
        <ele>6.7</ele>
        <time>2015-07-02T09:24:27Z</time>
      </trkpt>
      <trkpt lat="49.30534" lon="1.15826">
        <ele>7.19048</ele>
        <time>2015-07-02T09:24:32Z</time>
      </trkpt>
      <trkpt lat="49.30534" lon="1.15824">
        <ele>7.19048</ele>
        <time>2015-07-02T09:24:37Z</time>
      </trkpt>
      <trkpt lat="49.30533" lon="1.15823">
        <ele>7.19048</ele>
        <time>2015-07-02T09:24:42Z</time>
      </trkpt>
      <trkpt lat="49.30531" lon="1.15823">
        <ele>7.19048</ele>
        <time>2015-07-02T09:24:47Z</time>
      </trkpt>
      <trkpt lat="49.3053" lon="1.15823">
        <ele>7.19048</ele>
        <time>2015-07-02T09:24:52Z</time>
      </trkpt>
      <trkpt lat="49.30528" lon="1.15823">
        <ele>7.19048</ele>
        <time>2015-07-02T09:24:57Z</time>
      </trkpt>
      <trkpt lat="49.30529" lon="1.15824">
        <ele>7.19048</ele>
        <time>2015-07-02T09:25:02Z</time>
      </trkpt>
      <trkpt lat="49.30533" lon="1.15822">
        <ele>6.932147</ele>
        <time>2015-07-02T09:25:07Z</time>
      </trkpt>
      <trkpt lat="49.30537" lon="1.1582">
        <ele>6.932147</ele>
        <time>2015-07-02T09:25:12Z</time>
      </trkpt>
      <trkpt lat="49.30536" lon="1.15819">
        <ele>6.932147</ele>
        <time>2015-07-02T09:25:17Z</time>
      </trkpt>
      <trkpt lat="49.30537" lon="1.15818">
        <ele>6.932147</ele>
        <time>2015-07-02T09:25:22Z</time>
      </trkpt>
      <trkpt lat="49.30537" lon="1.15817">
        <ele>6.932147</ele>
        <time>2015-07-02T09:25:27Z</time>
      </trkpt>
      <trkpt lat="49.30537" lon="1.15816">
        <ele>6.932147</ele>
        <time>2015-07-02T09:25:32Z</time>
      </trkpt>
      <trkpt lat="49.30539" lon="1.15815">
        <ele>6.932147</ele>
        <time>2015-07-02T09:25:37Z</time>
      </trkpt>
      <trkpt lat="49.30538" lon="1.15815">
        <ele>6.026937</ele>
        <time>2015-07-02T09:25:42Z</time>
      </trkpt>
      <trkpt lat="49.30538" lon="1.15817">
        <ele>6.026937</ele>
        <time>2015-07-02T09:25:47Z</time>
      </trkpt>
      <trkpt lat="49.30537" lon="1.15819">
        <ele>6.026937</ele>
        <time>2015-07-02T09:25:52Z</time>
      </trkpt>
      <trkpt lat="49.30535" lon="1.15822">
        <ele>6.026937</ele>
        <time>2015-07-02T09:25:57Z</time>
      </trkpt>
      <trkpt lat="49.30534" lon="1.15823">
        <ele>6.026937</ele>
        <time>2015-07-02T09:26:02Z</time>
      </trkpt>
      <trkpt lat="49.30535" lon="1.15824">
        <ele>6.026937</ele>
        <time>2015-07-02T09:26:07Z</time>
      </trkpt>
      <trkpt lat="49.30534" lon="1.15824">
        <ele>6.026937</ele>
        <time>2015-07-02T09:26:12Z</time>
      </trkpt>
      <trkpt lat="49.30533" lon="1.15825">
        <ele>6.026937</ele>
        <time>2015-07-02T09:26:17Z</time>
      </trkpt>
      <trkpt lat="49.30531" lon="1.15827">
        <ele>6.707116</ele>
        <time>2015-07-02T09:26:22Z</time>
      </trkpt>
      <trkpt lat="49.3053" lon="1.15828">
        <ele>6.707116</ele>
        <time>2015-07-02T09:26:27Z</time>
      </trkpt>
      <trkpt lat="49.3053" lon="1.15828">
        <ele>6.707116</ele>
        <time>2015-07-02T09:26:32Z</time>
      </trkpt>
      <trkpt lat="49.30529" lon="1.15829">
        <ele>6.707116</ele>
        <time>2015-07-02T09:26:37Z</time>
      </trkpt>
      <trkpt lat="49.30529" lon="1.15829">
        <ele>6.707116</ele>
        <time>2015-07-02T09:26:42Z</time>
      </trkpt>
      <trkpt lat="49.30528" lon="1.15828">
        <ele>6.707116</ele>
        <time>2015-07-02T09:26:47Z</time>
      </trkpt>
      <trkpt lat="49.30525" lon="1.15827">
        <ele>6.707116</ele>
        <time>2015-07-02T09:26:52Z</time>
      </trkpt>
      <trkpt lat="49.30524" lon="1.15827">
        <ele>6.707116</ele>
        <time>2015-07-02T09:26:57Z</time>
      </trkpt>
      <trkpt lat="49.30525" lon="1.15827">
        <ele>6.707116</ele>
        <time>2015-07-02T09:27:02Z</time>
      </trkpt>
      <trkpt lat="49.30526" lon="1.15828">
        <ele>7.042907</ele>
        <time>2015-07-02T09:27:07Z</time>
      </trkpt>
      <trkpt lat="49.30529" lon="1.15828">
        <ele>7.042907</ele>
        <time>2015-07-02T09:27:12Z</time>
      </trkpt>
      <trkpt lat="49.3053" lon="1.15829">
        <ele>7.042907</ele>
        <time>2015-07-02T09:27:17Z</time>
      </trkpt>
      <trkpt lat="49.30532" lon="1.15828">
        <ele>7.042907</ele>
        <time>2015-07-02T09:27:22Z</time>
      </trkpt>
      <trkpt lat="49.30533" lon="1.15827">
        <ele>7.042907</ele>
        <time>2015-07-02T09:27:27Z</time>
      </trkpt>
      <trkpt lat="49.30532" lon="1.15827">
        <ele>7.042907</ele>
        <time>2015-07-02T09:27:32Z</time>
      </trkpt>
      <trkpt lat="49.30537" lon="1.15827">
        <ele>7.2551727</ele>
        <time>2015-07-02T09:27:37Z</time>
      </trkpt>
      <trkpt lat="49.3054" lon="1.15831">
        <ele>7.2551727</ele>
        <time>2015-07-02T09:27:42Z</time>
      </trkpt>
      <trkpt lat="49.30539" lon="1.15832">
        <ele>7.2551727</ele>
        <time>2015-07-02T09:27:47Z</time>
      </trkpt>
      <trkpt lat="49.30538" lon="1.15831">
        <ele>7.2551727</ele>
        <time>2015-07-02T09:27:52Z</time>
      </trkpt>
      <trkpt lat="49.30538" lon="1.1583">
        <ele>7.2551727</ele>
        <time>2015-07-02T09:27:57Z</time>
      </trkpt>
      <trkpt lat="49.30536" lon="1.15831">
        <ele>7.587177</ele>
        <time>2015-07-02T09:28:02Z</time>
      </trkpt>
      <trkpt lat="49.30535" lon="1.15831">
        <ele>7.587177</ele>
        <time>2015-07-02T09:28:07Z</time>
      </trkpt>
      <trkpt lat="49.30534" lon="1.15832">
        <ele>7.587177</ele>
        <time>2015-07-02T09:28:12Z</time>
      </trkpt>
      <trkpt lat="49.30535" lon="1.15834">
        <ele>7.587177</ele>
        <time>2015-07-02T09:28:17Z</time>
      </trkpt>
      <trkpt lat="49.30536" lon="1.15833">
        <ele>7.587177</ele>
        <time>2015-07-02T09:28:22Z</time>
      </trkpt>
      <trkpt lat="49.30539" lon="1.15832">
        <ele>7.587177</ele>
        <time>2015-07-02T09:28:27Z</time>
      </trkpt>
      <trkpt lat="49.30542" lon="1.1583">
        <ele>8.140197</ele>
        <time>2015-07-02T09:28:32Z</time>
      </trkpt>
      <trkpt lat="49.30546" lon="1.1582">
        <ele>8.140197</ele>
        <time>2015-07-02T09:28:37Z</time>
      </trkpt>
      <trkpt lat="49.30545" lon="1.15805">
        <ele>8.63777</ele>
        <time>2015-07-02T09:28:42Z</time>
      </trkpt>
      <trkpt lat="49.30546" lon="1.15797">
        <ele>8.63777</ele>
        <time>2015-07-02T09:28:47Z</time>
      </trkpt>
      <trkpt lat="49.30549" lon="1.1579">
        <ele>9.159077</ele>
        <time>2015-07-02T09:28:52Z</time>
      </trkpt>
      <trkpt lat="49.30552" lon="1.15782">
        <ele>9.159077</ele>
        <time>2015-07-02T09:28:57Z</time>
      </trkpt>
      <trkpt lat="49.30553" lon="1.15771">
        <ele>9.803232</ele>
        <time>2015-07-02T09:29:02Z</time>
      </trkpt>
      <trkpt lat="49.30553" lon="1.15769">
        <ele>9.803232</ele>
        <time>2015-07-02T09:29:07Z</time>
      </trkpt>
      <trkpt lat="49.30554" lon="1.15769">
        <ele>9.803232</ele>
        <time>2015-07-02T09:29:12Z</time>
      </trkpt>
      <trkpt lat="49.30553" lon="1.1577">
        <ele>9.803232</ele>
        <time>2015-07-02T09:29:17Z</time>
      </trkpt>
      <trkpt lat="49.30552" lon="1.1577">
        <ele>9.803232</ele>
        <time>2015-07-02T09:29:22Z</time>
      </trkpt>
      <trkpt lat="49.30551" lon="1.1577">
        <ele>9.803232</ele>
        <time>2015-07-02T09:29:27Z</time>
      </trkpt>
      <trkpt lat="49.3055" lon="1.1577">
        <ele>9.803232</ele>
        <time>2015-07-02T09:29:32Z</time>
      </trkpt>
      <trkpt lat="49.3055" lon="1.1577">
        <ele>9.803232</ele>
        <time>2015-07-02T09:29:37Z</time>
      </trkpt>
      <trkpt lat="49.30549" lon="1.15768">
        <ele>9.803232</ele>
        <time>2015-07-02T09:29:42Z</time>
      </trkpt>
      <trkpt lat="49.30548" lon="1.15769">
        <ele>10.241655</ele>
        <time>2015-07-02T09:29:47Z</time>
      </trkpt>
      <trkpt lat="49.30548" lon="1.1577">
        <ele>10.241655</ele>
        <time>2015-07-02T09:29:52Z</time>
      </trkpt>
      <trkpt lat="49.30547" lon="1.15771">
        <ele>10.241655</ele>
        <time>2015-07-02T09:29:57Z</time>
      </trkpt>
      <trkpt lat="49.30546" lon="1.1577">
        <ele>10.241655</ele>
        <time>2015-07-02T09:30:02Z</time>
      </trkpt>
      <trkpt lat="49.30546" lon="1.15769">
        <ele>10.241655</ele>
        <time>2015-07-02T09:30:07Z</time>
      </trkpt>
      <trkpt lat="49.30545" lon="1.15768">
        <ele>10.241655</ele>
        <time>2015-07-02T09:30:12Z</time>
      </trkpt>
      <trkpt lat="49.30547" lon="1.15763">
        <ele>10.241655</ele>
        <time>2015-07-02T09:30:17Z</time>
      </trkpt>
      <trkpt lat="49.3055" lon="1.15751">
        <ele>10.439072</ele>
        <time>2015-07-02T09:30:22Z</time>
      </trkpt>
      <trkpt lat="49.30552" lon="1.1574">
        <ele>10.439072</ele>
        <time>2015-07-02T09:30:27Z</time>
      </trkpt>
      <trkpt lat="49.30558" lon="1.15742">
        <ele>10.516019</ele>
        <time>2015-07-02T09:30:32Z</time>
      </trkpt>
      <trkpt lat="49.30563" lon="1.15748">
        <ele>10.516019</ele>
        <time>2015-07-02T09:30:37Z</time>
      </trkpt>
      <trkpt lat="49.30572" lon="1.15751">
        <ele>10.667691</ele>
        <time>2015-07-02T09:30:42Z</time>
      </trkpt>
      <trkpt lat="49.30581" lon="1.15757">
        <ele>10.887906</ele>
        <time>2015-07-02T09:30:47Z</time>
      </trkpt>
      <trkpt lat="49.30586" lon="1.1576">
        <ele>10.887906</ele>
        <time>2015-07-02T09:30:52Z</time>
      </trkpt>
      <trkpt lat="49.30591" lon="1.15759">
        <ele>11.251476</ele>
        <time>2015-07-02T09:30:57Z</time>
      </trkpt>
      <trkpt lat="49.30596" lon="1.15754">
        <ele>11.251476</ele>
        <time>2015-07-02T09:31:02Z</time>
      </trkpt>
      <trkpt lat="49.30597" lon="1.15754">
        <ele>11.251476</ele>
        <time>2015-07-02T09:31:07Z</time>
      </trkpt>
      <trkpt lat="49.30598" lon="1.15749">
        <ele>11.596783</ele>
        <time>2015-07-02T09:31:12Z</time>
      </trkpt>
      <trkpt lat="49.30599" lon="1.15737">
        <ele>11.596783</ele>
        <time>2015-07-02T09:31:17Z</time>
      </trkpt>
      <trkpt lat="49.306" lon="1.15725">
        <ele>11.781829</ele>
        <time>2015-07-02T09:31:22Z</time>
      </trkpt>
      <trkpt lat="49.30603" lon="1.15715">
        <ele>11.781829</ele>
        <time>2015-07-02T09:31:27Z</time>
      </trkpt>
      <trkpt lat="49.30605" lon="1.15709">
        <ele>11.856519</ele>
        <time>2015-07-02T09:31:32Z</time>
      </trkpt>
      <trkpt lat="49.30607" lon="1.15698">
        <ele>11.856519</ele>
        <time>2015-07-02T09:31:37Z</time>
      </trkpt>
      <trkpt lat="49.30608" lon="1.1569">
        <ele>11.834307</ele>
        <time>2015-07-02T09:31:42Z</time>
      </trkpt>
      <trkpt lat="49.3061" lon="1.1568">
        <ele>11.834307</ele>
        <time>2015-07-02T09:31:47Z</time>
      </trkpt>
      <trkpt lat="49.30612" lon="1.15671">
        <ele>11.681623</ele>
        <time>2015-07-02T09:31:52Z</time>
      </trkpt>
      <trkpt lat="49.30614" lon="1.1566">
        <ele>11.681623</ele>
        <time>2015-07-02T09:31:57Z</time>
      </trkpt>
      <trkpt lat="49.30617" lon="1.15652">
        <ele>11.51924</ele>
        <time>2015-07-02T09:32:02Z</time>
      </trkpt>
      <trkpt lat="49.30619" lon="1.15646">
        <ele>11.51924</ele>
        <time>2015-07-02T09:32:07Z</time>
      </trkpt>
      <trkpt lat="49.30621" lon="1.15639">
        <ele>11.452379</ele>
        <time>2015-07-02T09:32:12Z</time>
      </trkpt>
      <trkpt lat="49.30623" lon="1.15627">
        <ele>11.452379</ele>
        <time>2015-07-02T09:32:17Z</time>
      </trkpt>
      <trkpt lat="49.30624" lon="1.1562">
        <ele>11.398148</ele>
        <time>2015-07-02T09:32:22Z</time>
      </trkpt>
      <trkpt lat="49.30625" lon="1.15609">
        <ele>11.398148</ele>
        <time>2015-07-02T09:32:27Z</time>
      </trkpt>
      <trkpt lat="49.30625" lon="1.15603">
        <ele>11.355422</ele>
        <time>2015-07-02T09:32:32Z</time>
      </trkpt>
      <trkpt lat="49.30624" lon="1.15599">
        <ele>11.355422</ele>
        <time>2015-07-02T09:32:37Z</time>
      </trkpt>
      <trkpt lat="49.30625" lon="1.15594">
        <ele>11.355422</ele>
        <time>2015-07-02T09:32:42Z</time>
      </trkpt>
      <trkpt lat="49.30626" lon="1.15583">
        <ele>11.194962</ele>
        <time>2015-07-02T09:32:47Z</time>
      </trkpt>
      <trkpt lat="49.30628" lon="1.15572">
        <ele>11.194962</ele>
        <time>2015-07-02T09:32:52Z</time>
      </trkpt>
      <trkpt lat="49.30631" lon="1.15563">
        <ele>11.069397</ele>
        <time>2015-07-02T09:32:57Z</time>
      </trkpt>
      <trkpt lat="49.30633" lon="1.15557">
        <ele>11.069397</ele>
        <time>2015-07-02T09:33:02Z</time>
      </trkpt>
      <trkpt lat="49.30638" lon="1.15545">
        <ele>10.947536</ele>
        <time>2015-07-02T09:33:07Z</time>
      </trkpt>
      <trkpt lat="49.30641" lon="1.15535">
        <ele>10.947536</ele>
        <time>2015-07-02T09:33:12Z</time>
      </trkpt>
      <trkpt lat="49.30642" lon="1.15529">
        <ele>10.759404</ele>
        <time>2015-07-02T09:33:17Z</time>
      </trkpt>
      <trkpt lat="49.30644" lon="1.1552">
        <ele>10.759404</ele>
        <time>2015-07-02T09:33:22Z</time>
      </trkpt>
      <trkpt lat="49.30647" lon="1.15512">
        <ele>10.566125</ele>
        <time>2015-07-02T09:33:27Z</time>
      </trkpt>
      <trkpt lat="49.30649" lon="1.15507">
        <ele>10.566125</ele>
        <time>2015-07-02T09:33:32Z</time>
      </trkpt>
      <trkpt lat="49.30652" lon="1.15498">
        <ele>10.437651</ele>
        <time>2015-07-02T09:33:37Z</time>
      </trkpt>
      <trkpt lat="49.30654" lon="1.15492">
        <ele>10.437651</ele>
        <time>2015-07-02T09:33:42Z</time>
      </trkpt>
      <trkpt lat="49.30656" lon="1.15483">
        <ele>10.189073</ele>
        <time>2015-07-02T09:33:47Z</time>
      </trkpt>
      <trkpt lat="49.30656" lon="1.15472">
        <ele>10.189073</ele>
        <time>2015-07-02T09:33:52Z</time>
      </trkpt>
      <trkpt lat="49.30657" lon="1.15463">
        <ele>9.94032</ele>
        <time>2015-07-02T09:33:57Z</time>
      </trkpt>
      <trkpt lat="49.30657" lon="1.15454">
        <ele>9.94032</ele>
        <time>2015-07-02T09:34:02Z</time>
      </trkpt>
      <trkpt lat="49.30656" lon="1.15448">
        <ele>9.71987</ele>
        <time>2015-07-02T09:34:07Z</time>
      </trkpt>
      <trkpt lat="49.30654" lon="1.15442">
        <ele>9.71987</ele>
        <time>2015-07-02T09:34:12Z</time>
      </trkpt>
      <trkpt lat="49.30655" lon="1.15432">
        <ele>9.568677</ele>
        <time>2015-07-02T09:34:17Z</time>
      </trkpt>
      <trkpt lat="49.30656" lon="1.15424">
        <ele>9.568677</ele>
        <time>2015-07-02T09:34:22Z</time>
      </trkpt>
      <trkpt lat="49.30654" lon="1.15414">
        <ele>9.455078</ele>
        <time>2015-07-02T09:34:27Z</time>
      </trkpt>
      <trkpt lat="49.30651" lon="1.15404">
        <ele>9.455078</ele>
        <time>2015-07-02T09:34:32Z</time>
      </trkpt>
      <trkpt lat="49.30652" lon="1.15396">
        <ele>9.349155</ele>
        <time>2015-07-02T09:34:37Z</time>
      </trkpt>
      <trkpt lat="49.3065" lon="1.15385">
        <ele>9.349155</ele>
        <time>2015-07-02T09:34:42Z</time>
      </trkpt>
      <trkpt lat="49.30647" lon="1.15378">
        <ele>9.336732</ele>
        <time>2015-07-02T09:34:47Z</time>
      </trkpt>
      <trkpt lat="49.30646" lon="1.15373">
        <ele>9.336732</ele>
        <time>2015-07-02T09:34:52Z</time>
      </trkpt>
      <trkpt lat="49.30647" lon="1.15364">
        <ele>9.384111</ele>
        <time>2015-07-02T09:34:57Z</time>
      </trkpt>
      <trkpt lat="49.30645" lon="1.15356">
        <ele>9.384111</ele>
        <time>2015-07-02T09:35:02Z</time>
      </trkpt>
      <trkpt lat="49.30641" lon="1.1534">
        <ele>9.444546</ele>
        <time>2015-07-02T09:35:07Z</time>
      </trkpt>
      <trkpt lat="49.3064" lon="1.15329">
        <ele>9.444546</ele>
        <time>2015-07-02T09:35:12Z</time>
      </trkpt>
      <trkpt lat="49.30639" lon="1.15325">
        <ele>9.458928</ele>
        <time>2015-07-02T09:35:17Z</time>
      </trkpt>
      <trkpt lat="49.30639" lon="1.15318">
        <ele>9.458928</ele>
        <time>2015-07-02T09:35:22Z</time>
      </trkpt>
      <trkpt lat="49.30639" lon="1.15312">
        <ele>9.458928</ele>
        <time>2015-07-02T09:35:27Z</time>
      </trkpt>
      <trkpt lat="49.30635" lon="1.15304">
        <ele>9.415324</ele>
        <time>2015-07-02T09:35:32Z</time>
      </trkpt>
      <trkpt lat="49.30632" lon="1.15293">
        <ele>9.415324</ele>
        <time>2015-07-02T09:35:37Z</time>
      </trkpt>
      <trkpt lat="49.30629" lon="1.1528">
        <ele>9.317461</ele>
        <time>2015-07-02T09:35:42Z</time>
      </trkpt>
      <trkpt lat="49.30627" lon="1.15269">
        <ele>9.317461</ele>
        <time>2015-07-02T09:35:47Z</time>
      </trkpt>
      <trkpt lat="49.30626" lon="1.15262">
        <ele>9.198819</ele>
        <time>2015-07-02T09:35:52Z</time>
      </trkpt>
      <trkpt lat="49.30626" lon="1.15254">
        <ele>9.198819</ele>
        <time>2015-07-02T09:35:57Z</time>
      </trkpt>
      <trkpt lat="49.30625" lon="1.15247">
        <ele>9.165575</ele>
        <time>2015-07-02T09:36:02Z</time>
      </trkpt>
      <trkpt lat="49.30627" lon="1.15238">
        <ele>9.165575</ele>
        <time>2015-07-02T09:36:07Z</time>
      </trkpt>
      <trkpt lat="49.30625" lon="1.15226">
        <ele>9.242238</ele>
        <time>2015-07-02T09:36:12Z</time>
      </trkpt>
      <trkpt lat="49.30627" lon="1.15215">
        <ele>9.242238</ele>
        <time>2015-07-02T09:36:17Z</time>
      </trkpt>
      <trkpt lat="49.30627" lon="1.15206">
        <ele>9.346024</ele>
        <time>2015-07-02T09:36:22Z</time>
      </trkpt>
      <trkpt lat="49.30627" lon="1.152">
        <ele>9.346024</ele>
        <time>2015-07-02T09:36:27Z</time>
      </trkpt>
      <trkpt lat="49.30628" lon="1.15193">
        <ele>9.459497</ele>
        <time>2015-07-02T09:36:32Z</time>
      </trkpt>
      <trkpt lat="49.30629" lon="1.15181">
        <ele>9.459497</ele>
        <time>2015-07-02T09:36:37Z</time>
      </trkpt>
      <trkpt lat="49.30629" lon="1.15167">
        <ele>9.641713</ele>
        <time>2015-07-02T09:36:42Z</time>
      </trkpt>
      <trkpt lat="49.30629" lon="1.15159">
        <ele>9.641713</ele>
        <time>2015-07-02T09:36:47Z</time>
      </trkpt>
      <trkpt lat="49.3063" lon="1.15153">
        <ele>9.841575</ele>
        <time>2015-07-02T09:36:52Z</time>
      </trkpt>
      <trkpt lat="49.30631" lon="1.15145">
        <ele>9.841575</ele>
        <time>2015-07-02T09:36:57Z</time>
      </trkpt>
      <trkpt lat="49.30632" lon="1.15137">
        <ele>10.192784</ele>
        <time>2015-07-02T09:37:02Z</time>
      </trkpt>
      <trkpt lat="49.30632" lon="1.15133">
        <ele>10.192784</ele>
        <time>2015-07-02T09:37:07Z</time>
      </trkpt>
      <trkpt lat="49.3063" lon="1.15135">
        <ele>10.192784</ele>
        <time>2015-07-02T09:37:12Z</time>
      </trkpt>
      <trkpt lat="49.3063" lon="1.15135">
        <ele>10.192784</ele>
        <time>2015-07-02T09:37:17Z</time>
      </trkpt>
      <trkpt lat="49.30633" lon="1.15128">
        <ele>10.425769</ele>
        <time>2015-07-02T09:37:22Z</time>
      </trkpt>
      <trkpt lat="49.30634" lon="1.15118">
        <ele>10.425769</ele>
        <time>2015-07-02T09:37:27Z</time>
      </trkpt>
      <trkpt lat="49.30638" lon="1.15106">
        <ele>10.578975</ele>
        <time>2015-07-02T09:37:32Z</time>
      </trkpt>
      <trkpt lat="49.30639" lon="1.15101">
        <ele>10.578975</ele>
        <time>2015-07-02T09:37:37Z</time>
      </trkpt>
      <trkpt lat="49.30641" lon="1.15093">
        <ele>10.578975</ele>
        <time>2015-07-02T09:37:42Z</time>
      </trkpt>
      <trkpt lat="49.30643" lon="1.15086">
        <ele>10.432044</ele>
        <time>2015-07-02T09:37:47Z</time>
      </trkpt>
      <trkpt lat="49.30644" lon="1.15083">
        <ele>10.432044</ele>
        <time>2015-07-02T09:37:52Z</time>
      </trkpt>
      <trkpt lat="49.30643" lon="1.15077">
        <ele>10.432044</ele>
        <time>2015-07-02T09:37:57Z</time>
      </trkpt>
      <trkpt lat="49.30644" lon="1.15073">
        <ele>10.432044</ele>
        <time>2015-07-02T09:38:02Z</time>
      </trkpt>
      <trkpt lat="49.30645" lon="1.15064">
        <ele>10.385753</ele>
        <time>2015-07-02T09:38:07Z</time>
      </trkpt>
      <trkpt lat="49.30644" lon="1.15061">
        <ele>10.385753</ele>
        <time>2015-07-02T09:38:12Z</time>
      </trkpt>
      <trkpt lat="49.30643" lon="1.15057">
        <ele>10.385753</ele>
        <time>2015-07-02T09:38:17Z</time>
      </trkpt>
      <trkpt lat="49.30643" lon="1.15061">
        <ele>10.385753</ele>
        <time>2015-07-02T09:38:22Z</time>
      </trkpt>
      <trkpt lat="49.30643" lon="1.15063">
        <ele>10.385753</ele>
        <time>2015-07-02T09:38:27Z</time>
      </trkpt>
      <trkpt lat="49.30643" lon="1.15064">
        <ele>10.327042</ele>
        <time>2015-07-02T09:38:32Z</time>
      </trkpt>
      <trkpt lat="49.30644" lon="1.15069">
        <ele>10.327042</ele>
        <time>2015-07-02T09:38:37Z</time>
      </trkpt>
      <trkpt lat="49.30643" lon="1.15074">
        <ele>10.327042</ele>
        <time>2015-07-02T09:38:42Z</time>
      </trkpt>
      <trkpt lat="49.30643" lon="1.15078">
        <ele>10.272154</ele>
        <time>2015-07-02T09:38:47Z</time>
      </trkpt>
      <trkpt lat="49.3064" lon="1.15087">
        <ele>10.272154</ele>
        <time>2015-07-02T09:38:52Z</time>
      </trkpt>
      <trkpt lat="49.30636" lon="1.15098">
        <ele>10.20603</ele>
        <time>2015-07-02T09:38:57Z</time>
      </trkpt>
      <trkpt lat="49.30634" lon="1.15108">
        <ele>10.20603</ele>
        <time>2015-07-02T09:39:02Z</time>
      </trkpt>
      <trkpt lat="49.30633" lon="1.15114">
        <ele>10.129828</ele>
        <time>2015-07-02T09:39:07Z</time>
      </trkpt>
      <trkpt lat="49.30629" lon="1.15126">
        <ele>10.129828</ele>
        <time>2015-07-02T09:39:12Z</time>
      </trkpt>
      <trkpt lat="49.30628" lon="1.15132">
        <ele>10.029737</ele>
        <time>2015-07-02T09:39:17Z</time>
      </trkpt>
      <trkpt lat="49.30628" lon="1.15126">
        <ele>10.029737</ele>
        <time>2015-07-02T09:39:22Z</time>
      </trkpt>
      <trkpt lat="49.30628" lon="1.15114">
        <ele>9.9080305</ele>
        <time>2015-07-02T09:39:27Z</time>
      </trkpt>
      <trkpt lat="49.30627" lon="1.15109">
        <ele>9.9080305</ele>
        <time>2015-07-02T09:39:32Z</time>
      </trkpt>
      <trkpt lat="49.30625" lon="1.15103">
        <ele>9.9080305</ele>
        <time>2015-07-02T09:39:37Z</time>
      </trkpt>
      <trkpt lat="49.30625" lon="1.15093">
        <ele>9.885395</ele>
        <time>2015-07-02T09:39:42Z</time>
      </trkpt>
      <trkpt lat="49.30627" lon="1.15084">
        <ele>9.885395</ele>
        <time>2015-07-02T09:39:47Z</time>
      </trkpt>
      <trkpt lat="49.30629" lon="1.15073">
        <ele>9.998173</ele>
        <time>2015-07-02T09:39:52Z</time>
      </trkpt>
      <trkpt lat="49.3063" lon="1.15065">
        <ele>9.998173</ele>
        <time>2015-07-02T09:39:57Z</time>
      </trkpt>
      <trkpt lat="49.30629" lon="1.15058">
        <ele>10.176075</ele>
        <time>2015-07-02T09:40:02Z</time>
      </trkpt>
      <trkpt lat="49.30631" lon="1.15047">
        <ele>10.176075</ele>
        <time>2015-07-02T09:40:07Z</time>
      </trkpt>
      <trkpt lat="49.30631" lon="1.15037">
        <ele>10.398665</ele>
        <time>2015-07-02T09:40:12Z</time>
      </trkpt>
      <trkpt lat="49.30632" lon="1.15027">
        <ele>10.398665</ele>
        <time>2015-07-02T09:40:17Z</time>
      </trkpt>
      <trkpt lat="49.30632" lon="1.15018">
        <ele>10.661787</ele>
        <time>2015-07-02T09:40:22Z</time>
      </trkpt>
      <trkpt lat="49.30632" lon="1.15008">
        <ele>10.661787</ele>
        <time>2015-07-02T09:40:27Z</time>
      </trkpt>
      <trkpt lat="49.30632" lon="1.15002">
        <ele>10.96154</ele>
        <time>2015-07-02T09:40:32Z</time>
      </trkpt>
      <trkpt lat="49.30636" lon="1.14993">
        <ele>10.96154</ele>
        <time>2015-07-02T09:40:37Z</time>
      </trkpt>
      <trkpt lat="49.30635" lon="1.14981">
        <ele>11.352742</ele>
        <time>2015-07-02T09:40:42Z</time>
      </trkpt>
      <trkpt lat="49.30635" lon="1.1497">
        <ele>11.352742</ele>
        <time>2015-07-02T09:40:47Z</time>
      </trkpt>
      <trkpt lat="49.30636" lon="1.14962">
        <ele>11.885549</ele>
        <time>2015-07-02T09:40:52Z</time>
      </trkpt>
      <trkpt lat="49.30637" lon="1.14953">
        <ele>11.885549</ele>
        <time>2015-07-02T09:40:57Z</time>
      </trkpt>
      <trkpt lat="49.30638" lon="1.14944">
        <ele>12.48924</ele>
        <time>2015-07-02T09:41:02Z</time>
      </trkpt>
      <trkpt lat="49.30639" lon="1.14934">
        <ele>12.48924</ele>
        <time>2015-07-02T09:41:07Z</time>
      </trkpt>
      <trkpt lat="49.30641" lon="1.14923">
        <ele>13.127714</ele>
        <time>2015-07-02T09:41:12Z</time>
      </trkpt>
      <trkpt lat="49.30642" lon="1.14913">
        <ele>13.127714</ele>
        <time>2015-07-02T09:41:17Z</time>
      </trkpt>
      <trkpt lat="49.30643" lon="1.14903">
        <ele>13.912895</ele>
        <time>2015-07-02T09:41:22Z</time>
      </trkpt>
      <trkpt lat="49.30641" lon="1.14897">
        <ele>13.912895</ele>
        <time>2015-07-02T09:41:27Z</time>
      </trkpt>
      <trkpt lat="49.30639" lon="1.14888">
        <ele>14.759009</ele>
        <time>2015-07-02T09:41:32Z</time>
      </trkpt>
      <trkpt lat="49.30637" lon="1.14875">
        <ele>14.759009</ele>
        <time>2015-07-02T09:41:37Z</time>
      </trkpt>
      <trkpt lat="49.30635" lon="1.14868">
        <ele>15.630346</ele>
        <time>2015-07-02T09:41:42Z</time>
      </trkpt>
      <trkpt lat="49.30633" lon="1.14857">
        <ele>15.630346</ele>
        <time>2015-07-02T09:41:47Z</time>
      </trkpt>
      <trkpt lat="49.30631" lon="1.14847">
        <ele>16.464977</ele>
        <time>2015-07-02T09:41:52Z</time>
      </trkpt>
      <trkpt lat="49.30627" lon="1.14838">
        <ele>16.464977</ele>
        <time>2015-07-02T09:41:57Z</time>
      </trkpt>
      <trkpt lat="49.30625" lon="1.14829">
        <ele>17.176918</ele>
        <time>2015-07-02T09:42:02Z</time>
      </trkpt>
      <trkpt lat="49.30623" lon="1.1482">
        <ele>17.176918</ele>
        <time>2015-07-02T09:42:07Z</time>
      </trkpt>
      <trkpt lat="49.30623" lon="1.14812">
        <ele>17.802681</ele>
        <time>2015-07-02T09:42:12Z</time>
      </trkpt>
      <trkpt lat="49.30622" lon="1.14802">
        <ele>17.802681</ele>
        <time>2015-07-02T09:42:17Z</time>
      </trkpt>
      <trkpt lat="49.30621" lon="1.14792">
        <ele>18.390652</ele>
        <time>2015-07-02T09:42:22Z</time>
      </trkpt>
      <trkpt lat="49.30619" lon="1.14783">
        <ele>18.390652</ele>
        <time>2015-07-02T09:42:27Z</time>
      </trkpt>
      <trkpt lat="49.30618" lon="1.14772">
        <ele>18.884615</ele>
        <time>2015-07-02T09:42:32Z</time>
      </trkpt>
      <trkpt lat="49.30617" lon="1.14765">
        <ele>18.884615</ele>
        <time>2015-07-02T09:42:37Z</time>
      </trkpt>
      <trkpt lat="49.30615" lon="1.14754">
        <ele>19.333855</ele>
        <time>2015-07-02T09:42:42Z</time>
      </trkpt>
      <trkpt lat="49.30614" lon="1.14746">
        <ele>19.333855</ele>
        <time>2015-07-02T09:42:47Z</time>
      </trkpt>
      <trkpt lat="49.30612" lon="1.14738">
        <ele>19.683126</ele>
        <time>2015-07-02T09:42:52Z</time>
      </trkpt>
      <trkpt lat="49.30611" lon="1.14728">
        <ele>19.683126</ele>
        <time>2015-07-02T09:42:57Z</time>
      </trkpt>
      <trkpt lat="49.3061" lon="1.14718">
        <ele>19.896017</ele>
        <time>2015-07-02T09:43:02Z</time>
      </trkpt>
      <trkpt lat="49.30609" lon="1.14711">
        <ele>19.896017</ele>
        <time>2015-07-02T09:43:07Z</time>
      </trkpt>
      <trkpt lat="49.30606" lon="1.14703">
        <ele>20.112242</ele>
        <time>2015-07-02T09:43:12Z</time>
      </trkpt>
      <trkpt lat="49.30602" lon="1.14694">
        <ele>20.112242</ele>
        <time>2015-07-02T09:43:17Z</time>
      </trkpt>
      <trkpt lat="49.30597" lon="1.14689">
        <ele>20.302595</ele>
        <time>2015-07-02T09:43:22Z</time>
      </trkpt>
      <trkpt lat="49.3059" lon="1.14683">
        <ele>20.302595</ele>
        <time>2015-07-02T09:43:27Z</time>
      </trkpt>
      <trkpt lat="49.30583" lon="1.14681">
        <ele>20.541058</ele>
        <time>2015-07-02T09:43:32Z</time>
      </trkpt>
      <trkpt lat="49.30576" lon="1.14681">
        <ele>20.541058</ele>
        <time>2015-07-02T09:43:37Z</time>
      </trkpt>
      <trkpt lat="49.30568" lon="1.1468">
        <ele>20.852816</ele>
        <time>2015-07-02T09:43:42Z</time>
      </trkpt>
      <trkpt lat="49.30562" lon="1.1468">
        <ele>20.852816</ele>
        <time>2015-07-02T09:43:47Z</time>
      </trkpt>
      <trkpt lat="49.30555" lon="1.14676">
        <ele>21.289871</ele>
        <time>2015-07-02T09:43:52Z</time>
      </trkpt>
      <trkpt lat="49.3055" lon="1.14674">
        <ele>21.289871</ele>
        <time>2015-07-02T09:43:57Z</time>
      </trkpt>
      <trkpt lat="49.30545" lon="1.14673">
        <ele>21.828009</ele>
        <time>2015-07-02T09:44:02Z</time>
      </trkpt>
      <trkpt lat="49.30539" lon="1.14672">
        <ele>21.828009</ele>
        <time>2015-07-02T09:44:07Z</time>
      </trkpt>
      <trkpt lat="49.30532" lon="1.1467">
        <ele>22.430124</ele>
        <time>2015-07-02T09:44:12Z</time>
      </trkpt>
      <trkpt lat="49.30528" lon="1.14665">
        <ele>22.430124</ele>
        <time>2015-07-02T09:44:17Z</time>
      </trkpt>
      <trkpt lat="49.30521" lon="1.14659">
        <ele>23.104944</ele>
        <time>2015-07-02T09:44:22Z</time>
      </trkpt>
      <trkpt lat="49.30515" lon="1.14658">
        <ele>23.104944</ele>
        <time>2015-07-02T09:44:27Z</time>
      </trkpt>
      <trkpt lat="49.30508" lon="1.1466">
        <ele>23.817123</ele>
        <time>2015-07-02T09:44:32Z</time>
      </trkpt>
      <trkpt lat="49.30502" lon="1.1466">
        <ele>23.817123</ele>
        <time>2015-07-02T09:44:37Z</time>
      </trkpt>
      <trkpt lat="49.30496" lon="1.14657">
        <ele>24.53383</ele>
        <time>2015-07-02T09:44:42Z</time>
      </trkpt>
      <trkpt lat="49.30491" lon="1.14655">
        <ele>24.53383</ele>
        <time>2015-07-02T09:44:47Z</time>
      </trkpt>
      <trkpt lat="49.30485" lon="1.1465">
        <ele>25.267927</ele>
        <time>2015-07-02T09:44:52Z</time>
      </trkpt>
      <trkpt lat="49.30479" lon="1.14644">
        <ele>25.267927</ele>
        <time>2015-07-02T09:44:57Z</time>
      </trkpt>
      <trkpt lat="49.30472" lon="1.14639">
        <ele>25.959204</ele>
        <time>2015-07-02T09:45:02Z</time>
      </trkpt>
      <trkpt lat="49.30466" lon="1.14635">
        <ele>25.959204</ele>
        <time>2015-07-02T09:45:07Z</time>
      </trkpt>
      <trkpt lat="49.3046" lon="1.14632">
        <ele>26.609713</ele>
        <time>2015-07-02T09:45:12Z</time>
      </trkpt>
      <trkpt lat="49.30455" lon="1.14625">
        <ele>26.609713</ele>
        <time>2015-07-02T09:45:17Z</time>
      </trkpt>
      <trkpt lat="49.30452" lon="1.1462">
        <ele>27.149391</ele>
        <time>2015-07-02T09:45:22Z</time>
      </trkpt>
      <trkpt lat="49.30447" lon="1.14616">
        <ele>27.149391</ele>
        <time>2015-07-02T09:45:27Z</time>
      </trkpt>
      <trkpt lat="49.30441" lon="1.14611">
        <ele>27.556944</ele>
        <time>2015-07-02T09:45:32Z</time>
      </trkpt>
      <trkpt lat="49.30436" lon="1.14603">
        <ele>27.556944</ele>
        <time>2015-07-02T09:45:37Z</time>
      </trkpt>
      <trkpt lat="49.30431" lon="1.14597">
        <ele>27.841896</ele>
        <time>2015-07-02T09:45:42Z</time>
      </trkpt>
      <trkpt lat="49.30426" lon="1.1459">
        <ele>27.841896</ele>
        <time>2015-07-02T09:45:47Z</time>
      </trkpt>
      <trkpt lat="49.30421" lon="1.14582">
        <ele>28.042305</ele>
        <time>2015-07-02T09:45:52Z</time>
      </trkpt>
      <trkpt lat="49.30417" lon="1.14576">
        <ele>28.042305</ele>
        <time>2015-07-02T09:45:57Z</time>
      </trkpt>
      <trkpt lat="49.30412" lon="1.14568">
        <ele>28.136003</ele>
        <time>2015-07-02T09:46:02Z</time>
      </trkpt>
      <trkpt lat="49.30407" lon="1.14561">
        <ele>28.136003</ele>
        <time>2015-07-02T09:46:07Z</time>
      </trkpt>
      <trkpt lat="49.30401" lon="1.14556">
        <ele>28.146053</ele>
        <time>2015-07-02T09:46:12Z</time>
      </trkpt>
      <trkpt lat="49.30396" lon="1.14548">
        <ele>28.146053</ele>
        <time>2015-07-02T09:46:17Z</time>
      </trkpt>
      <trkpt lat="49.3039" lon="1.14543">
        <ele>28.094076</ele>
        <time>2015-07-02T09:46:22Z</time>
      </trkpt>
      <trkpt lat="49.30385" lon="1.14535">
        <ele>28.094076</ele>
        <time>2015-07-02T09:46:27Z</time>
      </trkpt>
      <trkpt lat="49.30381" lon="1.14529">
        <ele>28.0003</ele>
        <time>2015-07-02T09:46:32Z</time>
      </trkpt>
      <trkpt lat="49.30376" lon="1.14521">
        <ele>28.0003</ele>
        <time>2015-07-02T09:46:37Z</time>
      </trkpt>
      <trkpt lat="49.30372" lon="1.14514">
        <ele>27.898008</ele>
        <time>2015-07-02T09:46:42Z</time>
      </trkpt>
      <trkpt lat="49.30367" lon="1.14507">
        <ele>27.898008</ele>
        <time>2015-07-02T09:46:47Z</time>
      </trkpt>
      <trkpt lat="49.30362" lon="1.14502">
        <ele>27.760376</ele>
        <time>2015-07-02T09:46:52Z</time>
      </trkpt>
      <trkpt lat="49.30356" lon="1.14493">
        <ele>27.760376</ele>
        <time>2015-07-02T09:46:57Z</time>
      </trkpt>
      <trkpt lat="49.30353" lon="1.14489">
        <ele>27.663605</ele>
        <time>2015-07-02T09:47:02Z</time>
      </trkpt>
      <trkpt lat="49.30349" lon="1.14484">
        <ele>27.663605</ele>
        <time>2015-07-02T09:47:07Z</time>
      </trkpt>
      <trkpt lat="49.30345" lon="1.14478">
        <ele>27.562798</ele>
        <time>2015-07-02T09:47:12Z</time>
      </trkpt>
      <trkpt lat="49.30341" lon="1.14471">
        <ele>27.562798</ele>
        <time>2015-07-02T09:47:17Z</time>
      </trkpt>
      <trkpt lat="49.30338" lon="1.14462">
        <ele>27.401947</ele>
        <time>2015-07-02T09:47:22Z</time>
      </trkpt>
      <trkpt lat="49.30334" lon="1.14453">
        <ele>27.401947</ele>
        <time>2015-07-02T09:47:27Z</time>
      </trkpt>
      <trkpt lat="49.30331" lon="1.14445">
        <ele>27.201427</ele>
        <time>2015-07-02T09:47:32Z</time>
      </trkpt>
      <trkpt lat="49.30328" lon="1.14438">
        <ele>27.201427</ele>
        <time>2015-07-02T09:47:37Z</time>
      </trkpt>
      <trkpt lat="49.30323" lon="1.14428">
        <ele>27.009047</ele>
        <time>2015-07-02T09:47:42Z</time>
      </trkpt>
      <trkpt lat="49.30321" lon="1.14419">
        <ele>27.009047</ele>
        <time>2015-07-02T09:47:47Z</time>
      </trkpt>
      <trkpt lat="49.30319" lon="1.14411">
        <ele>26.84021</ele>
        <time>2015-07-02T09:47:52Z</time>
      </trkpt>
      <trkpt lat="49.30316" lon="1.14403">
        <ele>26.84021</ele>
        <time>2015-07-02T09:47:57Z</time>
      </trkpt>
      <trkpt lat="49.30313" lon="1.14394">
        <ele>26.68027</ele>
        <time>2015-07-02T09:48:02Z</time>
      </trkpt>
      <trkpt lat="49.30309" lon="1.14387">
        <ele>26.68027</ele>
        <time>2015-07-02T09:48:07Z</time>
      </trkpt>
      <trkpt lat="49.30305" lon="1.14378">
        <ele>26.486773</ele>
        <time>2015-07-02T09:48:12Z</time>
      </trkpt>
      <trkpt lat="49.30301" lon="1.14371">
        <ele>26.486773</ele>
        <time>2015-07-02T09:48:17Z</time>
      </trkpt>
      <trkpt lat="49.30296" lon="1.1436">
        <ele>26.263704</ele>
        <time>2015-07-02T09:48:22Z</time>
      </trkpt>
      <trkpt lat="49.30294" lon="1.14351">
        <ele>26.263704</ele>
        <time>2015-07-02T09:48:27Z</time>
      </trkpt>
      <trkpt lat="49.3029" lon="1.14344">
        <ele>26.043644</ele>
        <time>2015-07-02T09:48:32Z</time>
      </trkpt>
      <trkpt lat="49.30288" lon="1.14336">
        <ele>26.043644</ele>
        <time>2015-07-02T09:48:37Z</time>
      </trkpt>
      <trkpt lat="49.30286" lon="1.14327">
        <ele>25.871147</ele>
        <time>2015-07-02T09:48:42Z</time>
      </trkpt>
      <trkpt lat="49.30283" lon="1.14318">
        <ele>25.871147</ele>
        <time>2015-07-02T09:48:47Z</time>
      </trkpt>
      <trkpt lat="49.3028" lon="1.14308">
        <ele>25.772907</ele>
        <time>2015-07-02T09:48:52Z</time>
      </trkpt>
      <trkpt lat="49.30278" lon="1.14297">
        <ele>25.772907</ele>
        <time>2015-07-02T09:48:57Z</time>
      </trkpt>
      <trkpt lat="49.30276" lon="1.14286">
        <ele>25.773409</ele>
        <time>2015-07-02T09:49:02Z</time>
      </trkpt>
      <trkpt lat="49.30274" lon="1.14276">
        <ele>25.773409</ele>
        <time>2015-07-02T09:49:07Z</time>
      </trkpt>
      <trkpt lat="49.30273" lon="1.14266">
        <ele>25.93827</ele>
        <time>2015-07-02T09:49:12Z</time>
      </trkpt>
      <trkpt lat="49.30271" lon="1.14255">
        <ele>25.93827</ele>
        <time>2015-07-02T09:49:17Z</time>
      </trkpt>
      <trkpt lat="49.30269" lon="1.14245">
        <ele>26.22689</ele>
        <time>2015-07-02T09:49:22Z</time>
      </trkpt>
      <trkpt lat="49.30267" lon="1.14237">
        <ele>26.22689</ele>
        <time>2015-07-02T09:49:27Z</time>
      </trkpt>
      <trkpt lat="49.30265" lon="1.14226">
        <ele>26.601284</ele>
        <time>2015-07-02T09:49:32Z</time>
      </trkpt>
      <trkpt lat="49.30263" lon="1.14217">
        <ele>26.601284</ele>
        <time>2015-07-02T09:49:37Z</time>
      </trkpt>
      <trkpt lat="49.30262" lon="1.14209">
        <ele>26.925095</ele>
        <time>2015-07-02T09:49:42Z</time>
      </trkpt>
      <trkpt lat="49.30263" lon="1.14198">
        <ele>26.925095</ele>
        <time>2015-07-02T09:49:47Z</time>
      </trkpt>
      <trkpt lat="49.30262" lon="1.14189">
        <ele>27.11535</ele>
        <time>2015-07-02T09:49:52Z</time>
      </trkpt>
      <trkpt lat="49.30261" lon="1.14179">
        <ele>27.11535</ele>
        <time>2015-07-02T09:49:57Z</time>
      </trkpt>
      <trkpt lat="49.30259" lon="1.14169">
        <ele>27.268463</ele>
        <time>2015-07-02T09:50:02Z</time>
      </trkpt>
      <trkpt lat="49.30258" lon="1.14159">
        <ele>27.268463</ele>
        <time>2015-07-02T09:50:07Z</time>
      </trkpt>
      <trkpt lat="49.30256" lon="1.14149">
        <ele>27.416191</ele>
        <time>2015-07-02T09:50:12Z</time>
      </trkpt>
      <trkpt lat="49.30255" lon="1.14141">
        <ele>27.416191</ele>
        <time>2015-07-02T09:50:17Z</time>
      </trkpt>
      <trkpt lat="49.30253" lon="1.14131">
        <ele>27.559128</ele>
        <time>2015-07-02T09:50:22Z</time>
      </trkpt>
      <trkpt lat="49.30253" lon="1.1412">
        <ele>27.559128</ele>
        <time>2015-07-02T09:50:27Z</time>
      </trkpt>
      <trkpt lat="49.30252" lon="1.14112">
        <ele>27.712229</ele>
        <time>2015-07-02T09:50:32Z</time>
      </trkpt>
      <trkpt lat="49.3025" lon="1.14102">
        <ele>27.712229</ele>
        <time>2015-07-02T09:50:37Z</time>
      </trkpt>
      <trkpt lat="49.30248" lon="1.1409">
        <ele>27.918121</ele>
        <time>2015-07-02T09:50:42Z</time>
      </trkpt>
      <trkpt lat="49.30248" lon="1.14079">
        <ele>27.918121</ele>
        <time>2015-07-02T09:50:47Z</time>
      </trkpt>
      <trkpt lat="49.30247" lon="1.14069">
        <ele>28.244957</ele>
        <time>2015-07-02T09:50:52Z</time>
      </trkpt>
      <trkpt lat="49.30246" lon="1.14062">
        <ele>28.244957</ele>
        <time>2015-07-02T09:50:57Z</time>
      </trkpt>
      <trkpt lat="49.30245" lon="1.14052">
        <ele>28.56818</ele>
        <time>2015-07-02T09:51:02Z</time>
      </trkpt>
      <trkpt lat="49.30243" lon="1.14044">
        <ele>28.56818</ele>
        <time>2015-07-02T09:51:07Z</time>
      </trkpt>
      <trkpt lat="49.30241" lon="1.14035">
        <ele>28.873257</ele>
        <time>2015-07-02T09:51:12Z</time>
      </trkpt>
      <trkpt lat="49.30239" lon="1.14024">
        <ele>28.873257</ele>
        <time>2015-07-02T09:51:17Z</time>
      </trkpt>
      <trkpt lat="49.30236" lon="1.14017">
        <ele>29.103525</ele>
        <time>2015-07-02T09:51:22Z</time>
      </trkpt>
      <trkpt lat="49.30233" lon="1.1401">
        <ele>29.103525</ele>
        <time>2015-07-02T09:51:27Z</time>
      </trkpt>
      <trkpt lat="49.30231" lon="1.14001">
        <ele>29.206688</ele>
        <time>2015-07-02T09:51:32Z</time>
      </trkpt>
      <trkpt lat="49.30227" lon="1.1399">
        <ele>29.206688</ele>
        <time>2015-07-02T09:51:37Z</time>
      </trkpt>
      <trkpt lat="49.30225" lon="1.13982">
        <ele>29.206686</ele>
        <time>2015-07-02T09:51:42Z</time>
      </trkpt>
      <trkpt lat="49.30223" lon="1.13975">
        <ele>29.206686</ele>
        <time>2015-07-02T09:51:47Z</time>
      </trkpt>
      <trkpt lat="49.3022" lon="1.13964">
        <ele>29.140394</ele>
        <time>2015-07-02T09:51:52Z</time>
      </trkpt>
      <trkpt lat="49.30218" lon="1.13956">
        <ele>29.140394</ele>
        <time>2015-07-02T09:51:57Z</time>
      </trkpt>
      <trkpt lat="49.30217" lon="1.1395">
        <ele>28.984509</ele>
        <time>2015-07-02T09:52:02Z</time>
      </trkpt>
      <trkpt lat="49.30216" lon="1.1394">
        <ele>28.984509</ele>
        <time>2015-07-02T09:52:07Z</time>
      </trkpt>
      <trkpt lat="49.30214" lon="1.13929">
        <ele>28.81856</ele>
        <time>2015-07-02T09:52:12Z</time>
      </trkpt>
      <trkpt lat="49.30212" lon="1.1392">
        <ele>28.81856</ele>
        <time>2015-07-02T09:52:17Z</time>
      </trkpt>
      <trkpt lat="49.30211" lon="1.13911">
        <ele>28.600954</ele>
        <time>2015-07-02T09:52:22Z</time>
      </trkpt>
      <trkpt lat="49.3021" lon="1.13897">
        <ele>28.394167</ele>
        <time>2015-07-02T09:52:27Z</time>
      </trkpt>
      <trkpt lat="49.30211" lon="1.13891">
        <ele>28.394167</ele>
        <time>2015-07-02T09:52:32Z</time>
      </trkpt>
      <trkpt lat="49.3021" lon="1.13882">
        <ele>28.212803</ele>
        <time>2015-07-02T09:52:37Z</time>
      </trkpt>
      <trkpt lat="49.30211" lon="1.13874">
        <ele>28.212803</ele>
        <time>2015-07-02T09:52:42Z</time>
      </trkpt>
      <trkpt lat="49.30211" lon="1.13863">
        <ele>28.156773</ele>
        <time>2015-07-02T09:52:47Z</time>
      </trkpt>
      <trkpt lat="49.30211" lon="1.13856">
        <ele>28.156773</ele>
        <time>2015-07-02T09:52:52Z</time>
      </trkpt>
      <trkpt lat="49.3021" lon="1.13845">
        <ele>28.15975</ele>
        <time>2015-07-02T09:52:57Z</time>
      </trkpt>
      <trkpt lat="49.3021" lon="1.13835">
        <ele>28.15975</ele>
        <time>2015-07-02T09:53:02Z</time>
      </trkpt>
      <trkpt lat="49.30208" lon="1.13828">
        <ele>28.145685</ele>
        <time>2015-07-02T09:53:07Z</time>
      </trkpt>
      <trkpt lat="49.30204" lon="1.13821">
        <ele>28.145685</ele>
        <time>2015-07-02T09:53:12Z</time>
      </trkpt>
      <trkpt lat="49.30205" lon="1.13813">
        <ele>28.029734</ele>
        <time>2015-07-02T09:53:17Z</time>
      </trkpt>
      <trkpt lat="49.30205" lon="1.13803">
        <ele>28.029734</ele>
        <time>2015-07-02T09:53:22Z</time>
      </trkpt>
      <trkpt lat="49.30204" lon="1.13798">
        <ele>27.848837</ele>
        <time>2015-07-02T09:53:27Z</time>
      </trkpt>
      <trkpt lat="49.30204" lon="1.13789">
        <ele>27.848837</ele>
        <time>2015-07-02T09:53:32Z</time>
      </trkpt>
      <trkpt lat="49.30201" lon="1.13775">
        <ele>27.55092</ele>
        <time>2015-07-02T09:53:37Z</time>
      </trkpt>
      <trkpt lat="49.30197" lon="1.13764">
        <ele>27.55092</ele>
        <time>2015-07-02T09:53:42Z</time>
      </trkpt>
      <trkpt lat="49.30196" lon="1.13755">
        <ele>27.059216</ele>
        <time>2015-07-02T09:53:47Z</time>
      </trkpt>
      <trkpt lat="49.30195" lon="1.13746">
        <ele>27.059216</ele>
        <time>2015-07-02T09:53:52Z</time>
      </trkpt>
      <trkpt lat="49.30194" lon="1.1374">
        <ele>26.5337</ele>
        <time>2015-07-02T09:53:57Z</time>
      </trkpt>
      <trkpt lat="49.30194" lon="1.13733">
        <ele>26.5337</ele>
        <time>2015-07-02T09:54:02Z</time>
      </trkpt>
      <trkpt lat="49.30193" lon="1.13727">
        <ele>26.5337</ele>
        <time>2015-07-02T09:54:07Z</time>
      </trkpt>
      <trkpt lat="49.30193" lon="1.1372">
        <ele>26.151493</ele>
        <time>2015-07-02T09:54:12Z</time>
      </trkpt>
      <trkpt lat="49.30191" lon="1.13711">
        <ele>26.151493</ele>
        <time>2015-07-02T09:54:17Z</time>
      </trkpt>
      <trkpt lat="49.3019" lon="1.13704">
        <ele>25.960976</ele>
        <time>2015-07-02T09:54:22Z</time>
      </trkpt>
      <trkpt lat="49.30189" lon="1.13696">
        <ele>25.960976</ele>
        <time>2015-07-02T09:54:27Z</time>
      </trkpt>
      <trkpt lat="49.30188" lon="1.13688">
        <ele>25.819063</ele>
        <time>2015-07-02T09:54:32Z</time>
      </trkpt>
      <trkpt lat="49.30184" lon="1.13684">
        <ele>25.819063</ele>
        <time>2015-07-02T09:54:37Z</time>
      </trkpt>
      <trkpt lat="49.30181" lon="1.13683">
        <ele>25.819063</ele>
        <time>2015-07-02T09:54:42Z</time>
      </trkpt>
      <trkpt lat="49.30177" lon="1.1368">
        <ele>25.665071</ele>
        <time>2015-07-02T09:54:47Z</time>
      </trkpt>
      <trkpt lat="49.30169" lon="1.1368">
        <ele>25.665071</ele>
        <time>2015-07-02T09:54:52Z</time>
      </trkpt>
      <trkpt lat="49.30162" lon="1.13677">
        <ele>25.471601</ele>
        <time>2015-07-02T09:54:57Z</time>
      </trkpt>
      <trkpt lat="49.30154" lon="1.13675">
        <ele>25.471601</ele>
        <time>2015-07-02T09:55:02Z</time>
      </trkpt>
      <trkpt lat="49.30146" lon="1.13674">
        <ele>25.343054</ele>
        <time>2015-07-02T09:55:07Z</time>
      </trkpt>
      <trkpt lat="49.30139" lon="1.13675">
        <ele>25.343054</ele>
        <time>2015-07-02T09:55:12Z</time>
      </trkpt>
      <trkpt lat="49.30133" lon="1.13675">
        <ele>25.347124</ele>
        <time>2015-07-02T09:55:17Z</time>
      </trkpt>
      <trkpt lat="49.30126" lon="1.13676">
        <ele>25.347124</ele>
        <time>2015-07-02T09:55:22Z</time>
      </trkpt>
      <trkpt lat="49.3012" lon="1.13677">
        <ele>25.517315</ele>
        <time>2015-07-02T09:55:27Z</time>
      </trkpt>
      <trkpt lat="49.30115" lon="1.13676">
        <ele>25.517315</ele>
        <time>2015-07-02T09:55:32Z</time>
      </trkpt>
      <trkpt lat="49.30111" lon="1.13674">
        <ele>25.81212</ele>
        <time>2015-07-02T09:55:37Z</time>
      </trkpt>
      <trkpt lat="49.30103" lon="1.13673">
        <ele>25.81212</ele>
        <time>2015-07-02T09:55:42Z</time>
      </trkpt>
      <trkpt lat="49.30096" lon="1.13673">
        <ele>26.351238</ele>
        <time>2015-07-02T09:55:47Z</time>
      </trkpt>
      <trkpt lat="49.30089" lon="1.1367">
        <ele>26.351238</ele>
        <time>2015-07-02T09:55:52Z</time>
      </trkpt>
      <trkpt lat="49.30083" lon="1.13669">
        <ele>26.942228</ele>
        <time>2015-07-02T09:55:57Z</time>
      </trkpt>
      <trkpt lat="49.30076" lon="1.13667">
        <ele>26.942228</ele>
        <time>2015-07-02T09:56:02Z</time>
      </trkpt>
      <trkpt lat="49.30069" lon="1.13664">
        <ele>27.53634</ele>
        <time>2015-07-02T09:56:07Z</time>
      </trkpt>
      <trkpt lat="49.30062" lon="1.13661">
        <ele>27.53634</ele>
        <time>2015-07-02T09:56:12Z</time>
      </trkpt>
      <trkpt lat="49.30055" lon="1.13659">
        <ele>28.2325</ele>
        <time>2015-07-02T09:56:17Z</time>
      </trkpt>
      <trkpt lat="49.30047" lon="1.13656">
        <ele>28.2325</ele>
        <time>2015-07-02T09:56:22Z</time>
      </trkpt>
      <trkpt lat="49.30042" lon="1.13654">
        <ele>29.13649</ele>
        <time>2015-07-02T09:56:27Z</time>
      </trkpt>
      <trkpt lat="49.30038" lon="1.13654">
        <ele>29.13649</ele>
        <time>2015-07-02T09:56:32Z</time>
      </trkpt>
      <trkpt lat="49.30032" lon="1.13654">
        <ele>30.158401</ele>
        <time>2015-07-02T09:56:37Z</time>
      </trkpt>
      <trkpt lat="49.30025" lon="1.13652">
        <ele>30.158401</ele>
        <time>2015-07-02T09:56:42Z</time>
      </trkpt>
      <trkpt lat="49.30018" lon="1.13651">
        <ele>31.31549</ele>
        <time>2015-07-02T09:56:47Z</time>
      </trkpt>
      <trkpt lat="49.30012" lon="1.1365">
        <ele>31.31549</ele>
        <time>2015-07-02T09:56:52Z</time>
      </trkpt>
      <trkpt lat="49.30006" lon="1.13649">
        <ele>32.49369</ele>
        <time>2015-07-02T09:56:57Z</time>
      </trkpt>
      <trkpt lat="49.30002" lon="1.13647">
        <ele>32.49369</ele>
        <time>2015-07-02T09:57:02Z</time>
      </trkpt>
      <trkpt lat="49.29996" lon="1.13645">
        <ele>33.601696</ele>
        <time>2015-07-02T09:57:07Z</time>
      </trkpt>
      <trkpt lat="49.29991" lon="1.13645">
        <ele>33.601696</ele>
        <time>2015-07-02T09:57:12Z</time>
      </trkpt>
      <trkpt lat="49.29986" lon="1.13643">
        <ele>34.468666</ele>
        <time>2015-07-02T09:57:17Z</time>
      </trkpt>
      <trkpt lat="49.29983" lon="1.13643">
        <ele>34.468666</ele>
        <time>2015-07-02T09:57:22Z</time>
      </trkpt>
      <trkpt lat="49.29977" lon="1.13646">
        <ele>35.10997</ele>
        <time>2015-07-02T09:57:27Z</time>
      </trkpt>
      <trkpt lat="49.29972" lon="1.13651">
        <ele>35.10997</ele>
        <time>2015-07-02T09:57:32Z</time>
      </trkpt>
      <trkpt lat="49.29967" lon="1.13659">
        <ele>35.569355</ele>
        <time>2015-07-02T09:57:37Z</time>
      </trkpt>
      <trkpt lat="49.29961" lon="1.13665">
        <ele>35.569355</ele>
        <time>2015-07-02T09:57:42Z</time>
      </trkpt>
      <trkpt lat="49.29958" lon="1.13673">
        <ele>35.916714</ele>
        <time>2015-07-02T09:57:47Z</time>
      </trkpt>
      <trkpt lat="49.29954" lon="1.13681">
        <ele>35.916714</ele>
        <time>2015-07-02T09:57:52Z</time>
      </trkpt>
      <trkpt lat="49.29951" lon="1.13688">
        <ele>36.044254</ele>
        <time>2015-07-02T09:57:57Z</time>
      </trkpt>
      <trkpt lat="49.29946" lon="1.13695">
        <ele>36.044254</ele>
        <time>2015-07-02T09:58:02Z</time>
      </trkpt>
      <trkpt lat="49.29942" lon="1.13702">
        <ele>35.99686</ele>
        <time>2015-07-02T09:58:07Z</time>
      </trkpt>
      <trkpt lat="49.29938" lon="1.13707">
        <ele>35.99686</ele>
        <time>2015-07-02T09:58:12Z</time>
      </trkpt>
      <trkpt lat="49.29934" lon="1.13715">
        <ele>35.75902</ele>
        <time>2015-07-02T09:58:17Z</time>
      </trkpt>
      <trkpt lat="49.2993" lon="1.13725">
        <ele>35.75902</ele>
        <time>2015-07-02T09:58:22Z</time>
      </trkpt>
      <trkpt lat="49.29928" lon="1.13732">
        <ele>35.388977</ele>
        <time>2015-07-02T09:58:27Z</time>
      </trkpt>
      <trkpt lat="49.29925" lon="1.1374">
        <ele>35.388977</ele>
        <time>2015-07-02T09:58:32Z</time>
      </trkpt>
      <trkpt lat="49.29921" lon="1.13747">
        <ele>34.811405</ele>
        <time>2015-07-02T09:58:37Z</time>
      </trkpt>
      <trkpt lat="49.29918" lon="1.13751">
        <ele>34.811405</ele>
        <time>2015-07-02T09:58:42Z</time>
      </trkpt>
      <trkpt lat="49.29916" lon="1.1375">
        <ele>34.811405</ele>
        <time>2015-07-02T09:58:47Z</time>
      </trkpt>
      <trkpt lat="49.29914" lon="1.13745">
        <ele>34.144466</ele>
        <time>2015-07-02T09:58:52Z</time>
      </trkpt>
      <trkpt lat="49.29912" lon="1.13742">
        <ele>34.144466</ele>
        <time>2015-07-02T09:58:57Z</time>
      </trkpt>
      <trkpt lat="49.2991" lon="1.13731">
        <ele>33.324966</ele>
        <time>2015-07-02T09:59:02Z</time>
      </trkpt>
      <trkpt lat="49.2991" lon="1.13716">
        <ele>32.61533</ele>
        <time>2015-07-02T09:59:07Z</time>
      </trkpt>
      <trkpt lat="49.29909" lon="1.13704">
        <ele>31.905697</ele>
        <time>2015-07-02T09:59:12Z</time>
      </trkpt>
      <trkpt lat="49.29902" lon="1.13701">
        <ele>31.905697</ele>
        <time>2015-07-02T09:59:17Z</time>
      </trkpt>
      <trkpt lat="49.29895" lon="1.13699">
        <ele>30.309828</ele>
        <time>2015-07-02T09:59:22Z</time>
      </trkpt>
      <trkpt lat="49.2989" lon="1.13699">
        <ele>30.309828</ele>
        <time>2015-07-02T09:59:27Z</time>
      </trkpt>
      <trkpt lat="49.29882" lon="1.13695">
        <ele>29.578423</ele>
        <time>2015-07-02T09:59:32Z</time>
      </trkpt>
      <trkpt lat="49.29871" lon="1.13703">
        <ele>29.146046</ele>
        <time>2015-07-02T09:59:37Z</time>
      </trkpt>
      <trkpt lat="49.29865" lon="1.1371">
        <ele>29.146046</ele>
        <time>2015-07-02T09:59:42Z</time>
      </trkpt>
      <trkpt lat="49.29861" lon="1.13718">
        <ele>29.064373</ele>
        <time>2015-07-02T09:59:47Z</time>
      </trkpt>
      <trkpt lat="49.29857" lon="1.13723">
        <ele>29.064373</ele>
        <time>2015-07-02T09:59:52Z</time>
      </trkpt>
      <trkpt lat="49.29855" lon="1.13728">
        <ele>29.00558</ele>
        <time>2015-07-02T09:59:57Z</time>
      </trkpt>
      <trkpt lat="49.2985" lon="1.13735">
        <ele>29.00558</ele>
        <time>2015-07-02T10:00:02Z</time>
      </trkpt>
      <trkpt lat="49.29845" lon="1.13741">
        <ele>29.098164</ele>
        <time>2015-07-02T10:00:07Z</time>
      </trkpt>
      <trkpt lat="49.29841" lon="1.13747">
        <ele>29.098164</ele>
        <time>2015-07-02T10:00:12Z</time>
      </trkpt>
      <trkpt lat="49.29836" lon="1.13754">
        <ele>29.287788</ele>
        <time>2015-07-02T10:00:17Z</time>
      </trkpt>
      <trkpt lat="49.2983" lon="1.13763">
        <ele>29.287788</ele>
        <time>2015-07-02T10:00:22Z</time>
      </trkpt>
      <trkpt lat="49.29826" lon="1.13769">
        <ele>29.394106</ele>
        <time>2015-07-02T10:00:27Z</time>
      </trkpt>
      <trkpt lat="49.29821" lon="1.13777">
        <ele>29.394106</ele>
        <time>2015-07-02T10:00:32Z</time>
      </trkpt>
      <trkpt lat="49.29817" lon="1.13782">
        <ele>29.49522</ele>
        <time>2015-07-02T10:00:37Z</time>
      </trkpt>
      <trkpt lat="49.29816" lon="1.13783">
        <ele>29.49522</ele>
        <time>2015-07-02T10:00:42Z</time>
      </trkpt>
      <trkpt lat="49.29815" lon="1.13782">
        <ele>29.49522</ele>
        <time>2015-07-02T10:00:47Z</time>
      </trkpt>
      <trkpt lat="49.29812" lon="1.13781">
        <ele>29.49522</ele>
        <time>2015-07-02T10:00:52Z</time>
      </trkpt>
      <trkpt lat="49.29808" lon="1.13777">
        <ele>29.533777</ele>
        <time>2015-07-02T10:00:57Z</time>
      </trkpt>
      <trkpt lat="49.29805" lon="1.13772">
        <ele>29.533777</ele>
        <time>2015-07-02T10:01:02Z</time>
      </trkpt>
      <trkpt lat="49.29802" lon="1.13774">
        <ele>29.533777</ele>
        <time>2015-07-02T10:01:07Z</time>
      </trkpt>
      <trkpt lat="49.29801" lon="1.13776">
        <ele>29.533777</ele>
        <time>2015-07-02T10:01:12Z</time>
      </trkpt>
      <trkpt lat="49.29798" lon="1.13782">
        <ele>29.500029</ele>
        <time>2015-07-02T10:01:17Z</time>
      </trkpt>
      <trkpt lat="49.29795" lon="1.13787">
        <ele>29.500029</ele>
        <time>2015-07-02T10:01:22Z</time>
      </trkpt>
      <trkpt lat="49.29793" lon="1.13796">
        <ele>29.558054</ele>
        <time>2015-07-02T10:01:27Z</time>
      </trkpt>
      <trkpt lat="49.29792" lon="1.13801">
        <ele>29.558054</ele>
        <time>2015-07-02T10:01:32Z</time>
      </trkpt>
      <trkpt lat="49.29791" lon="1.13809">
        <ele>29.558054</ele>
        <time>2015-07-02T10:01:37Z</time>
      </trkpt>
      <trkpt lat="49.29789" lon="1.13818">
        <ele>29.67226</ele>
        <time>2015-07-02T10:01:42Z</time>
      </trkpt>
      <trkpt lat="49.29788" lon="1.13828">
        <ele>29.67226</ele>
        <time>2015-07-02T10:01:47Z</time>
      </trkpt>
      <trkpt lat="49.29786" lon="1.13841">
        <ele>29.78067</ele>
        <time>2015-07-02T10:01:52Z</time>
      </trkpt>
      <trkpt lat="49.29785" lon="1.1385">
        <ele>29.78067</ele>
        <time>2015-07-02T10:01:57Z</time>
      </trkpt>
      <trkpt lat="49.29781" lon="1.13859">
        <ele>29.84027</ele>
        <time>2015-07-02T10:02:02Z</time>
      </trkpt>
      <trkpt lat="49.2978" lon="1.13867">
        <ele>29.84027</ele>
        <time>2015-07-02T10:02:07Z</time>
      </trkpt>
      <trkpt lat="49.29778" lon="1.13875">
        <ele>29.868969</ele>
        <time>2015-07-02T10:02:12Z</time>
      </trkpt>
      <trkpt lat="49.29774" lon="1.13885">
        <ele>29.868969</ele>
        <time>2015-07-02T10:02:17Z</time>
      </trkpt>
      <trkpt lat="49.29771" lon="1.13893">
        <ele>29.854618</ele>
        <time>2015-07-02T10:02:22Z</time>
      </trkpt>
      <trkpt lat="49.2977" lon="1.13899">
        <ele>29.854618</ele>
        <time>2015-07-02T10:02:27Z</time>
      </trkpt>
      <trkpt lat="49.29768" lon="1.13906">
        <ele>29.854618</ele>
        <time>2015-07-02T10:02:32Z</time>
      </trkpt>
      <trkpt lat="49.29766" lon="1.13913">
        <ele>29.829296</ele>
        <time>2015-07-02T10:02:37Z</time>
      </trkpt>
      <trkpt lat="49.29763" lon="1.13922">
        <ele>29.829296</ele>
        <time>2015-07-02T10:02:42Z</time>
      </trkpt>
      <trkpt lat="49.29761" lon="1.13932">
        <ele>29.793926</ele>
        <time>2015-07-02T10:02:47Z</time>
      </trkpt>
      <trkpt lat="49.29757" lon="1.13939">
        <ele>29.793926</ele>
        <time>2015-07-02T10:02:52Z</time>
      </trkpt>
      <trkpt lat="49.29756" lon="1.13944">
        <ele>29.807026</ele>
        <time>2015-07-02T10:02:57Z</time>
      </trkpt>
      <trkpt lat="49.29753" lon="1.13951">
        <ele>29.807026</ele>
        <time>2015-07-02T10:03:02Z</time>
      </trkpt>
      <trkpt lat="49.29751" lon="1.13959">
        <ele>29.922663</ele>
        <time>2015-07-02T10:03:07Z</time>
      </trkpt>
      <trkpt lat="49.29748" lon="1.13965">
        <ele>29.922663</ele>
        <time>2015-07-02T10:03:12Z</time>
      </trkpt>
      <trkpt lat="49.29744" lon="1.13976">
        <ele>30.075354</ele>
        <time>2015-07-02T10:03:17Z</time>
      </trkpt>
      <trkpt lat="49.29745" lon="1.13983">
        <ele>30.075354</ele>
        <time>2015-07-02T10:03:22Z</time>
      </trkpt>
      <trkpt lat="49.29745" lon="1.13988">
        <ele>30.075354</ele>
        <time>2015-07-02T10:03:27Z</time>
      </trkpt>
      <trkpt lat="49.29743" lon="1.13994">
        <ele>30.189898</ele>
        <time>2015-07-02T10:03:32Z</time>
      </trkpt>
      <trkpt lat="49.2974" lon="1.14">
        <ele>30.189898</ele>
        <time>2015-07-02T10:03:37Z</time>
      </trkpt>
      <trkpt lat="49.29741" lon="1.1401">
        <ele>30.05261</ele>
        <time>2015-07-02T10:03:42Z</time>
      </trkpt>
      <trkpt lat="49.29742" lon="1.14018">
        <ele>30.05261</ele>
        <time>2015-07-02T10:03:47Z</time>
      </trkpt>
      <trkpt lat="49.29743" lon="1.14025">
        <ele>29.912945</ele>
        <time>2015-07-02T10:03:52Z</time>
      </trkpt>
      <trkpt lat="49.29742" lon="1.14032">
        <ele>29.912945</ele>
        <time>2015-07-02T10:03:57Z</time>
      </trkpt>
      <trkpt lat="49.29743" lon="1.14039">
        <ele>29.75705</ele>
        <time>2015-07-02T10:04:02Z</time>
      </trkpt>
      <trkpt lat="49.29742" lon="1.14045">
        <ele>29.75705</ele>
        <time>2015-07-02T10:04:07Z</time>
      </trkpt>
      <trkpt lat="49.2974" lon="1.1405">
        <ele>29.75705</ele>
        <time>2015-07-02T10:04:12Z</time>
      </trkpt>
      <trkpt lat="49.2974" lon="1.14058">
        <ele>29.629766</ele>
        <time>2015-07-02T10:04:17Z</time>
      </trkpt>
      <trkpt lat="49.2974" lon="1.14063">
        <ele>29.629766</ele>
        <time>2015-07-02T10:04:22Z</time>
      </trkpt>
      <trkpt lat="49.29739" lon="1.14069">
        <ele>29.629766</ele>
        <time>2015-07-02T10:04:27Z</time>
      </trkpt>
      <trkpt lat="49.29738" lon="1.14076">
        <ele>29.70226</ele>
        <time>2015-07-02T10:04:32Z</time>
      </trkpt>
      <trkpt lat="49.29736" lon="1.14081">
        <ele>29.70226</ele>
        <time>2015-07-02T10:04:37Z</time>
      </trkpt>
      <trkpt lat="49.29733" lon="1.14088">
        <ele>29.82992</ele>
        <time>2015-07-02T10:04:42Z</time>
      </trkpt>
      <trkpt lat="49.29728" lon="1.14094">
        <ele>29.82992</ele>
        <time>2015-07-02T10:04:47Z</time>
      </trkpt>
      <trkpt lat="49.29725" lon="1.141">
        <ele>30.123589</ele>
        <time>2015-07-02T10:04:52Z</time>
      </trkpt>
      <trkpt lat="49.29722" lon="1.14105">
        <ele>30.123589</ele>
        <time>2015-07-02T10:04:57Z</time>
      </trkpt>
      <trkpt lat="49.29718" lon="1.14111">
        <ele>30.69991</ele>
        <time>2015-07-02T10:05:02Z</time>
      </trkpt>
      <trkpt lat="49.29715" lon="1.14118">
        <ele>30.69991</ele>
        <time>2015-07-02T10:05:07Z</time>
      </trkpt>
      <trkpt lat="49.29711" lon="1.14125">
        <ele>31.464405</ele>
        <time>2015-07-02T10:05:12Z</time>
      </trkpt>
      <trkpt lat="49.29708" lon="1.14131">
        <ele>31.464405</ele>
        <time>2015-07-02T10:05:17Z</time>
      </trkpt>
      <trkpt lat="49.29704" lon="1.14137">
        <ele>32.22814</ele>
        <time>2015-07-02T10:05:22Z</time>
      </trkpt>
      <trkpt lat="49.297" lon="1.14142">
        <ele>32.22814</ele>
        <time>2015-07-02T10:05:27Z</time>
      </trkpt>
      <trkpt lat="49.29699" lon="1.14146">
        <ele>32.22814</ele>
        <time>2015-07-02T10:05:32Z</time>
      </trkpt>
      <trkpt lat="49.29695" lon="1.14153">
        <ele>33.118706</ele>
        <time>2015-07-02T10:05:37Z</time>
      </trkpt>
      <trkpt lat="49.29691" lon="1.1416">
        <ele>33.118706</ele>
        <time>2015-07-02T10:05:42Z</time>
      </trkpt>
      <trkpt lat="49.29687" lon="1.14166">
        <ele>33.965748</ele>
        <time>2015-07-02T10:05:47Z</time>
      </trkpt>
      <trkpt lat="49.29683" lon="1.14172">
        <ele>33.965748</ele>
        <time>2015-07-02T10:05:52Z</time>
      </trkpt>
      <trkpt lat="49.29679" lon="1.1418">
        <ele>34.827755</ele>
        <time>2015-07-02T10:05:57Z</time>
      </trkpt>
      <trkpt lat="49.29676" lon="1.1419">
        <ele>34.827755</ele>
        <time>2015-07-02T10:06:02Z</time>
      </trkpt>
      <trkpt lat="49.29672" lon="1.14198">
        <ele>35.715652</ele>
        <time>2015-07-02T10:06:07Z</time>
      </trkpt>
      <trkpt lat="49.29667" lon="1.14207">
        <ele>35.715652</ele>
        <time>2015-07-02T10:06:12Z</time>
      </trkpt>
      <trkpt lat="49.29665" lon="1.14212">
        <ele>36.653946</ele>
        <time>2015-07-02T10:06:17Z</time>
      </trkpt>
      <trkpt lat="49.29662" lon="1.14218">
        <ele>36.653946</ele>
        <time>2015-07-02T10:06:22Z</time>
      </trkpt>
      <trkpt lat="49.29659" lon="1.14225">
        <ele>37.708466</ele>
        <time>2015-07-02T10:06:27Z</time>
      </trkpt>
      <trkpt lat="49.29654" lon="1.14232">
        <ele>37.708466</ele>
        <time>2015-07-02T10:06:32Z</time>
      </trkpt>
      <trkpt lat="49.2965" lon="1.14242">
        <ele>38.839046</ele>
        <time>2015-07-02T10:06:37Z</time>
      </trkpt>
      <trkpt lat="49.29647" lon="1.14251">
        <ele>38.839046</ele>
        <time>2015-07-02T10:06:42Z</time>
      </trkpt>
      <trkpt lat="49.29645" lon="1.14258">
        <ele>39.965076</ele>
        <time>2015-07-02T10:06:47Z</time>
      </trkpt>
      <trkpt lat="49.29641" lon="1.14265">
        <ele>39.965076</ele>
        <time>2015-07-02T10:06:52Z</time>
      </trkpt>
      <trkpt lat="49.29639" lon="1.14272">
        <ele>40.983105</ele>
        <time>2015-07-02T10:06:57Z</time>
      </trkpt>
      <trkpt lat="49.29636" lon="1.14277">
        <ele>40.983105</ele>
        <time>2015-07-02T10:07:02Z</time>
      </trkpt>
      <trkpt lat="49.29632" lon="1.14283">
        <ele>42.100273</ele>
        <time>2015-07-02T10:07:07Z</time>
      </trkpt>
      <trkpt lat="49.29627" lon="1.14291">
        <ele>42.100273</ele>
        <time>2015-07-02T10:07:12Z</time>
      </trkpt>
      <trkpt lat="49.29623" lon="1.14298">
        <ele>43.33536</ele>
        <time>2015-07-02T10:07:17Z</time>
      </trkpt>
      <trkpt lat="49.29617" lon="1.14306">
        <ele>43.33536</ele>
        <time>2015-07-02T10:07:22Z</time>
      </trkpt>
      <trkpt lat="49.29613" lon="1.14312">
        <ele>44.61903</ele>
        <time>2015-07-02T10:07:27Z</time>
      </trkpt>
      <trkpt lat="49.29608" lon="1.14323">
        <ele>44.61903</ele>
        <time>2015-07-02T10:07:32Z</time>
      </trkpt>
      <trkpt lat="49.29606" lon="1.14331">
        <ele>45.814922</ele>
        <time>2015-07-02T10:07:37Z</time>
      </trkpt>
      <trkpt lat="49.29604" lon="1.14335">
        <ele>45.814922</ele>
        <time>2015-07-02T10:07:42Z</time>
      </trkpt>
      <trkpt lat="49.29599" lon="1.14342">
        <ele>47.070812</ele>
        <time>2015-07-02T10:07:47Z</time>
      </trkpt>
      <trkpt lat="49.29596" lon="1.14346">
        <ele>47.070812</ele>
        <time>2015-07-02T10:07:52Z</time>
      </trkpt>
      <trkpt lat="49.29597" lon="1.14346">
        <ele>47.070812</ele>
        <time>2015-07-02T10:07:57Z</time>
      </trkpt>
      <trkpt lat="49.29597" lon="1.14346">
        <ele>47.070812</ele>
        <time>2015-07-02T10:08:02Z</time>
      </trkpt>
      <trkpt lat="49.29598" lon="1.14346">
        <ele>47.070812</ele>
        <time>2015-07-02T10:08:07Z</time>
      </trkpt>
      <trkpt lat="49.29598" lon="1.14346">
        <ele>47.070812</ele>
        <time>2015-07-02T10:08:12Z</time>
      </trkpt>
      <trkpt lat="49.29599" lon="1.14346">
        <ele>47.070812</ele>
        <time>2015-07-02T10:08:17Z</time>
      </trkpt>
      <trkpt lat="49.296" lon="1.14346">
        <ele>48.19208</ele>
        <time>2015-07-02T10:08:22Z</time>
      </trkpt>
      <trkpt lat="49.29599" lon="1.14346">
        <ele>48.19208</ele>
        <time>2015-07-02T10:08:27Z</time>
      </trkpt>
      <trkpt lat="49.29599" lon="1.14347">
        <ele>48.19208</ele>
        <time>2015-07-02T10:08:32Z</time>
      </trkpt>
      <trkpt lat="49.29599" lon="1.1435">
        <ele>48.19208</ele>
        <time>2015-07-02T10:08:37Z</time>
      </trkpt>
      <trkpt lat="49.29599" lon="1.14352">
        <ele>48.19208</ele>
        <time>2015-07-02T10:08:42Z</time>
      </trkpt>
      <trkpt lat="49.29599" lon="1.14354">
        <ele>48.19208</ele>
        <time>2015-07-02T10:08:47Z</time>
      </trkpt>
      <trkpt lat="49.29599" lon="1.14356">
        <ele>48.19208</ele>
        <time>2015-07-02T10:08:52Z</time>
      </trkpt>
      <trkpt lat="49.29599" lon="1.14356">
        <ele>48.19208</ele>
        <time>2015-07-02T10:08:57Z</time>
      </trkpt>
      <trkpt lat="49.29599" lon="1.14356">
        <ele>48.19208</ele>
        <time>2015-07-02T10:09:02Z</time>
      </trkpt>
      <trkpt lat="49.29599" lon="1.14356">
        <ele>48.19208</ele>
        <time>2015-07-02T10:09:07Z</time>
      </trkpt>
      <trkpt lat="49.29599" lon="1.14356">
        <ele>48.19208</ele>
        <time>2015-07-02T10:09:12Z</time>
      </trkpt>
      <trkpt lat="49.29595" lon="1.14345">
        <ele>49.301495</ele>
        <time>2015-07-02T10:09:17Z</time>
      </trkpt>
      <trkpt lat="49.29589" lon="1.14341">
        <ele>49.301495</ele>
        <time>2015-07-02T10:09:22Z</time>
      </trkpt>
      <trkpt lat="49.29582" lon="1.14334">
        <ele>50.29674</ele>
        <time>2015-07-02T10:09:27Z</time>
      </trkpt>
      <trkpt lat="49.29578" lon="1.14326">
        <ele>50.29674</ele>
        <time>2015-07-02T10:09:32Z</time>
      </trkpt>
      <trkpt lat="49.29573" lon="1.14318">
        <ele>51.1699</ele>
        <time>2015-07-02T10:09:37Z</time>
      </trkpt>
      <trkpt lat="49.29569" lon="1.14312">
        <ele>51.1699</ele>
        <time>2015-07-02T10:09:42Z</time>
      </trkpt>
      <trkpt lat="49.29563" lon="1.14304">
        <ele>51.971687</ele>
        <time>2015-07-02T10:09:47Z</time>
      </trkpt>
      <trkpt lat="49.29559" lon="1.14297">
        <ele>51.971687</ele>
        <time>2015-07-02T10:09:52Z</time>
      </trkpt>
      <trkpt lat="49.29554" lon="1.14292">
        <ele>52.74938</ele>
        <time>2015-07-02T10:09:57Z</time>
      </trkpt>
      <trkpt lat="49.29551" lon="1.14285">
        <ele>52.74938</ele>
        <time>2015-07-02T10:10:02Z</time>
      </trkpt>
      <trkpt lat="49.29547" lon="1.14281">
        <ele>53.474873</ele>
        <time>2015-07-02T10:10:07Z</time>
      </trkpt>
      <trkpt lat="49.29541" lon="1.14279">
        <ele>53.474873</ele>
        <time>2015-07-02T10:10:12Z</time>
      </trkpt>
      <trkpt lat="49.29537" lon="1.14274">
        <ele>54.06469</ele>
        <time>2015-07-02T10:10:17Z</time>
      </trkpt>
      <trkpt lat="49.29533" lon="1.14272">
        <ele>54.06469</ele>
        <time>2015-07-02T10:10:22Z</time>
      </trkpt>
      <trkpt lat="49.29527" lon="1.14265">
        <ele>54.499596</ele>
        <time>2015-07-02T10:10:27Z</time>
      </trkpt>
      <trkpt lat="49.29524" lon="1.1426">
        <ele>54.499596</ele>
        <time>2015-07-02T10:10:32Z</time>
      </trkpt>
      <trkpt lat="49.29519" lon="1.14257">
        <ele>54.848724</ele>
        <time>2015-07-02T10:10:37Z</time>
      </trkpt>
      <trkpt lat="49.29514" lon="1.14252">
        <ele>54.848724</ele>
        <time>2015-07-02T10:10:42Z</time>
      </trkpt>
      <trkpt lat="49.29512" lon="1.14246">
        <ele>55.0035</ele>
        <time>2015-07-02T10:10:47Z</time>
      </trkpt>
      <trkpt lat="49.29509" lon="1.14238">
        <ele>55.0035</ele>
        <time>2015-07-02T10:10:52Z</time>
      </trkpt>
      <trkpt lat="49.29504" lon="1.14233">
        <ele>54.892754</ele>
        <time>2015-07-02T10:10:57Z</time>
      </trkpt>
      <trkpt lat="49.29497" lon="1.14226">
        <ele>54.892754</ele>
        <time>2015-07-02T10:11:02Z</time>
      </trkpt>
      <trkpt lat="49.29491" lon="1.1422">
        <ele>54.595432</ele>
        <time>2015-07-02T10:11:07Z</time>
      </trkpt>
      <trkpt lat="49.29488" lon="1.14215">
        <ele>54.595432</ele>
        <time>2015-07-02T10:11:12Z</time>
      </trkpt>
      <trkpt lat="49.29484" lon="1.1421">
        <ele>54.22849</ele>
        <time>2015-07-02T10:11:17Z</time>
      </trkpt>
      <trkpt lat="49.29479" lon="1.14207">
        <ele>54.22849</ele>
        <time>2015-07-02T10:11:22Z</time>
      </trkpt>
      <trkpt lat="49.29474" lon="1.142">
        <ele>53.799625</ele>
        <time>2015-07-02T10:11:27Z</time>
      </trkpt>
      <trkpt lat="49.29469" lon="1.14194">
        <ele>53.799625</ele>
        <time>2015-07-02T10:11:32Z</time>
      </trkpt>
      <trkpt lat="49.29463" lon="1.14187">
        <ele>53.200882</ele>
        <time>2015-07-02T10:11:37Z</time>
      </trkpt>
      <trkpt lat="49.29459" lon="1.14182">
        <ele>53.200882</ele>
        <time>2015-07-02T10:11:42Z</time>
      </trkpt>
      <trkpt lat="49.29456" lon="1.14178">
        <ele>52.62094</ele>
        <time>2015-07-02T10:11:47Z</time>
      </trkpt>
      <trkpt lat="49.2945" lon="1.14171">
        <ele>52.62094</ele>
        <time>2015-07-02T10:11:52Z</time>
      </trkpt>
      <trkpt lat="49.29444" lon="1.14164">
        <ele>51.975166</ele>
        <time>2015-07-02T10:11:57Z</time>
      </trkpt>
      <trkpt lat="49.29439" lon="1.14159">
        <ele>51.975166</ele>
        <time>2015-07-02T10:12:02Z</time>
      </trkpt>
      <trkpt lat="49.29434" lon="1.14154">
        <ele>51.3006</ele>
        <time>2015-07-02T10:12:07Z</time>
      </trkpt>
      <trkpt lat="49.2943" lon="1.14148">
        <ele>51.3006</ele>
        <time>2015-07-02T10:12:12Z</time>
      </trkpt>
      <trkpt lat="49.29425" lon="1.14143">
        <ele>50.631626</ele>
        <time>2015-07-02T10:12:17Z</time>
      </trkpt>
      <trkpt lat="49.2942" lon="1.14138">
        <ele>50.631626</ele>
        <time>2015-07-02T10:12:22Z</time>
      </trkpt>
      <trkpt lat="49.29415" lon="1.14133">
        <ele>49.956825</ele>
        <time>2015-07-02T10:12:27Z</time>
      </trkpt>
      <trkpt lat="49.29411" lon="1.14128">
        <ele>49.956825</ele>
        <time>2015-07-02T10:12:32Z</time>
      </trkpt>
      <trkpt lat="49.29405" lon="1.14122">
        <ele>49.236774</ele>
        <time>2015-07-02T10:12:37Z</time>
      </trkpt>
      <trkpt lat="49.29401" lon="1.14116">
        <ele>49.236774</ele>
        <time>2015-07-02T10:12:42Z</time>
      </trkpt>
      <trkpt lat="49.29397" lon="1.14112">
        <ele>48.607956</ele>
        <time>2015-07-02T10:12:47Z</time>
      </trkpt>
      <trkpt lat="49.29392" lon="1.14106">
        <ele>48.607956</ele>
        <time>2015-07-02T10:12:52Z</time>
      </trkpt>
      <trkpt lat="49.29389" lon="1.14101">
        <ele>47.937126</ele>
        <time>2015-07-02T10:12:57Z</time>
      </trkpt>
      <trkpt lat="49.29385" lon="1.14096">
        <ele>47.937126</ele>
        <time>2015-07-02T10:13:02Z</time>
      </trkpt>
      <trkpt lat="49.2938" lon="1.1409">
        <ele>47.34587</ele>
        <time>2015-07-02T10:13:07Z</time>
      </trkpt>
      <trkpt lat="49.29376" lon="1.14086">
        <ele>47.34587</ele>
        <time>2015-07-02T10:13:12Z</time>
      </trkpt>
      <trkpt lat="49.29372" lon="1.1408">
        <ele>46.80246</ele>
        <time>2015-07-02T10:13:17Z</time>
      </trkpt>
      <trkpt lat="49.29367" lon="1.14077">
        <ele>46.80246</ele>
        <time>2015-07-02T10:13:22Z</time>
      </trkpt>
      <trkpt lat="49.29362" lon="1.1407">
        <ele>46.291695</ele>
        <time>2015-07-02T10:13:27Z</time>
      </trkpt>
      <trkpt lat="49.29357" lon="1.14065">
        <ele>46.291695</ele>
        <time>2015-07-02T10:13:32Z</time>
      </trkpt>
      <trkpt lat="49.29351" lon="1.14057">
        <ele>45.90021</ele>
        <time>2015-07-02T10:13:37Z</time>
      </trkpt>
      <trkpt lat="49.29347" lon="1.14053">
        <ele>45.90021</ele>
        <time>2015-07-02T10:13:42Z</time>
      </trkpt>
      <trkpt lat="49.29344" lon="1.1405">
        <ele>45.90021</ele>
        <time>2015-07-02T10:13:47Z</time>
      </trkpt>
      <trkpt lat="49.29341" lon="1.14047">
        <ele>45.69347</ele>
        <time>2015-07-02T10:13:52Z</time>
      </trkpt>
      <trkpt lat="49.29337" lon="1.14043">
        <ele>45.69347</ele>
        <time>2015-07-02T10:13:57Z</time>
      </trkpt>
      <trkpt lat="49.29334" lon="1.14037">
        <ele>45.544174</ele>
        <time>2015-07-02T10:14:02Z</time>
      </trkpt>
      <trkpt lat="49.29332" lon="1.14031">
        <ele>45.544174</ele>
        <time>2015-07-02T10:14:07Z</time>
      </trkpt>
      <trkpt lat="49.29328" lon="1.14023">
        <ele>45.46386</ele>
        <time>2015-07-02T10:14:12Z</time>
      </trkpt>
      <trkpt lat="49.29325" lon="1.14018">
        <ele>45.46386</ele>
        <time>2015-07-02T10:14:17Z</time>
      </trkpt>
      <trkpt lat="49.2932" lon="1.14013">
        <ele>45.33325</ele>
        <time>2015-07-02T10:14:22Z</time>
      </trkpt>
      <trkpt lat="49.29316" lon="1.1401">
        <ele>45.33325</ele>
        <time>2015-07-02T10:14:27Z</time>
      </trkpt>
      <trkpt lat="49.2931" lon="1.14003">
        <ele>45.14276</ele>
        <time>2015-07-02T10:14:32Z</time>
      </trkpt>
      <trkpt lat="49.29304" lon="1.14001">
        <ele>45.14276</ele>
        <time>2015-07-02T10:14:37Z</time>
      </trkpt>
      <trkpt lat="49.29302" lon="1.13998">
        <ele>45.14276</ele>
        <time>2015-07-02T10:14:42Z</time>
      </trkpt>
      <trkpt lat="49.29299" lon="1.13994">
        <ele>45.04216</ele>
        <time>2015-07-02T10:14:47Z</time>
      </trkpt>
      <trkpt lat="49.29296" lon="1.13992">
        <ele>45.04216</ele>
        <time>2015-07-02T10:14:52Z</time>
      </trkpt>
      <trkpt lat="49.29293" lon="1.13987">
        <ele>45.04216</ele>
        <time>2015-07-02T10:14:57Z</time>
      </trkpt>
      <trkpt lat="49.29289" lon="1.13983">
        <ele>44.953712</ele>
        <time>2015-07-02T10:15:02Z</time>
      </trkpt>
      <trkpt lat="49.29284" lon="1.13978">
        <ele>44.953712</ele>
        <time>2015-07-02T10:15:07Z</time>
      </trkpt>
      <trkpt lat="49.29281" lon="1.13971">
        <ele>45.05029</ele>
        <time>2015-07-02T10:15:12Z</time>
      </trkpt>
      <trkpt lat="49.29276" lon="1.13965">
        <ele>45.05029</ele>
        <time>2015-07-02T10:15:17Z</time>
      </trkpt>
      <trkpt lat="49.29272" lon="1.1396">
        <ele>45.246502</ele>
        <time>2015-07-02T10:15:22Z</time>
      </trkpt>
      <trkpt lat="49.29268" lon="1.13955">
        <ele>45.246502</ele>
        <time>2015-07-02T10:15:27Z</time>
      </trkpt>
      <trkpt lat="49.29259" lon="1.13946">
        <ele>45.823162</ele>
        <time>2015-07-02T10:15:32Z</time>
      </trkpt>
      <trkpt lat="49.29252" lon="1.13936">
        <ele>45.823162</ele>
        <time>2015-07-02T10:15:37Z</time>
      </trkpt>
      <trkpt lat="49.29247" lon="1.13928">
        <ele>46.765537</ele>
        <time>2015-07-02T10:15:42Z</time>
      </trkpt>
      <trkpt lat="49.29244" lon="1.13921">
        <ele>46.765537</ele>
        <time>2015-07-02T10:15:47Z</time>
      </trkpt>
      <trkpt lat="49.29239" lon="1.13917">
        <ele>47.972435</ele>
        <time>2015-07-02T10:15:52Z</time>
      </trkpt>
      <trkpt lat="49.29234" lon="1.13912">
        <ele>47.972435</ele>
        <time>2015-07-02T10:15:57Z</time>
      </trkpt>
      <trkpt lat="49.29231" lon="1.13908">
        <ele>49.147568</ele>
        <time>2015-07-02T10:16:02Z</time>
      </trkpt>
      <trkpt lat="49.29227" lon="1.13902">
        <ele>49.147568</ele>
        <time>2015-07-02T10:16:07Z</time>
      </trkpt>
      <trkpt lat="49.29224" lon="1.13899">
        <ele>50.23264</ele>
        <time>2015-07-02T10:16:12Z</time>
      </trkpt>
      <trkpt lat="49.2922" lon="1.13896">
        <ele>50.23264</ele>
        <time>2015-07-02T10:16:17Z</time>
      </trkpt>
      <trkpt lat="49.29215" lon="1.13892">
        <ele>51.20271</ele>
        <time>2015-07-02T10:16:22Z</time>
      </trkpt>
      <trkpt lat="49.29211" lon="1.1389">
        <ele>51.20271</ele>
        <time>2015-07-02T10:16:27Z</time>
      </trkpt>
      <trkpt lat="49.29206" lon="1.13884">
        <ele>51.91969</ele>
        <time>2015-07-02T10:16:32Z</time>
      </trkpt>
      <trkpt lat="49.29201" lon="1.13879">
        <ele>51.91969</ele>
        <time>2015-07-02T10:16:37Z</time>
      </trkpt>
      <trkpt lat="49.29196" lon="1.13873">
        <ele>52.530163</ele>
        <time>2015-07-02T10:16:42Z</time>
      </trkpt>
      <trkpt lat="49.29193" lon="1.13871">
        <ele>52.530163</ele>
        <time>2015-07-02T10:16:47Z</time>
      </trkpt>
      <trkpt lat="49.29189" lon="1.13866">
        <ele>52.530163</ele>
        <time>2015-07-02T10:16:52Z</time>
      </trkpt>
      <trkpt lat="49.29183" lon="1.13857">
        <ele>52.86761</ele>
        <time>2015-07-02T10:16:57Z</time>
      </trkpt>
      <trkpt lat="49.29181" lon="1.13853">
        <ele>52.86761</ele>
        <time>2015-07-02T10:17:02Z</time>
      </trkpt>
      <trkpt lat="49.29176" lon="1.1385">
        <ele>53.18205</ele>
        <time>2015-07-02T10:17:07Z</time>
      </trkpt>
      <trkpt lat="49.2917" lon="1.13844">
        <ele>53.18205</ele>
        <time>2015-07-02T10:17:12Z</time>
      </trkpt>
      <trkpt lat="49.29164" lon="1.13844">
        <ele>53.54667</ele>
        <time>2015-07-02T10:17:17Z</time>
      </trkpt>
      <trkpt lat="49.29158" lon="1.13844">
        <ele>53.54667</ele>
        <time>2015-07-02T10:17:22Z</time>
      </trkpt>
      <trkpt lat="49.29154" lon="1.13853">
        <ele>53.942703</ele>
        <time>2015-07-02T10:17:27Z</time>
      </trkpt>
      <trkpt lat="49.29151" lon="1.13861">
        <ele>53.942703</ele>
        <time>2015-07-02T10:17:32Z</time>
      </trkpt>
      <trkpt lat="49.29151" lon="1.1387">
        <ele>54.482388</ele>
        <time>2015-07-02T10:17:37Z</time>
      </trkpt>
      <trkpt lat="49.2915" lon="1.13878">
        <ele>54.482388</ele>
        <time>2015-07-02T10:17:42Z</time>
      </trkpt>
      <trkpt lat="49.29149" lon="1.13886">
        <ele>54.909042</ele>
        <time>2015-07-02T10:17:47Z</time>
      </trkpt>
      <trkpt lat="49.29147" lon="1.13892">
        <ele>54.909042</ele>
        <time>2015-07-02T10:17:52Z</time>
      </trkpt>
      <trkpt lat="49.29146" lon="1.13901">
        <ele>55.14371</ele>
        <time>2015-07-02T10:17:57Z</time>
      </trkpt>
      <trkpt lat="49.29146" lon="1.13913">
        <ele>55.14371</ele>
        <time>2015-07-02T10:18:02Z</time>
      </trkpt>
      <trkpt lat="49.29145" lon="1.13921">
        <ele>55.2579</ele>
        <time>2015-07-02T10:18:07Z</time>
      </trkpt>
      <trkpt lat="49.29143" lon="1.1393">
        <ele>55.2579</ele>
        <time>2015-07-02T10:18:12Z</time>
      </trkpt>
      <trkpt lat="49.2914" lon="1.1394">
        <ele>55.43351</ele>
        <time>2015-07-02T10:18:17Z</time>
      </trkpt>
      <trkpt lat="49.29137" lon="1.13946">
        <ele>55.43351</ele>
        <time>2015-07-02T10:18:22Z</time>
      </trkpt>
      <trkpt lat="49.29133" lon="1.13947">
        <ele>55.43351</ele>
        <time>2015-07-02T10:18:27Z</time>
      </trkpt>
      <trkpt lat="49.2913" lon="1.13945">
        <ele>55.637165</ele>
        <time>2015-07-02T10:18:32Z</time>
      </trkpt>
      <trkpt lat="49.29126" lon="1.13942">
        <ele>55.637165</ele>
        <time>2015-07-02T10:18:37Z</time>
      </trkpt>
      <trkpt lat="49.29122" lon="1.13938">
        <ele>55.637165</ele>
        <time>2015-07-02T10:18:42Z</time>
      </trkpt>
      <trkpt lat="49.29116" lon="1.13928">
        <ele>55.751415</ele>
        <time>2015-07-02T10:18:47Z</time>
      </trkpt>
      <trkpt lat="49.29109" lon="1.13917">
        <ele>55.970333</ele>
        <time>2015-07-02T10:18:52Z</time>
      </trkpt>
      <trkpt lat="49.29105" lon="1.13909">
        <ele>55.970333</ele>
        <time>2015-07-02T10:18:57Z</time>
      </trkpt>
      <trkpt lat="49.291" lon="1.13905">
        <ele>56.329353</ele>
        <time>2015-07-02T10:19:02Z</time>
      </trkpt>
      <trkpt lat="49.29096" lon="1.139">
        <ele>56.329353</ele>
        <time>2015-07-02T10:19:07Z</time>
      </trkpt>
      <trkpt lat="49.29092" lon="1.13895">
        <ele>56.702396</ele>
        <time>2015-07-02T10:19:12Z</time>
      </trkpt>
      <trkpt lat="49.29088" lon="1.13891">
        <ele>56.702396</ele>
        <time>2015-07-02T10:19:17Z</time>
      </trkpt>
      <trkpt lat="49.29085" lon="1.13889">
        <ele>56.702396</ele>
        <time>2015-07-02T10:19:22Z</time>
      </trkpt>
      <trkpt lat="49.2908" lon="1.13884">
        <ele>56.900566</ele>
        <time>2015-07-02T10:19:27Z</time>
      </trkpt>
      <trkpt lat="49.29074" lon="1.1388">
        <ele>56.900566</ele>
        <time>2015-07-02T10:19:32Z</time>
      </trkpt>
      <trkpt lat="49.2907" lon="1.13872">
        <ele>57.109623</ele>
        <time>2015-07-02T10:19:37Z</time>
      </trkpt>
      <trkpt lat="49.29064" lon="1.13865">
        <ele>57.109623</ele>
        <time>2015-07-02T10:19:42Z</time>
      </trkpt>
      <trkpt lat="49.29059" lon="1.13859">
        <ele>57.285503</ele>
        <time>2015-07-02T10:19:47Z</time>
      </trkpt>
      <trkpt lat="49.29053" lon="1.13853">
        <ele>57.285503</ele>
        <time>2015-07-02T10:19:52Z</time>
      </trkpt>
      <trkpt lat="49.2905" lon="1.13849">
        <ele>57.47394</ele>
        <time>2015-07-02T10:19:57Z</time>
      </trkpt>
      <trkpt lat="49.29045" lon="1.13843">
        <ele>57.47394</ele>
        <time>2015-07-02T10:20:02Z</time>
      </trkpt>
      <trkpt lat="49.29042" lon="1.13841">
        <ele>57.515537</ele>
        <time>2015-07-02T10:20:07Z</time>
      </trkpt>
      <trkpt lat="49.29036" lon="1.13833">
        <ele>57.515537</ele>
        <time>2015-07-02T10:20:12Z</time>
      </trkpt>
      <trkpt lat="49.2903" lon="1.13825">
        <ele>57.493603</ele>
        <time>2015-07-02T10:20:17Z</time>
      </trkpt>
      <trkpt lat="49.29027" lon="1.13821">
        <ele>57.493603</ele>
        <time>2015-07-02T10:20:22Z</time>
      </trkpt>
      <trkpt lat="49.29022" lon="1.13813">
        <ele>57.485508</ele>
        <time>2015-07-02T10:20:27Z</time>
      </trkpt>
      <trkpt lat="49.29018" lon="1.13807">
        <ele>57.485508</ele>
        <time>2015-07-02T10:20:32Z</time>
      </trkpt>
      <trkpt lat="49.29014" lon="1.13802">
        <ele>57.505264</ele>
        <time>2015-07-02T10:20:37Z</time>
      </trkpt>
      <trkpt lat="49.29009" lon="1.13797">
        <ele>57.505264</ele>
        <time>2015-07-02T10:20:42Z</time>
      </trkpt>
      <trkpt lat="49.29005" lon="1.1379">
        <ele>57.55137</ele>
        <time>2015-07-02T10:20:47Z</time>
      </trkpt>
      <trkpt lat="49.29" lon="1.13783">
        <ele>57.55137</ele>
        <time>2015-07-02T10:20:52Z</time>
      </trkpt>
      <trkpt lat="49.28996" lon="1.13779">
        <ele>57.52148</ele>
        <time>2015-07-02T10:20:57Z</time>
      </trkpt>
      <trkpt lat="49.28989" lon="1.13772">
        <ele>57.52148</ele>
        <time>2015-07-02T10:21:02Z</time>
      </trkpt>
      <trkpt lat="49.28984" lon="1.13767">
        <ele>57.710083</ele>
        <time>2015-07-02T10:21:07Z</time>
      </trkpt>
      <trkpt lat="49.28979" lon="1.13759">
        <ele>57.710083</ele>
        <time>2015-07-02T10:21:12Z</time>
      </trkpt>
      <trkpt lat="49.28974" lon="1.13755">
        <ele>58.259724</ele>
        <time>2015-07-02T10:21:17Z</time>
      </trkpt>
      <trkpt lat="49.2897" lon="1.1375">
        <ele>58.259724</ele>
        <time>2015-07-02T10:21:22Z</time>
      </trkpt>
      <trkpt lat="49.28966" lon="1.13743">
        <ele>59.070873</ele>
        <time>2015-07-02T10:21:27Z</time>
      </trkpt>
      <trkpt lat="49.28957" lon="1.13728">
        <ele>59.949715</ele>
        <time>2015-07-02T10:21:32Z</time>
      </trkpt>
      <trkpt lat="49.28955" lon="1.13723">
        <ele>59.949715</ele>
        <time>2015-07-02T10:21:37Z</time>
      </trkpt>
      <trkpt lat="49.28953" lon="1.1372">
        <ele>59.949715</ele>
        <time>2015-07-02T10:21:42Z</time>
      </trkpt>
      <trkpt lat="49.28949" lon="1.13717">
        <ele>60.745308</ele>
        <time>2015-07-02T10:21:47Z</time>
      </trkpt>
      <trkpt lat="49.28943" lon="1.13714">
        <ele>60.745308</ele>
        <time>2015-07-02T10:21:52Z</time>
      </trkpt>
      <trkpt lat="49.2894" lon="1.13711">
        <ele>61.418915</ele>
        <time>2015-07-02T10:21:57Z</time>
      </trkpt>
      <trkpt lat="49.28934" lon="1.13705">
        <ele>61.418915</ele>
        <time>2015-07-02T10:22:02Z</time>
      </trkpt>
      <trkpt lat="49.28929" lon="1.13698">
        <ele>61.93501</ele>
        <time>2015-07-02T10:22:07Z</time>
      </trkpt>
      <trkpt lat="49.28927" lon="1.13695">
        <ele>61.93501</ele>
        <time>2015-07-02T10:22:12Z</time>
      </trkpt>
      <trkpt lat="49.28922" lon="1.13691">
        <ele>61.93501</ele>
        <time>2015-07-02T10:22:17Z</time>
      </trkpt>
      <trkpt lat="49.28917" lon="1.13685">
        <ele>62.28994</ele>
        <time>2015-07-02T10:22:22Z</time>
      </trkpt>
      <trkpt lat="49.28913" lon="1.1368">
        <ele>62.28994</ele>
        <time>2015-07-02T10:22:27Z</time>
      </trkpt>
      <trkpt lat="49.28911" lon="1.13677">
        <ele>62.28994</ele>
        <time>2015-07-02T10:22:32Z</time>
      </trkpt>
      <trkpt lat="49.28905" lon="1.13663">
        <ele>62.66815</ele>
        <time>2015-07-02T10:22:37Z</time>
      </trkpt>
      <trkpt lat="49.28899" lon="1.13648">
        <ele>63.13961</ele>
        <time>2015-07-02T10:22:42Z</time>
      </trkpt>
      <trkpt lat="49.28893" lon="1.13643">
        <ele>63.13961</ele>
        <time>2015-07-02T10:22:47Z</time>
      </trkpt>
      <trkpt lat="49.28888" lon="1.1364">
        <ele>63.840954</ele>
        <time>2015-07-02T10:22:52Z</time>
      </trkpt>
      <trkpt lat="49.28884" lon="1.13634">
        <ele>63.840954</ele>
        <time>2015-07-02T10:22:57Z</time>
      </trkpt>
      <trkpt lat="49.28879" lon="1.13627">
        <ele>64.710815</ele>
        <time>2015-07-02T10:23:02Z</time>
      </trkpt>
      <trkpt lat="49.28873" lon="1.1362">
        <ele>64.710815</ele>
        <time>2015-07-02T10:23:07Z</time>
      </trkpt>
      <trkpt lat="49.28871" lon="1.13617">
        <ele>65.7207</ele>
        <time>2015-07-02T10:23:12Z</time>
      </trkpt>
      <trkpt lat="49.28864" lon="1.13612">
        <ele>65.7207</ele>
        <time>2015-07-02T10:23:17Z</time>
      </trkpt>
      <trkpt lat="49.28858" lon="1.13607">
        <ele>66.68533</ele>
        <time>2015-07-02T10:23:22Z</time>
      </trkpt>
      <trkpt lat="49.28852" lon="1.13601">
        <ele>66.68533</ele>
        <time>2015-07-02T10:23:27Z</time>
      </trkpt>
      <trkpt lat="49.28848" lon="1.13594">
        <ele>67.534065</ele>
        <time>2015-07-02T10:23:32Z</time>
      </trkpt>
      <trkpt lat="49.28849" lon="1.13589">
        <ele>67.534065</ele>
        <time>2015-07-02T10:23:37Z</time>
      </trkpt>
      <trkpt lat="49.28847" lon="1.13588">
        <ele>67.534065</ele>
        <time>2015-07-02T10:23:42Z</time>
      </trkpt>
      <trkpt lat="49.28845" lon="1.13588">
        <ele>67.534065</ele>
        <time>2015-07-02T10:23:47Z</time>
      </trkpt>
      <trkpt lat="49.28845" lon="1.13588">
        <ele>67.534065</ele>
        <time>2015-07-02T10:23:52Z</time>
      </trkpt>
      <trkpt lat="49.28844" lon="1.13587">
        <ele>67.534065</ele>
        <time>2015-07-02T10:23:57Z</time>
      </trkpt>
      <trkpt lat="49.28842" lon="1.13586">
        <ele>68.129745</ele>
        <time>2015-07-02T10:24:02Z</time>
      </trkpt>
      <trkpt lat="49.28833" lon="1.13581">
        <ele>68.72073</ele>
        <time>2015-07-02T10:24:07Z</time>
      </trkpt>
      <trkpt lat="49.28828" lon="1.13572">
        <ele>68.72073</ele>
        <time>2015-07-02T10:24:12Z</time>
      </trkpt>
      <trkpt lat="49.28821" lon="1.13565">
        <ele>69.14808</ele>
        <time>2015-07-02T10:24:17Z</time>
      </trkpt>
      <trkpt lat="49.28813" lon="1.13559">
        <ele>69.4956</ele>
        <time>2015-07-02T10:24:22Z</time>
      </trkpt>
      <trkpt lat="49.28809" lon="1.13554">
        <ele>69.4956</ele>
        <time>2015-07-02T10:24:27Z</time>
      </trkpt>
      <trkpt lat="49.28806" lon="1.1355">
        <ele>69.4956</ele>
        <time>2015-07-02T10:24:32Z</time>
      </trkpt>
      <trkpt lat="49.28803" lon="1.13546">
        <ele>69.58178</ele>
        <time>2015-07-02T10:24:37Z</time>
      </trkpt>
      <trkpt lat="49.28795" lon="1.13541">
        <ele>69.58178</ele>
        <time>2015-07-02T10:24:42Z</time>
      </trkpt>
      <trkpt lat="49.28791" lon="1.13533">
        <ele>69.368935</ele>
        <time>2015-07-02T10:24:47Z</time>
      </trkpt>
      <trkpt lat="49.28788" lon="1.13527">
        <ele>69.368935</ele>
        <time>2015-07-02T10:24:52Z</time>
      </trkpt>
      <trkpt lat="49.28783" lon="1.13524">
        <ele>69.01032</ele>
        <time>2015-07-02T10:24:57Z</time>
      </trkpt>
      <trkpt lat="49.28779" lon="1.13522">
        <ele>69.01032</ele>
        <time>2015-07-02T10:25:02Z</time>
      </trkpt>
      <trkpt lat="49.28776" lon="1.13516">
        <ele>69.01032</ele>
        <time>2015-07-02T10:25:07Z</time>
      </trkpt>
      <trkpt lat="49.2877" lon="1.1351">
        <ele>68.51869</ele>
        <time>2015-07-02T10:25:12Z</time>
      </trkpt>
      <trkpt lat="49.28765" lon="1.13506">
        <ele>68.51869</ele>
        <time>2015-07-02T10:25:17Z</time>
      </trkpt>
      <trkpt lat="49.2876" lon="1.13501">
        <ele>67.97829</ele>
        <time>2015-07-02T10:25:22Z</time>
      </trkpt>
      <trkpt lat="49.28756" lon="1.13496">
        <ele>67.97829</ele>
        <time>2015-07-02T10:25:27Z</time>
      </trkpt>
      <trkpt lat="49.28752" lon="1.1349">
        <ele>67.43848</ele>
        <time>2015-07-02T10:25:32Z</time>
      </trkpt>
      <trkpt lat="49.28748" lon="1.13486">
        <ele>67.43848</ele>
        <time>2015-07-02T10:25:37Z</time>
      </trkpt>
      <trkpt lat="49.28744" lon="1.13481">
        <ele>66.844124</ele>
        <time>2015-07-02T10:25:42Z</time>
      </trkpt>
      <trkpt lat="49.28741" lon="1.13475">
        <ele>66.844124</ele>
        <time>2015-07-02T10:25:47Z</time>
      </trkpt>
      <trkpt lat="49.28735" lon="1.1347">
        <ele>66.14429</ele>
        <time>2015-07-02T10:25:52Z</time>
      </trkpt>
      <trkpt lat="49.28732" lon="1.13467">
        <ele>66.14429</ele>
        <time>2015-07-02T10:25:57Z</time>
      </trkpt>
      <trkpt lat="49.28726" lon="1.13462">
        <ele>65.450554</ele>
        <time>2015-07-02T10:26:02Z</time>
      </trkpt>
      <trkpt lat="49.2872" lon="1.13458">
        <ele>65.450554</ele>
        <time>2015-07-02T10:26:07Z</time>
      </trkpt>
      <trkpt lat="49.28717" lon="1.13451">
        <ele>64.82304</ele>
        <time>2015-07-02T10:26:12Z</time>
      </trkpt>
      <trkpt lat="49.28713" lon="1.13447">
        <ele>64.82304</ele>
        <time>2015-07-02T10:26:17Z</time>
      </trkpt>
      <trkpt lat="49.28708" lon="1.13443">
        <ele>64.288414</ele>
        <time>2015-07-02T10:26:22Z</time>
      </trkpt>
      <trkpt lat="49.28704" lon="1.13434">
        <ele>64.288414</ele>
        <time>2015-07-02T10:26:27Z</time>
      </trkpt>
      <trkpt lat="49.287" lon="1.13425">
        <ele>63.92872</ele>
        <time>2015-07-02T10:26:32Z</time>
      </trkpt>
      <trkpt lat="49.28692" lon="1.13418">
        <ele>63.92872</ele>
        <time>2015-07-02T10:26:37Z</time>
      </trkpt>
      <trkpt lat="49.28686" lon="1.13409">
        <ele>63.73298</ele>
        <time>2015-07-02T10:26:42Z</time>
      </trkpt>
      <trkpt lat="49.28683" lon="1.13406">
        <ele>63.73298</ele>
        <time>2015-07-02T10:26:47Z</time>
      </trkpt>
      <trkpt lat="49.2868" lon="1.13401">
        <ele>63.73298</ele>
        <time>2015-07-02T10:26:52Z</time>
      </trkpt>
      <trkpt lat="49.28675" lon="1.13397">
        <ele>63.517582</ele>
        <time>2015-07-02T10:26:57Z</time>
      </trkpt>
      <trkpt lat="49.28672" lon="1.13391">
        <ele>63.517582</ele>
        <time>2015-07-02T10:27:02Z</time>
      </trkpt>
      <trkpt lat="49.28667" lon="1.13384">
        <ele>63.38623</ele>
        <time>2015-07-02T10:27:07Z</time>
      </trkpt>
      <trkpt lat="49.28663" lon="1.13379">
        <ele>63.38623</ele>
        <time>2015-07-02T10:27:12Z</time>
      </trkpt>
      <trkpt lat="49.28659" lon="1.13375">
        <ele>63.405895</ele>
        <time>2015-07-02T10:27:17Z</time>
      </trkpt>
      <trkpt lat="49.28653" lon="1.13371">
        <ele>63.405895</ele>
        <time>2015-07-02T10:27:22Z</time>
      </trkpt>
      <trkpt lat="49.28648" lon="1.13369">
        <ele>63.47964</ele>
        <time>2015-07-02T10:27:27Z</time>
      </trkpt>
      <trkpt lat="49.28644" lon="1.13365">
        <ele>63.47964</ele>
        <time>2015-07-02T10:27:32Z</time>
      </trkpt>
      <trkpt lat="49.2864" lon="1.1336">
        <ele>63.546276</ele>
        <time>2015-07-02T10:27:37Z</time>
      </trkpt>
      <trkpt lat="49.28634" lon="1.13353">
        <ele>63.546276</ele>
        <time>2015-07-02T10:27:42Z</time>
      </trkpt>
      <trkpt lat="49.2863" lon="1.13348">
        <ele>63.534676</ele>
        <time>2015-07-02T10:27:47Z</time>
      </trkpt>
      <trkpt lat="49.28626" lon="1.13345">
        <ele>63.534676</ele>
        <time>2015-07-02T10:27:52Z</time>
      </trkpt>
      <trkpt lat="49.28621" lon="1.13341">
        <ele>63.307053</ele>
        <time>2015-07-02T10:27:57Z</time>
      </trkpt>
      <trkpt lat="49.28613" lon="1.13332">
        <ele>63.06777</ele>
        <time>2015-07-02T10:28:02Z</time>
      </trkpt>
      <trkpt lat="49.2861" lon="1.13325">
        <ele>63.06777</ele>
        <time>2015-07-02T10:28:07Z</time>
      </trkpt>
      <trkpt lat="49.28608" lon="1.13318">
        <ele>62.84764</ele>
        <time>2015-07-02T10:28:12Z</time>
      </trkpt>
      <trkpt lat="49.28604" lon="1.13312">
        <ele>62.84764</ele>
        <time>2015-07-02T10:28:17Z</time>
      </trkpt>
      <trkpt lat="49.28597" lon="1.13305">
        <ele>62.55984</ele>
        <time>2015-07-02T10:28:22Z</time>
      </trkpt>
      <trkpt lat="49.28595" lon="1.13303">
        <ele>62.55984</ele>
        <time>2015-07-02T10:28:27Z</time>
      </trkpt>
      <trkpt lat="49.2859" lon="1.133">
        <ele>62.55984</ele>
        <time>2015-07-02T10:28:32Z</time>
      </trkpt>
      <trkpt lat="49.28587" lon="1.13295">
        <ele>62.253765</ele>
        <time>2015-07-02T10:28:37Z</time>
      </trkpt>
      <trkpt lat="49.28583" lon="1.13292">
        <ele>62.253765</ele>
        <time>2015-07-02T10:28:42Z</time>
      </trkpt>
      <trkpt lat="49.28576" lon="1.13284">
        <ele>61.931965</ele>
        <time>2015-07-02T10:28:47Z</time>
      </trkpt>
      <trkpt lat="49.28573" lon="1.1328">
        <ele>61.931965</ele>
        <time>2015-07-02T10:28:52Z</time>
      </trkpt>
      <trkpt lat="49.2857" lon="1.13273">
        <ele>61.640026</ele>
        <time>2015-07-02T10:28:57Z</time>
      </trkpt>
      <trkpt lat="49.28565" lon="1.13265">
        <ele>61.640026</ele>
        <time>2015-07-02T10:29:02Z</time>
      </trkpt>
      <trkpt lat="49.28556" lon="1.13254">
        <ele>61.665066</ele>
        <time>2015-07-02T10:29:07Z</time>
      </trkpt>
      <trkpt lat="49.28551" lon="1.1325">
        <ele>61.665066</ele>
        <time>2015-07-02T10:29:12Z</time>
      </trkpt>
      <trkpt lat="49.28546" lon="1.13247">
        <ele>62.012768</ele>
        <time>2015-07-02T10:29:17Z</time>
      </trkpt>
      <trkpt lat="49.28542" lon="1.13244">
        <ele>62.012768</ele>
        <time>2015-07-02T10:29:22Z</time>
      </trkpt>
      <trkpt lat="49.28537" lon="1.1324">
        <ele>62.35601</ele>
        <time>2015-07-02T10:29:27Z</time>
      </trkpt>
      <trkpt lat="49.28533" lon="1.13236">
        <ele>62.35601</ele>
        <time>2015-07-02T10:29:32Z</time>
      </trkpt>
      <trkpt lat="49.28531" lon="1.13233">
        <ele>62.35601</ele>
        <time>2015-07-02T10:29:37Z</time>
      </trkpt>
      <trkpt lat="49.28524" lon="1.13227">
        <ele>62.521374</ele>
        <time>2015-07-02T10:29:42Z</time>
      </trkpt>
      <trkpt lat="49.2852" lon="1.13219">
        <ele>62.521374</ele>
        <time>2015-07-02T10:29:47Z</time>
      </trkpt>
      <trkpt lat="49.28517" lon="1.13215">
        <ele>62.69451</ele>
        <time>2015-07-02T10:29:52Z</time>
      </trkpt>
      <trkpt lat="49.28512" lon="1.13211">
        <ele>62.69451</ele>
        <time>2015-07-02T10:29:57Z</time>
      </trkpt>
      <trkpt lat="49.28508" lon="1.13205">
        <ele>62.860054</ele>
        <time>2015-07-02T10:30:02Z</time>
      </trkpt>
      <trkpt lat="49.28501" lon="1.13199">
        <ele>62.860054</ele>
        <time>2015-07-02T10:30:07Z</time>
      </trkpt>
      <trkpt lat="49.28498" lon="1.13196">
        <ele>63.075806</ele>
        <time>2015-07-02T10:30:12Z</time>
      </trkpt>
      <trkpt lat="49.28492" lon="1.13189">
        <ele>63.075806</ele>
        <time>2015-07-02T10:30:17Z</time>
      </trkpt>
      <trkpt lat="49.28488" lon="1.13181">
        <ele>63.596935</ele>
        <time>2015-07-02T10:30:22Z</time>
      </trkpt>
      <trkpt lat="49.28485" lon="1.13175">
        <ele>63.596935</ele>
        <time>2015-07-02T10:30:27Z</time>
      </trkpt>
      <trkpt lat="49.28479" lon="1.13167">
        <ele>64.28429</ele>
        <time>2015-07-02T10:30:32Z</time>
      </trkpt>
      <trkpt lat="49.28476" lon="1.13162">
        <ele>64.28429</ele>
        <time>2015-07-02T10:30:37Z</time>
      </trkpt>
      <trkpt lat="49.28473" lon="1.13159">
        <ele>64.28429</ele>
        <time>2015-07-02T10:30:42Z</time>
      </trkpt>
      <trkpt lat="49.2847" lon="1.13157">
        <ele>65.06611</ele>
        <time>2015-07-02T10:30:47Z</time>
      </trkpt>
      <trkpt lat="49.28467" lon="1.13156">
        <ele>65.06611</ele>
        <time>2015-07-02T10:30:52Z</time>
      </trkpt>
      <trkpt lat="49.28464" lon="1.13152">
        <ele>65.06611</ele>
        <time>2015-07-02T10:30:57Z</time>
      </trkpt>
      <trkpt lat="49.2846" lon="1.13143">
        <ele>65.789185</ele>
        <time>2015-07-02T10:31:02Z</time>
      </trkpt>
      <trkpt lat="49.28454" lon="1.13136">
        <ele>65.789185</ele>
        <time>2015-07-02T10:31:07Z</time>
      </trkpt>
      <trkpt lat="49.28449" lon="1.13128">
        <ele>66.383766</ele>
        <time>2015-07-02T10:31:12Z</time>
      </trkpt>
      <trkpt lat="49.28445" lon="1.13122">
        <ele>66.383766</ele>
        <time>2015-07-02T10:31:17Z</time>
      </trkpt>
      <trkpt lat="49.28442" lon="1.13119">
        <ele>66.71355</ele>
        <time>2015-07-02T10:31:22Z</time>
      </trkpt>
      <trkpt lat="49.28438" lon="1.13116">
        <ele>66.71355</ele>
        <time>2015-07-02T10:31:27Z</time>
      </trkpt>
      <trkpt lat="49.28433" lon="1.1311">
        <ele>66.797104</ele>
        <time>2015-07-02T10:31:32Z</time>
      </trkpt>
      <trkpt lat="49.28427" lon="1.13103">
        <ele>66.797104</ele>
        <time>2015-07-02T10:31:37Z</time>
      </trkpt>
      <trkpt lat="49.28422" lon="1.13097">
        <ele>66.75322</ele>
        <time>2015-07-02T10:31:42Z</time>
      </trkpt>
      <trkpt lat="49.28415" lon="1.13093">
        <ele>66.75322</ele>
        <time>2015-07-02T10:31:47Z</time>
      </trkpt>
      <trkpt lat="49.28408" lon="1.13089">
        <ele>66.83644</ele>
        <time>2015-07-02T10:31:52Z</time>
      </trkpt>
      <trkpt lat="49.28404" lon="1.1308">
        <ele>66.83644</ele>
        <time>2015-07-02T10:31:57Z</time>
      </trkpt>
      <trkpt lat="49.284" lon="1.13075">
        <ele>66.97962</ele>
        <time>2015-07-02T10:32:02Z</time>
      </trkpt>
      <trkpt lat="49.28395" lon="1.13072">
        <ele>66.97962</ele>
        <time>2015-07-02T10:32:07Z</time>
      </trkpt>
      <trkpt lat="49.28391" lon="1.13067">
        <ele>67.19248</ele>
        <time>2015-07-02T10:32:12Z</time>
      </trkpt>
      <trkpt lat="49.28385" lon="1.13057">
        <ele>67.55586</ele>
        <time>2015-07-02T10:32:17Z</time>
      </trkpt>
      <trkpt lat="49.28382" lon="1.13053">
        <ele>67.55586</ele>
        <time>2015-07-02T10:32:22Z</time>
      </trkpt>
      <trkpt lat="49.2838" lon="1.1305">
        <ele>67.55586</ele>
        <time>2015-07-02T10:32:27Z</time>
      </trkpt>
      <trkpt lat="49.28376" lon="1.1304">
        <ele>68.27398</ele>
        <time>2015-07-02T10:32:32Z</time>
      </trkpt>
      <trkpt lat="49.28371" lon="1.13029">
        <ele>68.27398</ele>
        <time>2015-07-02T10:32:37Z</time>
      </trkpt>
      <trkpt lat="49.28365" lon="1.13023">
        <ele>69.03068</ele>
        <time>2015-07-02T10:32:42Z</time>
      </trkpt>
      <trkpt lat="49.2836" lon="1.13021">
        <ele>69.03068</ele>
        <time>2015-07-02T10:32:47Z</time>
      </trkpt>
      <trkpt lat="49.28352" lon="1.13021">
        <ele>69.72028</ele>
        <time>2015-07-02T10:32:52Z</time>
      </trkpt>
      <trkpt lat="49.28352" lon="1.1302">
        <ele>69.72028</ele>
        <time>2015-07-02T10:32:57Z</time>
      </trkpt>
      <trkpt lat="49.28353" lon="1.1302">
        <ele>69.72028</ele>
        <time>2015-07-02T10:33:02Z</time>
      </trkpt>
      <trkpt lat="49.28356" lon="1.1302">
        <ele>69.72028</ele>
        <time>2015-07-02T10:33:07Z</time>
      </trkpt>
      <trkpt lat="49.28359" lon="1.13014">
        <ele>70.37478</ele>
        <time>2015-07-02T10:33:12Z</time>
      </trkpt>
      <trkpt lat="49.28362" lon="1.13003">
        <ele>70.37478</ele>
        <time>2015-07-02T10:33:17Z</time>
      </trkpt>
      <trkpt lat="49.28363" lon="1.12994">
        <ele>71.00953</ele>
        <time>2015-07-02T10:33:22Z</time>
      </trkpt>
      <trkpt lat="49.28364" lon="1.12986">
        <ele>71.00953</ele>
        <time>2015-07-02T10:33:27Z</time>
      </trkpt>
      <trkpt lat="49.28365" lon="1.12977">
        <ele>71.66767</ele>
        <time>2015-07-02T10:33:32Z</time>
      </trkpt>
      <trkpt lat="49.28366" lon="1.1297">
        <ele>71.66767</ele>
        <time>2015-07-02T10:33:37Z</time>
      </trkpt>
      <trkpt lat="49.28367" lon="1.12964">
        <ele>71.66767</ele>
        <time>2015-07-02T10:33:42Z</time>
      </trkpt>
      <trkpt lat="49.28368" lon="1.12957">
        <ele>72.374725</ele>
        <time>2015-07-02T10:33:47Z</time>
      </trkpt>
      <trkpt lat="49.28368" lon="1.1295">
        <ele>72.374725</ele>
        <time>2015-07-02T10:33:52Z</time>
      </trkpt>
      <trkpt lat="49.28367" lon="1.12943">
        <ele>73.0822</ele>
        <time>2015-07-02T10:33:57Z</time>
      </trkpt>
      <trkpt lat="49.2837" lon="1.12935">
        <ele>73.0822</ele>
        <time>2015-07-02T10:34:02Z</time>
      </trkpt>
      <trkpt lat="49.2837" lon="1.12925">
        <ele>73.8028</ele>
        <time>2015-07-02T10:34:07Z</time>
      </trkpt>
      <trkpt lat="49.28371" lon="1.12915">
        <ele>73.8028</ele>
        <time>2015-07-02T10:34:12Z</time>
      </trkpt>
      <trkpt lat="49.28372" lon="1.12904">
        <ele>74.38983</ele>
        <time>2015-07-02T10:34:17Z</time>
      </trkpt>
      <trkpt lat="49.28372" lon="1.12895">
        <ele>74.38983</ele>
        <time>2015-07-02T10:34:22Z</time>
      </trkpt>
      <trkpt lat="49.28374" lon="1.12883">
        <ele>75.01039</ele>
        <time>2015-07-02T10:34:27Z</time>
      </trkpt>
      <trkpt lat="49.28375" lon="1.12876">
        <ele>75.01039</ele>
        <time>2015-07-02T10:34:32Z</time>
      </trkpt>
      <trkpt lat="49.28376" lon="1.12869">
        <ele>75.761604</ele>
        <time>2015-07-02T10:34:37Z</time>
      </trkpt>
      <trkpt lat="49.28379" lon="1.12861">
        <ele>75.761604</ele>
        <time>2015-07-02T10:34:42Z</time>
      </trkpt>
      <trkpt lat="49.28381" lon="1.12854">
        <ele>76.50257</ele>
        <time>2015-07-02T10:34:47Z</time>
      </trkpt>
      <trkpt lat="49.28384" lon="1.12845">
        <ele>76.50257</ele>
        <time>2015-07-02T10:34:52Z</time>
      </trkpt>
      <trkpt lat="49.28388" lon="1.12837">
        <ele>77.34781</ele>
        <time>2015-07-02T10:34:57Z</time>
      </trkpt>
      <trkpt lat="49.28393" lon="1.1283">
        <ele>77.34781</ele>
        <time>2015-07-02T10:35:02Z</time>
      </trkpt>
      <trkpt lat="49.28394" lon="1.12827">
        <ele>77.34781</ele>
        <time>2015-07-02T10:35:07Z</time>
      </trkpt>
      <trkpt lat="49.28397" lon="1.12821">
        <ele>78.48962</ele>
        <time>2015-07-02T10:35:12Z</time>
      </trkpt>
      <trkpt lat="49.28399" lon="1.1282">
        <ele>78.48962</ele>
        <time>2015-07-02T10:35:17Z</time>
      </trkpt>
      <trkpt lat="49.28401" lon="1.12816">
        <ele>78.48962</ele>
        <time>2015-07-02T10:35:22Z</time>
      </trkpt>
      <trkpt lat="49.28403" lon="1.12813">
        <ele>79.658676</ele>
        <time>2015-07-02T10:35:27Z</time>
      </trkpt>
      <trkpt lat="49.28405" lon="1.12808">
        <ele>79.658676</ele>
        <time>2015-07-02T10:35:32Z</time>
      </trkpt>
      <trkpt lat="49.28409" lon="1.12805">
        <ele>79.658676</ele>
        <time>2015-07-02T10:35:37Z</time>
      </trkpt>
      <trkpt lat="49.28419" lon="1.12793">
        <ele>80.908035</ele>
        <time>2015-07-02T10:35:42Z</time>
      </trkpt>
      <trkpt lat="49.28422" lon="1.12787">
        <ele>80.908035</ele>
        <time>2015-07-02T10:35:47Z</time>
      </trkpt>
      <trkpt lat="49.28426" lon="1.1278">
        <ele>82.05611</ele>
        <time>2015-07-02T10:35:52Z</time>
      </trkpt>
      <trkpt lat="49.28432" lon="1.12774">
        <ele>82.05611</ele>
        <time>2015-07-02T10:35:57Z</time>
      </trkpt>
      <trkpt lat="49.28438" lon="1.12767">
        <ele>83.151146</ele>
        <time>2015-07-02T10:36:02Z</time>
      </trkpt>
      <trkpt lat="49.28446" lon="1.12756">
        <ele>84.06515</ele>
        <time>2015-07-02T10:36:07Z</time>
      </trkpt>
      <trkpt lat="49.2845" lon="1.12747">
        <ele>84.06515</ele>
        <time>2015-07-02T10:36:12Z</time>
      </trkpt>
      <trkpt lat="49.28453" lon="1.1274">
        <ele>84.75213</ele>
        <time>2015-07-02T10:36:17Z</time>
      </trkpt>
      <trkpt lat="49.28454" lon="1.12731">
        <ele>84.75213</ele>
        <time>2015-07-02T10:36:22Z</time>
      </trkpt>
      <trkpt lat="49.28451" lon="1.12719">
        <ele>85.011665</ele>
        <time>2015-07-02T10:36:27Z</time>
      </trkpt>
      <trkpt lat="49.28447" lon="1.1271">
        <ele>85.011665</ele>
        <time>2015-07-02T10:36:32Z</time>
      </trkpt>
      <trkpt lat="49.28444" lon="1.12701">
        <ele>84.86108</ele>
        <time>2015-07-02T10:36:37Z</time>
      </trkpt>
      <trkpt lat="49.28441" lon="1.12691">
        <ele>84.86108</ele>
        <time>2015-07-02T10:36:42Z</time>
      </trkpt>
      <trkpt lat="49.28438" lon="1.12683">
        <ele>84.375244</ele>
        <time>2015-07-02T10:36:47Z</time>
      </trkpt>
      <trkpt lat="49.28436" lon="1.12676">
        <ele>84.375244</ele>
        <time>2015-07-02T10:36:52Z</time>
      </trkpt>
      <trkpt lat="49.28434" lon="1.12668">
        <ele>83.61013</ele>
        <time>2015-07-02T10:36:57Z</time>
      </trkpt>
      <trkpt lat="49.28433" lon="1.12662">
        <ele>83.61013</ele>
        <time>2015-07-02T10:37:02Z</time>
      </trkpt>
      <trkpt lat="49.2843" lon="1.12654">
        <ele>82.57517</ele>
        <time>2015-07-02T10:37:07Z</time>
      </trkpt>
      <trkpt lat="49.28427" lon="1.12643">
        <ele>82.57517</ele>
        <time>2015-07-02T10:37:12Z</time>
      </trkpt>
      <trkpt lat="49.28427" lon="1.1263">
        <ele>80.55933</ele>
        <time>2015-07-02T10:37:17Z</time>
      </trkpt>
      <trkpt lat="49.28425" lon="1.12621">
        <ele>80.55933</ele>
        <time>2015-07-02T10:37:22Z</time>
      </trkpt>
      <trkpt lat="49.28424" lon="1.12613">
        <ele>78.1171</ele>
        <time>2015-07-02T10:37:27Z</time>
      </trkpt>
      <trkpt lat="49.28423" lon="1.12599">
        <ele>75.86429</ele>
        <time>2015-07-02T10:37:32Z</time>
      </trkpt>
      <trkpt lat="49.28421" lon="1.12588">
        <ele>75.86429</ele>
        <time>2015-07-02T10:37:37Z</time>
      </trkpt>
      <trkpt lat="49.2842" lon="1.12577">
        <ele>74.01063</ele>
        <time>2015-07-02T10:37:42Z</time>
      </trkpt>
      <trkpt lat="49.28419" lon="1.12565">
        <ele>74.01063</ele>
        <time>2015-07-02T10:37:47Z</time>
      </trkpt>
      <trkpt lat="49.28419" lon="1.12558">
        <ele>72.44665</ele>
        <time>2015-07-02T10:37:52Z</time>
      </trkpt>
      <trkpt lat="49.28416" lon="1.12545">
        <ele>72.44665</ele>
        <time>2015-07-02T10:37:57Z</time>
      </trkpt>
      <trkpt lat="49.28415" lon="1.12538">
        <ele>71.08443</ele>
        <time>2015-07-02T10:38:02Z</time>
      </trkpt>
      <trkpt lat="49.28413" lon="1.1253">
        <ele>71.08443</ele>
        <time>2015-07-02T10:38:07Z</time>
      </trkpt>
      <trkpt lat="49.28413" lon="1.12519">
        <ele>69.87071</ele>
        <time>2015-07-02T10:38:12Z</time>
      </trkpt>
      <trkpt lat="49.28411" lon="1.12508">
        <ele>69.87071</ele>
        <time>2015-07-02T10:38:17Z</time>
      </trkpt>
      <trkpt lat="49.28408" lon="1.12497">
        <ele>68.856514</ele>
        <time>2015-07-02T10:38:22Z</time>
      </trkpt>
      <trkpt lat="49.28406" lon="1.12492">
        <ele>68.856514</ele>
        <time>2015-07-02T10:38:27Z</time>
      </trkpt>
      <trkpt lat="49.28406" lon="1.1248">
        <ele>68.001976</ele>
        <time>2015-07-02T10:38:32Z</time>
      </trkpt>
      <trkpt lat="49.28407" lon="1.1247">
        <ele>68.001976</ele>
        <time>2015-07-02T10:38:37Z</time>
      </trkpt>
      <trkpt lat="49.28408" lon="1.12465">
        <ele>67.34169</ele>
        <time>2015-07-02T10:38:42Z</time>
      </trkpt>
      <trkpt lat="49.28406" lon="1.12452">
        <ele>67.34169</ele>
        <time>2015-07-02T10:38:47Z</time>
      </trkpt>
      <trkpt lat="49.28405" lon="1.12445">
        <ele>66.863815</ele>
        <time>2015-07-02T10:38:52Z</time>
      </trkpt>
      <trkpt lat="49.28404" lon="1.1244">
        <ele>66.863815</ele>
        <time>2015-07-02T10:38:57Z</time>
      </trkpt>
      <trkpt lat="49.28405" lon="1.1243">
        <ele>66.52796</ele>
        <time>2015-07-02T10:39:02Z</time>
      </trkpt>
      <trkpt lat="49.28406" lon="1.12421">
        <ele>66.52796</ele>
        <time>2015-07-02T10:39:07Z</time>
      </trkpt>
      <trkpt lat="49.28408" lon="1.12413">
        <ele>66.23855</ele>
        <time>2015-07-02T10:39:12Z</time>
      </trkpt>
      <trkpt lat="49.28409" lon="1.12403">
        <ele>66.23855</ele>
        <time>2015-07-02T10:39:17Z</time>
      </trkpt>
      <trkpt lat="49.2841" lon="1.12394">
        <ele>66.05092</ele>
        <time>2015-07-02T10:39:22Z</time>
      </trkpt>
      <trkpt lat="49.28412" lon="1.12383">
        <ele>66.05092</ele>
        <time>2015-07-02T10:39:27Z</time>
      </trkpt>
      <trkpt lat="49.28412" lon="1.12375">
        <ele>65.91509</ele>
        <time>2015-07-02T10:39:32Z</time>
      </trkpt>
      <trkpt lat="49.28413" lon="1.12365">
        <ele>65.91509</ele>
        <time>2015-07-02T10:39:37Z</time>
      </trkpt>
      <trkpt lat="49.28413" lon="1.12357">
        <ele>65.971855</ele>
        <time>2015-07-02T10:39:42Z</time>
      </trkpt>
      <trkpt lat="49.28413" lon="1.12349">
        <ele>65.971855</ele>
        <time>2015-07-02T10:39:47Z</time>
      </trkpt>
      <trkpt lat="49.28415" lon="1.12341">
        <ele>66.01961</ele>
        <time>2015-07-02T10:39:52Z</time>
      </trkpt>
      <trkpt lat="49.28416" lon="1.1233">
        <ele>66.01961</ele>
        <time>2015-07-02T10:39:57Z</time>
      </trkpt>
      <trkpt lat="49.28417" lon="1.12317">
        <ele>66.13088</ele>
        <time>2015-07-02T10:40:02Z</time>
      </trkpt>
      <trkpt lat="49.28419" lon="1.12308">
        <ele>66.13088</ele>
        <time>2015-07-02T10:40:07Z</time>
      </trkpt>
      <trkpt lat="49.28419" lon="1.12301">
        <ele>66.24295</ele>
        <time>2015-07-02T10:40:12Z</time>
      </trkpt>
      <trkpt lat="49.28421" lon="1.12292">
        <ele>66.24295</ele>
        <time>2015-07-02T10:40:17Z</time>
      </trkpt>
      <trkpt lat="49.28422" lon="1.12282">
        <ele>66.35527</ele>
        <time>2015-07-02T10:40:22Z</time>
      </trkpt>
      <trkpt lat="49.28423" lon="1.12274">
        <ele>66.35527</ele>
        <time>2015-07-02T10:40:27Z</time>
      </trkpt>
      <trkpt lat="49.28422" lon="1.1226">
        <ele>66.46727</ele>
        <time>2015-07-02T10:40:32Z</time>
      </trkpt>
      <trkpt lat="49.28423" lon="1.12254">
        <ele>66.46727</ele>
        <time>2015-07-02T10:40:37Z</time>
      </trkpt>
      <trkpt lat="49.28424" lon="1.12245">
        <ele>66.53516</ele>
        <time>2015-07-02T10:40:42Z</time>
      </trkpt>
      <trkpt lat="49.28424" lon="1.12235">
        <ele>66.53516</ele>
        <time>2015-07-02T10:40:47Z</time>
      </trkpt>
      <trkpt lat="49.28424" lon="1.12226">
        <ele>66.576065</ele>
        <time>2015-07-02T10:40:52Z</time>
      </trkpt>
      <trkpt lat="49.28425" lon="1.12217">
        <ele>66.576065</ele>
        <time>2015-07-02T10:40:57Z</time>
      </trkpt>
      <trkpt lat="49.28427" lon="1.1221">
        <ele>66.634735</ele>
        <time>2015-07-02T10:41:02Z</time>
      </trkpt>
      <trkpt lat="49.28429" lon="1.12199">
        <ele>66.634735</ele>
        <time>2015-07-02T10:41:07Z</time>
      </trkpt>
      <trkpt lat="49.28429" lon="1.12192">
        <ele>66.60841</ele>
        <time>2015-07-02T10:41:12Z</time>
      </trkpt>
      <trkpt lat="49.28429" lon="1.12182">
        <ele>66.60841</ele>
        <time>2015-07-02T10:41:17Z</time>
      </trkpt>
      <trkpt lat="49.2843" lon="1.12171">
        <ele>66.57505</ele>
        <time>2015-07-02T10:41:22Z</time>
      </trkpt>
      <trkpt lat="49.2843" lon="1.12165">
        <ele>66.57505</ele>
        <time>2015-07-02T10:41:27Z</time>
      </trkpt>
      <trkpt lat="49.2843" lon="1.12156">
        <ele>66.44833</ele>
        <time>2015-07-02T10:41:32Z</time>
      </trkpt>
      <trkpt lat="49.28431" lon="1.12147">
        <ele>66.44833</ele>
        <time>2015-07-02T10:41:37Z</time>
      </trkpt>
      <trkpt lat="49.28431" lon="1.12138">
        <ele>66.23499</ele>
        <time>2015-07-02T10:41:42Z</time>
      </trkpt>
      <trkpt lat="49.28431" lon="1.12131">
        <ele>66.23499</ele>
        <time>2015-07-02T10:41:47Z</time>
      </trkpt>
      <trkpt lat="49.28426" lon="1.12125">
        <ele>65.92707</ele>
        <time>2015-07-02T10:41:52Z</time>
      </trkpt>
      <trkpt lat="49.28421" lon="1.12117">
        <ele>65.92707</ele>
        <time>2015-07-02T10:41:57Z</time>
      </trkpt>
      <trkpt lat="49.28416" lon="1.1211">
        <ele>65.60392</ele>
        <time>2015-07-02T10:42:02Z</time>
      </trkpt>
      <trkpt lat="49.28411" lon="1.12106">
        <ele>65.60392</ele>
        <time>2015-07-02T10:42:07Z</time>
      </trkpt>
      <trkpt lat="49.28406" lon="1.12099">
        <ele>65.28142</ele>
        <time>2015-07-02T10:42:12Z</time>
      </trkpt>
      <trkpt lat="49.28401" lon="1.12092">
        <ele>65.28142</ele>
        <time>2015-07-02T10:42:17Z</time>
      </trkpt>
      <trkpt lat="49.28398" lon="1.12088">
        <ele>64.88781</ele>
        <time>2015-07-02T10:42:22Z</time>
      </trkpt>
      <trkpt lat="49.28392" lon="1.1208">
        <ele>64.88781</ele>
        <time>2015-07-02T10:42:27Z</time>
      </trkpt>
      <trkpt lat="49.28387" lon="1.12075">
        <ele>64.54413</ele>
        <time>2015-07-02T10:42:32Z</time>
      </trkpt>
      <trkpt lat="49.28384" lon="1.12067">
        <ele>64.54413</ele>
        <time>2015-07-02T10:42:37Z</time>
      </trkpt>
      <trkpt lat="49.28379" lon="1.12059">
        <ele>64.23265</ele>
        <time>2015-07-02T10:42:42Z</time>
      </trkpt>
      <trkpt lat="49.28374" lon="1.12055">
        <ele>64.23265</ele>
        <time>2015-07-02T10:42:47Z</time>
      </trkpt>
      <trkpt lat="49.28369" lon="1.12047">
        <ele>64.02332</ele>
        <time>2015-07-02T10:42:52Z</time>
      </trkpt>
      <trkpt lat="49.28364" lon="1.12044">
        <ele>64.02332</ele>
        <time>2015-07-02T10:42:57Z</time>
      </trkpt>
      <trkpt lat="49.2836" lon="1.12039">
        <ele>63.894173</ele>
        <time>2015-07-02T10:43:02Z</time>
      </trkpt>
      <trkpt lat="49.28356" lon="1.12031">
        <ele>63.894173</ele>
        <time>2015-07-02T10:43:07Z</time>
      </trkpt>
      <trkpt lat="49.28351" lon="1.12027">
        <ele>63.839027</ele>
        <time>2015-07-02T10:43:12Z</time>
      </trkpt>
      <trkpt lat="49.28348" lon="1.12021">
        <ele>63.839027</ele>
        <time>2015-07-02T10:43:17Z</time>
      </trkpt>
      <trkpt lat="49.28345" lon="1.12017">
        <ele>63.808697</ele>
        <time>2015-07-02T10:43:22Z</time>
      </trkpt>
      <trkpt lat="49.2834" lon="1.12012">
        <ele>63.808697</ele>
        <time>2015-07-02T10:43:27Z</time>
      </trkpt>
      <trkpt lat="49.28334" lon="1.12006">
        <ele>63.72871</ele>
        <time>2015-07-02T10:43:32Z</time>
      </trkpt>
      <trkpt lat="49.28329" lon="1.12001">
        <ele>63.72871</ele>
        <time>2015-07-02T10:43:37Z</time>
      </trkpt>
      <trkpt lat="49.28323" lon="1.11995">
        <ele>63.688713</ele>
        <time>2015-07-02T10:43:42Z</time>
      </trkpt>
      <trkpt lat="49.28318" lon="1.11991">
        <ele>63.688713</ele>
        <time>2015-07-02T10:43:47Z</time>
      </trkpt>
      <trkpt lat="49.28312" lon="1.11984">
        <ele>63.526665</ele>
        <time>2015-07-02T10:43:52Z</time>
      </trkpt>
      <trkpt lat="49.28307" lon="1.11978">
        <ele>63.526665</ele>
        <time>2015-07-02T10:43:57Z</time>
      </trkpt>
      <trkpt lat="49.28303" lon="1.1197">
        <ele>63.337746</ele>
        <time>2015-07-02T10:44:02Z</time>
      </trkpt>
      <trkpt lat="49.28299" lon="1.11965">
        <ele>63.337746</ele>
        <time>2015-07-02T10:44:07Z</time>
      </trkpt>
      <trkpt lat="49.28293" lon="1.11959">
        <ele>63.195812</ele>
        <time>2015-07-02T10:44:12Z</time>
      </trkpt>
      <trkpt lat="49.28288" lon="1.11956">
        <ele>63.195812</ele>
        <time>2015-07-02T10:44:17Z</time>
      </trkpt>
      <trkpt lat="49.28283" lon="1.11949">
        <ele>63.02505</ele>
        <time>2015-07-02T10:44:22Z</time>
      </trkpt>
      <trkpt lat="49.2828" lon="1.11945">
        <ele>63.02505</ele>
        <time>2015-07-02T10:44:27Z</time>
      </trkpt>
      <trkpt lat="49.28275" lon="1.11941">
        <ele>62.913807</ele>
        <time>2015-07-02T10:44:32Z</time>
      </trkpt>
      <trkpt lat="49.2827" lon="1.11936">
        <ele>62.913807</ele>
        <time>2015-07-02T10:44:37Z</time>
      </trkpt>
      <trkpt lat="49.28266" lon="1.1193">
        <ele>62.79967</ele>
        <time>2015-07-02T10:44:42Z</time>
      </trkpt>
      <trkpt lat="49.2826" lon="1.11924">
        <ele>62.79967</ele>
        <time>2015-07-02T10:44:47Z</time>
      </trkpt>
      <trkpt lat="49.28256" lon="1.11921">
        <ele>62.65364</ele>
        <time>2015-07-02T10:44:52Z</time>
      </trkpt>
      <trkpt lat="49.28252" lon="1.11917">
        <ele>62.65364</ele>
        <time>2015-07-02T10:44:57Z</time>
      </trkpt>
      <trkpt lat="49.28248" lon="1.11911">
        <ele>62.50658</ele>
        <time>2015-07-02T10:45:02Z</time>
      </trkpt>
      <trkpt lat="49.28244" lon="1.11905">
        <ele>62.50658</ele>
        <time>2015-07-02T10:45:07Z</time>
      </trkpt>
      <trkpt lat="49.28238" lon="1.11899">
        <ele>62.473564</ele>
        <time>2015-07-02T10:45:12Z</time>
      </trkpt>
      <trkpt lat="49.28233" lon="1.11894">
        <ele>62.473564</ele>
        <time>2015-07-02T10:45:17Z</time>
      </trkpt>
      <trkpt lat="49.28228" lon="1.11889">
        <ele>62.48796</ele>
        <time>2015-07-02T10:45:22Z</time>
      </trkpt>
      <trkpt lat="49.28223" lon="1.11881">
        <ele>62.48796</ele>
        <time>2015-07-02T10:45:27Z</time>
      </trkpt>
      <trkpt lat="49.28218" lon="1.11877">
        <ele>62.559956</ele>
        <time>2015-07-02T10:45:32Z</time>
      </trkpt>
      <trkpt lat="49.28212" lon="1.11872">
        <ele>62.559956</ele>
        <time>2015-07-02T10:45:37Z</time>
      </trkpt>
      <trkpt lat="49.2821" lon="1.11867">
        <ele>62.713253</ele>
        <time>2015-07-02T10:45:42Z</time>
      </trkpt>
      <trkpt lat="49.28205" lon="1.11862">
        <ele>62.713253</ele>
        <time>2015-07-02T10:45:47Z</time>
      </trkpt>
      <trkpt lat="49.282" lon="1.11854">
        <ele>62.99841</ele>
        <time>2015-07-02T10:45:52Z</time>
      </trkpt>
      <trkpt lat="49.28197" lon="1.11847">
        <ele>62.99841</ele>
        <time>2015-07-02T10:45:57Z</time>
      </trkpt>
      <trkpt lat="49.28198" lon="1.11847">
        <ele>62.99841</ele>
        <time>2015-07-02T10:46:02Z</time>
      </trkpt>
      <trkpt lat="49.282" lon="1.11846">
        <ele>62.99841</ele>
        <time>2015-07-02T10:46:07Z</time>
      </trkpt>
      <trkpt lat="49.28199" lon="1.11846">
        <ele>62.99841</ele>
        <time>2015-07-02T10:46:12Z</time>
      </trkpt>
      <trkpt lat="49.28199" lon="1.11847">
        <ele>63.38986</ele>
        <time>2015-07-02T10:46:17Z</time>
      </trkpt>
      <trkpt lat="49.28201" lon="1.11848">
        <ele>63.38986</ele>
        <time>2015-07-02T10:46:22Z</time>
      </trkpt>
      <trkpt lat="49.282" lon="1.11849">
        <ele>63.38986</ele>
        <time>2015-07-02T10:46:27Z</time>
      </trkpt>
      <trkpt lat="49.28197" lon="1.11851">
        <ele>63.38986</ele>
        <time>2015-07-02T10:46:32Z</time>
      </trkpt>
      <trkpt lat="49.28194" lon="1.1185">
        <ele>63.561</ele>
        <time>2015-07-02T10:46:37Z</time>
      </trkpt>
      <trkpt lat="49.28189" lon="1.11845">
        <ele>63.561</ele>
        <time>2015-07-02T10:46:42Z</time>
      </trkpt>
      <trkpt lat="49.28184" lon="1.11839">
        <ele>63.699833</ele>
        <time>2015-07-02T10:46:47Z</time>
      </trkpt>
      <trkpt lat="49.28179" lon="1.11832">
        <ele>63.699833</ele>
        <time>2015-07-02T10:46:52Z</time>
      </trkpt>
      <trkpt lat="49.28175" lon="1.11827">
        <ele>63.937428</ele>
        <time>2015-07-02T10:46:57Z</time>
      </trkpt>
      <trkpt lat="49.28171" lon="1.11822">
        <ele>63.937428</ele>
        <time>2015-07-02T10:47:02Z</time>
      </trkpt>
      <trkpt lat="49.28167" lon="1.11817">
        <ele>64.29409</ele>
        <time>2015-07-02T10:47:07Z</time>
      </trkpt>
      <trkpt lat="49.28163" lon="1.11811">
        <ele>64.29409</ele>
        <time>2015-07-02T10:47:12Z</time>
      </trkpt>
      <trkpt lat="49.2816" lon="1.11804">
        <ele>64.65863</ele>
        <time>2015-07-02T10:47:17Z</time>
      </trkpt>
      <trkpt lat="49.28155" lon="1.11798">
        <ele>64.65863</ele>
        <time>2015-07-02T10:47:22Z</time>
      </trkpt>
      <trkpt lat="49.28151" lon="1.11791">
        <ele>65.20184</ele>
        <time>2015-07-02T10:47:27Z</time>
      </trkpt>
      <trkpt lat="49.28146" lon="1.11784">
        <ele>65.20184</ele>
        <time>2015-07-02T10:47:32Z</time>
      </trkpt>
      <trkpt lat="49.28143" lon="1.1178">
        <ele>65.879745</ele>
        <time>2015-07-02T10:47:37Z</time>
      </trkpt>
      <trkpt lat="49.28143" lon="1.1178">
        <ele>65.879745</ele>
        <time>2015-07-02T10:47:42Z</time>
      </trkpt>
      <trkpt lat="49.28139" lon="1.11775">
        <ele>65.879745</ele>
        <time>2015-07-02T10:47:47Z</time>
      </trkpt>
      <trkpt lat="49.28135" lon="1.11772">
        <ele>66.82418</ele>
        <time>2015-07-02T10:47:52Z</time>
      </trkpt>
      <trkpt lat="49.28131" lon="1.11768">
        <ele>66.82418</ele>
        <time>2015-07-02T10:47:57Z</time>
      </trkpt>
      <trkpt lat="49.28127" lon="1.11764">
        <ele>67.796326</ele>
        <time>2015-07-02T10:48:02Z</time>
      </trkpt>
      <trkpt lat="49.28122" lon="1.11761">
        <ele>67.796326</ele>
        <time>2015-07-02T10:48:07Z</time>
      </trkpt>
      <trkpt lat="49.28118" lon="1.11758">
        <ele>68.675735</ele>
        <time>2015-07-02T10:48:12Z</time>
      </trkpt>
      <trkpt lat="49.28114" lon="1.11752">
        <ele>68.675735</ele>
        <time>2015-07-02T10:48:17Z</time>
      </trkpt>
      <trkpt lat="49.2811" lon="1.11751">
        <ele>69.538475</ele>
        <time>2015-07-02T10:48:22Z</time>
      </trkpt>
      <trkpt lat="49.28105" lon="1.11743">
        <ele>69.538475</ele>
        <time>2015-07-02T10:48:27Z</time>
      </trkpt>
      <trkpt lat="49.281" lon="1.11734">
        <ele>70.455124</ele>
        <time>2015-07-02T10:48:32Z</time>
      </trkpt>
      <trkpt lat="49.28096" lon="1.1173">
        <ele>70.455124</ele>
        <time>2015-07-02T10:48:37Z</time>
      </trkpt>
      <trkpt lat="49.28092" lon="1.11725">
        <ele>71.43334</ele>
        <time>2015-07-02T10:48:42Z</time>
      </trkpt>
      <trkpt lat="49.28089" lon="1.11721">
        <ele>71.43334</ele>
        <time>2015-07-02T10:48:47Z</time>
      </trkpt>
      <trkpt lat="49.28086" lon="1.11718">
        <ele>71.43334</ele>
        <time>2015-07-02T10:48:52Z</time>
      </trkpt>
      <trkpt lat="49.28079" lon="1.11714">
        <ele>72.39363</ele>
        <time>2015-07-02T10:48:57Z</time>
      </trkpt>
      <trkpt lat="49.28075" lon="1.11709">
        <ele>72.39363</ele>
        <time>2015-07-02T10:49:02Z</time>
      </trkpt>
      <trkpt lat="49.2807" lon="1.11702">
        <ele>73.34895</ele>
        <time>2015-07-02T10:49:07Z</time>
      </trkpt>
      <trkpt lat="49.28066" lon="1.11699">
        <ele>73.34895</ele>
        <time>2015-07-02T10:49:12Z</time>
      </trkpt>
      <trkpt lat="49.28061" lon="1.11691">
        <ele>74.29695</ele>
        <time>2015-07-02T10:49:17Z</time>
      </trkpt>
      <trkpt lat="49.28058" lon="1.11686">
        <ele>74.29695</ele>
        <time>2015-07-02T10:49:22Z</time>
      </trkpt>
      <trkpt lat="49.28056" lon="1.11679">
        <ele>75.14911</ele>
        <time>2015-07-02T10:49:27Z</time>
      </trkpt>
      <trkpt lat="49.2805" lon="1.11674">
        <ele>75.14911</ele>
        <time>2015-07-02T10:49:32Z</time>
      </trkpt>
      <trkpt lat="49.28045" lon="1.11668">
        <ele>75.9246</ele>
        <time>2015-07-02T10:49:37Z</time>
      </trkpt>
      <trkpt lat="49.28041" lon="1.11664">
        <ele>75.9246</ele>
        <time>2015-07-02T10:49:42Z</time>
      </trkpt>
      <trkpt lat="49.28037" lon="1.11658">
        <ele>76.71355</ele>
        <time>2015-07-02T10:49:47Z</time>
      </trkpt>
      <trkpt lat="49.28033" lon="1.11647">
        <ele>76.71355</ele>
        <time>2015-07-02T10:49:52Z</time>
      </trkpt>
      <trkpt lat="49.28028" lon="1.11641">
        <ele>77.48421</ele>
        <time>2015-07-02T10:49:57Z</time>
      </trkpt>
      <trkpt lat="49.28024" lon="1.11635">
        <ele>77.48421</ele>
        <time>2015-07-02T10:50:02Z</time>
      </trkpt>
      <trkpt lat="49.28019" lon="1.11626">
        <ele>78.250534</ele>
        <time>2015-07-02T10:50:07Z</time>
      </trkpt>
      <trkpt lat="49.28014" lon="1.11621">
        <ele>78.250534</ele>
        <time>2015-07-02T10:50:12Z</time>
      </trkpt>
      <trkpt lat="49.28009" lon="1.11615">
        <ele>79.05436</ele>
        <time>2015-07-02T10:50:17Z</time>
      </trkpt>
      <trkpt lat="49.28004" lon="1.11611">
        <ele>79.05436</ele>
        <time>2015-07-02T10:50:22Z</time>
      </trkpt>
      <trkpt lat="49.27999" lon="1.11606">
        <ele>79.83354</ele>
        <time>2015-07-02T10:50:27Z</time>
      </trkpt>
      <trkpt lat="49.27993" lon="1.116">
        <ele>79.83354</ele>
        <time>2015-07-02T10:50:32Z</time>
      </trkpt>
      <trkpt lat="49.27988" lon="1.11594">
        <ele>80.559456</ele>
        <time>2015-07-02T10:50:37Z</time>
      </trkpt>
      <trkpt lat="49.27984" lon="1.11589">
        <ele>80.559456</ele>
        <time>2015-07-02T10:50:42Z</time>
      </trkpt>
      <trkpt lat="49.27979" lon="1.11585">
        <ele>81.19141</ele>
        <time>2015-07-02T10:50:47Z</time>
      </trkpt>
      <trkpt lat="49.27972" lon="1.11581">
        <ele>81.19141</ele>
        <time>2015-07-02T10:50:52Z</time>
      </trkpt>
      <trkpt lat="49.27967" lon="1.11572">
        <ele>81.82172</ele>
        <time>2015-07-02T10:50:57Z</time>
      </trkpt>
      <trkpt lat="49.27963" lon="1.11568">
        <ele>81.82172</ele>
        <time>2015-07-02T10:51:02Z</time>
      </trkpt>
      <trkpt lat="49.27958" lon="1.11564">
        <ele>82.42072</ele>
        <time>2015-07-02T10:51:07Z</time>
      </trkpt>
      <trkpt lat="49.27953" lon="1.1156">
        <ele>82.42072</ele>
        <time>2015-07-02T10:51:12Z</time>
      </trkpt>
      <trkpt lat="49.27948" lon="1.11555">
        <ele>82.9755</ele>
        <time>2015-07-02T10:51:17Z</time>
      </trkpt>
      <trkpt lat="49.27944" lon="1.11551">
        <ele>82.9755</ele>
        <time>2015-07-02T10:51:22Z</time>
      </trkpt>
      <trkpt lat="49.2794" lon="1.11545">
        <ele>83.41661</ele>
        <time>2015-07-02T10:51:27Z</time>
      </trkpt>
      <trkpt lat="49.27935" lon="1.1154">
        <ele>83.41661</ele>
        <time>2015-07-02T10:51:32Z</time>
      </trkpt>
      <trkpt lat="49.27931" lon="1.11536">
        <ele>83.781</ele>
        <time>2015-07-02T10:51:37Z</time>
      </trkpt>
      <trkpt lat="49.27927" lon="1.11531">
        <ele>83.781</ele>
        <time>2015-07-02T10:51:42Z</time>
      </trkpt>
      <trkpt lat="49.27923" lon="1.11527">
        <ele>84.14637</ele>
        <time>2015-07-02T10:51:47Z</time>
      </trkpt>
      <trkpt lat="49.27919" lon="1.11522">
        <ele>84.14637</ele>
        <time>2015-07-02T10:51:52Z</time>
      </trkpt>
      <trkpt lat="49.27914" lon="1.11517">
        <ele>84.49832</ele>
        <time>2015-07-02T10:51:57Z</time>
      </trkpt>
      <trkpt lat="49.2791" lon="1.11513">
        <ele>84.49832</ele>
        <time>2015-07-02T10:52:02Z</time>
      </trkpt>
      <trkpt lat="49.27906" lon="1.11505">
        <ele>84.938896</ele>
        <time>2015-07-02T10:52:07Z</time>
      </trkpt>
      <trkpt lat="49.27901" lon="1.115">
        <ele>84.938896</ele>
        <time>2015-07-02T10:52:12Z</time>
      </trkpt>
      <trkpt lat="49.27899" lon="1.11492">
        <ele>85.432724</ele>
        <time>2015-07-02T10:52:17Z</time>
      </trkpt>
      <trkpt lat="49.27896" lon="1.11487">
        <ele>85.432724</ele>
        <time>2015-07-02T10:52:22Z</time>
      </trkpt>
      <trkpt lat="49.27892" lon="1.11482">
        <ele>86.00457</ele>
        <time>2015-07-02T10:52:27Z</time>
      </trkpt>
      <trkpt lat="49.27888" lon="1.11475">
        <ele>86.00457</ele>
        <time>2015-07-02T10:52:32Z</time>
      </trkpt>
      <trkpt lat="49.27883" lon="1.1147">
        <ele>86.67721</ele>
        <time>2015-07-02T10:52:37Z</time>
      </trkpt>
      <trkpt lat="49.27879" lon="1.11464">
        <ele>86.67721</ele>
        <time>2015-07-02T10:52:42Z</time>
      </trkpt>
      <trkpt lat="49.27874" lon="1.11461">
        <ele>87.45708</ele>
        <time>2015-07-02T10:52:47Z</time>
      </trkpt>
      <trkpt lat="49.27869" lon="1.11458">
        <ele>87.45708</ele>
        <time>2015-07-02T10:52:52Z</time>
      </trkpt>
      <trkpt lat="49.27864" lon="1.11452">
        <ele>88.30665</ele>
        <time>2015-07-02T10:52:57Z</time>
      </trkpt>
      <trkpt lat="49.2786" lon="1.1145">
        <ele>88.30665</ele>
        <time>2015-07-02T10:53:02Z</time>
      </trkpt>
      <trkpt lat="49.27854" lon="1.11441">
        <ele>89.19099</ele>
        <time>2015-07-02T10:53:07Z</time>
      </trkpt>
      <trkpt lat="49.27851" lon="1.11432">
        <ele>89.19099</ele>
        <time>2015-07-02T10:53:12Z</time>
      </trkpt>
      <trkpt lat="49.27845" lon="1.11425">
        <ele>90.1209</ele>
        <time>2015-07-02T10:53:17Z</time>
      </trkpt>
      <trkpt lat="49.27841" lon="1.11419">
        <ele>90.1209</ele>
        <time>2015-07-02T10:53:22Z</time>
      </trkpt>
      <trkpt lat="49.27837" lon="1.11414">
        <ele>91.14955</ele>
        <time>2015-07-02T10:53:27Z</time>
      </trkpt>
      <trkpt lat="49.27832" lon="1.11408">
        <ele>91.14955</ele>
        <time>2015-07-02T10:53:32Z</time>
      </trkpt>
      <trkpt lat="49.27827" lon="1.11402">
        <ele>92.268295</ele>
        <time>2015-07-02T10:53:37Z</time>
      </trkpt>
      <trkpt lat="49.27825" lon="1.11397">
        <ele>92.268295</ele>
        <time>2015-07-02T10:53:42Z</time>
      </trkpt>
      <trkpt lat="49.27821" lon="1.11394">
        <ele>92.268295</ele>
        <time>2015-07-02T10:53:47Z</time>
      </trkpt>
      <trkpt lat="49.27816" lon="1.11388">
        <ele>93.25276</ele>
        <time>2015-07-02T10:53:52Z</time>
      </trkpt>
      <trkpt lat="49.27812" lon="1.11381">
        <ele>93.25276</ele>
        <time>2015-07-02T10:53:57Z</time>
      </trkpt>
      <trkpt lat="49.27807" lon="1.11379">
        <ele>94.18368</ele>
        <time>2015-07-02T10:54:02Z</time>
      </trkpt>
      <trkpt lat="49.278" lon="1.11372">
        <ele>94.18368</ele>
        <time>2015-07-02T10:54:07Z</time>
      </trkpt>
      <trkpt lat="49.27796" lon="1.11366">
        <ele>95.07841</ele>
        <time>2015-07-02T10:54:12Z</time>
      </trkpt>
      <trkpt lat="49.27792" lon="1.1136">
        <ele>95.07841</ele>
        <time>2015-07-02T10:54:17Z</time>
      </trkpt>
      <trkpt lat="49.27788" lon="1.11355">
        <ele>96.039635</ele>
        <time>2015-07-02T10:54:22Z</time>
      </trkpt>
      <trkpt lat="49.27783" lon="1.11351">
        <ele>96.039635</ele>
        <time>2015-07-02T10:54:27Z</time>
      </trkpt>
      <trkpt lat="49.27779" lon="1.11348">
        <ele>97.01826</ele>
        <time>2015-07-02T10:54:32Z</time>
      </trkpt>
      <trkpt lat="49.27775" lon="1.11345">
        <ele>97.01826</ele>
        <time>2015-07-02T10:54:37Z</time>
      </trkpt>
      <trkpt lat="49.27771" lon="1.11341">
        <ele>97.882286</ele>
        <time>2015-07-02T10:54:42Z</time>
      </trkpt>
      <trkpt lat="49.27765" lon="1.11335">
        <ele>97.882286</ele>
        <time>2015-07-02T10:54:47Z</time>
      </trkpt>
      <trkpt lat="49.27759" lon="1.11333">
        <ele>98.87008</ele>
        <time>2015-07-02T10:54:52Z</time>
      </trkpt>
      <trkpt lat="49.27755" lon="1.11332">
        <ele>98.87008</ele>
        <time>2015-07-02T10:54:57Z</time>
      </trkpt>
      <trkpt lat="49.27752" lon="1.11326">
        <ele>100.04366</ele>
        <time>2015-07-02T10:55:02Z</time>
      </trkpt>
      <trkpt lat="49.2775" lon="1.11325">
        <ele>100.04366</ele>
        <time>2015-07-02T10:55:07Z</time>
      </trkpt>
      <trkpt lat="49.27743" lon="1.1132">
        <ele>101.3447</ele>
        <time>2015-07-02T10:55:12Z</time>
      </trkpt>
      <trkpt lat="49.27738" lon="1.11317">
        <ele>101.3447</ele>
        <time>2015-07-02T10:55:17Z</time>
      </trkpt>
      <trkpt lat="49.27737" lon="1.11315">
        <ele>101.3447</ele>
        <time>2015-07-02T10:55:22Z</time>
      </trkpt>
      <trkpt lat="49.2773" lon="1.11313">
        <ele>102.891815</ele>
        <time>2015-07-02T10:55:27Z</time>
      </trkpt>
      <trkpt lat="49.27722" lon="1.11308">
        <ele>102.891815</ele>
        <time>2015-07-02T10:55:32Z</time>
      </trkpt>
      <trkpt lat="49.27718" lon="1.11304">
        <ele>104.65011</ele>
        <time>2015-07-02T10:55:37Z</time>
      </trkpt>
      <trkpt lat="49.27717" lon="1.11303">
        <ele>104.65011</ele>
        <time>2015-07-02T10:55:42Z</time>
      </trkpt>
      <trkpt lat="49.27713" lon="1.11299">
        <ele>104.65011</ele>
        <time>2015-07-02T10:55:47Z</time>
      </trkpt>
      <trkpt lat="49.2771" lon="1.11296">
        <ele>106.70201</ele>
        <time>2015-07-02T10:55:52Z</time>
      </trkpt>
      <trkpt lat="49.27705" lon="1.11291">
        <ele>106.70201</ele>
        <time>2015-07-02T10:55:57Z</time>
      </trkpt>
      <trkpt lat="49.27702" lon="1.11283">
        <ele>108.64756</ele>
        <time>2015-07-02T10:56:02Z</time>
      </trkpt>
      <trkpt lat="49.277" lon="1.11278">
        <ele>108.64756</ele>
        <time>2015-07-02T10:56:07Z</time>
      </trkpt>
      <trkpt lat="49.27697" lon="1.1127">
        <ele>110.54886</ele>
        <time>2015-07-02T10:56:12Z</time>
      </trkpt>
      <trkpt lat="49.27693" lon="1.11263">
        <ele>110.54886</ele>
        <time>2015-07-02T10:56:17Z</time>
      </trkpt>
      <trkpt lat="49.27689" lon="1.11255">
        <ele>112.34836</ele>
        <time>2015-07-02T10:56:22Z</time>
      </trkpt>
      <trkpt lat="49.27686" lon="1.11253">
        <ele>112.34836</ele>
        <time>2015-07-02T10:56:27Z</time>
      </trkpt>
      <trkpt lat="49.27685" lon="1.11253">
        <ele>112.34836</ele>
        <time>2015-07-02T10:56:32Z</time>
      </trkpt>
      <trkpt lat="49.27679" lon="1.11247">
        <ele>114.151596</ele>
        <time>2015-07-02T10:56:37Z</time>
      </trkpt>
      <trkpt lat="49.27675" lon="1.11245">
        <ele>114.151596</ele>
        <time>2015-07-02T10:56:42Z</time>
      </trkpt>
      <trkpt lat="49.2767" lon="1.11239">
        <ele>115.95556</ele>
        <time>2015-07-02T10:56:47Z</time>
      </trkpt>
      <trkpt lat="49.27665" lon="1.11233">
        <ele>115.95556</ele>
        <time>2015-07-02T10:56:52Z</time>
      </trkpt>
      <trkpt lat="49.27663" lon="1.11232">
        <ele>115.95556</ele>
        <time>2015-07-02T10:56:57Z</time>
      </trkpt>
      <trkpt lat="49.2766" lon="1.11228">
        <ele>117.8728</ele>
        <time>2015-07-02T10:57:02Z</time>
      </trkpt>
      <trkpt lat="49.27657" lon="1.11219">
        <ele>117.8728</ele>
        <time>2015-07-02T10:57:07Z</time>
      </trkpt>
      <trkpt lat="49.27652" lon="1.11212">
        <ele>119.805626</ele>
        <time>2015-07-02T10:57:12Z</time>
      </trkpt>
      <trkpt lat="49.27648" lon="1.11208">
        <ele>119.805626</ele>
        <time>2015-07-02T10:57:17Z</time>
      </trkpt>
      <trkpt lat="49.27645" lon="1.11207">
        <ele>119.805626</ele>
        <time>2015-07-02T10:57:22Z</time>
      </trkpt>
      <trkpt lat="49.27644" lon="1.11203">
        <ele>121.90853</ele>
        <time>2015-07-02T10:57:27Z</time>
      </trkpt>
      <trkpt lat="49.27639" lon="1.11199">
        <ele>121.90853</ele>
        <time>2015-07-02T10:57:32Z</time>
      </trkpt>
      <trkpt lat="49.27634" lon="1.11195">
        <ele>124.06488</ele>
        <time>2015-07-02T10:57:37Z</time>
      </trkpt>
      <trkpt lat="49.2763" lon="1.11191">
        <ele>124.06488</ele>
        <time>2015-07-02T10:57:42Z</time>
      </trkpt>
      <trkpt lat="49.27625" lon="1.11186">
        <ele>126.26741</ele>
        <time>2015-07-02T10:57:47Z</time>
      </trkpt>
      <trkpt lat="49.27623" lon="1.11184">
        <ele>126.26741</ele>
        <time>2015-07-02T10:57:52Z</time>
      </trkpt>
      <trkpt lat="49.27619" lon="1.11181">
        <ele>126.26741</ele>
        <time>2015-07-02T10:57:57Z</time>
      </trkpt>
      <trkpt lat="49.27616" lon="1.1118">
        <ele>128.59583</ele>
        <time>2015-07-02T10:58:02Z</time>
      </trkpt>
      <trkpt lat="49.27607" lon="1.11169">
        <ele>130.8355</ele>
        <time>2015-07-02T10:58:07Z</time>
      </trkpt>
      <trkpt lat="49.27604" lon="1.11165">
        <ele>130.8355</ele>
        <time>2015-07-02T10:58:12Z</time>
      </trkpt>
      <trkpt lat="49.27595" lon="1.11148">
        <ele>133.20581</ele>
        <time>2015-07-02T10:58:17Z</time>
      </trkpt>
      <trkpt lat="49.27593" lon="1.11145">
        <ele>133.20581</ele>
        <time>2015-07-02T10:58:22Z</time>
      </trkpt>
      <trkpt lat="49.27589" lon="1.11137">
        <ele>135.4198</ele>
        <time>2015-07-02T10:58:27Z</time>
      </trkpt>
      <trkpt lat="49.27584" lon="1.11132">
        <ele>135.4198</ele>
        <time>2015-07-02T10:58:32Z</time>
      </trkpt>
      <trkpt lat="49.2758" lon="1.11126">
        <ele>137.48596</ele>
        <time>2015-07-02T10:58:37Z</time>
      </trkpt>
      <trkpt lat="49.27577" lon="1.11122">
        <ele>137.48596</ele>
        <time>2015-07-02T10:58:42Z</time>
      </trkpt>
      <trkpt lat="49.27575" lon="1.11119">
        <ele>137.48596</ele>
        <time>2015-07-02T10:58:47Z</time>
      </trkpt>
      <trkpt lat="49.27572" lon="1.11114">
        <ele>139.68646</ele>
        <time>2015-07-02T10:58:52Z</time>
      </trkpt>
      <trkpt lat="49.27569" lon="1.1111">
        <ele>139.68646</ele>
        <time>2015-07-02T10:58:57Z</time>
      </trkpt>
      <trkpt lat="49.27563" lon="1.11104">
        <ele>141.82132</ele>
        <time>2015-07-02T10:59:02Z</time>
      </trkpt>
      <trkpt lat="49.27555" lon="1.11093">
        <ele>143.76318</ele>
        <time>2015-07-02T10:59:07Z</time>
      </trkpt>
      <trkpt lat="49.27549" lon="1.11085">
        <ele>143.76318</ele>
        <time>2015-07-02T10:59:12Z</time>
      </trkpt>
      <trkpt lat="49.27548" lon="1.11081">
        <ele>145.45232</ele>
        <time>2015-07-02T10:59:17Z</time>
      </trkpt>
      <trkpt lat="49.27552" lon="1.11087">
        <ele>145.45232</ele>
        <time>2015-07-02T10:59:22Z</time>
      </trkpt>
      <trkpt lat="49.27554" lon="1.11099">
        <ele>146.5316</ele>
        <time>2015-07-02T10:59:27Z</time>
      </trkpt>
      <trkpt lat="49.27554" lon="1.11101">
        <ele>146.5316</ele>
        <time>2015-07-02T10:59:32Z</time>
      </trkpt>
      <trkpt lat="49.27554" lon="1.11101">
        <ele>146.5316</ele>
        <time>2015-07-02T10:59:37Z</time>
      </trkpt>
      <trkpt lat="49.27554" lon="1.11101">
        <ele>146.5316</ele>
        <time>2015-07-02T11:00:02Z</time>
      </trkpt>
      <trkpt lat="49.27554" lon="1.11101">
        <ele>146.5316</ele>
        <time>2015-07-02T11:00:07Z</time>
      </trkpt>
      <trkpt lat="49.27553" lon="1.11102">
        <ele>146.5316</ele>
        <time>2015-07-02T11:00:17Z</time>
      </trkpt>
      <trkpt lat="49.2755" lon="1.11099">
        <ele>146.5316</ele>
        <time>2015-07-02T11:00:22Z</time>
      </trkpt>
      <trkpt lat="49.2755" lon="1.11099">
        <ele>146.5316</ele>
        <time>2015-07-02T11:00:27Z</time>
      </trkpt>
      <trkpt lat="49.2755" lon="1.11099">
        <ele>146.5316</ele>
        <time>2015-07-02T11:02:32Z</time>
      </trkpt>
      <trkpt lat="49.2755" lon="1.11099">
        <ele>146.5316</ele>
        <time>2015-07-02T11:02:37Z</time>
      </trkpt>
      <trkpt lat="49.2755" lon="1.11098">
        <ele>146.5316</ele>
        <time>2015-07-02T11:04:12Z</time>
      </trkpt>
      <trkpt lat="49.27546" lon="1.11095">
        <ele>146.21074</ele>
        <time>2015-07-02T11:04:17Z</time>
      </trkpt>
      <trkpt lat="49.27544" lon="1.11092">
        <ele>146.21074</ele>
        <time>2015-07-02T11:04:22Z</time>
      </trkpt>
      <trkpt lat="49.27538" lon="1.11078">
        <ele>145.96645</ele>
        <time>2015-07-02T11:04:27Z</time>
      </trkpt>
      <trkpt lat="49.27533" lon="1.11065">
        <ele>145.74007</ele>
        <time>2015-07-02T11:04:32Z</time>
      </trkpt>
      <trkpt lat="49.27526" lon="1.11059">
        <ele>145.74007</ele>
        <time>2015-07-02T11:04:37Z</time>
      </trkpt>
      <trkpt lat="49.27518" lon="1.11052">
        <ele>145.73668</ele>
        <time>2015-07-02T11:04:42Z</time>
      </trkpt>
      <trkpt lat="49.27513" lon="1.11045">
        <ele>145.73668</ele>
        <time>2015-07-02T11:04:47Z</time>
      </trkpt>
      <trkpt lat="49.27509" lon="1.11042">
        <ele>145.94394</ele>
        <time>2015-07-02T11:04:52Z</time>
      </trkpt>
      <trkpt lat="49.27504" lon="1.11037">
        <ele>145.94394</ele>
        <time>2015-07-02T11:04:57Z</time>
      </trkpt>
      <trkpt lat="49.27501" lon="1.11032">
        <ele>146.19131</ele>
        <time>2015-07-02T11:05:02Z</time>
      </trkpt>
      <trkpt lat="49.275" lon="1.11029">
        <ele>146.19131</ele>
        <time>2015-07-02T11:05:07Z</time>
      </trkpt>
      <trkpt lat="49.27501" lon="1.11028">
        <ele>146.19131</ele>
        <time>2015-07-02T11:05:12Z</time>
      </trkpt>
      <trkpt lat="49.27503" lon="1.11026">
        <ele>146.19131</ele>
        <time>2015-07-02T11:05:17Z</time>
      </trkpt>
      <trkpt lat="49.27503" lon="1.11023">
        <ele>146.19131</ele>
        <time>2015-07-02T11:05:22Z</time>
      </trkpt>
      <trkpt lat="49.27499" lon="1.11019">
        <ele>146.30629</ele>
        <time>2015-07-02T11:05:27Z</time>
      </trkpt>
      <trkpt lat="49.27495" lon="1.11017">
        <ele>146.30629</ele>
        <time>2015-07-02T11:05:32Z</time>
      </trkpt>
      <trkpt lat="49.27492" lon="1.11012">
        <ele>146.187</ele>
        <time>2015-07-02T11:05:37Z</time>
      </trkpt>
      <trkpt lat="49.27489" lon="1.11006">
        <ele>146.187</ele>
        <time>2015-07-02T11:05:42Z</time>
      </trkpt>
      <trkpt lat="49.27483" lon="1.11">
        <ele>145.88385</ele>
        <time>2015-07-02T11:05:47Z</time>
      </trkpt>
      <trkpt lat="49.27478" lon="1.10994">
        <ele>145.88385</ele>
        <time>2015-07-02T11:05:52Z</time>
      </trkpt>
      <trkpt lat="49.27474" lon="1.10987">
        <ele>145.32872</ele>
        <time>2015-07-02T11:05:57Z</time>
      </trkpt>
      <trkpt lat="49.2747" lon="1.1098">
        <ele>145.32872</ele>
        <time>2015-07-02T11:06:02Z</time>
      </trkpt>
      <trkpt lat="49.27465" lon="1.10972">
        <ele>144.56004</ele>
        <time>2015-07-02T11:06:07Z</time>
      </trkpt>
      <trkpt lat="49.27462" lon="1.10967">
        <ele>144.56004</ele>
        <time>2015-07-02T11:06:12Z</time>
      </trkpt>
      <trkpt lat="49.27454" lon="1.1096">
        <ele>143.65718</ele>
        <time>2015-07-02T11:06:17Z</time>
      </trkpt>
      <trkpt lat="49.27447" lon="1.10953">
        <ele>143.65718</ele>
        <time>2015-07-02T11:06:22Z</time>
      </trkpt>
      <trkpt lat="49.27442" lon="1.10946">
        <ele>142.65076</ele>
        <time>2015-07-02T11:06:27Z</time>
      </trkpt>
      <trkpt lat="49.27437" lon="1.10942">
        <ele>142.65076</ele>
        <time>2015-07-02T11:06:32Z</time>
      </trkpt>
      <trkpt lat="49.27433" lon="1.10939">
        <ele>141.51173</ele>
        <time>2015-07-02T11:06:37Z</time>
      </trkpt>
      <trkpt lat="49.2743" lon="1.10934">
        <ele>141.51173</ele>
        <time>2015-07-02T11:06:42Z</time>
      </trkpt>
      <trkpt lat="49.27428" lon="1.1093">
        <ele>141.51173</ele>
        <time>2015-07-02T11:06:47Z</time>
      </trkpt>
      <trkpt lat="49.27424" lon="1.10926">
        <ele>140.25665</ele>
        <time>2015-07-02T11:06:52Z</time>
      </trkpt>
      <trkpt lat="49.27418" lon="1.10918">
        <ele>140.25665</ele>
        <time>2015-07-02T11:06:57Z</time>
      </trkpt>
      <trkpt lat="49.27414" lon="1.10913">
        <ele>138.90112</ele>
        <time>2015-07-02T11:07:02Z</time>
      </trkpt>
      <trkpt lat="49.27409" lon="1.1091">
        <ele>138.90112</ele>
        <time>2015-07-02T11:07:07Z</time>
      </trkpt>
      <trkpt lat="49.27402" lon="1.10903">
        <ele>137.51736</ele>
        <time>2015-07-02T11:07:12Z</time>
      </trkpt>
      <trkpt lat="49.27397" lon="1.10897">
        <ele>137.51736</ele>
        <time>2015-07-02T11:07:17Z</time>
      </trkpt>
      <trkpt lat="49.27391" lon="1.1089">
        <ele>136.20107</ele>
        <time>2015-07-02T11:07:22Z</time>
      </trkpt>
      <trkpt lat="49.27385" lon="1.10882">
        <ele>136.20107</ele>
        <time>2015-07-02T11:07:27Z</time>
      </trkpt>
      <trkpt lat="49.2738" lon="1.10875">
        <ele>134.99734</ele>
        <time>2015-07-02T11:07:32Z</time>
      </trkpt>
      <trkpt lat="49.27375" lon="1.1087">
        <ele>134.99734</ele>
        <time>2015-07-02T11:07:37Z</time>
      </trkpt>
      <trkpt lat="49.27371" lon="1.10865">
        <ele>133.9619</ele>
        <time>2015-07-02T11:07:42Z</time>
      </trkpt>
      <trkpt lat="49.27365" lon="1.10857">
        <ele>133.9619</ele>
        <time>2015-07-02T11:07:47Z</time>
      </trkpt>
      <trkpt lat="49.27361" lon="1.1085">
        <ele>133.00163</ele>
        <time>2015-07-02T11:07:52Z</time>
      </trkpt>
      <trkpt lat="49.27357" lon="1.10845">
        <ele>133.00163</ele>
        <time>2015-07-02T11:07:57Z</time>
      </trkpt>
      <trkpt lat="49.27352" lon="1.1084">
        <ele>132.0443</ele>
        <time>2015-07-02T11:08:02Z</time>
      </trkpt>
      <trkpt lat="49.27348" lon="1.10835">
        <ele>132.0443</ele>
        <time>2015-07-02T11:08:07Z</time>
      </trkpt>
      <trkpt lat="49.27344" lon="1.10829">
        <ele>131.09483</ele>
        <time>2015-07-02T11:08:12Z</time>
      </trkpt>
      <trkpt lat="49.27338" lon="1.10817">
        <ele>130.17203</ele>
        <time>2015-07-02T11:08:17Z</time>
      </trkpt>
      <trkpt lat="49.27331" lon="1.10811">
        <ele>130.17203</ele>
        <time>2015-07-02T11:08:22Z</time>
      </trkpt>
      <trkpt lat="49.27326" lon="1.10808">
        <ele>129.29306</ele>
        <time>2015-07-02T11:08:27Z</time>
      </trkpt>
      <trkpt lat="49.27322" lon="1.10807">
        <ele>129.29306</ele>
        <time>2015-07-02T11:08:32Z</time>
      </trkpt>
      <trkpt lat="49.27316" lon="1.10802">
        <ele>128.37265</ele>
        <time>2015-07-02T11:08:37Z</time>
      </trkpt>
      <trkpt lat="49.27308" lon="1.10799">
        <ele>128.37265</ele>
        <time>2015-07-02T11:08:42Z</time>
      </trkpt>
      <trkpt lat="49.27298" lon="1.10801">
        <ele>127.44701</ele>
        <time>2015-07-02T11:08:47Z</time>
      </trkpt>
      <trkpt lat="49.27294" lon="1.108">
        <ele>127.44701</ele>
        <time>2015-07-02T11:08:52Z</time>
      </trkpt>
      <trkpt lat="49.27287" lon="1.10798">
        <ele>126.578354</ele>
        <time>2015-07-02T11:08:57Z</time>
      </trkpt>
      <trkpt lat="49.27285" lon="1.10794">
        <ele>126.578354</ele>
        <time>2015-07-02T11:09:02Z</time>
      </trkpt>
      <trkpt lat="49.2728" lon="1.10787">
        <ele>125.76636</ele>
        <time>2015-07-02T11:09:07Z</time>
      </trkpt>
      <trkpt lat="49.27276" lon="1.10782">
        <ele>125.76636</ele>
        <time>2015-07-02T11:09:12Z</time>
      </trkpt>
      <trkpt lat="49.27272" lon="1.10776">
        <ele>125.082436</ele>
        <time>2015-07-02T11:09:17Z</time>
      </trkpt>
      <trkpt lat="49.27269" lon="1.10774">
        <ele>125.082436</ele>
        <time>2015-07-02T11:09:22Z</time>
      </trkpt>
      <trkpt lat="49.27264" lon="1.1077">
        <ele>124.520164</ele>
        <time>2015-07-02T11:09:27Z</time>
      </trkpt>
      <trkpt lat="49.2726" lon="1.10766">
        <ele>124.520164</ele>
        <time>2015-07-02T11:09:32Z</time>
      </trkpt>
      <trkpt lat="49.27254" lon="1.10759">
        <ele>124.015465</ele>
        <time>2015-07-02T11:09:37Z</time>
      </trkpt>
      <trkpt lat="49.27249" lon="1.10752">
        <ele>124.015465</ele>
        <time>2015-07-02T11:09:42Z</time>
      </trkpt>
      <trkpt lat="49.27246" lon="1.10745">
        <ele>123.55184</ele>
        <time>2015-07-02T11:09:47Z</time>
      </trkpt>
      <trkpt lat="49.27242" lon="1.10737">
        <ele>123.55184</ele>
        <time>2015-07-02T11:09:52Z</time>
      </trkpt>
      <trkpt lat="49.27237" lon="1.1073">
        <ele>123.128174</ele>
        <time>2015-07-02T11:09:57Z</time>
      </trkpt>
      <trkpt lat="49.27233" lon="1.10723">
        <ele>123.128174</ele>
        <time>2015-07-02T11:10:02Z</time>
      </trkpt>
      <trkpt lat="49.27231" lon="1.10713">
        <ele>122.68552</ele>
        <time>2015-07-02T11:10:07Z</time>
      </trkpt>
      <trkpt lat="49.27228" lon="1.10702">
        <ele>122.68552</ele>
        <time>2015-07-02T11:10:12Z</time>
      </trkpt>
      <trkpt lat="49.27225" lon="1.10694">
        <ele>122.255615</ele>
        <time>2015-07-02T11:10:17Z</time>
      </trkpt>
      <trkpt lat="49.27222" lon="1.10685">
        <ele>122.255615</ele>
        <time>2015-07-02T11:10:22Z</time>
      </trkpt>
      <trkpt lat="49.2722" lon="1.10674">
        <ele>121.86772</ele>
        <time>2015-07-02T11:10:27Z</time>
      </trkpt>
      <trkpt lat="49.27218" lon="1.10665">
        <ele>121.86772</ele>
        <time>2015-07-02T11:10:32Z</time>
      </trkpt>
      <trkpt lat="49.27215" lon="1.10655">
        <ele>121.59193</ele>
        <time>2015-07-02T11:10:37Z</time>
      </trkpt>
      <trkpt lat="49.27212" lon="1.10645">
        <ele>121.59193</ele>
        <time>2015-07-02T11:10:42Z</time>
      </trkpt>
      <trkpt lat="49.27209" lon="1.10636">
        <ele>121.478325</ele>
        <time>2015-07-02T11:10:47Z</time>
      </trkpt>
      <trkpt lat="49.27204" lon="1.10628">
        <ele>121.478325</ele>
        <time>2015-07-02T11:10:52Z</time>
      </trkpt>
      <trkpt lat="49.27202" lon="1.10623">
        <ele>121.45745</ele>
        <time>2015-07-02T11:10:57Z</time>
      </trkpt>
      <trkpt lat="49.27199" lon="1.10614">
        <ele>121.45745</ele>
        <time>2015-07-02T11:11:02Z</time>
      </trkpt>
      <trkpt lat="49.27195" lon="1.10606">
        <ele>121.435776</ele>
        <time>2015-07-02T11:11:07Z</time>
      </trkpt>
      <trkpt lat="49.27193" lon="1.10595">
        <ele>121.435776</ele>
        <time>2015-07-02T11:11:12Z</time>
      </trkpt>
      <trkpt lat="49.27192" lon="1.10587">
        <ele>121.485054</ele>
        <time>2015-07-02T11:11:17Z</time>
      </trkpt>
      <trkpt lat="49.27192" lon="1.10576">
        <ele>121.485054</ele>
        <time>2015-07-02T11:11:22Z</time>
      </trkpt>
      <trkpt lat="49.27195" lon="1.10568">
        <ele>121.54179</ele>
        <time>2015-07-02T11:11:27Z</time>
      </trkpt>
      <trkpt lat="49.27198" lon="1.10561">
        <ele>121.54179</ele>
        <time>2015-07-02T11:11:32Z</time>
      </trkpt>
      <trkpt lat="49.27201" lon="1.10556">
        <ele>121.590256</ele>
        <time>2015-07-02T11:11:37Z</time>
      </trkpt>
      <trkpt lat="49.27206" lon="1.10547">
        <ele>121.590256</ele>
        <time>2015-07-02T11:11:42Z</time>
      </trkpt>
      <trkpt lat="49.27209" lon="1.10543">
        <ele>121.61587</ele>
        <time>2015-07-02T11:11:47Z</time>
      </trkpt>
      <trkpt lat="49.27207" lon="1.10542">
        <ele>121.61587</ele>
        <time>2015-07-02T11:11:52Z</time>
      </trkpt>
      <trkpt lat="49.27209" lon="1.10539">
        <ele>121.61587</ele>
        <time>2015-07-02T11:11:57Z</time>
      </trkpt>
      <trkpt lat="49.2721" lon="1.10531">
        <ele>121.56185</ele>
        <time>2015-07-02T11:12:02Z</time>
      </trkpt>
      <trkpt lat="49.2721" lon="1.10523">
        <ele>121.56185</ele>
        <time>2015-07-02T11:12:07Z</time>
      </trkpt>
      <trkpt lat="49.27212" lon="1.10513">
        <ele>121.54871</ele>
        <time>2015-07-02T11:12:12Z</time>
      </trkpt>
      <trkpt lat="49.27211" lon="1.10502">
        <ele>121.54871</ele>
        <time>2015-07-02T11:12:17Z</time>
      </trkpt>
      <trkpt lat="49.2721" lon="1.10491">
        <ele>121.6447</ele>
        <time>2015-07-02T11:12:22Z</time>
      </trkpt>
      <trkpt lat="49.27208" lon="1.10482">
        <ele>121.6447</ele>
        <time>2015-07-02T11:12:27Z</time>
      </trkpt>
      <trkpt lat="49.27207" lon="1.10475">
        <ele>121.85505</ele>
        <time>2015-07-02T11:12:32Z</time>
      </trkpt>
      <trkpt lat="49.27207" lon="1.10466">
        <ele>121.85505</ele>
        <time>2015-07-02T11:12:37Z</time>
      </trkpt>
      <trkpt lat="49.27204" lon="1.10458">
        <ele>122.14104</ele>
        <time>2015-07-02T11:12:42Z</time>
      </trkpt>
      <trkpt lat="49.27202" lon="1.10449">
        <ele>122.14104</ele>
        <time>2015-07-02T11:12:47Z</time>
      </trkpt>
      <trkpt lat="49.27201" lon="1.10442">
        <ele>122.45211</ele>
        <time>2015-07-02T11:12:52Z</time>
      </trkpt>
      <trkpt lat="49.272" lon="1.10433">
        <ele>122.45211</ele>
        <time>2015-07-02T11:12:57Z</time>
      </trkpt>
      <trkpt lat="49.27199" lon="1.10424">
        <ele>122.82782</ele>
        <time>2015-07-02T11:13:02Z</time>
      </trkpt>
      <trkpt lat="49.27197" lon="1.10412">
        <ele>122.82782</ele>
        <time>2015-07-02T11:13:07Z</time>
      </trkpt>
      <trkpt lat="49.27196" lon="1.10401">
        <ele>123.20373</ele>
        <time>2015-07-02T11:13:12Z</time>
      </trkpt>
      <trkpt lat="49.27194" lon="1.10394">
        <ele>123.20373</ele>
        <time>2015-07-02T11:13:17Z</time>
      </trkpt>
      <trkpt lat="49.27194" lon="1.10384">
        <ele>123.54894</ele>
        <time>2015-07-02T11:13:22Z</time>
      </trkpt>
      <trkpt lat="49.27194" lon="1.10377">
        <ele>123.54894</ele>
        <time>2015-07-02T11:13:27Z</time>
      </trkpt>
      <trkpt lat="49.27194" lon="1.10365">
        <ele>123.95021</ele>
        <time>2015-07-02T11:13:32Z</time>
      </trkpt>
      <trkpt lat="49.27193" lon="1.10356">
        <ele>123.95021</ele>
        <time>2015-07-02T11:13:37Z</time>
      </trkpt>
      <trkpt lat="49.27192" lon="1.10347">
        <ele>124.401306</ele>
        <time>2015-07-02T11:13:42Z</time>
      </trkpt>
      <trkpt lat="49.27191" lon="1.10339">
        <ele>124.401306</ele>
        <time>2015-07-02T11:13:47Z</time>
      </trkpt>
      <trkpt lat="49.27191" lon="1.10328">
        <ele>124.85307</ele>
        <time>2015-07-02T11:13:52Z</time>
      </trkpt>
      <trkpt lat="49.2719" lon="1.10316">
        <ele>124.85307</ele>
        <time>2015-07-02T11:13:57Z</time>
      </trkpt>
      <trkpt lat="49.27189" lon="1.10307">
        <ele>125.33206</ele>
        <time>2015-07-02T11:14:02Z</time>
      </trkpt>
      <trkpt lat="49.27187" lon="1.10297">
        <ele>125.33206</ele>
        <time>2015-07-02T11:14:07Z</time>
      </trkpt>
      <trkpt lat="49.27186" lon="1.10289">
        <ele>125.83397</ele>
        <time>2015-07-02T11:14:12Z</time>
      </trkpt>
      <trkpt lat="49.27184" lon="1.1028">
        <ele>125.83397</ele>
        <time>2015-07-02T11:14:17Z</time>
      </trkpt>
      <trkpt lat="49.27181" lon="1.1027">
        <ele>126.325966</ele>
        <time>2015-07-02T11:14:22Z</time>
      </trkpt>
      <trkpt lat="49.27181" lon="1.10259">
        <ele>126.325966</ele>
        <time>2015-07-02T11:14:27Z</time>
      </trkpt>
      <trkpt lat="49.27181" lon="1.1025">
        <ele>126.82093</ele>
        <time>2015-07-02T11:14:32Z</time>
      </trkpt>
      <trkpt lat="49.27181" lon="1.1024">
        <ele>126.82093</ele>
        <time>2015-07-02T11:14:37Z</time>
      </trkpt>
      <trkpt lat="49.2718" lon="1.10231">
        <ele>127.30199</ele>
        <time>2015-07-02T11:14:42Z</time>
      </trkpt>
      <trkpt lat="49.27178" lon="1.10222">
        <ele>127.30199</ele>
        <time>2015-07-02T11:14:47Z</time>
      </trkpt>
      <trkpt lat="49.27177" lon="1.10213">
        <ele>127.81123</ele>
        <time>2015-07-02T11:14:52Z</time>
      </trkpt>
      <trkpt lat="49.27176" lon="1.10202">
        <ele>127.81123</ele>
        <time>2015-07-02T11:14:57Z</time>
      </trkpt>
      <trkpt lat="49.27175" lon="1.10191">
        <ele>128.30118</ele>
        <time>2015-07-02T11:15:02Z</time>
      </trkpt>
      <trkpt lat="49.27175" lon="1.1018">
        <ele>128.30118</ele>
        <time>2015-07-02T11:15:07Z</time>
      </trkpt>
      <trkpt lat="49.27176" lon="1.10174">
        <ele>128.74231</ele>
        <time>2015-07-02T11:15:12Z</time>
      </trkpt>
      <trkpt lat="49.27174" lon="1.10163">
        <ele>128.74231</ele>
        <time>2015-07-02T11:15:17Z</time>
      </trkpt>
      <trkpt lat="49.27172" lon="1.10152">
        <ele>129.15074</ele>
        <time>2015-07-02T11:15:22Z</time>
      </trkpt>
      <trkpt lat="49.27172" lon="1.10141">
        <ele>129.15074</ele>
        <time>2015-07-02T11:15:27Z</time>
      </trkpt>
      <trkpt lat="49.27171" lon="1.10132">
        <ele>129.55591</ele>
        <time>2015-07-02T11:15:32Z</time>
      </trkpt>
      <trkpt lat="49.2717" lon="1.10122">
        <ele>129.55591</ele>
        <time>2015-07-02T11:15:37Z</time>
      </trkpt>
      <trkpt lat="49.2717" lon="1.10114">
        <ele>129.89873</ele>
        <time>2015-07-02T11:15:42Z</time>
      </trkpt>
      <trkpt lat="49.27169" lon="1.10103">
        <ele>129.89873</ele>
        <time>2015-07-02T11:15:47Z</time>
      </trkpt>
      <trkpt lat="49.27168" lon="1.10095">
        <ele>130.15347</ele>
        <time>2015-07-02T11:15:52Z</time>
      </trkpt>
      <trkpt lat="49.27168" lon="1.10085">
        <ele>130.15347</ele>
        <time>2015-07-02T11:15:57Z</time>
      </trkpt>
      <trkpt lat="49.27166" lon="1.10073">
        <ele>130.32544</ele>
        <time>2015-07-02T11:16:02Z</time>
      </trkpt>
      <trkpt lat="49.27165" lon="1.10065">
        <ele>130.32544</ele>
        <time>2015-07-02T11:16:07Z</time>
      </trkpt>
      <trkpt lat="49.27163" lon="1.10056">
        <ele>130.3766</ele>
        <time>2015-07-02T11:16:12Z</time>
      </trkpt>
      <trkpt lat="49.27162" lon="1.10046">
        <ele>130.3766</ele>
        <time>2015-07-02T11:16:17Z</time>
      </trkpt>
      <trkpt lat="49.27161" lon="1.1004">
        <ele>130.31534</ele>
        <time>2015-07-02T11:16:22Z</time>
      </trkpt>
      <trkpt lat="49.27161" lon="1.10029">
        <ele>130.31534</ele>
        <time>2015-07-02T11:16:27Z</time>
      </trkpt>
      <trkpt lat="49.2716" lon="1.10019">
        <ele>130.19301</ele>
        <time>2015-07-02T11:16:32Z</time>
      </trkpt>
      <trkpt lat="49.2716" lon="1.10009">
        <ele>130.19301</ele>
        <time>2015-07-02T11:16:37Z</time>
      </trkpt>
      <trkpt lat="49.27159" lon="1.09999">
        <ele>130.01419</ele>
        <time>2015-07-02T11:16:42Z</time>
      </trkpt>
      <trkpt lat="49.27159" lon="1.09988">
        <ele>130.01419</ele>
        <time>2015-07-02T11:16:47Z</time>
      </trkpt>
      <trkpt lat="49.27158" lon="1.09978">
        <ele>129.79773</ele>
        <time>2015-07-02T11:16:52Z</time>
      </trkpt>
      <trkpt lat="49.27158" lon="1.09969">
        <ele>129.79773</ele>
        <time>2015-07-02T11:16:57Z</time>
      </trkpt>
      <trkpt lat="49.27157" lon="1.09959">
        <ele>129.46036</ele>
        <time>2015-07-02T11:17:02Z</time>
      </trkpt>
      <trkpt lat="49.27157" lon="1.09948">
        <ele>129.46036</ele>
        <time>2015-07-02T11:17:07Z</time>
      </trkpt>
      <trkpt lat="49.27157" lon="1.09936">
        <ele>129.09824</ele>
        <time>2015-07-02T11:17:12Z</time>
      </trkpt>
      <trkpt lat="49.27155" lon="1.09925">
        <ele>129.09824</ele>
        <time>2015-07-02T11:17:17Z</time>
      </trkpt>
      <trkpt lat="49.27154" lon="1.09916">
        <ele>128.81496</ele>
        <time>2015-07-02T11:17:22Z</time>
      </trkpt>
      <trkpt lat="49.27154" lon="1.0991">
        <ele>128.81496</ele>
        <time>2015-07-02T11:17:27Z</time>
      </trkpt>
      <trkpt lat="49.27153" lon="1.09903">
        <ele>128.81496</ele>
        <time>2015-07-02T11:17:32Z</time>
      </trkpt>
      <trkpt lat="49.27154" lon="1.09901">
        <ele>128.50458</ele>
        <time>2015-07-02T11:17:37Z</time>
      </trkpt>
      <trkpt lat="49.27153" lon="1.09902">
        <ele>128.50458</ele>
        <time>2015-07-02T11:17:42Z</time>
      </trkpt>
      <trkpt lat="49.27152" lon="1.09902">
        <ele>128.50458</ele>
        <time>2015-07-02T11:17:47Z</time>
      </trkpt>
      <trkpt lat="49.27152" lon="1.09901">
        <ele>128.50458</ele>
        <time>2015-07-02T11:17:52Z</time>
      </trkpt>
      <trkpt lat="49.27151" lon="1.09901">
        <ele>128.50458</ele>
        <time>2015-07-02T11:17:57Z</time>
      </trkpt>
      <trkpt lat="49.27152" lon="1.09901">
        <ele>128.50458</ele>
        <time>2015-07-02T11:18:02Z</time>
      </trkpt>
      <trkpt lat="49.27151" lon="1.09896">
        <ele>128.50458</ele>
        <time>2015-07-02T11:18:07Z</time>
      </trkpt>
      <trkpt lat="49.27151" lon="1.09887">
        <ele>128.08342</ele>
        <time>2015-07-02T11:18:12Z</time>
      </trkpt>
      <trkpt lat="49.27154" lon="1.09878">
        <ele>128.08342</ele>
        <time>2015-07-02T11:18:17Z</time>
      </trkpt>
      <trkpt lat="49.27156" lon="1.09869">
        <ele>127.71926</ele>
        <time>2015-07-02T11:18:22Z</time>
      </trkpt>
      <trkpt lat="49.2716" lon="1.09858">
        <ele>127.71926</ele>
        <time>2015-07-02T11:18:27Z</time>
      </trkpt>
      <trkpt lat="49.27161" lon="1.09851">
        <ele>127.46657</ele>
        <time>2015-07-02T11:18:32Z</time>
      </trkpt>
      <trkpt lat="49.27163" lon="1.09842">
        <ele>127.46657</ele>
        <time>2015-07-02T11:18:37Z</time>
      </trkpt>
      <trkpt lat="49.27167" lon="1.09832">
        <ele>127.34665</ele>
        <time>2015-07-02T11:18:42Z</time>
      </trkpt>
      <trkpt lat="49.27169" lon="1.09822">
        <ele>127.34665</ele>
        <time>2015-07-02T11:18:47Z</time>
      </trkpt>
      <trkpt lat="49.27169" lon="1.09813">
        <ele>127.30683</ele>
        <time>2015-07-02T11:18:52Z</time>
      </trkpt>
      <trkpt lat="49.27169" lon="1.09806">
        <ele>127.30683</ele>
        <time>2015-07-02T11:18:57Z</time>
      </trkpt>
      <trkpt lat="49.27169" lon="1.09798">
        <ele>127.29809</ele>
        <time>2015-07-02T11:19:02Z</time>
      </trkpt>
      <trkpt lat="49.27168" lon="1.09789">
        <ele>127.29809</ele>
        <time>2015-07-02T11:19:07Z</time>
      </trkpt>
      <trkpt lat="49.27168" lon="1.0978">
        <ele>127.274925</ele>
        <time>2015-07-02T11:19:12Z</time>
      </trkpt>
      <trkpt lat="49.27169" lon="1.0977">
        <ele>127.274925</ele>
        <time>2015-07-02T11:19:17Z</time>
      </trkpt>
      <trkpt lat="49.2717" lon="1.09758">
        <ele>127.267265</ele>
        <time>2015-07-02T11:19:22Z</time>
      </trkpt>
      <trkpt lat="49.27167" lon="1.09746">
        <ele>127.267265</ele>
        <time>2015-07-02T11:19:27Z</time>
      </trkpt>
      <trkpt lat="49.27165" lon="1.09739">
        <ele>127.25958</ele>
        <time>2015-07-02T11:19:32Z</time>
      </trkpt>
      <trkpt lat="49.27162" lon="1.09734">
        <ele>127.25958</ele>
        <time>2015-07-02T11:19:37Z</time>
      </trkpt>
      <trkpt lat="49.27158" lon="1.09724">
        <ele>127.17984</ele>
        <time>2015-07-02T11:19:42Z</time>
      </trkpt>
      <trkpt lat="49.27154" lon="1.09718">
        <ele>127.17984</ele>
        <time>2015-07-02T11:19:47Z</time>
      </trkpt>
      <trkpt lat="49.27151" lon="1.09711">
        <ele>127.03355</ele>
        <time>2015-07-02T11:19:52Z</time>
      </trkpt>
      <trkpt lat="49.27147" lon="1.09703">
        <ele>127.03355</ele>
        <time>2015-07-02T11:19:57Z</time>
      </trkpt>
      <trkpt lat="49.27144" lon="1.09696">
        <ele>126.86923</ele>
        <time>2015-07-02T11:20:02Z</time>
      </trkpt>
      <trkpt lat="49.27139" lon="1.09689">
        <ele>126.86923</ele>
        <time>2015-07-02T11:20:07Z</time>
      </trkpt>
      <trkpt lat="49.27136" lon="1.0968">
        <ele>126.65987</ele>
        <time>2015-07-02T11:20:12Z</time>
      </trkpt>
      <trkpt lat="49.2713" lon="1.0967">
        <ele>126.65987</ele>
        <time>2015-07-02T11:20:17Z</time>
      </trkpt>
      <trkpt lat="49.27127" lon="1.09661">
        <ele>126.30845</ele>
        <time>2015-07-02T11:20:22Z</time>
      </trkpt>
      <trkpt lat="49.27126" lon="1.09654">
        <ele>126.30845</ele>
        <time>2015-07-02T11:20:27Z</time>
      </trkpt>
      <trkpt lat="49.27125" lon="1.09647">
        <ele>125.92728</ele>
        <time>2015-07-02T11:20:32Z</time>
      </trkpt>
      <trkpt lat="49.27124" lon="1.09638">
        <ele>125.92728</ele>
        <time>2015-07-02T11:20:37Z</time>
      </trkpt>
      <trkpt lat="49.27123" lon="1.09628">
        <ele>125.70694</ele>
        <time>2015-07-02T11:20:42Z</time>
      </trkpt>
      <trkpt lat="49.27124" lon="1.09618">
        <ele>125.70694</ele>
        <time>2015-07-02T11:20:47Z</time>
      </trkpt>
      <trkpt lat="49.27123" lon="1.09607">
        <ele>125.66503</ele>
        <time>2015-07-02T11:20:52Z</time>
      </trkpt>
      <trkpt lat="49.27123" lon="1.09596">
        <ele>125.66503</ele>
        <time>2015-07-02T11:20:57Z</time>
      </trkpt>
      <trkpt lat="49.27124" lon="1.09588">
        <ele>125.658844</ele>
        <time>2015-07-02T11:21:02Z</time>
      </trkpt>
      <trkpt lat="49.27124" lon="1.09578">
        <ele>125.658844</ele>
        <time>2015-07-02T11:21:07Z</time>
      </trkpt>
      <trkpt lat="49.27123" lon="1.09566">
        <ele>125.85866</ele>
        <time>2015-07-02T11:21:12Z</time>
      </trkpt>
      <trkpt lat="49.27123" lon="1.09556">
        <ele>125.85866</ele>
        <time>2015-07-02T11:21:17Z</time>
      </trkpt>
      <trkpt lat="49.27123" lon="1.09548">
        <ele>126.133446</ele>
        <time>2015-07-02T11:21:22Z</time>
      </trkpt>
      <trkpt lat="49.27126" lon="1.09535">
        <ele>126.133446</ele>
        <time>2015-07-02T11:21:27Z</time>
      </trkpt>
      <trkpt lat="49.2713" lon="1.09527">
        <ele>126.47688</ele>
        <time>2015-07-02T11:21:32Z</time>
      </trkpt>
      <trkpt lat="49.27131" lon="1.09518">
        <ele>126.47688</ele>
        <time>2015-07-02T11:21:37Z</time>
      </trkpt>
      <trkpt lat="49.27134" lon="1.0951">
        <ele>126.954956</ele>
        <time>2015-07-02T11:21:42Z</time>
      </trkpt>
      <trkpt lat="49.27135" lon="1.09503">
        <ele>126.954956</ele>
        <time>2015-07-02T11:21:47Z</time>
      </trkpt>
      <trkpt lat="49.27137" lon="1.09492">
        <ele>127.397865</ele>
        <time>2015-07-02T11:21:52Z</time>
      </trkpt>
      <trkpt lat="49.27138" lon="1.09486">
        <ele>127.397865</ele>
        <time>2015-07-02T11:21:57Z</time>
      </trkpt>
      <trkpt lat="49.2714" lon="1.09478">
        <ele>127.778076</ele>
        <time>2015-07-02T11:22:02Z</time>
      </trkpt>
      <trkpt lat="49.27141" lon="1.09473">
        <ele>127.778076</ele>
        <time>2015-07-02T11:22:07Z</time>
      </trkpt>
      <trkpt lat="49.27143" lon="1.09468">
        <ele>127.778076</ele>
        <time>2015-07-02T11:22:12Z</time>
      </trkpt>
      <trkpt lat="49.27146" lon="1.0946">
        <ele>127.9838</ele>
        <time>2015-07-02T11:22:17Z</time>
      </trkpt>
      <trkpt lat="49.27149" lon="1.09456">
        <ele>127.9838</ele>
        <time>2015-07-02T11:22:22Z</time>
      </trkpt>
      <trkpt lat="49.27152" lon="1.09447">
        <ele>127.969604</ele>
        <time>2015-07-02T11:22:27Z</time>
      </trkpt>
      <trkpt lat="49.27154" lon="1.09439">
        <ele>127.969604</ele>
        <time>2015-07-02T11:22:32Z</time>
      </trkpt>
      <trkpt lat="49.27157" lon="1.09435">
        <ele>127.78047</ele>
        <time>2015-07-02T11:22:37Z</time>
      </trkpt>
      <trkpt lat="49.27161" lon="1.09432">
        <ele>127.78047</ele>
        <time>2015-07-02T11:22:42Z</time>
      </trkpt>
      <trkpt lat="49.27164" lon="1.09428">
        <ele>127.78047</ele>
        <time>2015-07-02T11:22:47Z</time>
      </trkpt>
      <trkpt lat="49.27169" lon="1.09419">
        <ele>127.343315</ele>
        <time>2015-07-02T11:22:52Z</time>
      </trkpt>
      <trkpt lat="49.27173" lon="1.09415">
        <ele>127.343315</ele>
        <time>2015-07-02T11:22:57Z</time>
      </trkpt>
      <trkpt lat="49.27179" lon="1.09405">
        <ele>126.67757</ele>
        <time>2015-07-02T11:23:02Z</time>
      </trkpt>
      <trkpt lat="49.27184" lon="1.09399">
        <ele>126.67757</ele>
        <time>2015-07-02T11:23:07Z</time>
      </trkpt>
      <trkpt lat="49.27189" lon="1.09393">
        <ele>125.88836</ele>
        <time>2015-07-02T11:23:12Z</time>
      </trkpt>
      <trkpt lat="49.27196" lon="1.09388">
        <ele>125.88836</ele>
        <time>2015-07-02T11:23:17Z</time>
      </trkpt>
      <trkpt lat="49.272" lon="1.09383">
        <ele>125.0302</ele>
        <time>2015-07-02T11:23:22Z</time>
      </trkpt>
      <trkpt lat="49.27202" lon="1.09376">
        <ele>125.0302</ele>
        <time>2015-07-02T11:23:27Z</time>
      </trkpt>
      <trkpt lat="49.27206" lon="1.09365">
        <ele>124.110535</ele>
        <time>2015-07-02T11:23:32Z</time>
      </trkpt>
      <trkpt lat="49.27211" lon="1.09359">
        <ele>124.110535</ele>
        <time>2015-07-02T11:23:37Z</time>
      </trkpt>
      <trkpt lat="49.27215" lon="1.09349">
        <ele>123.136444</ele>
        <time>2015-07-02T11:23:42Z</time>
      </trkpt>
      <trkpt lat="49.27218" lon="1.09342">
        <ele>123.136444</ele>
        <time>2015-07-02T11:23:47Z</time>
      </trkpt>
      <trkpt lat="49.27221" lon="1.09335">
        <ele>122.215485</ele>
        <time>2015-07-02T11:23:52Z</time>
      </trkpt>
      <trkpt lat="49.27223" lon="1.09329">
        <ele>122.215485</ele>
        <time>2015-07-02T11:23:57Z</time>
      </trkpt>
      <trkpt lat="49.27227" lon="1.0932">
        <ele>121.28861</ele>
        <time>2015-07-02T11:24:02Z</time>
      </trkpt>
      <trkpt lat="49.27229" lon="1.09312">
        <ele>121.28861</ele>
        <time>2015-07-02T11:24:07Z</time>
      </trkpt>
      <trkpt lat="49.27232" lon="1.09304">
        <ele>120.28669</ele>
        <time>2015-07-02T11:24:12Z</time>
      </trkpt>
      <trkpt lat="49.27234" lon="1.09296">
        <ele>120.28669</ele>
        <time>2015-07-02T11:24:17Z</time>
      </trkpt>
      <trkpt lat="49.27236" lon="1.09288">
        <ele>119.26113</ele>
        <time>2015-07-02T11:24:22Z</time>
      </trkpt>
      <trkpt lat="49.27237" lon="1.09277">
        <ele>119.26113</ele>
        <time>2015-07-02T11:24:27Z</time>
      </trkpt>
      <trkpt lat="49.27239" lon="1.09272">
        <ele>118.18753</ele>
        <time>2015-07-02T11:24:32Z</time>
      </trkpt>
      <trkpt lat="49.27239" lon="1.09265">
        <ele>118.18753</ele>
        <time>2015-07-02T11:24:37Z</time>
      </trkpt>
      <trkpt lat="49.2724" lon="1.09257">
        <ele>117.08659</ele>
        <time>2015-07-02T11:24:42Z</time>
      </trkpt>
      <trkpt lat="49.27239" lon="1.0925">
        <ele>117.08659</ele>
        <time>2015-07-02T11:24:47Z</time>
      </trkpt>
      <trkpt lat="49.27238" lon="1.09242">
        <ele>115.819016</ele>
        <time>2015-07-02T11:24:52Z</time>
      </trkpt>
      <trkpt lat="49.27239" lon="1.09233">
        <ele>115.819016</ele>
        <time>2015-07-02T11:24:57Z</time>
      </trkpt>
      <trkpt lat="49.27242" lon="1.09225">
        <ele>114.3426</ele>
        <time>2015-07-02T11:25:02Z</time>
      </trkpt>
      <trkpt lat="49.27244" lon="1.09214">
        <ele>114.3426</ele>
        <time>2015-07-02T11:25:07Z</time>
      </trkpt>
      <trkpt lat="49.27245" lon="1.09205">
        <ele>112.73404</ele>
        <time>2015-07-02T11:25:12Z</time>
      </trkpt>
      <trkpt lat="49.27247" lon="1.09197">
        <ele>112.73404</ele>
        <time>2015-07-02T11:25:17Z</time>
      </trkpt>
      <trkpt lat="49.27248" lon="1.09185">
        <ele>111.02149</ele>
        <time>2015-07-02T11:25:22Z</time>
      </trkpt>
      <trkpt lat="49.27247" lon="1.09173">
        <ele>111.02149</ele>
        <time>2015-07-02T11:25:27Z</time>
      </trkpt>
      <trkpt lat="49.27247" lon="1.09165">
        <ele>109.36095</ele>
        <time>2015-07-02T11:25:32Z</time>
      </trkpt>
      <trkpt lat="49.27247" lon="1.0916">
        <ele>109.36095</ele>
        <time>2015-07-02T11:25:37Z</time>
      </trkpt>
      <trkpt lat="49.27245" lon="1.09154">
        <ele>109.36095</ele>
        <time>2015-07-02T11:25:42Z</time>
      </trkpt>
      <trkpt lat="49.27242" lon="1.09143">
        <ele>107.57965</ele>
        <time>2015-07-02T11:25:47Z</time>
      </trkpt>
      <trkpt lat="49.27242" lon="1.09135">
        <ele>107.57965</ele>
        <time>2015-07-02T11:25:52Z</time>
      </trkpt>
      <trkpt lat="49.2724" lon="1.09125">
        <ele>105.705154</ele>
        <time>2015-07-02T11:25:57Z</time>
      </trkpt>
      <trkpt lat="49.27238" lon="1.09112">
        <ele>105.705154</ele>
        <time>2015-07-02T11:26:02Z</time>
      </trkpt>
      <trkpt lat="49.27237" lon="1.09103">
        <ele>103.84962</ele>
        <time>2015-07-02T11:26:07Z</time>
      </trkpt>
      <trkpt lat="49.27233" lon="1.09097">
        <ele>103.84962</ele>
        <time>2015-07-02T11:26:12Z</time>
      </trkpt>
      <trkpt lat="49.27232" lon="1.09099">
        <ele>103.84962</ele>
        <time>2015-07-02T11:26:17Z</time>
      </trkpt>
      <trkpt lat="49.27233" lon="1.09101">
        <ele>101.98708</ele>
        <time>2015-07-02T11:26:22Z</time>
      </trkpt>
      <trkpt lat="49.27232" lon="1.09104">
        <ele>101.98708</ele>
        <time>2015-07-02T11:26:27Z</time>
      </trkpt>
      <trkpt lat="49.27228" lon="1.09107">
        <ele>101.98708</ele>
        <time>2015-07-02T11:26:32Z</time>
      </trkpt>
      <trkpt lat="49.27225" lon="1.09113">
        <ele>100.12225</ele>
        <time>2015-07-02T11:26:37Z</time>
      </trkpt>
      <trkpt lat="49.2722" lon="1.09116">
        <ele>100.12225</ele>
        <time>2015-07-02T11:26:42Z</time>
      </trkpt>
      <trkpt lat="49.27216" lon="1.09125">
        <ele>98.34586</ele>
        <time>2015-07-02T11:26:47Z</time>
      </trkpt>
      <trkpt lat="49.27209" lon="1.0913">
        <ele>98.34586</ele>
        <time>2015-07-02T11:26:52Z</time>
      </trkpt>
      <trkpt lat="49.27205" lon="1.09136">
        <ele>96.69835</ele>
        <time>2015-07-02T11:26:57Z</time>
      </trkpt>
      <trkpt lat="49.27199" lon="1.09145">
        <ele>96.69835</ele>
        <time>2015-07-02T11:27:02Z</time>
      </trkpt>
      <trkpt lat="49.27194" lon="1.09152">
        <ele>95.20232</ele>
        <time>2015-07-02T11:27:07Z</time>
      </trkpt>
      <trkpt lat="49.27189" lon="1.09156">
        <ele>95.20232</ele>
        <time>2015-07-02T11:27:12Z</time>
      </trkpt>
      <trkpt lat="49.27186" lon="1.0916">
        <ele>93.820526</ele>
        <time>2015-07-02T11:27:17Z</time>
      </trkpt>
      <trkpt lat="49.27182" lon="1.09163">
        <ele>93.820526</ele>
        <time>2015-07-02T11:27:22Z</time>
      </trkpt>
      <trkpt lat="49.27179" lon="1.09166">
        <ele>93.820526</ele>
        <time>2015-07-02T11:27:27Z</time>
      </trkpt>
      <trkpt lat="49.27174" lon="1.09172">
        <ele>92.63331</ele>
        <time>2015-07-02T11:27:32Z</time>
      </trkpt>
      <trkpt lat="49.2717" lon="1.09176">
        <ele>92.63331</ele>
        <time>2015-07-02T11:27:37Z</time>
      </trkpt>
      <trkpt lat="49.27167" lon="1.09178">
        <ele>92.63331</ele>
        <time>2015-07-02T11:27:42Z</time>
      </trkpt>
      <trkpt lat="49.27164" lon="1.09183">
        <ele>91.59915</ele>
        <time>2015-07-02T11:27:47Z</time>
      </trkpt>
      <trkpt lat="49.27155" lon="1.0919">
        <ele>90.679054</ele>
        <time>2015-07-02T11:27:52Z</time>
      </trkpt>
      <trkpt lat="49.27149" lon="1.0919">
        <ele>90.679054</ele>
        <time>2015-07-02T11:27:57Z</time>
      </trkpt>
      <trkpt lat="49.27145" lon="1.09194">
        <ele>89.92293</ele>
        <time>2015-07-02T11:28:02Z</time>
      </trkpt>
      <trkpt lat="49.27143" lon="1.09199">
        <ele>89.92293</ele>
        <time>2015-07-02T11:28:07Z</time>
      </trkpt>
      <trkpt lat="49.27139" lon="1.09203">
        <ele>89.92293</ele>
        <time>2015-07-02T11:28:12Z</time>
      </trkpt>
      <trkpt lat="49.27136" lon="1.09207">
        <ele>89.36204</ele>
        <time>2015-07-02T11:28:17Z</time>
      </trkpt>
      <trkpt lat="49.27132" lon="1.09211">
        <ele>89.36204</ele>
        <time>2015-07-02T11:28:22Z</time>
      </trkpt>
      <trkpt lat="49.27128" lon="1.09215">
        <ele>88.98148</ele>
        <time>2015-07-02T11:28:27Z</time>
      </trkpt>
      <trkpt lat="49.27122" lon="1.09223">
        <ele>88.98148</ele>
        <time>2015-07-02T11:28:32Z</time>
      </trkpt>
      <trkpt lat="49.27117" lon="1.09227">
        <ele>88.78129</ele>
        <time>2015-07-02T11:28:37Z</time>
      </trkpt>
      <trkpt lat="49.27114" lon="1.09231">
        <ele>88.78129</ele>
        <time>2015-07-02T11:28:42Z</time>
      </trkpt>
      <trkpt lat="49.2711" lon="1.09235">
        <ele>88.78129</ele>
        <time>2015-07-02T11:28:47Z</time>
      </trkpt>
      <trkpt lat="49.27106" lon="1.09239">
        <ele>88.7897</ele>
        <time>2015-07-02T11:28:52Z</time>
      </trkpt>
      <trkpt lat="49.27101" lon="1.09243">
        <ele>88.7897</ele>
        <time>2015-07-02T11:28:57Z</time>
      </trkpt>
      <trkpt lat="49.27098" lon="1.09246">
        <ele>88.9458</ele>
        <time>2015-07-02T11:29:02Z</time>
      </trkpt>
      <trkpt lat="49.27093" lon="1.0925">
        <ele>88.9458</ele>
        <time>2015-07-02T11:29:07Z</time>
      </trkpt>
      <trkpt lat="49.27086" lon="1.09252">
        <ele>89.27913</ele>
        <time>2015-07-02T11:29:12Z</time>
      </trkpt>
      <trkpt lat="49.27081" lon="1.09256">
        <ele>89.27913</ele>
        <time>2015-07-02T11:29:17Z</time>
      </trkpt>
      <trkpt lat="49.27076" lon="1.09259">
        <ele>89.78771</ele>
        <time>2015-07-02T11:29:22Z</time>
      </trkpt>
      <trkpt lat="49.2707" lon="1.09261">
        <ele>89.78771</ele>
        <time>2015-07-02T11:29:27Z</time>
      </trkpt>
      <trkpt lat="49.27065" lon="1.09264">
        <ele>90.42596</ele>
        <time>2015-07-02T11:29:32Z</time>
      </trkpt>
      <trkpt lat="49.2706" lon="1.09267">
        <ele>90.42596</ele>
        <time>2015-07-02T11:29:37Z</time>
      </trkpt>
      <trkpt lat="49.27054" lon="1.09269">
        <ele>91.16567</ele>
        <time>2015-07-02T11:29:42Z</time>
      </trkpt>
      <trkpt lat="49.27049" lon="1.0927">
        <ele>91.16567</ele>
        <time>2015-07-02T11:29:47Z</time>
      </trkpt>
      <trkpt lat="49.27043" lon="1.09271">
        <ele>92.038086</ele>
        <time>2015-07-02T11:29:52Z</time>
      </trkpt>
      <trkpt lat="49.27037" lon="1.09271">
        <ele>92.038086</ele>
        <time>2015-07-02T11:29:57Z</time>
      </trkpt>
      <trkpt lat="49.27033" lon="1.09273">
        <ele>93.01414</ele>
        <time>2015-07-02T11:30:02Z</time>
      </trkpt>
      <trkpt lat="49.27025" lon="1.09275">
        <ele>93.01414</ele>
        <time>2015-07-02T11:30:07Z</time>
      </trkpt>
      <trkpt lat="49.2702" lon="1.09276">
        <ele>94.08105</ele>
        <time>2015-07-02T11:30:12Z</time>
      </trkpt>
      <trkpt lat="49.27015" lon="1.09276">
        <ele>94.08105</ele>
        <time>2015-07-02T11:30:17Z</time>
      </trkpt>
      <trkpt lat="49.2701" lon="1.09275">
        <ele>95.22677</ele>
        <time>2015-07-02T11:30:22Z</time>
      </trkpt>
      <trkpt lat="49.27005" lon="1.09275">
        <ele>95.22677</ele>
        <time>2015-07-02T11:30:27Z</time>
      </trkpt>
      <trkpt lat="49.26999" lon="1.09277">
        <ele>96.324684</ele>
        <time>2015-07-02T11:30:32Z</time>
      </trkpt>
      <trkpt lat="49.26991" lon="1.09278">
        <ele>96.324684</ele>
        <time>2015-07-02T11:30:37Z</time>
      </trkpt>
      <trkpt lat="49.26984" lon="1.09281">
        <ele>97.4306</ele>
        <time>2015-07-02T11:30:42Z</time>
      </trkpt>
      <trkpt lat="49.2698" lon="1.09283">
        <ele>97.4306</ele>
        <time>2015-07-02T11:30:47Z</time>
      </trkpt>
      <trkpt lat="49.26974" lon="1.09285">
        <ele>98.56749</ele>
        <time>2015-07-02T11:30:52Z</time>
      </trkpt>
      <trkpt lat="49.26969" lon="1.09287">
        <ele>98.56749</ele>
        <time>2015-07-02T11:30:57Z</time>
      </trkpt>
      <trkpt lat="49.26964" lon="1.0929">
        <ele>99.713356</ele>
        <time>2015-07-02T11:31:02Z</time>
      </trkpt>
      <trkpt lat="49.2696" lon="1.09294">
        <ele>99.713356</ele>
        <time>2015-07-02T11:31:07Z</time>
      </trkpt>
      <trkpt lat="49.26954" lon="1.09299">
        <ele>100.8047</ele>
        <time>2015-07-02T11:31:12Z</time>
      </trkpt>
      <trkpt lat="49.26952" lon="1.09301">
        <ele>100.8047</ele>
        <time>2015-07-02T11:31:17Z</time>
      </trkpt>
      <trkpt lat="49.26945" lon="1.09305">
        <ele>101.927055</ele>
        <time>2015-07-02T11:31:22Z</time>
      </trkpt>
      <trkpt lat="49.2694" lon="1.09309">
        <ele>101.927055</ele>
        <time>2015-07-02T11:31:27Z</time>
      </trkpt>
      <trkpt lat="49.26935" lon="1.09311">
        <ele>103.08761</ele>
        <time>2015-07-02T11:31:32Z</time>
      </trkpt>
      <trkpt lat="49.26929" lon="1.09314">
        <ele>103.08761</ele>
        <time>2015-07-02T11:31:37Z</time>
      </trkpt>
      <trkpt lat="49.26924" lon="1.09316">
        <ele>104.35071</ele>
        <time>2015-07-02T11:31:42Z</time>
      </trkpt>
      <trkpt lat="49.2692" lon="1.09318">
        <ele>104.35071</ele>
        <time>2015-07-02T11:31:47Z</time>
      </trkpt>
      <trkpt lat="49.26913" lon="1.09319">
        <ele>105.61728</ele>
        <time>2015-07-02T11:31:52Z</time>
      </trkpt>
      <trkpt lat="49.26907" lon="1.09321">
        <ele>105.61728</ele>
        <time>2015-07-02T11:31:57Z</time>
      </trkpt>
      <trkpt lat="49.269" lon="1.09325">
        <ele>106.89653</ele>
        <time>2015-07-02T11:32:02Z</time>
      </trkpt>
      <trkpt lat="49.26894" lon="1.09327">
        <ele>106.89653</ele>
        <time>2015-07-02T11:32:07Z</time>
      </trkpt>
      <trkpt lat="49.26889" lon="1.09328">
        <ele>108.25472</ele>
        <time>2015-07-02T11:32:12Z</time>
      </trkpt>
      <trkpt lat="49.26885" lon="1.09331">
        <ele>108.25472</ele>
        <time>2015-07-02T11:32:17Z</time>
      </trkpt>
      <trkpt lat="49.26882" lon="1.09334">
        <ele>108.25472</ele>
        <time>2015-07-02T11:32:22Z</time>
      </trkpt>
      <trkpt lat="49.26877" lon="1.0934">
        <ele>109.62349</ele>
        <time>2015-07-02T11:32:27Z</time>
      </trkpt>
      <trkpt lat="49.26872" lon="1.09344">
        <ele>109.62349</ele>
        <time>2015-07-02T11:32:32Z</time>
      </trkpt>
      <trkpt lat="49.26867" lon="1.09348">
        <ele>110.96841</ele>
        <time>2015-07-02T11:32:37Z</time>
      </trkpt>
      <trkpt lat="49.26862" lon="1.0935">
        <ele>110.96841</ele>
        <time>2015-07-02T11:32:42Z</time>
      </trkpt>
      <trkpt lat="49.26856" lon="1.09355">
        <ele>112.31545</ele>
        <time>2015-07-02T11:32:47Z</time>
      </trkpt>
      <trkpt lat="49.26851" lon="1.0936">
        <ele>112.31545</ele>
        <time>2015-07-02T11:32:52Z</time>
      </trkpt>
      <trkpt lat="49.26844" lon="1.09364">
        <ele>113.63119</ele>
        <time>2015-07-02T11:32:57Z</time>
      </trkpt>
      <trkpt lat="49.26839" lon="1.09367">
        <ele>113.63119</ele>
        <time>2015-07-02T11:33:02Z</time>
      </trkpt>
      <trkpt lat="49.26833" lon="1.0937">
        <ele>114.94251</ele>
        <time>2015-07-02T11:33:07Z</time>
      </trkpt>
      <trkpt lat="49.26828" lon="1.09372">
        <ele>114.94251</ele>
        <time>2015-07-02T11:33:12Z</time>
      </trkpt>
      <trkpt lat="49.26823" lon="1.09376">
        <ele>116.231285</ele>
        <time>2015-07-02T11:33:17Z</time>
      </trkpt>
      <trkpt lat="49.26819" lon="1.09381">
        <ele>116.231285</ele>
        <time>2015-07-02T11:33:22Z</time>
      </trkpt>
      <trkpt lat="49.26812" lon="1.09383">
        <ele>117.4521</ele>
        <time>2015-07-02T11:33:27Z</time>
      </trkpt>
      <trkpt lat="49.26807" lon="1.09387">
        <ele>117.4521</ele>
        <time>2015-07-02T11:33:32Z</time>
      </trkpt>
      <trkpt lat="49.26803" lon="1.0939">
        <ele>118.60645</ele>
        <time>2015-07-02T11:33:37Z</time>
      </trkpt>
      <trkpt lat="49.26798" lon="1.09395">
        <ele>118.60645</ele>
        <time>2015-07-02T11:33:42Z</time>
      </trkpt>
      <trkpt lat="49.26792" lon="1.09399">
        <ele>119.696075</ele>
        <time>2015-07-02T11:33:47Z</time>
      </trkpt>
      <trkpt lat="49.26788" lon="1.09403">
        <ele>119.696075</ele>
        <time>2015-07-02T11:33:52Z</time>
      </trkpt>
      <trkpt lat="49.26783" lon="1.09407">
        <ele>120.72291</ele>
        <time>2015-07-02T11:33:57Z</time>
      </trkpt>
      <trkpt lat="49.26779" lon="1.0941">
        <ele>120.72291</ele>
        <time>2015-07-02T11:34:02Z</time>
      </trkpt>
      <trkpt lat="49.26772" lon="1.09415">
        <ele>121.804344</ele>
        <time>2015-07-02T11:34:07Z</time>
      </trkpt>
      <trkpt lat="49.26768" lon="1.09419">
        <ele>121.804344</ele>
        <time>2015-07-02T11:34:12Z</time>
      </trkpt>
      <trkpt lat="49.26764" lon="1.09424">
        <ele>122.9627</ele>
        <time>2015-07-02T11:34:17Z</time>
      </trkpt>
      <trkpt lat="49.2676" lon="1.0943">
        <ele>122.9627</ele>
        <time>2015-07-02T11:34:22Z</time>
      </trkpt>
      <trkpt lat="49.26755" lon="1.09436">
        <ele>124.204155</ele>
        <time>2015-07-02T11:34:27Z</time>
      </trkpt>
      <trkpt lat="49.26751" lon="1.0944">
        <ele>124.204155</ele>
        <time>2015-07-02T11:34:32Z</time>
      </trkpt>
      <trkpt lat="49.26745" lon="1.09443">
        <ele>125.30376</ele>
        <time>2015-07-02T11:34:37Z</time>
      </trkpt>
      <trkpt lat="49.26741" lon="1.09449">
        <ele>125.30376</ele>
        <time>2015-07-02T11:34:42Z</time>
      </trkpt>
      <trkpt lat="49.26735" lon="1.09456">
        <ele>126.38508</ele>
        <time>2015-07-02T11:34:47Z</time>
      </trkpt>
      <trkpt lat="49.26729" lon="1.09463">
        <ele>126.38508</ele>
        <time>2015-07-02T11:34:52Z</time>
      </trkpt>
      <trkpt lat="49.26724" lon="1.09468">
        <ele>127.36104</ele>
        <time>2015-07-02T11:34:57Z</time>
      </trkpt>
      <trkpt lat="49.2672" lon="1.09473">
        <ele>127.36104</ele>
        <time>2015-07-02T11:35:02Z</time>
      </trkpt>
      <trkpt lat="49.26715" lon="1.09478">
        <ele>128.20901</ele>
        <time>2015-07-02T11:35:07Z</time>
      </trkpt>
      <trkpt lat="49.26709" lon="1.09482">
        <ele>128.20901</ele>
        <time>2015-07-02T11:35:12Z</time>
      </trkpt>
      <trkpt lat="49.26704" lon="1.09485">
        <ele>129.03824</ele>
        <time>2015-07-02T11:35:17Z</time>
      </trkpt>
      <trkpt lat="49.26699" lon="1.09492">
        <ele>129.03824</ele>
        <time>2015-07-02T11:35:22Z</time>
      </trkpt>
      <trkpt lat="49.26694" lon="1.09499">
        <ele>129.76271</ele>
        <time>2015-07-02T11:35:27Z</time>
      </trkpt>
      <trkpt lat="49.26689" lon="1.09504">
        <ele>129.76271</ele>
        <time>2015-07-02T11:35:32Z</time>
      </trkpt>
      <trkpt lat="49.26685" lon="1.09511">
        <ele>130.33202</ele>
        <time>2015-07-02T11:35:37Z</time>
      </trkpt>
      <trkpt lat="49.2668" lon="1.09517">
        <ele>130.33202</ele>
        <time>2015-07-02T11:35:42Z</time>
      </trkpt>
      <trkpt lat="49.26677" lon="1.09525">
        <ele>130.82967</ele>
        <time>2015-07-02T11:35:47Z</time>
      </trkpt>
      <trkpt lat="49.26675" lon="1.09532">
        <ele>130.82967</ele>
        <time>2015-07-02T11:35:52Z</time>
      </trkpt>
      <trkpt lat="49.26674" lon="1.0954">
        <ele>131.40536</ele>
        <time>2015-07-02T11:35:57Z</time>
      </trkpt>
      <trkpt lat="49.26672" lon="1.09549">
        <ele>131.40536</ele>
        <time>2015-07-02T11:36:02Z</time>
      </trkpt>
      <trkpt lat="49.2667" lon="1.09559">
        <ele>132.05362</ele>
        <time>2015-07-02T11:36:07Z</time>
      </trkpt>
      <trkpt lat="49.26669" lon="1.09566">
        <ele>132.05362</ele>
        <time>2015-07-02T11:36:12Z</time>
      </trkpt>
      <trkpt lat="49.26667" lon="1.09575">
        <ele>132.71153</ele>
        <time>2015-07-02T11:36:17Z</time>
      </trkpt>
      <trkpt lat="49.26666" lon="1.09585">
        <ele>132.71153</ele>
        <time>2015-07-02T11:36:22Z</time>
      </trkpt>
      <trkpt lat="49.26662" lon="1.09594">
        <ele>133.37854</ele>
        <time>2015-07-02T11:36:27Z</time>
      </trkpt>
      <trkpt lat="49.2666" lon="1.09603">
        <ele>133.37854</ele>
        <time>2015-07-02T11:36:32Z</time>
      </trkpt>
      <trkpt lat="49.26656" lon="1.09612">
        <ele>134.15504</ele>
        <time>2015-07-02T11:36:37Z</time>
      </trkpt>
      <trkpt lat="49.26654" lon="1.0962">
        <ele>134.15504</ele>
        <time>2015-07-02T11:36:42Z</time>
      </trkpt>
      <trkpt lat="49.26651" lon="1.09628">
        <ele>135.0041</ele>
        <time>2015-07-02T11:36:47Z</time>
      </trkpt>
      <trkpt lat="49.2665" lon="1.09634">
        <ele>135.0041</ele>
        <time>2015-07-02T11:36:52Z</time>
      </trkpt>
      <trkpt lat="49.26646" lon="1.09644">
        <ele>135.83371</ele>
        <time>2015-07-02T11:36:57Z</time>
      </trkpt>
      <trkpt lat="49.26643" lon="1.09652">
        <ele>135.83371</ele>
        <time>2015-07-02T11:37:02Z</time>
      </trkpt>
      <trkpt lat="49.2664" lon="1.09659">
        <ele>136.58757</ele>
        <time>2015-07-02T11:37:07Z</time>
      </trkpt>
      <trkpt lat="49.26638" lon="1.09667">
        <ele>136.58757</ele>
        <time>2015-07-02T11:37:12Z</time>
      </trkpt>
      <trkpt lat="49.26637" lon="1.09677">
        <ele>137.24257</ele>
        <time>2015-07-02T11:37:17Z</time>
      </trkpt>
      <trkpt lat="49.26636" lon="1.09685">
        <ele>137.24257</ele>
        <time>2015-07-02T11:37:22Z</time>
      </trkpt>
      <trkpt lat="49.26635" lon="1.09695">
        <ele>137.77763</ele>
        <time>2015-07-02T11:37:27Z</time>
      </trkpt>
      <trkpt lat="49.26634" lon="1.09704">
        <ele>137.77763</ele>
        <time>2015-07-02T11:37:32Z</time>
      </trkpt>
      <trkpt lat="49.26634" lon="1.09712">
        <ele>138.21684</ele>
        <time>2015-07-02T11:37:37Z</time>
      </trkpt>
      <trkpt lat="49.26633" lon="1.09722">
        <ele>138.21684</ele>
        <time>2015-07-02T11:37:42Z</time>
      </trkpt>
      <trkpt lat="49.26633" lon="1.09729">
        <ele>138.55399</ele>
        <time>2015-07-02T11:37:47Z</time>
      </trkpt>
      <trkpt lat="49.26633" lon="1.09739">
        <ele>138.55399</ele>
        <time>2015-07-02T11:37:52Z</time>
      </trkpt>
      <trkpt lat="49.26632" lon="1.09748">
        <ele>138.74042</ele>
        <time>2015-07-02T11:37:57Z</time>
      </trkpt>
      <trkpt lat="49.26631" lon="1.09758">
        <ele>138.74042</ele>
        <time>2015-07-02T11:38:02Z</time>
      </trkpt>
      <trkpt lat="49.26629" lon="1.09765">
        <ele>138.77467</ele>
        <time>2015-07-02T11:38:07Z</time>
      </trkpt>
      <trkpt lat="49.26627" lon="1.09776">
        <ele>138.77467</ele>
        <time>2015-07-02T11:38:12Z</time>
      </trkpt>
      <trkpt lat="49.26628" lon="1.09786">
        <ele>138.72798</ele>
        <time>2015-07-02T11:38:17Z</time>
      </trkpt>
      <trkpt lat="49.26627" lon="1.09796">
        <ele>138.72798</ele>
        <time>2015-07-02T11:38:22Z</time>
      </trkpt>
      <trkpt lat="49.26626" lon="1.09806">
        <ele>138.65208</ele>
        <time>2015-07-02T11:38:27Z</time>
      </trkpt>
      <trkpt lat="49.26625" lon="1.09814">
        <ele>138.65208</ele>
        <time>2015-07-02T11:38:32Z</time>
      </trkpt>
      <trkpt lat="49.26625" lon="1.09824">
        <ele>138.55182</ele>
        <time>2015-07-02T11:38:37Z</time>
      </trkpt>
      <trkpt lat="49.26623" lon="1.09834">
        <ele>138.55182</ele>
        <time>2015-07-02T11:38:42Z</time>
      </trkpt>
      <trkpt lat="49.26622" lon="1.09841">
        <ele>138.34521</ele>
        <time>2015-07-02T11:38:47Z</time>
      </trkpt>
      <trkpt lat="49.26621" lon="1.09852">
        <ele>138.34521</ele>
        <time>2015-07-02T11:38:52Z</time>
      </trkpt>
      <trkpt lat="49.26619" lon="1.09862">
        <ele>138.04312</ele>
        <time>2015-07-02T11:38:57Z</time>
      </trkpt>
      <trkpt lat="49.26621" lon="1.09875">
        <ele>138.04312</ele>
        <time>2015-07-02T11:39:02Z</time>
      </trkpt>
      <trkpt lat="49.2662" lon="1.0988">
        <ele>137.74228</ele>
        <time>2015-07-02T11:39:07Z</time>
      </trkpt>
      <trkpt lat="49.26619" lon="1.09888">
        <ele>137.74228</ele>
        <time>2015-07-02T11:39:12Z</time>
      </trkpt>
      <trkpt lat="49.26619" lon="1.09898">
        <ele>137.51784</ele>
        <time>2015-07-02T11:39:17Z</time>
      </trkpt>
      <trkpt lat="49.2662" lon="1.09905">
        <ele>137.51784</ele>
        <time>2015-07-02T11:39:22Z</time>
      </trkpt>
      <trkpt lat="49.26618" lon="1.09913">
        <ele>137.35277</ele>
        <time>2015-07-02T11:39:27Z</time>
      </trkpt>
      <trkpt lat="49.26619" lon="1.09919">
        <ele>137.35277</ele>
        <time>2015-07-02T11:39:32Z</time>
      </trkpt>
      <trkpt lat="49.26617" lon="1.09927">
        <ele>137.21661</ele>
        <time>2015-07-02T11:39:37Z</time>
      </trkpt>
      <trkpt lat="49.26614" lon="1.0994">
        <ele>137.009</ele>
        <time>2015-07-02T11:39:42Z</time>
      </trkpt>
      <trkpt lat="49.26612" lon="1.09947">
        <ele>137.009</ele>
        <time>2015-07-02T11:39:47Z</time>
      </trkpt>
      <trkpt lat="49.2661" lon="1.09956">
        <ele>136.78119</ele>
        <time>2015-07-02T11:39:52Z</time>
      </trkpt>
      <trkpt lat="49.26607" lon="1.09968">
        <ele>136.78119</ele>
        <time>2015-07-02T11:39:57Z</time>
      </trkpt>
      <trkpt lat="49.26604" lon="1.09979">
        <ele>136.47977</ele>
        <time>2015-07-02T11:40:02Z</time>
      </trkpt>
      <trkpt lat="49.26604" lon="1.09988">
        <ele>136.47977</ele>
        <time>2015-07-02T11:40:07Z</time>
      </trkpt>
      <trkpt lat="49.26601" lon="1.1">
        <ele>136.27158</ele>
        <time>2015-07-02T11:40:12Z</time>
      </trkpt>
      <trkpt lat="49.26599" lon="1.1001">
        <ele>136.27158</ele>
        <time>2015-07-02T11:40:17Z</time>
      </trkpt>
      <trkpt lat="49.26599" lon="1.10018">
        <ele>136.18115</ele>
        <time>2015-07-02T11:40:22Z</time>
      </trkpt>
      <trkpt lat="49.26599" lon="1.10025">
        <ele>136.18115</ele>
        <time>2015-07-02T11:40:27Z</time>
      </trkpt>
      <trkpt lat="49.26597" lon="1.10038">
        <ele>136.20204</ele>
        <time>2015-07-02T11:40:32Z</time>
      </trkpt>
      <trkpt lat="49.26596" lon="1.10048">
        <ele>136.20204</ele>
        <time>2015-07-02T11:40:37Z</time>
      </trkpt>
      <trkpt lat="49.26597" lon="1.10056">
        <ele>136.29904</ele>
        <time>2015-07-02T11:40:42Z</time>
      </trkpt>
      <trkpt lat="49.26596" lon="1.10062">
        <ele>136.29904</ele>
        <time>2015-07-02T11:40:47Z</time>
      </trkpt>
      <trkpt lat="49.26598" lon="1.1007">
        <ele>136.42482</ele>
        <time>2015-07-02T11:40:52Z</time>
      </trkpt>
      <trkpt lat="49.266" lon="1.10075">
        <ele>136.42482</ele>
        <time>2015-07-02T11:40:57Z</time>
      </trkpt>
      <trkpt lat="49.26603" lon="1.10084">
        <ele>136.56422</ele>
        <time>2015-07-02T11:41:02Z</time>
      </trkpt>
      <trkpt lat="49.26603" lon="1.10089">
        <ele>136.56422</ele>
        <time>2015-07-02T11:41:07Z</time>
      </trkpt>
      <trkpt lat="49.26603" lon="1.10099">
        <ele>136.65985</ele>
        <time>2015-07-02T11:41:12Z</time>
      </trkpt>
      <trkpt lat="49.26603" lon="1.10107">
        <ele>136.65985</ele>
        <time>2015-07-02T11:41:17Z</time>
      </trkpt>
      <trkpt lat="49.26603" lon="1.10116">
        <ele>136.60097</ele>
        <time>2015-07-02T11:41:22Z</time>
      </trkpt>
      <trkpt lat="49.26606" lon="1.10123">
        <ele>136.60097</ele>
        <time>2015-07-02T11:41:27Z</time>
      </trkpt>
      <trkpt lat="49.26602" lon="1.10133">
        <ele>136.51585</ele>
        <time>2015-07-02T11:41:32Z</time>
      </trkpt>
      <trkpt lat="49.26601" lon="1.10141">
        <ele>136.51585</ele>
        <time>2015-07-02T11:41:37Z</time>
      </trkpt>
      <trkpt lat="49.26599" lon="1.10149">
        <ele>136.33607</ele>
        <time>2015-07-02T11:41:42Z</time>
      </trkpt>
      <trkpt lat="49.266" lon="1.10156">
        <ele>136.33607</ele>
        <time>2015-07-02T11:41:47Z</time>
      </trkpt>
      <trkpt lat="49.26601" lon="1.10163">
        <ele>136.04166</ele>
        <time>2015-07-02T11:41:52Z</time>
      </trkpt>
      <trkpt lat="49.26603" lon="1.1017">
        <ele>136.04166</ele>
        <time>2015-07-02T11:41:57Z</time>
      </trkpt>
      <trkpt lat="49.26603" lon="1.10177">
        <ele>135.744</ele>
        <time>2015-07-02T11:42:02Z</time>
      </trkpt>
      <trkpt lat="49.26601" lon="1.10185">
        <ele>135.744</ele>
        <time>2015-07-02T11:42:07Z</time>
      </trkpt>
      <trkpt lat="49.266" lon="1.10196">
        <ele>135.47427</ele>
        <time>2015-07-02T11:42:12Z</time>
      </trkpt>
      <trkpt lat="49.26599" lon="1.10204">
        <ele>135.47427</ele>
        <time>2015-07-02T11:42:17Z</time>
      </trkpt>
      <trkpt lat="49.26598" lon="1.10212">
        <ele>135.16028</ele>
        <time>2015-07-02T11:42:22Z</time>
      </trkpt>
      <trkpt lat="49.26598" lon="1.10224">
        <ele>135.16028</ele>
        <time>2015-07-02T11:42:27Z</time>
      </trkpt>
      <trkpt lat="49.26596" lon="1.10233">
        <ele>134.8505</ele>
        <time>2015-07-02T11:42:32Z</time>
      </trkpt>
      <trkpt lat="49.26595" lon="1.10243">
        <ele>134.8505</ele>
        <time>2015-07-02T11:42:37Z</time>
      </trkpt>
      <trkpt lat="49.26591" lon="1.10253">
        <ele>134.50327</ele>
        <time>2015-07-02T11:42:42Z</time>
      </trkpt>
      <trkpt lat="49.26586" lon="1.1026">
        <ele>134.50327</ele>
        <time>2015-07-02T11:42:47Z</time>
      </trkpt>
      <trkpt lat="49.26579" lon="1.10266">
        <ele>134.09445</ele>
        <time>2015-07-02T11:42:52Z</time>
      </trkpt>
      <trkpt lat="49.26573" lon="1.10273">
        <ele>134.09445</ele>
        <time>2015-07-02T11:42:57Z</time>
      </trkpt>
      <trkpt lat="49.2657" lon="1.10279">
        <ele>133.64502</ele>
        <time>2015-07-02T11:43:02Z</time>
      </trkpt>
      <trkpt lat="49.26566" lon="1.10285">
        <ele>133.64502</ele>
        <time>2015-07-02T11:43:07Z</time>
      </trkpt>
      <trkpt lat="49.26563" lon="1.10292">
        <ele>133.2177</ele>
        <time>2015-07-02T11:43:12Z</time>
      </trkpt>
      <trkpt lat="49.26559" lon="1.103">
        <ele>133.2177</ele>
        <time>2015-07-02T11:43:17Z</time>
      </trkpt>
      <trkpt lat="49.26556" lon="1.10307">
        <ele>132.76955</ele>
        <time>2015-07-02T11:43:22Z</time>
      </trkpt>
      <trkpt lat="49.26553" lon="1.10315">
        <ele>132.76955</ele>
        <time>2015-07-02T11:43:27Z</time>
      </trkpt>
      <trkpt lat="49.2655" lon="1.10324">
        <ele>132.36168</ele>
        <time>2015-07-02T11:43:32Z</time>
      </trkpt>
      <trkpt lat="49.26547" lon="1.10332">
        <ele>132.36168</ele>
        <time>2015-07-02T11:43:37Z</time>
      </trkpt>
      <trkpt lat="49.26544" lon="1.10341">
        <ele>131.96405</ele>
        <time>2015-07-02T11:43:42Z</time>
      </trkpt>
      <trkpt lat="49.26542" lon="1.10349">
        <ele>131.96405</ele>
        <time>2015-07-02T11:43:47Z</time>
      </trkpt>
      <trkpt lat="49.2654" lon="1.10358">
        <ele>131.49107</ele>
        <time>2015-07-02T11:43:52Z</time>
      </trkpt>
      <trkpt lat="49.26538" lon="1.10366">
        <ele>131.49107</ele>
        <time>2015-07-02T11:43:57Z</time>
      </trkpt>
      <trkpt lat="49.26537" lon="1.10376">
        <ele>131.0077</ele>
        <time>2015-07-02T11:44:02Z</time>
      </trkpt>
      <trkpt lat="49.26535" lon="1.10384">
        <ele>131.0077</ele>
        <time>2015-07-02T11:44:07Z</time>
      </trkpt>
      <trkpt lat="49.26533" lon="1.10392">
        <ele>130.53087</ele>
        <time>2015-07-02T11:44:12Z</time>
      </trkpt>
      <trkpt lat="49.2653" lon="1.10401">
        <ele>130.53087</ele>
        <time>2015-07-02T11:44:17Z</time>
      </trkpt>
      <trkpt lat="49.26528" lon="1.10408">
        <ele>130.09053</ele>
        <time>2015-07-02T11:44:22Z</time>
      </trkpt>
      <trkpt lat="49.26525" lon="1.10415">
        <ele>130.09053</ele>
        <time>2015-07-02T11:44:27Z</time>
      </trkpt>
      <trkpt lat="49.26523" lon="1.10424">
        <ele>129.74313</ele>
        <time>2015-07-02T11:44:32Z</time>
      </trkpt>
      <trkpt lat="49.2652" lon="1.10431">
        <ele>129.74313</ele>
        <time>2015-07-02T11:44:37Z</time>
      </trkpt>
      <trkpt lat="49.26517" lon="1.10435">
        <ele>129.45418</ele>
        <time>2015-07-02T11:44:42Z</time>
      </trkpt>
      <trkpt lat="49.26516" lon="1.10435">
        <ele>129.45418</ele>
        <time>2015-07-02T11:44:47Z</time>
      </trkpt>
      <trkpt lat="49.26516" lon="1.10436">
        <ele>129.45418</ele>
        <time>2015-07-02T11:44:52Z</time>
      </trkpt>
      <trkpt lat="49.26514" lon="1.10438">
        <ele>129.45418</ele>
        <time>2015-07-02T11:44:57Z</time>
      </trkpt>
      <trkpt lat="49.26513" lon="1.10438">
        <ele>129.45418</ele>
        <time>2015-07-02T11:45:02Z</time>
      </trkpt>
      <trkpt lat="49.26514" lon="1.10436">
        <ele>129.45418</ele>
        <time>2015-07-02T11:45:07Z</time>
      </trkpt>
      <trkpt lat="49.26514" lon="1.10435">
        <ele>129.45418</ele>
        <time>2015-07-02T11:45:12Z</time>
      </trkpt>
      <trkpt lat="49.26515" lon="1.10435">
        <ele>129.45418</ele>
        <time>2015-07-02T11:45:17Z</time>
      </trkpt>
      <trkpt lat="49.26515" lon="1.10437">
        <ele>129.09056</ele>
        <time>2015-07-02T11:45:22Z</time>
      </trkpt>
      <trkpt lat="49.26515" lon="1.1044">
        <ele>129.09056</ele>
        <time>2015-07-02T11:45:27Z</time>
      </trkpt>
      <trkpt lat="49.26514" lon="1.10441">
        <ele>129.09056</ele>
        <time>2015-07-02T11:45:32Z</time>
      </trkpt>
      <trkpt lat="49.2651" lon="1.10445">
        <ele>129.09056</ele>
        <time>2015-07-02T11:45:37Z</time>
      </trkpt>
      <trkpt lat="49.26505" lon="1.10451">
        <ele>128.94705</ele>
        <time>2015-07-02T11:45:42Z</time>
      </trkpt>
      <trkpt lat="49.265" lon="1.10458">
        <ele>128.94705</ele>
        <time>2015-07-02T11:45:47Z</time>
      </trkpt>
      <trkpt lat="49.26496" lon="1.10465">
        <ele>128.9502</ele>
        <time>2015-07-02T11:45:52Z</time>
      </trkpt>
      <trkpt lat="49.26491" lon="1.10471">
        <ele>128.9502</ele>
        <time>2015-07-02T11:45:57Z</time>
      </trkpt>
      <trkpt lat="49.26486" lon="1.10478">
        <ele>129.00266</ele>
        <time>2015-07-02T11:46:02Z</time>
      </trkpt>
      <trkpt lat="49.2648" lon="1.10484">
        <ele>129.00266</ele>
        <time>2015-07-02T11:46:07Z</time>
      </trkpt>
      <trkpt lat="49.26475" lon="1.10492">
        <ele>129.14375</ele>
        <time>2015-07-02T11:46:12Z</time>
      </trkpt>
      <trkpt lat="49.26471" lon="1.10498">
        <ele>129.14375</ele>
        <time>2015-07-02T11:46:17Z</time>
      </trkpt>
      <trkpt lat="49.26467" lon="1.10504">
        <ele>129.30875</ele>
        <time>2015-07-02T11:46:22Z</time>
      </trkpt>
      <trkpt lat="49.26463" lon="1.1051">
        <ele>129.30875</ele>
        <time>2015-07-02T11:46:27Z</time>
      </trkpt>
      <trkpt lat="49.26459" lon="1.10518">
        <ele>129.53839</ele>
        <time>2015-07-02T11:46:32Z</time>
      </trkpt>
      <trkpt lat="49.26453" lon="1.10524">
        <ele>129.53839</ele>
        <time>2015-07-02T11:46:37Z</time>
      </trkpt>
      <trkpt lat="49.26448" lon="1.1053">
        <ele>129.8126</ele>
        <time>2015-07-02T11:46:42Z</time>
      </trkpt>
      <trkpt lat="49.26442" lon="1.10537">
        <ele>129.8126</ele>
        <time>2015-07-02T11:46:47Z</time>
      </trkpt>
      <trkpt lat="49.26439" lon="1.10544">
        <ele>130.14145</ele>
        <time>2015-07-02T11:46:52Z</time>
      </trkpt>
      <trkpt lat="49.26435" lon="1.1055">
        <ele>130.14145</ele>
        <time>2015-07-02T11:46:57Z</time>
      </trkpt>
      <trkpt lat="49.2643" lon="1.10558">
        <ele>130.54848</ele>
        <time>2015-07-02T11:47:02Z</time>
      </trkpt>
      <trkpt lat="49.26426" lon="1.10564">
        <ele>130.54848</ele>
        <time>2015-07-02T11:47:07Z</time>
      </trkpt>
      <trkpt lat="49.26421" lon="1.1057">
        <ele>130.93996</ele>
        <time>2015-07-02T11:47:12Z</time>
      </trkpt>
      <trkpt lat="49.26417" lon="1.10577">
        <ele>130.93996</ele>
        <time>2015-07-02T11:47:17Z</time>
      </trkpt>
      <trkpt lat="49.26414" lon="1.10584">
        <ele>131.32997</ele>
        <time>2015-07-02T11:47:22Z</time>
      </trkpt>
      <trkpt lat="49.26409" lon="1.1059">
        <ele>131.32997</ele>
        <time>2015-07-02T11:47:27Z</time>
      </trkpt>
      <trkpt lat="49.26404" lon="1.10598">
        <ele>131.68832</ele>
        <time>2015-07-02T11:47:32Z</time>
      </trkpt>
      <trkpt lat="49.264" lon="1.10603">
        <ele>131.68832</ele>
        <time>2015-07-02T11:47:37Z</time>
      </trkpt>
      <trkpt lat="49.26395" lon="1.10608">
        <ele>132.00153</ele>
        <time>2015-07-02T11:47:42Z</time>
      </trkpt>
      <trkpt lat="49.2639" lon="1.10614">
        <ele>132.00153</ele>
        <time>2015-07-02T11:47:47Z</time>
      </trkpt>
      <trkpt lat="49.26385" lon="1.10623">
        <ele>132.4878</ele>
        <time>2015-07-02T11:47:52Z</time>
      </trkpt>
      <trkpt lat="49.26381" lon="1.10629">
        <ele>132.4878</ele>
        <time>2015-07-02T11:47:57Z</time>
      </trkpt>
      <trkpt lat="49.26375" lon="1.10635">
        <ele>133.03177</ele>
        <time>2015-07-02T11:48:02Z</time>
      </trkpt>
      <trkpt lat="49.2637" lon="1.10642">
        <ele>133.03177</ele>
        <time>2015-07-02T11:48:07Z</time>
      </trkpt>
      <trkpt lat="49.26367" lon="1.10649">
        <ele>133.71379</ele>
        <time>2015-07-02T11:48:12Z</time>
      </trkpt>
      <trkpt lat="49.26361" lon="1.10655">
        <ele>133.71379</ele>
        <time>2015-07-02T11:48:17Z</time>
      </trkpt>
      <trkpt lat="49.26355" lon="1.10662">
        <ele>134.40616</ele>
        <time>2015-07-02T11:48:22Z</time>
      </trkpt>
      <trkpt lat="49.26349" lon="1.10666">
        <ele>134.40616</ele>
        <time>2015-07-02T11:48:27Z</time>
      </trkpt>
      <trkpt lat="49.26345" lon="1.10672">
        <ele>135.20667</ele>
        <time>2015-07-02T11:48:32Z</time>
      </trkpt>
      <trkpt lat="49.26342" lon="1.10679">
        <ele>135.20667</ele>
        <time>2015-07-02T11:48:37Z</time>
      </trkpt>
      <trkpt lat="49.26337" lon="1.10686">
        <ele>136.00397</ele>
        <time>2015-07-02T11:48:42Z</time>
      </trkpt>
      <trkpt lat="49.26333" lon="1.10693">
        <ele>136.00397</ele>
        <time>2015-07-02T11:48:47Z</time>
      </trkpt>
      <trkpt lat="49.26328" lon="1.10701">
        <ele>136.81015</ele>
        <time>2015-07-02T11:48:52Z</time>
      </trkpt>
      <trkpt lat="49.26323" lon="1.10707">
        <ele>136.81015</ele>
        <time>2015-07-02T11:48:57Z</time>
      </trkpt>
      <trkpt lat="49.26318" lon="1.10714">
        <ele>137.62206</ele>
        <time>2015-07-02T11:49:02Z</time>
      </trkpt>
      <trkpt lat="49.26315" lon="1.1072">
        <ele>137.62206</ele>
        <time>2015-07-02T11:49:07Z</time>
      </trkpt>
      <trkpt lat="49.26311" lon="1.10726">
        <ele>138.35033</ele>
        <time>2015-07-02T11:49:12Z</time>
      </trkpt>
      <trkpt lat="49.26307" lon="1.10733">
        <ele>138.35033</ele>
        <time>2015-07-02T11:49:17Z</time>
      </trkpt>
      <trkpt lat="49.26302" lon="1.1074">
        <ele>139.01328</ele>
        <time>2015-07-02T11:49:22Z</time>
      </trkpt>
      <trkpt lat="49.26298" lon="1.10746">
        <ele>139.01328</ele>
        <time>2015-07-02T11:49:27Z</time>
      </trkpt>
      <trkpt lat="49.26293" lon="1.10752">
        <ele>139.59933</ele>
        <time>2015-07-02T11:49:32Z</time>
      </trkpt>
      <trkpt lat="49.26289" lon="1.1076">
        <ele>139.59933</ele>
        <time>2015-07-02T11:49:37Z</time>
      </trkpt>
      <trkpt lat="49.26283" lon="1.10766">
        <ele>140.02597</ele>
        <time>2015-07-02T11:49:42Z</time>
      </trkpt>
      <trkpt lat="49.26278" lon="1.10773">
        <ele>140.02597</ele>
        <time>2015-07-02T11:49:47Z</time>
      </trkpt>
      <trkpt lat="49.26274" lon="1.10783">
        <ele>140.27484</ele>
        <time>2015-07-02T11:49:52Z</time>
      </trkpt>
      <trkpt lat="49.2627" lon="1.10789">
        <ele>140.27484</ele>
        <time>2015-07-02T11:49:57Z</time>
      </trkpt>
      <trkpt lat="49.26264" lon="1.10797">
        <ele>140.35835</ele>
        <time>2015-07-02T11:50:02Z</time>
      </trkpt>
      <trkpt lat="49.26259" lon="1.10803">
        <ele>140.35835</ele>
        <time>2015-07-02T11:50:07Z</time>
      </trkpt>
      <trkpt lat="49.26254" lon="1.10809">
        <ele>140.2885</ele>
        <time>2015-07-02T11:50:12Z</time>
      </trkpt>
      <trkpt lat="49.26249" lon="1.10815">
        <ele>140.2885</ele>
        <time>2015-07-02T11:50:17Z</time>
      </trkpt>
      <trkpt lat="49.26244" lon="1.10823">
        <ele>140.09126</ele>
        <time>2015-07-02T11:50:22Z</time>
      </trkpt>
      <trkpt lat="49.2624" lon="1.1083">
        <ele>140.09126</ele>
        <time>2015-07-02T11:50:27Z</time>
      </trkpt>
      <trkpt lat="49.26236" lon="1.10838">
        <ele>139.86322</ele>
        <time>2015-07-02T11:50:32Z</time>
      </trkpt>
      <trkpt lat="49.26232" lon="1.10845">
        <ele>139.86322</ele>
        <time>2015-07-02T11:50:37Z</time>
      </trkpt>
      <trkpt lat="49.26229" lon="1.10852">
        <ele>139.56422</ele>
        <time>2015-07-02T11:50:42Z</time>
      </trkpt>
      <trkpt lat="49.26224" lon="1.10858">
        <ele>139.56422</ele>
        <time>2015-07-02T11:50:47Z</time>
      </trkpt>
      <trkpt lat="49.26218" lon="1.10864">
        <ele>139.18614</ele>
        <time>2015-07-02T11:50:52Z</time>
      </trkpt>
      <trkpt lat="49.26214" lon="1.10871">
        <ele>139.18614</ele>
        <time>2015-07-02T11:50:57Z</time>
      </trkpt>
      <trkpt lat="49.26209" lon="1.10879">
        <ele>138.8082</ele>
        <time>2015-07-02T11:51:02Z</time>
      </trkpt>
      <trkpt lat="49.26205" lon="1.10884">
        <ele>138.8082</ele>
        <time>2015-07-02T11:51:07Z</time>
      </trkpt>
      <trkpt lat="49.26199" lon="1.10891">
        <ele>138.41727</ele>
        <time>2015-07-02T11:51:12Z</time>
      </trkpt>
      <trkpt lat="49.26192" lon="1.10893">
        <ele>138.41727</ele>
        <time>2015-07-02T11:51:17Z</time>
      </trkpt>
      <trkpt lat="49.2619" lon="1.10892">
        <ele>137.9725</ele>
        <time>2015-07-02T11:51:22Z</time>
      </trkpt>
      <trkpt lat="49.26189" lon="1.10891">
        <ele>137.9725</ele>
        <time>2015-07-02T11:51:27Z</time>
      </trkpt>
      <trkpt lat="49.26187" lon="1.10904">
        <ele>137.56586</ele>
        <time>2015-07-02T11:51:32Z</time>
      </trkpt>
      <trkpt lat="49.26187" lon="1.10914">
        <ele>137.56586</ele>
        <time>2015-07-02T11:51:37Z</time>
      </trkpt>
      <trkpt lat="49.26187" lon="1.10923">
        <ele>137.21039</ele>
        <time>2015-07-02T11:51:42Z</time>
      </trkpt>
      <trkpt lat="49.26187" lon="1.10932">
        <ele>137.21039</ele>
        <time>2015-07-02T11:51:47Z</time>
      </trkpt>
      <trkpt lat="49.26186" lon="1.1094">
        <ele>136.91806</ele>
        <time>2015-07-02T11:51:52Z</time>
      </trkpt>
      <trkpt lat="49.26182" lon="1.1095">
        <ele>136.91806</ele>
        <time>2015-07-02T11:51:57Z</time>
      </trkpt>
      <trkpt lat="49.26179" lon="1.10959">
        <ele>136.62773</ele>
        <time>2015-07-02T11:52:02Z</time>
      </trkpt>
      <trkpt lat="49.26176" lon="1.10964">
        <ele>136.62773</ele>
        <time>2015-07-02T11:52:07Z</time>
      </trkpt>
      <trkpt lat="49.26173" lon="1.10973">
        <ele>136.38356</ele>
        <time>2015-07-02T11:52:12Z</time>
      </trkpt>
      <trkpt lat="49.26169" lon="1.10981">
        <ele>136.38356</ele>
        <time>2015-07-02T11:52:17Z</time>
      </trkpt>
      <trkpt lat="49.26165" lon="1.1099">
        <ele>136.21199</ele>
        <time>2015-07-02T11:52:22Z</time>
      </trkpt>
      <trkpt lat="49.26162" lon="1.10998">
        <ele>136.21199</ele>
        <time>2015-07-02T11:52:27Z</time>
      </trkpt>
      <trkpt lat="49.26159" lon="1.11002">
        <ele>136.06519</ele>
        <time>2015-07-02T11:52:32Z</time>
      </trkpt>
      <trkpt lat="49.26155" lon="1.11011">
        <ele>136.06519</ele>
        <time>2015-07-02T11:52:37Z</time>
      </trkpt>
      <trkpt lat="49.26151" lon="1.11017">
        <ele>135.8267</ele>
        <time>2015-07-02T11:52:42Z</time>
      </trkpt>
      <trkpt lat="49.26148" lon="1.11027">
        <ele>135.8267</ele>
        <time>2015-07-02T11:52:47Z</time>
      </trkpt>
      <trkpt lat="49.26145" lon="1.11034">
        <ele>135.54745</ele>
        <time>2015-07-02T11:52:52Z</time>
      </trkpt>
      <trkpt lat="49.26141" lon="1.1104">
        <ele>135.54745</ele>
        <time>2015-07-02T11:52:57Z</time>
      </trkpt>
      <trkpt lat="49.26136" lon="1.1105">
        <ele>135.26025</ele>
        <time>2015-07-02T11:53:02Z</time>
      </trkpt>
      <trkpt lat="49.26132" lon="1.11059">
        <ele>135.26025</ele>
        <time>2015-07-02T11:53:07Z</time>
      </trkpt>
      <trkpt lat="49.26129" lon="1.11067">
        <ele>134.95227</ele>
        <time>2015-07-02T11:53:12Z</time>
      </trkpt>
      <trkpt lat="49.26125" lon="1.11076">
        <ele>134.95227</ele>
        <time>2015-07-02T11:53:17Z</time>
      </trkpt>
      <trkpt lat="49.26122" lon="1.11085">
        <ele>134.59727</ele>
        <time>2015-07-02T11:53:22Z</time>
      </trkpt>
      <trkpt lat="49.26119" lon="1.11094">
        <ele>134.59727</ele>
        <time>2015-07-02T11:53:27Z</time>
      </trkpt>
      <trkpt lat="49.26118" lon="1.11104">
        <ele>134.19989</ele>
        <time>2015-07-02T11:53:32Z</time>
      </trkpt>
      <trkpt lat="49.26116" lon="1.11112">
        <ele>134.19989</ele>
        <time>2015-07-02T11:53:37Z</time>
      </trkpt>
      <trkpt lat="49.2611" lon="1.1112">
        <ele>133.80771</ele>
        <time>2015-07-02T11:53:42Z</time>
      </trkpt>
      <trkpt lat="49.26106" lon="1.11128">
        <ele>133.80771</ele>
        <time>2015-07-02T11:53:47Z</time>
      </trkpt>
      <trkpt lat="49.26103" lon="1.11135">
        <ele>133.43599</ele>
        <time>2015-07-02T11:53:52Z</time>
      </trkpt>
      <trkpt lat="49.261" lon="1.11144">
        <ele>133.43599</ele>
        <time>2015-07-02T11:53:57Z</time>
      </trkpt>
      <trkpt lat="49.26098" lon="1.11154">
        <ele>132.99788</ele>
        <time>2015-07-02T11:54:02Z</time>
      </trkpt>
      <trkpt lat="49.26095" lon="1.11161">
        <ele>132.99788</ele>
        <time>2015-07-02T11:54:07Z</time>
      </trkpt>
      <trkpt lat="49.26093" lon="1.11172">
        <ele>132.52838</ele>
        <time>2015-07-02T11:54:12Z</time>
      </trkpt>
      <trkpt lat="49.2609" lon="1.11181">
        <ele>132.52838</ele>
        <time>2015-07-02T11:54:17Z</time>
      </trkpt>
      <trkpt lat="49.26087" lon="1.11191">
        <ele>132.07437</ele>
        <time>2015-07-02T11:54:22Z</time>
      </trkpt>
      <trkpt lat="49.26085" lon="1.112">
        <ele>132.07437</ele>
        <time>2015-07-02T11:54:27Z</time>
      </trkpt>
      <trkpt lat="49.26082" lon="1.11205">
        <ele>131.63599</ele>
        <time>2015-07-02T11:54:32Z</time>
      </trkpt>
      <trkpt lat="49.26078" lon="1.11211">
        <ele>131.63599</ele>
        <time>2015-07-02T11:54:37Z</time>
      </trkpt>
      <trkpt lat="49.26074" lon="1.11209">
        <ele>131.19887</ele>
        <time>2015-07-02T11:54:42Z</time>
      </trkpt>
      <trkpt lat="49.26072" lon="1.11207">
        <ele>131.19887</ele>
        <time>2015-07-02T11:54:47Z</time>
      </trkpt>
      <trkpt lat="49.26071" lon="1.11206">
        <ele>131.19887</ele>
        <time>2015-07-02T11:54:52Z</time>
      </trkpt>
      <trkpt lat="49.26069" lon="1.11205">
        <ele>131.19887</ele>
        <time>2015-07-02T11:54:57Z</time>
      </trkpt>
      <trkpt lat="49.2607" lon="1.11205">
        <ele>131.19887</ele>
        <time>2015-07-02T11:55:02Z</time>
      </trkpt>
      <trkpt lat="49.2607" lon="1.11203">
        <ele>131.19887</ele>
        <time>2015-07-02T11:55:07Z</time>
      </trkpt>
      <trkpt lat="49.2607" lon="1.11202">
        <ele>131.19887</ele>
        <time>2015-07-02T11:55:12Z</time>
      </trkpt>
      <trkpt lat="49.26071" lon="1.11201">
        <ele>130.46144</ele>
        <time>2015-07-02T11:55:17Z</time>
      </trkpt>
      <trkpt lat="49.26071" lon="1.11201">
        <ele>130.46144</ele>
        <time>2015-07-02T11:55:22Z</time>
      </trkpt>
      <trkpt lat="49.26073" lon="1.11201">
        <ele>130.46144</ele>
        <time>2015-07-02T11:55:27Z</time>
      </trkpt>
      <trkpt lat="49.26074" lon="1.11201">
        <ele>130.46144</ele>
        <time>2015-07-02T11:55:32Z</time>
      </trkpt>
      <trkpt lat="49.26073" lon="1.11201">
        <ele>130.46144</ele>
        <time>2015-07-02T11:55:37Z</time>
      </trkpt>
      <trkpt lat="49.26068" lon="1.11198">
        <ele>129.7936</ele>
        <time>2015-07-02T11:55:42Z</time>
      </trkpt>
      <trkpt lat="49.26061" lon="1.11196">
        <ele>129.7936</ele>
        <time>2015-07-02T11:55:47Z</time>
      </trkpt>
      <trkpt lat="49.26054" lon="1.11195">
        <ele>129.14871</ele>
        <time>2015-07-02T11:55:52Z</time>
      </trkpt>
      <trkpt lat="49.26045" lon="1.11195">
        <ele>128.51231</ele>
        <time>2015-07-02T11:55:57Z</time>
      </trkpt>
      <trkpt lat="49.26038" lon="1.11192">
        <ele>128.51231</ele>
        <time>2015-07-02T11:56:02Z</time>
      </trkpt>
      <trkpt lat="49.26031" lon="1.11191">
        <ele>127.84211</ele>
        <time>2015-07-02T11:56:07Z</time>
      </trkpt>
      <trkpt lat="49.26024" lon="1.1119">
        <ele>127.84211</ele>
        <time>2015-07-02T11:56:12Z</time>
      </trkpt>
      <trkpt lat="49.26021" lon="1.11181">
        <ele>127.21424</ele>
        <time>2015-07-02T11:56:17Z</time>
      </trkpt>
      <trkpt lat="49.26016" lon="1.11172">
        <ele>127.21424</ele>
        <time>2015-07-02T11:56:22Z</time>
      </trkpt>
      <trkpt lat="49.26013" lon="1.11161">
        <ele>126.64145</ele>
        <time>2015-07-02T11:56:27Z</time>
      </trkpt>
      <trkpt lat="49.26011" lon="1.11151">
        <ele>126.64145</ele>
        <time>2015-07-02T11:56:32Z</time>
      </trkpt>
      <trkpt lat="49.26009" lon="1.1114">
        <ele>126.09211</ele>
        <time>2015-07-02T11:56:37Z</time>
      </trkpt>
      <trkpt lat="49.26006" lon="1.11129">
        <ele>126.09211</ele>
        <time>2015-07-02T11:56:42Z</time>
      </trkpt>
      <trkpt lat="49.25998" lon="1.11119">
        <ele>125.58004</ele>
        <time>2015-07-02T11:56:47Z</time>
      </trkpt>
      <trkpt lat="49.25993" lon="1.11111">
        <ele>125.58004</ele>
        <time>2015-07-02T11:56:52Z</time>
      </trkpt>
      <trkpt lat="49.25985" lon="1.11109">
        <ele>125.18995</ele>
        <time>2015-07-02T11:56:57Z</time>
      </trkpt>
      <trkpt lat="49.25977" lon="1.11111">
        <ele>125.18995</ele>
        <time>2015-07-02T11:57:02Z</time>
      </trkpt>
      <trkpt lat="49.25968" lon="1.11116">
        <ele>124.8126</ele>
        <time>2015-07-02T11:57:07Z</time>
      </trkpt>
      <trkpt lat="49.25961" lon="1.11121">
        <ele>124.8126</ele>
        <time>2015-07-02T11:57:12Z</time>
      </trkpt>
      <trkpt lat="49.25953" lon="1.11125">
        <ele>124.2458</ele>
        <time>2015-07-02T11:57:17Z</time>
      </trkpt>
      <trkpt lat="49.25947" lon="1.11128">
        <ele>124.2458</ele>
        <time>2015-07-02T11:57:22Z</time>
      </trkpt>
      <trkpt lat="49.25939" lon="1.1113">
        <ele>123.63416</ele>
        <time>2015-07-02T11:57:27Z</time>
      </trkpt>
      <trkpt lat="49.25933" lon="1.11133">
        <ele>123.63416</ele>
        <time>2015-07-02T11:57:32Z</time>
      </trkpt>
      <trkpt lat="49.25928" lon="1.11135">
        <ele>123.24148</ele>
        <time>2015-07-02T11:57:37Z</time>
      </trkpt>
      <trkpt lat="49.25921" lon="1.11136">
        <ele>123.24148</ele>
        <time>2015-07-02T11:57:42Z</time>
      </trkpt>
      <trkpt lat="49.2592" lon="1.11134">
        <ele>122.98002</ele>
        <time>2015-07-02T11:57:47Z</time>
      </trkpt>
      <trkpt lat="49.25921" lon="1.11135">
        <ele>122.98002</ele>
        <time>2015-07-02T11:57:52Z</time>
      </trkpt>
      <trkpt lat="49.25922" lon="1.11137">
        <ele>122.98002</ele>
        <time>2015-07-02T11:57:57Z</time>
      </trkpt>
      <trkpt lat="49.25923" lon="1.11139">
        <ele>122.98002</ele>
        <time>2015-07-02T11:58:02Z</time>
      </trkpt>
      <trkpt lat="49.25923" lon="1.1114">
        <ele>122.98002</ele>
        <time>2015-07-02T11:58:07Z</time>
      </trkpt>
      <trkpt lat="49.25927" lon="1.1114">
        <ele>122.71049</ele>
        <time>2015-07-02T11:58:12Z</time>
      </trkpt>
      <trkpt lat="49.25927" lon="1.1114">
        <ele>122.71049</ele>
        <time>2015-07-02T11:58:17Z</time>
      </trkpt>
      <trkpt lat="49.25926" lon="1.11139">
        <ele>122.71049</ele>
        <time>2015-07-02T11:58:22Z</time>
      </trkpt>
      <trkpt lat="49.25928" lon="1.11138">
        <ele>122.71049</ele>
        <time>2015-07-02T11:58:27Z</time>
      </trkpt>
      <trkpt lat="49.25928" lon="1.11136">
        <ele>122.71049</ele>
        <time>2015-07-02T11:58:32Z</time>
      </trkpt>
      <trkpt lat="49.25927" lon="1.11134">
        <ele>122.71049</ele>
        <time>2015-07-02T11:58:37Z</time>
      </trkpt>
      <trkpt lat="49.25926" lon="1.11133">
        <ele>122.71049</ele>
        <time>2015-07-02T11:58:42Z</time>
      </trkpt>
      <trkpt lat="49.25925" lon="1.11133">
        <ele>122.71049</ele>
        <time>2015-07-02T11:58:47Z</time>
      </trkpt>
      <trkpt lat="49.25925" lon="1.11134">
        <ele>122.71049</ele>
        <time>2015-07-02T11:58:52Z</time>
      </trkpt>
      <trkpt lat="49.25926" lon="1.11134">
        <ele>122.71049</ele>
        <time>2015-07-02T11:58:57Z</time>
      </trkpt>
      <trkpt lat="49.25927" lon="1.11134">
        <ele>122.40463</ele>
        <time>2015-07-02T11:59:02Z</time>
      </trkpt>
      <trkpt lat="49.25928" lon="1.11134">
        <ele>122.40463</ele>
        <time>2015-07-02T11:59:07Z</time>
      </trkpt>
      <trkpt lat="49.25929" lon="1.11132">
        <ele>122.40463</ele>
        <time>2015-07-02T11:59:12Z</time>
      </trkpt>
      <trkpt lat="49.2593" lon="1.1113">
        <ele>122.40463</ele>
        <time>2015-07-02T11:59:17Z</time>
      </trkpt>
      <trkpt lat="49.25928" lon="1.11131">
        <ele>122.40463</ele>
        <time>2015-07-02T11:59:22Z</time>
      </trkpt>
      <trkpt lat="49.25928" lon="1.11132">
        <ele>122.40463</ele>
        <time>2015-07-02T11:59:27Z</time>
      </trkpt>
      <trkpt lat="49.25926" lon="1.11133">
        <ele>122.40463</ele>
        <time>2015-07-02T11:59:32Z</time>
      </trkpt>
      <trkpt lat="49.25924" lon="1.11135">
        <ele>122.36785</ele>
        <time>2015-07-02T11:59:37Z</time>
      </trkpt>
      <trkpt lat="49.25922" lon="1.11137">
        <ele>122.36785</ele>
        <time>2015-07-02T11:59:42Z</time>
      </trkpt>
      <trkpt lat="49.2592" lon="1.11138">
        <ele>122.36785</ele>
        <time>2015-07-02T11:59:47Z</time>
      </trkpt>
      <trkpt lat="49.2592" lon="1.11139">
        <ele>122.36785</ele>
        <time>2015-07-02T11:59:52Z</time>
      </trkpt>
      <trkpt lat="49.2592" lon="1.11139">
        <ele>122.36785</ele>
        <time>2015-07-02T11:59:57Z</time>
      </trkpt>
      <trkpt lat="49.2592" lon="1.11139">
        <ele>122.36785</ele>
        <time>2015-07-02T12:00:02Z</time>
      </trkpt>
      <trkpt lat="49.2592" lon="1.11138">
        <ele>122.36785</ele>
        <time>2015-07-02T12:07:42Z</time>
      </trkpt>
      <trkpt lat="49.2592" lon="1.11138">
        <ele>122.36785</ele>
        <time>2015-07-02T12:07:47Z</time>
      </trkpt>
      <trkpt lat="49.25923" lon="1.11135">
        <ele>122.06085</ele>
        <time>2015-07-02T12:08:32Z</time>
      </trkpt>
      <trkpt lat="49.25926" lon="1.11125">
        <ele>122.06085</ele>
        <time>2015-07-02T12:08:37Z</time>
      </trkpt>
      <trkpt lat="49.25926" lon="1.11115">
        <ele>122.065544</ele>
        <time>2015-07-02T12:08:42Z</time>
      </trkpt>
      <trkpt lat="49.25924" lon="1.1111">
        <ele>122.065544</ele>
        <time>2015-07-02T12:08:47Z</time>
      </trkpt>
      <trkpt lat="49.2592" lon="1.11106">
        <ele>122.065544</ele>
        <time>2015-07-02T12:08:52Z</time>
      </trkpt>
      <trkpt lat="49.25914" lon="1.11107">
        <ele>122.50225</ele>
        <time>2015-07-02T12:08:57Z</time>
      </trkpt>
      <trkpt lat="49.25909" lon="1.11105">
        <ele>122.50225</ele>
        <time>2015-07-02T12:09:02Z</time>
      </trkpt>
      <trkpt lat="49.25903" lon="1.11105">
        <ele>123.12096</ele>
        <time>2015-07-02T12:09:07Z</time>
      </trkpt>
      <trkpt lat="49.25903" lon="1.1111">
        <ele>123.12096</ele>
        <time>2015-07-02T12:09:12Z</time>
      </trkpt>
      <trkpt lat="49.25903" lon="1.11113">
        <ele>123.12096</ele>
        <time>2015-07-02T12:09:17Z</time>
      </trkpt>
      <trkpt lat="49.25899" lon="1.1111">
        <ele>123.862434</ele>
        <time>2015-07-02T12:09:22Z</time>
      </trkpt>
      <trkpt lat="49.25889" lon="1.11108">
        <ele>124.58498</ele>
        <time>2015-07-02T12:09:27Z</time>
      </trkpt>
      <trkpt lat="49.25883" lon="1.11109">
        <ele>124.58498</ele>
        <time>2015-07-02T12:09:32Z</time>
      </trkpt>
      <trkpt lat="49.25876" lon="1.11113">
        <ele>125.0853</ele>
        <time>2015-07-02T12:09:37Z</time>
      </trkpt>
      <trkpt lat="49.25869" lon="1.11118">
        <ele>125.0853</ele>
        <time>2015-07-02T12:09:42Z</time>
      </trkpt>
      <trkpt lat="49.25864" lon="1.11121">
        <ele>125.305374</ele>
        <time>2015-07-02T12:09:47Z</time>
      </trkpt>
      <trkpt lat="49.25858" lon="1.11126">
        <ele>125.305374</ele>
        <time>2015-07-02T12:09:52Z</time>
      </trkpt>
      <trkpt lat="49.25852" lon="1.1113">
        <ele>125.32195</ele>
        <time>2015-07-02T12:09:57Z</time>
      </trkpt>
      <trkpt lat="49.25846" lon="1.11137">
        <ele>125.32195</ele>
        <time>2015-07-02T12:10:02Z</time>
      </trkpt>
      <trkpt lat="49.25841" lon="1.11144">
        <ele>125.26438</ele>
        <time>2015-07-02T12:10:07Z</time>
      </trkpt>
      <trkpt lat="49.25836" lon="1.11146">
        <ele>125.26438</ele>
        <time>2015-07-02T12:10:12Z</time>
      </trkpt>
      <trkpt lat="49.25829" lon="1.11149">
        <ele>125.22391</ele>
        <time>2015-07-02T12:10:17Z</time>
      </trkpt>
      <trkpt lat="49.25822" lon="1.11153">
        <ele>125.22391</ele>
        <time>2015-07-02T12:10:22Z</time>
      </trkpt>
      <trkpt lat="49.25816" lon="1.11159">
        <ele>125.24182</ele>
        <time>2015-07-02T12:10:27Z</time>
      </trkpt>
      <trkpt lat="49.25808" lon="1.11165">
        <ele>125.24182</ele>
        <time>2015-07-02T12:10:32Z</time>
      </trkpt>
      <trkpt lat="49.25802" lon="1.1117">
        <ele>125.22655</ele>
        <time>2015-07-02T12:10:37Z</time>
      </trkpt>
      <trkpt lat="49.25798" lon="1.11174">
        <ele>125.22655</ele>
        <time>2015-07-02T12:10:42Z</time>
      </trkpt>
      <trkpt lat="49.25792" lon="1.11179">
        <ele>125.13657</ele>
        <time>2015-07-02T12:10:47Z</time>
      </trkpt>
      <trkpt lat="49.25788" lon="1.11184">
        <ele>125.13657</ele>
        <time>2015-07-02T12:10:52Z</time>
      </trkpt>
      <trkpt lat="49.25783" lon="1.11191">
        <ele>124.99133</ele>
        <time>2015-07-02T12:10:57Z</time>
      </trkpt>
      <trkpt lat="49.25778" lon="1.11198">
        <ele>124.99133</ele>
        <time>2015-07-02T12:11:02Z</time>
      </trkpt>
      <trkpt lat="49.25774" lon="1.11209">
        <ele>124.86664</ele>
        <time>2015-07-02T12:11:07Z</time>
      </trkpt>
      <trkpt lat="49.25771" lon="1.11217">
        <ele>124.86664</ele>
        <time>2015-07-02T12:11:12Z</time>
      </trkpt>
      <trkpt lat="49.25768" lon="1.11227">
        <ele>124.70301</ele>
        <time>2015-07-02T12:11:17Z</time>
      </trkpt>
      <trkpt lat="49.25764" lon="1.11234">
        <ele>124.70301</ele>
        <time>2015-07-02T12:11:22Z</time>
      </trkpt>
      <trkpt lat="49.25762" lon="1.11243">
        <ele>124.56076</ele>
        <time>2015-07-02T12:11:27Z</time>
      </trkpt>
      <trkpt lat="49.25759" lon="1.11253">
        <ele>124.56076</ele>
        <time>2015-07-02T12:11:32Z</time>
      </trkpt>
      <trkpt lat="49.25756" lon="1.11263">
        <ele>124.42366</ele>
        <time>2015-07-02T12:11:37Z</time>
      </trkpt>
      <trkpt lat="49.25753" lon="1.11271">
        <ele>124.42366</ele>
        <time>2015-07-02T12:11:42Z</time>
      </trkpt>
      <trkpt lat="49.2575" lon="1.11282">
        <ele>124.30553</ele>
        <time>2015-07-02T12:11:47Z</time>
      </trkpt>
      <trkpt lat="49.25745" lon="1.11289">
        <ele>124.30553</ele>
        <time>2015-07-02T12:11:52Z</time>
      </trkpt>
      <trkpt lat="49.25742" lon="1.11297">
        <ele>124.132645</ele>
        <time>2015-07-02T12:11:57Z</time>
      </trkpt>
      <trkpt lat="49.25741" lon="1.11309">
        <ele>124.132645</ele>
        <time>2015-07-02T12:12:02Z</time>
      </trkpt>
      <trkpt lat="49.25739" lon="1.11317">
        <ele>123.793655</ele>
        <time>2015-07-02T12:12:07Z</time>
      </trkpt>
      <trkpt lat="49.25734" lon="1.11326">
        <ele>123.793655</ele>
        <time>2015-07-02T12:12:12Z</time>
      </trkpt>
      <trkpt lat="49.25732" lon="1.11336">
        <ele>123.3588</ele>
        <time>2015-07-02T12:12:17Z</time>
      </trkpt>
      <trkpt lat="49.25727" lon="1.11346">
        <ele>123.3588</ele>
        <time>2015-07-02T12:12:22Z</time>
      </trkpt>
      <trkpt lat="49.25725" lon="1.11356">
        <ele>122.90785</ele>
        <time>2015-07-02T12:12:27Z</time>
      </trkpt>
      <trkpt lat="49.25724" lon="1.11366">
        <ele>122.90785</ele>
        <time>2015-07-02T12:12:32Z</time>
      </trkpt>
      <trkpt lat="49.25722" lon="1.11376">
        <ele>122.42832</ele>
        <time>2015-07-02T12:12:37Z</time>
      </trkpt>
      <trkpt lat="49.25719" lon="1.11384">
        <ele>122.42832</ele>
        <time>2015-07-02T12:12:42Z</time>
      </trkpt>
      <trkpt lat="49.25714" lon="1.11391">
        <ele>121.95194</ele>
        <time>2015-07-02T12:12:47Z</time>
      </trkpt>
      <trkpt lat="49.2571" lon="1.11396">
        <ele>121.95194</ele>
        <time>2015-07-02T12:12:52Z</time>
      </trkpt>
      <trkpt lat="49.25705" lon="1.11404">
        <ele>121.56578</ele>
        <time>2015-07-02T12:12:57Z</time>
      </trkpt>
      <trkpt lat="49.25702" lon="1.11411">
        <ele>121.56578</ele>
        <time>2015-07-02T12:13:02Z</time>
      </trkpt>
      <trkpt lat="49.25698" lon="1.11419">
        <ele>121.20613</ele>
        <time>2015-07-02T12:13:07Z</time>
      </trkpt>
      <trkpt lat="49.25694" lon="1.11424">
        <ele>121.20613</ele>
        <time>2015-07-02T12:13:12Z</time>
      </trkpt>
      <trkpt lat="49.25687" lon="1.11433">
        <ele>120.79949</ele>
        <time>2015-07-02T12:13:17Z</time>
      </trkpt>
      <trkpt lat="49.25681" lon="1.11441">
        <ele>120.79949</ele>
        <time>2015-07-02T12:13:22Z</time>
      </trkpt>
      <trkpt lat="49.25676" lon="1.11449">
        <ele>120.29229</ele>
        <time>2015-07-02T12:13:27Z</time>
      </trkpt>
      <trkpt lat="49.25673" lon="1.11456">
        <ele>120.29229</ele>
        <time>2015-07-02T12:13:32Z</time>
      </trkpt>
      <trkpt lat="49.25672" lon="1.11461">
        <ele>120.29229</ele>
        <time>2015-07-02T12:13:37Z</time>
      </trkpt>
      <trkpt lat="49.25673" lon="1.11461">
        <ele>119.57754</ele>
        <time>2015-07-02T12:13:42Z</time>
      </trkpt>
      <trkpt lat="49.25675" lon="1.11461">
        <ele>119.57754</ele>
        <time>2015-07-02T12:13:47Z</time>
      </trkpt>
      <trkpt lat="49.25676" lon="1.1146">
        <ele>119.57754</ele>
        <time>2015-07-02T12:13:52Z</time>
      </trkpt>
      <trkpt lat="49.25676" lon="1.1146">
        <ele>119.57754</ele>
        <time>2015-07-02T12:13:57Z</time>
      </trkpt>
      <trkpt lat="49.25676" lon="1.1146">
        <ele>119.57754</ele>
        <time>2015-07-02T12:14:02Z</time>
      </trkpt>
      <trkpt lat="49.25675" lon="1.11457">
        <ele>119.57754</ele>
        <time>2015-07-02T12:14:47Z</time>
      </trkpt>
      <trkpt lat="49.25675" lon="1.11457">
        <ele>119.57754</ele>
        <time>2015-07-02T12:14:52Z</time>
      </trkpt>
      <trkpt lat="49.25676" lon="1.11456">
        <ele>119.57754</ele>
        <time>2015-07-02T12:15:12Z</time>
      </trkpt>
      <trkpt lat="49.25676" lon="1.11456">
        <ele>119.57754</ele>
        <time>2015-07-02T12:15:17Z</time>
      </trkpt>
      <trkpt lat="49.25676" lon="1.11456">
        <ele>119.57754</ele>
        <time>2015-07-02T12:15:37Z</time>
      </trkpt>
      <trkpt lat="49.25676" lon="1.11456">
        <ele>119.57754</ele>
        <time>2015-07-02T12:15:42Z</time>
      </trkpt>
      <trkpt lat="49.25675" lon="1.11456">
        <ele>119.57754</ele>
        <time>2015-07-02T12:16:02Z</time>
      </trkpt>
      <trkpt lat="49.25675" lon="1.11457">
        <ele>119.57754</ele>
        <time>2015-07-02T12:16:07Z</time>
      </trkpt>
      <trkpt lat="49.25675" lon="1.11457">
        <ele>119.57754</ele>
        <time>2015-07-02T12:16:12Z</time>
      </trkpt>
      <trkpt lat="49.25674" lon="1.11457">
        <ele>117.60554</ele>
        <time>2015-07-02T12:16:17Z</time>
      </trkpt>
      <trkpt lat="49.25674" lon="1.11457">
        <ele>117.60554</ele>
        <time>2015-07-02T12:16:22Z</time>
      </trkpt>
      <trkpt lat="49.25672" lon="1.11457">
        <ele>117.60554</ele>
        <time>2015-07-02T12:16:27Z</time>
      </trkpt>
      <trkpt lat="49.25665" lon="1.11463">
        <ele>115.78506</ele>
        <time>2015-07-02T12:16:32Z</time>
      </trkpt>
      <trkpt lat="49.25661" lon="1.1147">
        <ele>115.78506</ele>
        <time>2015-07-02T12:16:37Z</time>
      </trkpt>
      <trkpt lat="49.25656" lon="1.11478">
        <ele>114.26803</ele>
        <time>2015-07-02T12:16:42Z</time>
      </trkpt>
      <trkpt lat="49.25653" lon="1.11484">
        <ele>114.26803</ele>
        <time>2015-07-02T12:16:47Z</time>
      </trkpt>
      <trkpt lat="49.25649" lon="1.11487">
        <ele>113.17993</ele>
        <time>2015-07-02T12:16:52Z</time>
      </trkpt>
      <trkpt lat="49.25645" lon="1.11492">
        <ele>113.17993</ele>
        <time>2015-07-02T12:16:57Z</time>
      </trkpt>
      <trkpt lat="49.25641" lon="1.11498">
        <ele>112.43403</ele>
        <time>2015-07-02T12:17:02Z</time>
      </trkpt>
      <trkpt lat="49.25639" lon="1.11498">
        <ele>112.43403</ele>
        <time>2015-07-02T12:17:07Z</time>
      </trkpt>
      <trkpt lat="49.25639" lon="1.11498">
        <ele>112.43403</ele>
        <time>2015-07-02T12:17:12Z</time>
      </trkpt>
      <trkpt lat="49.25638" lon="1.11501">
        <ele>112.43403</ele>
        <time>2015-07-02T12:17:17Z</time>
      </trkpt>
      <trkpt lat="49.25638" lon="1.11501">
        <ele>112.43403</ele>
        <time>2015-07-02T12:17:22Z</time>
      </trkpt>
      <trkpt lat="49.25637" lon="1.11504">
        <ele>112.43403</ele>
        <time>2015-07-02T12:17:32Z</time>
      </trkpt>
      <trkpt lat="49.25637" lon="1.11511">
        <ele>111.516624</ele>
        <time>2015-07-02T12:17:37Z</time>
      </trkpt>
      <trkpt lat="49.25633" lon="1.11515">
        <ele>111.516624</ele>
        <time>2015-07-02T12:17:42Z</time>
      </trkpt>
      <trkpt lat="49.25629" lon="1.11522">
        <ele>110.730385</ele>
        <time>2015-07-02T12:17:47Z</time>
      </trkpt>
      <trkpt lat="49.25624" lon="1.11528">
        <ele>110.730385</ele>
        <time>2015-07-02T12:17:52Z</time>
      </trkpt>
      <trkpt lat="49.2562" lon="1.11534">
        <ele>110.196785</ele>
        <time>2015-07-02T12:17:57Z</time>
      </trkpt>
      <trkpt lat="49.25615" lon="1.11543">
        <ele>110.196785</ele>
        <time>2015-07-02T12:18:02Z</time>
      </trkpt>
      <trkpt lat="49.25611" lon="1.11551">
        <ele>109.89796</ele>
        <time>2015-07-02T12:18:07Z</time>
      </trkpt>
      <trkpt lat="49.25609" lon="1.11561">
        <ele>109.89796</ele>
        <time>2015-07-02T12:18:12Z</time>
      </trkpt>
      <trkpt lat="49.25605" lon="1.11566">
        <ele>109.83102</ele>
        <time>2015-07-02T12:18:17Z</time>
      </trkpt>
      <trkpt lat="49.256" lon="1.11572">
        <ele>109.83102</ele>
        <time>2015-07-02T12:18:22Z</time>
      </trkpt>
      <trkpt lat="49.25596" lon="1.11577">
        <ele>109.862915</ele>
        <time>2015-07-02T12:18:27Z</time>
      </trkpt>
      <trkpt lat="49.25591" lon="1.11582">
        <ele>109.862915</ele>
        <time>2015-07-02T12:18:32Z</time>
      </trkpt>
      <trkpt lat="49.25589" lon="1.11589">
        <ele>109.84123</ele>
        <time>2015-07-02T12:18:37Z</time>
      </trkpt>
      <trkpt lat="49.25586" lon="1.11599">
        <ele>109.84123</ele>
        <time>2015-07-02T12:18:42Z</time>
      </trkpt>
      <trkpt lat="49.25581" lon="1.1161">
        <ele>109.75456</ele>
        <time>2015-07-02T12:18:47Z</time>
      </trkpt>
      <trkpt lat="49.25577" lon="1.11621">
        <ele>109.75456</ele>
        <time>2015-07-02T12:18:52Z</time>
      </trkpt>
      <trkpt lat="49.25573" lon="1.1163">
        <ele>109.621315</ele>
        <time>2015-07-02T12:18:57Z</time>
      </trkpt>
      <trkpt lat="49.25569" lon="1.11639">
        <ele>109.621315</ele>
        <time>2015-07-02T12:19:02Z</time>
      </trkpt>
      <trkpt lat="49.25569" lon="1.11648">
        <ele>109.42983</ele>
        <time>2015-07-02T12:19:07Z</time>
      </trkpt>
      <trkpt lat="49.25567" lon="1.11655">
        <ele>109.42983</ele>
        <time>2015-07-02T12:19:12Z</time>
      </trkpt>
      <trkpt lat="49.25566" lon="1.11662">
        <ele>109.2271</ele>
        <time>2015-07-02T12:19:17Z</time>
      </trkpt>
      <trkpt lat="49.25564" lon="1.11671">
        <ele>109.2271</ele>
        <time>2015-07-02T12:19:22Z</time>
      </trkpt>
      <trkpt lat="49.25564" lon="1.1168">
        <ele>109.12871</ele>
        <time>2015-07-02T12:19:27Z</time>
      </trkpt>
      <trkpt lat="49.25559" lon="1.11692">
        <ele>109.140594</ele>
        <time>2015-07-02T12:19:32Z</time>
      </trkpt>
      <trkpt lat="49.25558" lon="1.11699">
        <ele>109.140594</ele>
        <time>2015-07-02T12:19:37Z</time>
      </trkpt>
      <trkpt lat="49.25558" lon="1.1171">
        <ele>109.181465</ele>
        <time>2015-07-02T12:19:42Z</time>
      </trkpt>
      <trkpt lat="49.25558" lon="1.11723">
        <ele>109.181465</ele>
        <time>2015-07-02T12:19:47Z</time>
      </trkpt>
      <trkpt lat="49.25559" lon="1.11739">
        <ele>109.23357</ele>
        <time>2015-07-02T12:19:52Z</time>
      </trkpt>
      <trkpt lat="49.2556" lon="1.11751">
        <ele>109.23357</ele>
        <time>2015-07-02T12:19:57Z</time>
      </trkpt>
      <trkpt lat="49.25559" lon="1.11761">
        <ele>109.35244</ele>
        <time>2015-07-02T12:20:02Z</time>
      </trkpt>
      <trkpt lat="49.25559" lon="1.11776">
        <ele>109.459694</ele>
        <time>2015-07-02T12:20:07Z</time>
      </trkpt>
      <trkpt lat="49.25558" lon="1.11784">
        <ele>109.459694</ele>
        <time>2015-07-02T12:20:12Z</time>
      </trkpt>
      <trkpt lat="49.25557" lon="1.11793">
        <ele>109.525955</ele>
        <time>2015-07-02T12:20:17Z</time>
      </trkpt>
      <trkpt lat="49.25555" lon="1.11804">
        <ele>109.525955</ele>
        <time>2015-07-02T12:20:22Z</time>
      </trkpt>
      <trkpt lat="49.2555" lon="1.11813">
        <ele>109.49531</ele>
        <time>2015-07-02T12:20:27Z</time>
      </trkpt>
      <trkpt lat="49.25548" lon="1.11821">
        <ele>109.49531</ele>
        <time>2015-07-02T12:20:32Z</time>
      </trkpt>
      <trkpt lat="49.25546" lon="1.11827">
        <ele>109.51799</ele>
        <time>2015-07-02T12:20:37Z</time>
      </trkpt>
      <trkpt lat="49.25544" lon="1.11836">
        <ele>109.51799</ele>
        <time>2015-07-02T12:20:42Z</time>
      </trkpt>
      <trkpt lat="49.25542" lon="1.11844">
        <ele>109.67542</ele>
        <time>2015-07-02T12:20:47Z</time>
      </trkpt>
      <trkpt lat="49.25539" lon="1.1185">
        <ele>109.67542</ele>
        <time>2015-07-02T12:20:52Z</time>
      </trkpt>
      <trkpt lat="49.25536" lon="1.11859">
        <ele>109.98504</ele>
        <time>2015-07-02T12:20:57Z</time>
      </trkpt>
      <trkpt lat="49.25533" lon="1.11868">
        <ele>109.98504</ele>
        <time>2015-07-02T12:21:02Z</time>
      </trkpt>
      <trkpt lat="49.2553" lon="1.11877">
        <ele>110.36171</ele>
        <time>2015-07-02T12:21:07Z</time>
      </trkpt>
      <trkpt lat="49.25526" lon="1.11886">
        <ele>110.36171</ele>
        <time>2015-07-02T12:21:12Z</time>
      </trkpt>
      <trkpt lat="49.25523" lon="1.11895">
        <ele>110.53905</ele>
        <time>2015-07-02T12:21:17Z</time>
      </trkpt>
      <trkpt lat="49.2552" lon="1.11901">
        <ele>110.53905</ele>
        <time>2015-07-02T12:21:22Z</time>
      </trkpt>
      <trkpt lat="49.25516" lon="1.11908">
        <ele>110.717575</ele>
        <time>2015-07-02T12:21:27Z</time>
      </trkpt>
      <trkpt lat="49.25511" lon="1.11915">
        <ele>110.717575</ele>
        <time>2015-07-02T12:21:32Z</time>
      </trkpt>
      <trkpt lat="49.25506" lon="1.11921">
        <ele>110.89576</ele>
        <time>2015-07-02T12:21:37Z</time>
      </trkpt>
      <trkpt lat="49.25501" lon="1.11927">
        <ele>110.89576</ele>
        <time>2015-07-02T12:21:42Z</time>
      </trkpt>
      <trkpt lat="49.25495" lon="1.11933">
        <ele>111.043396</ele>
        <time>2015-07-02T12:21:47Z</time>
      </trkpt>
      <trkpt lat="49.25489" lon="1.11937">
        <ele>111.043396</ele>
        <time>2015-07-02T12:21:52Z</time>
      </trkpt>
      <trkpt lat="49.25482" lon="1.11937">
        <ele>111.219086</ele>
        <time>2015-07-02T12:21:57Z</time>
      </trkpt>
      <trkpt lat="49.25477" lon="1.1194">
        <ele>111.219086</ele>
        <time>2015-07-02T12:22:02Z</time>
      </trkpt>
      <trkpt lat="49.2547" lon="1.11941">
        <ele>111.3762</ele>
        <time>2015-07-02T12:22:07Z</time>
      </trkpt>
      <trkpt lat="49.25463" lon="1.1194">
        <ele>111.3762</ele>
        <time>2015-07-02T12:22:12Z</time>
      </trkpt>
      <trkpt lat="49.25457" lon="1.11942">
        <ele>111.50046</ele>
        <time>2015-07-02T12:22:17Z</time>
      </trkpt>
      <trkpt lat="49.25451" lon="1.11944">
        <ele>111.50046</ele>
        <time>2015-07-02T12:22:22Z</time>
      </trkpt>
      <trkpt lat="49.25443" lon="1.11944">
        <ele>111.60756</ele>
        <time>2015-07-02T12:22:27Z</time>
      </trkpt>
      <trkpt lat="49.25436" lon="1.11944">
        <ele>111.60756</ele>
        <time>2015-07-02T12:22:32Z</time>
      </trkpt>
      <trkpt lat="49.2543" lon="1.11945">
        <ele>111.784225</ele>
        <time>2015-07-02T12:22:37Z</time>
      </trkpt>
      <trkpt lat="49.25423" lon="1.11944">
        <ele>111.784225</ele>
        <time>2015-07-02T12:22:42Z</time>
      </trkpt>
      <trkpt lat="49.25417" lon="1.11945">
        <ele>111.86563</ele>
        <time>2015-07-02T12:22:47Z</time>
      </trkpt>
      <trkpt lat="49.25411" lon="1.11947">
        <ele>111.86563</ele>
        <time>2015-07-02T12:22:52Z</time>
      </trkpt>
      <trkpt lat="49.25404" lon="1.11947">
        <ele>111.944374</ele>
        <time>2015-07-02T12:22:57Z</time>
      </trkpt>
      <trkpt lat="49.25398" lon="1.11948">
        <ele>111.944374</ele>
        <time>2015-07-02T12:23:02Z</time>
      </trkpt>
      <trkpt lat="49.25391" lon="1.11947">
        <ele>111.96217</ele>
        <time>2015-07-02T12:23:07Z</time>
      </trkpt>
      <trkpt lat="49.25386" lon="1.11947">
        <ele>111.96217</ele>
        <time>2015-07-02T12:23:12Z</time>
      </trkpt>
      <trkpt lat="49.25381" lon="1.11947">
        <ele>111.822014</ele>
        <time>2015-07-02T12:23:17Z</time>
      </trkpt>
      <trkpt lat="49.25376" lon="1.11948">
        <ele>111.822014</ele>
        <time>2015-07-02T12:23:22Z</time>
      </trkpt>
      <trkpt lat="49.25369" lon="1.11949">
        <ele>111.56418</ele>
        <time>2015-07-02T12:23:27Z</time>
      </trkpt>
      <trkpt lat="49.25361" lon="1.11948">
        <ele>111.56418</ele>
        <time>2015-07-02T12:23:32Z</time>
      </trkpt>
      <trkpt lat="49.25354" lon="1.11948">
        <ele>111.2696</ele>
        <time>2015-07-02T12:23:37Z</time>
      </trkpt>
      <trkpt lat="49.25347" lon="1.11951">
        <ele>111.2696</ele>
        <time>2015-07-02T12:23:42Z</time>
      </trkpt>
      <trkpt lat="49.25341" lon="1.11952">
        <ele>111.01338</ele>
        <time>2015-07-02T12:23:47Z</time>
      </trkpt>
      <trkpt lat="49.25335" lon="1.1195">
        <ele>111.01338</ele>
        <time>2015-07-02T12:23:52Z</time>
      </trkpt>
      <trkpt lat="49.25329" lon="1.11952">
        <ele>110.63448</ele>
        <time>2015-07-02T12:23:57Z</time>
      </trkpt>
      <trkpt lat="49.25323" lon="1.11954">
        <ele>110.63448</ele>
        <time>2015-07-02T12:24:02Z</time>
      </trkpt>
      <trkpt lat="49.25316" lon="1.11956">
        <ele>110.31548</ele>
        <time>2015-07-02T12:24:07Z</time>
      </trkpt>
      <trkpt lat="49.25311" lon="1.11958">
        <ele>110.31548</ele>
        <time>2015-07-02T12:24:12Z</time>
      </trkpt>
      <trkpt lat="49.25304" lon="1.11962">
        <ele>109.95162</ele>
        <time>2015-07-02T12:24:17Z</time>
      </trkpt>
      <trkpt lat="49.25298" lon="1.11966">
        <ele>109.95162</ele>
        <time>2015-07-02T12:24:22Z</time>
      </trkpt>
      <trkpt lat="49.25292" lon="1.11971">
        <ele>109.518005</ele>
        <time>2015-07-02T12:24:27Z</time>
      </trkpt>
      <trkpt lat="49.25289" lon="1.11973">
        <ele>109.518005</ele>
        <time>2015-07-02T12:24:32Z</time>
      </trkpt>
      <trkpt lat="49.25289" lon="1.11974">
        <ele>109.518005</ele>
        <time>2015-07-02T12:24:37Z</time>
      </trkpt>
      <trkpt lat="49.25288" lon="1.11974">
        <ele>109.518005</ele>
        <time>2015-07-02T12:24:42Z</time>
      </trkpt>
      <trkpt lat="49.25289" lon="1.11975">
        <ele>109.518005</ele>
        <time>2015-07-02T12:24:47Z</time>
      </trkpt>
      <trkpt lat="49.2529" lon="1.11976">
        <ele>109.518005</ele>
        <time>2015-07-02T12:24:52Z</time>
      </trkpt>
      <trkpt lat="49.2529" lon="1.11976">
        <ele>109.518005</ele>
        <time>2015-07-02T12:24:57Z</time>
      </trkpt>
      <trkpt lat="49.25287" lon="1.11979">
        <ele>108.61713</ele>
        <time>2015-07-02T12:25:37Z</time>
      </trkpt>
      <trkpt lat="49.2528" lon="1.11986">
        <ele>108.61713</ele>
        <time>2015-07-02T12:25:42Z</time>
      </trkpt>
      <trkpt lat="49.25274" lon="1.11992">
        <ele>107.7178</ele>
        <time>2015-07-02T12:25:47Z</time>
      </trkpt>
      <trkpt lat="49.25268" lon="1.11997">
        <ele>107.7178</ele>
        <time>2015-07-02T12:25:52Z</time>
      </trkpt>
      <trkpt lat="49.25263" lon="1.12">
        <ele>106.86533</ele>
        <time>2015-07-02T12:25:57Z</time>
      </trkpt>
      <trkpt lat="49.25258" lon="1.12004">
        <ele>106.86533</ele>
        <time>2015-07-02T12:26:02Z</time>
      </trkpt>
      <trkpt lat="49.25253" lon="1.12011">
        <ele>106.043915</ele>
        <time>2015-07-02T12:26:07Z</time>
      </trkpt>
      <trkpt lat="49.25248" lon="1.1202">
        <ele>106.043915</ele>
        <time>2015-07-02T12:26:12Z</time>
      </trkpt>
      <trkpt lat="49.25243" lon="1.12025">
        <ele>105.13792</ele>
        <time>2015-07-02T12:26:17Z</time>
      </trkpt>
      <trkpt lat="49.25238" lon="1.1203">
        <ele>105.13792</ele>
        <time>2015-07-02T12:26:22Z</time>
      </trkpt>
      <trkpt lat="49.25234" lon="1.12035">
        <ele>104.15573</ele>
        <time>2015-07-02T12:26:27Z</time>
      </trkpt>
      <trkpt lat="49.25229" lon="1.1204">
        <ele>104.15573</ele>
        <time>2015-07-02T12:26:32Z</time>
      </trkpt>
      <trkpt lat="49.25223" lon="1.12045">
        <ele>103.10531</ele>
        <time>2015-07-02T12:26:37Z</time>
      </trkpt>
      <trkpt lat="49.25215" lon="1.1205">
        <ele>103.10531</ele>
        <time>2015-07-02T12:26:42Z</time>
      </trkpt>
      <trkpt lat="49.25212" lon="1.12057">
        <ele>102.05184</ele>
        <time>2015-07-02T12:26:47Z</time>
      </trkpt>
      <trkpt lat="49.25206" lon="1.12062">
        <ele>102.05184</ele>
        <time>2015-07-02T12:26:52Z</time>
      </trkpt>
      <trkpt lat="49.252" lon="1.12067">
        <ele>100.88277</ele>
        <time>2015-07-02T12:26:57Z</time>
      </trkpt>
      <trkpt lat="49.25192" lon="1.12073">
        <ele>100.88277</ele>
        <time>2015-07-02T12:27:02Z</time>
      </trkpt>
      <trkpt lat="49.25188" lon="1.12078">
        <ele>99.65261</ele>
        <time>2015-07-02T12:27:07Z</time>
      </trkpt>
      <trkpt lat="49.25184" lon="1.12083">
        <ele>99.65261</ele>
        <time>2015-07-02T12:27:12Z</time>
      </trkpt>
      <trkpt lat="49.25178" lon="1.12087">
        <ele>98.33995</ele>
        <time>2015-07-02T12:27:17Z</time>
      </trkpt>
      <trkpt lat="49.25173" lon="1.1209">
        <ele>98.33995</ele>
        <time>2015-07-02T12:27:22Z</time>
      </trkpt>
      <trkpt lat="49.25168" lon="1.12093">
        <ele>97.040436</ele>
        <time>2015-07-02T12:27:27Z</time>
      </trkpt>
      <trkpt lat="49.25163" lon="1.12097">
        <ele>97.040436</ele>
        <time>2015-07-02T12:27:32Z</time>
      </trkpt>
      <trkpt lat="49.25159" lon="1.12101">
        <ele>95.69846</ele>
        <time>2015-07-02T12:27:37Z</time>
      </trkpt>
      <trkpt lat="49.25154" lon="1.12103">
        <ele>95.69846</ele>
        <time>2015-07-02T12:27:42Z</time>
      </trkpt>
      <trkpt lat="49.25147" lon="1.12107">
        <ele>94.291405</ele>
        <time>2015-07-02T12:27:47Z</time>
      </trkpt>
      <trkpt lat="49.25142" lon="1.12108">
        <ele>94.291405</ele>
        <time>2015-07-02T12:27:52Z</time>
      </trkpt>
      <trkpt lat="49.25134" lon="1.1211">
        <ele>92.94254</ele>
        <time>2015-07-02T12:27:57Z</time>
      </trkpt>
      <trkpt lat="49.25127" lon="1.12113">
        <ele>92.94254</ele>
        <time>2015-07-02T12:28:02Z</time>
      </trkpt>
      <trkpt lat="49.25119" lon="1.12115">
        <ele>91.75143</ele>
        <time>2015-07-02T12:28:07Z</time>
      </trkpt>
      <trkpt lat="49.25113" lon="1.12117">
        <ele>91.75143</ele>
        <time>2015-07-02T12:28:12Z</time>
      </trkpt>
      <trkpt lat="49.25107" lon="1.12122">
        <ele>90.70893</ele>
        <time>2015-07-02T12:28:17Z</time>
      </trkpt>
      <trkpt lat="49.25101" lon="1.12127">
        <ele>90.70893</ele>
        <time>2015-07-02T12:28:22Z</time>
      </trkpt>
      <trkpt lat="49.25094" lon="1.12129">
        <ele>89.921394</ele>
        <time>2015-07-02T12:28:27Z</time>
      </trkpt>
      <trkpt lat="49.25088" lon="1.12134">
        <ele>89.921394</ele>
        <time>2015-07-02T12:28:32Z</time>
      </trkpt>
      <trkpt lat="49.25082" lon="1.12139">
        <ele>89.35684</ele>
        <time>2015-07-02T12:28:37Z</time>
      </trkpt>
      <trkpt lat="49.25076" lon="1.12145">
        <ele>89.35684</ele>
        <time>2015-07-02T12:28:42Z</time>
      </trkpt>
      <trkpt lat="49.2507" lon="1.1215">
        <ele>88.92733</ele>
        <time>2015-07-02T12:28:47Z</time>
      </trkpt>
      <trkpt lat="49.25063" lon="1.12155">
        <ele>88.92733</ele>
        <time>2015-07-02T12:28:52Z</time>
      </trkpt>
      <trkpt lat="49.25058" lon="1.12162">
        <ele>88.68061</ele>
        <time>2015-07-02T12:28:57Z</time>
      </trkpt>
      <trkpt lat="49.25052" lon="1.12168">
        <ele>88.68061</ele>
        <time>2015-07-02T12:29:02Z</time>
      </trkpt>
      <trkpt lat="49.25045" lon="1.12176">
        <ele>88.67477</ele>
        <time>2015-07-02T12:29:07Z</time>
      </trkpt>
      <trkpt lat="49.2504" lon="1.12182">
        <ele>88.67477</ele>
        <time>2015-07-02T12:29:12Z</time>
      </trkpt>
      <trkpt lat="49.25035" lon="1.12189">
        <ele>88.876434</ele>
        <time>2015-07-02T12:29:17Z</time>
      </trkpt>
      <trkpt lat="49.25028" lon="1.12195">
        <ele>88.876434</ele>
        <time>2015-07-02T12:29:22Z</time>
      </trkpt>
      <trkpt lat="49.25023" lon="1.12201">
        <ele>89.1964</ele>
        <time>2015-07-02T12:29:27Z</time>
      </trkpt>
      <trkpt lat="49.25019" lon="1.12208">
        <ele>89.1964</ele>
        <time>2015-07-02T12:29:32Z</time>
      </trkpt>
      <trkpt lat="49.25016" lon="1.12217">
        <ele>89.335495</ele>
        <time>2015-07-02T12:29:37Z</time>
      </trkpt>
      <trkpt lat="49.25011" lon="1.12225">
        <ele>89.335495</ele>
        <time>2015-07-02T12:29:42Z</time>
      </trkpt>
      <trkpt lat="49.25008" lon="1.12231">
        <ele>89.33403</ele>
        <time>2015-07-02T12:29:47Z</time>
      </trkpt>
      <trkpt lat="49.25003" lon="1.12241">
        <ele>89.33403</ele>
        <time>2015-07-02T12:29:52Z</time>
      </trkpt>
      <trkpt lat="49.25" lon="1.12248">
        <ele>89.2009</ele>
        <time>2015-07-02T12:29:57Z</time>
      </trkpt>
      <trkpt lat="49.24996" lon="1.12253">
        <ele>89.2009</ele>
        <time>2015-07-02T12:30:02Z</time>
      </trkpt>
      <trkpt lat="49.24992" lon="1.12261">
        <ele>88.9447</ele>
        <time>2015-07-02T12:30:07Z</time>
      </trkpt>
      <trkpt lat="49.24989" lon="1.12268">
        <ele>88.9447</ele>
        <time>2015-07-02T12:30:12Z</time>
      </trkpt>
      <trkpt lat="49.24984" lon="1.12281">
        <ele>88.717865</ele>
        <time>2015-07-02T12:30:17Z</time>
      </trkpt>
      <trkpt lat="49.24981" lon="1.12295">
        <ele>88.44535</ele>
        <time>2015-07-02T12:30:22Z</time>
      </trkpt>
      <trkpt lat="49.2498" lon="1.12304">
        <ele>88.44535</ele>
        <time>2015-07-02T12:30:27Z</time>
      </trkpt>
      <trkpt lat="49.24977" lon="1.12316">
        <ele>88.230675</ele>
        <time>2015-07-02T12:30:32Z</time>
      </trkpt>
      <trkpt lat="49.24975" lon="1.12326">
        <ele>88.230675</ele>
        <time>2015-07-02T12:30:37Z</time>
      </trkpt>
      <trkpt lat="49.24972" lon="1.12334">
        <ele>88.068726</ele>
        <time>2015-07-02T12:30:42Z</time>
      </trkpt>
      <trkpt lat="49.24972" lon="1.12345">
        <ele>88.068726</ele>
        <time>2015-07-02T12:30:47Z</time>
      </trkpt>
      <trkpt lat="49.24974" lon="1.12356">
        <ele>87.896965</ele>
        <time>2015-07-02T12:30:52Z</time>
      </trkpt>
      <trkpt lat="49.24974" lon="1.12358">
        <ele>87.896965</ele>
        <time>2015-07-02T12:30:57Z</time>
      </trkpt>
      <trkpt lat="49.24974" lon="1.12359">
        <ele>87.896965</ele>
        <time>2015-07-02T12:31:02Z</time>
      </trkpt>
      <trkpt lat="49.24974" lon="1.12359">
        <ele>87.896965</ele>
        <time>2015-07-02T12:31:07Z</time>
      </trkpt>
      <trkpt lat="49.24971" lon="1.12364">
        <ele>87.896965</ele>
        <time>2015-07-02T12:32:07Z</time>
      </trkpt>
      <trkpt lat="49.24966" lon="1.12371">
        <ele>88.65186</ele>
        <time>2015-07-02T12:32:12Z</time>
      </trkpt>
      <trkpt lat="49.24962" lon="1.12375">
        <ele>88.65186</ele>
        <time>2015-07-02T12:32:17Z</time>
      </trkpt>
      <trkpt lat="49.2496" lon="1.12379">
        <ele>88.65186</ele>
        <time>2015-07-02T12:32:22Z</time>
      </trkpt>
      <trkpt lat="49.24957" lon="1.12384">
        <ele>89.670906</ele>
        <time>2015-07-02T12:32:27Z</time>
      </trkpt>
      <trkpt lat="49.24956" lon="1.12392">
        <ele>89.670906</ele>
        <time>2015-07-02T12:32:32Z</time>
      </trkpt>
      <trkpt lat="49.24957" lon="1.12396">
        <ele>89.670906</ele>
        <time>2015-07-02T12:32:37Z</time>
      </trkpt>
      <trkpt lat="49.24955" lon="1.12405">
        <ele>90.58454</ele>
        <time>2015-07-02T12:32:42Z</time>
      </trkpt>
      <trkpt lat="49.24954" lon="1.12414">
        <ele>90.58454</ele>
        <time>2015-07-02T12:32:47Z</time>
      </trkpt>
      <trkpt lat="49.24953" lon="1.12428">
        <ele>91.12273</ele>
        <time>2015-07-02T12:32:52Z</time>
      </trkpt>
      <trkpt lat="49.24954" lon="1.12436">
        <ele>91.12273</ele>
        <time>2015-07-02T12:32:57Z</time>
      </trkpt>
      <trkpt lat="49.24952" lon="1.1245">
        <ele>91.540726</ele>
        <time>2015-07-02T12:33:02Z</time>
      </trkpt>
      <trkpt lat="49.24953" lon="1.12453">
        <ele>91.540726</ele>
        <time>2015-07-02T12:33:07Z</time>
      </trkpt>
      <trkpt lat="49.24954" lon="1.12457">
        <ele>91.540726</ele>
        <time>2015-07-02T12:33:12Z</time>
      </trkpt>
      <trkpt lat="49.24952" lon="1.12468">
        <ele>92.24838</ele>
        <time>2015-07-02T12:33:17Z</time>
      </trkpt>
      <trkpt lat="49.24949" lon="1.12469">
        <ele>92.24838</ele>
        <time>2015-07-02T12:33:22Z</time>
      </trkpt>
      <trkpt lat="49.24947" lon="1.12471">
        <ele>92.24838</ele>
        <time>2015-07-02T12:33:27Z</time>
      </trkpt>
      <trkpt lat="49.24946" lon="1.12471">
        <ele>92.24838</ele>
        <time>2015-07-02T12:33:32Z</time>
      </trkpt>
      <trkpt lat="49.24942" lon="1.12478">
        <ele>92.74558</ele>
        <time>2015-07-02T12:33:37Z</time>
      </trkpt>
      <trkpt lat="49.24939" lon="1.12479">
        <ele>92.74558</ele>
        <time>2015-07-02T12:33:42Z</time>
      </trkpt>
      <trkpt lat="49.24934" lon="1.12483">
        <ele>93.2181</ele>
        <time>2015-07-02T12:33:47Z</time>
      </trkpt>
      <trkpt lat="49.24929" lon="1.12489">
        <ele>93.2181</ele>
        <time>2015-07-02T12:33:52Z</time>
      </trkpt>
      <trkpt lat="49.24924" lon="1.12492">
        <ele>94.06876</ele>
        <time>2015-07-02T12:33:57Z</time>
      </trkpt>
      <trkpt lat="49.24921" lon="1.12495">
        <ele>94.06876</ele>
        <time>2015-07-02T12:34:02Z</time>
      </trkpt>
      <trkpt lat="49.24915" lon="1.12498">
        <ele>95.0213</ele>
        <time>2015-07-02T12:34:07Z</time>
      </trkpt>
      <trkpt lat="49.2491" lon="1.12505">
        <ele>95.0213</ele>
        <time>2015-07-02T12:34:12Z</time>
      </trkpt>
      <trkpt lat="49.24906" lon="1.12511">
        <ele>95.94924</ele>
        <time>2015-07-02T12:34:17Z</time>
      </trkpt>
      <trkpt lat="49.24906" lon="1.12515">
        <ele>95.94924</ele>
        <time>2015-07-02T12:34:22Z</time>
      </trkpt>
      <trkpt lat="49.24906" lon="1.12518">
        <ele>95.94924</ele>
        <time>2015-07-02T12:34:27Z</time>
      </trkpt>
      <trkpt lat="49.24906" lon="1.12519">
        <ele>95.94924</ele>
        <time>2015-07-02T12:34:32Z</time>
      </trkpt>
      <trkpt lat="49.24904" lon="1.12514">
        <ele>96.86523</ele>
        <time>2015-07-02T12:34:37Z</time>
      </trkpt>
      <trkpt lat="49.24902" lon="1.12513">
        <ele>96.86523</ele>
        <time>2015-07-02T12:34:42Z</time>
      </trkpt>
      <trkpt lat="49.249" lon="1.12511">
        <ele>96.86523</ele>
        <time>2015-07-02T12:34:47Z</time>
      </trkpt>
      <trkpt lat="49.24897" lon="1.12515">
        <ele>96.86523</ele>
        <time>2015-07-02T12:34:52Z</time>
      </trkpt>
      <trkpt lat="49.24896" lon="1.12517">
        <ele>97.65138</ele>
        <time>2015-07-02T12:34:57Z</time>
      </trkpt>
      <trkpt lat="49.24892" lon="1.1252">
        <ele>97.65138</ele>
        <time>2015-07-02T12:35:02Z</time>
      </trkpt>
      <trkpt lat="49.24887" lon="1.12524">
        <ele>98.58806</ele>
        <time>2015-07-02T12:35:07Z</time>
      </trkpt>
      <trkpt lat="49.24883" lon="1.12533">
        <ele>98.58806</ele>
        <time>2015-07-02T12:35:12Z</time>
      </trkpt>
      <trkpt lat="49.24879" lon="1.12541">
        <ele>99.70406</ele>
        <time>2015-07-02T12:35:17Z</time>
      </trkpt>
      <trkpt lat="49.24874" lon="1.12549">
        <ele>99.70406</ele>
        <time>2015-07-02T12:35:22Z</time>
      </trkpt>
      <trkpt lat="49.2487" lon="1.12552">
        <ele>101.05454</ele>
        <time>2015-07-02T12:35:27Z</time>
      </trkpt>
      <trkpt lat="49.24863" lon="1.12558">
        <ele>101.05454</ele>
        <time>2015-07-02T12:35:32Z</time>
      </trkpt>
      <trkpt lat="49.24857" lon="1.12563">
        <ele>102.61793</ele>
        <time>2015-07-02T12:35:37Z</time>
      </trkpt>
      <trkpt lat="49.24853" lon="1.12566">
        <ele>102.61793</ele>
        <time>2015-07-02T12:35:42Z</time>
      </trkpt>
      <trkpt lat="49.24851" lon="1.12565">
        <ele>102.61793</ele>
        <time>2015-07-02T12:35:47Z</time>
      </trkpt>
      <trkpt lat="49.24848" lon="1.12565">
        <ele>104.2873</ele>
        <time>2015-07-02T12:35:52Z</time>
      </trkpt>
      <trkpt lat="49.24843" lon="1.12567">
        <ele>104.2873</ele>
        <time>2015-07-02T12:35:57Z</time>
      </trkpt>
      <trkpt lat="49.24839" lon="1.12568">
        <ele>104.2873</ele>
        <time>2015-07-02T12:36:02Z</time>
      </trkpt>
      <trkpt lat="49.24834" lon="1.12571">
        <ele>105.459015</ele>
        <time>2015-07-02T12:36:07Z</time>
      </trkpt>
      <trkpt lat="49.24829" lon="1.12576">
        <ele>105.459015</ele>
        <time>2015-07-02T12:36:12Z</time>
      </trkpt>
      <trkpt lat="49.24822" lon="1.12579">
        <ele>106.367874</ele>
        <time>2015-07-02T12:36:17Z</time>
      </trkpt>
      <trkpt lat="49.24815" lon="1.12581">
        <ele>106.367874</ele>
        <time>2015-07-02T12:36:22Z</time>
      </trkpt>
      <trkpt lat="49.24814" lon="1.12582">
        <ele>106.367874</ele>
        <time>2015-07-02T12:36:27Z</time>
      </trkpt>
      <trkpt lat="49.24811" lon="1.12582">
        <ele>107.07377</ele>
        <time>2015-07-02T12:36:32Z</time>
      </trkpt>
      <trkpt lat="49.24806" lon="1.12582">
        <ele>107.07377</ele>
        <time>2015-07-02T12:36:37Z</time>
      </trkpt>
      <trkpt lat="49.24801" lon="1.12581">
        <ele>107.56082</ele>
        <time>2015-07-02T12:36:42Z</time>
      </trkpt>
      <trkpt lat="49.24795" lon="1.12583">
        <ele>107.56082</ele>
        <time>2015-07-02T12:36:47Z</time>
      </trkpt>
      <trkpt lat="49.24789" lon="1.12586">
        <ele>108.0312</ele>
        <time>2015-07-02T12:36:52Z</time>
      </trkpt>
      <trkpt lat="49.24789" lon="1.12587">
        <ele>108.0312</ele>
        <time>2015-07-02T12:36:57Z</time>
      </trkpt>
      <trkpt lat="49.24785" lon="1.12589">
        <ele>108.0312</ele>
        <time>2015-07-02T12:37:02Z</time>
      </trkpt>
      <trkpt lat="49.24779" lon="1.12596">
        <ele>108.97501</ele>
        <time>2015-07-02T12:37:07Z</time>
      </trkpt>
      <trkpt lat="49.24771" lon="1.12603">
        <ele>108.97501</ele>
        <time>2015-07-02T12:37:12Z</time>
      </trkpt>
      <trkpt lat="49.2476" lon="1.12607">
        <ele>110.00931</ele>
        <time>2015-07-02T12:37:17Z</time>
      </trkpt>
      <trkpt lat="49.24747" lon="1.12612">
        <ele>110.92322</ele>
        <time>2015-07-02T12:37:22Z</time>
      </trkpt>
      <trkpt lat="49.24742" lon="1.12615">
        <ele>110.92322</ele>
        <time>2015-07-02T12:37:27Z</time>
      </trkpt>
      <trkpt lat="49.24739" lon="1.12615">
        <ele>110.92322</ele>
        <time>2015-07-02T12:37:32Z</time>
      </trkpt>
      <trkpt lat="49.24734" lon="1.12613">
        <ele>111.62268</ele>
        <time>2015-07-02T12:37:37Z</time>
      </trkpt>
      <trkpt lat="49.24728" lon="1.12605">
        <ele>111.62268</ele>
        <time>2015-07-02T12:37:42Z</time>
      </trkpt>
      <trkpt lat="49.24727" lon="1.126">
        <ele>112.194176</ele>
        <time>2015-07-02T12:37:47Z</time>
      </trkpt>
      <trkpt lat="49.24725" lon="1.12592">
        <ele>112.194176</ele>
        <time>2015-07-02T12:37:52Z</time>
      </trkpt>
      <trkpt lat="49.24723" lon="1.12584">
        <ele>112.63181</ele>
        <time>2015-07-02T12:37:57Z</time>
      </trkpt>
      <trkpt lat="49.24723" lon="1.12578">
        <ele>112.63181</ele>
        <time>2015-07-02T12:38:02Z</time>
      </trkpt>
      <trkpt lat="49.24722" lon="1.12572">
        <ele>112.63181</ele>
        <time>2015-07-02T12:38:07Z</time>
      </trkpt>
      <trkpt lat="49.24721" lon="1.12567">
        <ele>112.59916</ele>
        <time>2015-07-02T12:38:12Z</time>
      </trkpt>
      <trkpt lat="49.24715" lon="1.12566">
        <ele>112.59916</ele>
        <time>2015-07-02T12:38:17Z</time>
      </trkpt>
      <trkpt lat="49.2471" lon="1.12569">
        <ele>112.54968</ele>
        <time>2015-07-02T12:38:22Z</time>
      </trkpt>
      <trkpt lat="49.24702" lon="1.12575">
        <ele>112.50014</ele>
        <time>2015-07-02T12:38:27Z</time>
      </trkpt>
      <trkpt lat="49.24696" lon="1.12577">
        <ele>112.50014</ele>
        <time>2015-07-02T12:38:32Z</time>
      </trkpt>
      <trkpt lat="49.24695" lon="1.12576">
        <ele>112.50014</ele>
        <time>2015-07-02T12:38:37Z</time>
      </trkpt>
      <trkpt lat="49.24695" lon="1.12576">
        <ele>112.50014</ele>
        <time>2015-07-02T12:38:42Z</time>
      </trkpt>
      <trkpt lat="49.2469" lon="1.12571">
        <ele>112.86964</ele>
        <time>2015-07-02T12:38:47Z</time>
      </trkpt>
      <trkpt lat="49.24685" lon="1.12564">
        <ele>112.86964</ele>
        <time>2015-07-02T12:38:52Z</time>
      </trkpt>
      <trkpt lat="49.24684" lon="1.12563">
        <ele>112.86964</ele>
        <time>2015-07-02T12:38:57Z</time>
      </trkpt>
      <trkpt lat="49.24681" lon="1.12563">
        <ele>113.598656</ele>
        <time>2015-07-02T12:39:02Z</time>
      </trkpt>
      <trkpt lat="49.24675" lon="1.12563">
        <ele>113.598656</ele>
        <time>2015-07-02T12:39:07Z</time>
      </trkpt>
      <trkpt lat="49.2467" lon="1.1256">
        <ele>114.198746</ele>
        <time>2015-07-02T12:39:12Z</time>
      </trkpt>
      <trkpt lat="49.2467" lon="1.12558">
        <ele>114.198746</ele>
        <time>2015-07-02T12:39:17Z</time>
      </trkpt>
      <trkpt lat="49.24667" lon="1.12558">
        <ele>114.198746</ele>
        <time>2015-07-02T12:39:22Z</time>
      </trkpt>
      <trkpt lat="49.24662" lon="1.12556">
        <ele>114.33304</ele>
        <time>2015-07-02T12:39:27Z</time>
      </trkpt>
      <trkpt lat="49.24656" lon="1.12553">
        <ele>114.33304</ele>
        <time>2015-07-02T12:39:32Z</time>
      </trkpt>
      <trkpt lat="49.24654" lon="1.12553">
        <ele>114.33304</ele>
        <time>2015-07-02T12:39:37Z</time>
      </trkpt>
      <trkpt lat="49.24648" lon="1.12553">
        <ele>114.39692</ele>
        <time>2015-07-02T12:39:42Z</time>
      </trkpt>
      <trkpt lat="49.24641" lon="1.12551">
        <ele>114.39692</ele>
        <time>2015-07-02T12:39:47Z</time>
      </trkpt>
      <trkpt lat="49.24632" lon="1.12548">
        <ele>114.51197</ele>
        <time>2015-07-02T12:39:52Z</time>
      </trkpt>
      <trkpt lat="49.24618" lon="1.1255">
        <ele>114.61781</ele>
        <time>2015-07-02T12:39:57Z</time>
      </trkpt>
      <trkpt lat="49.24609" lon="1.12552">
        <ele>114.61781</ele>
        <time>2015-07-02T12:40:02Z</time>
      </trkpt>
      <trkpt lat="49.24601" lon="1.1255">
        <ele>114.716194</ele>
        <time>2015-07-02T12:40:07Z</time>
      </trkpt>
      <trkpt lat="49.24596" lon="1.12548">
        <ele>114.716194</ele>
        <time>2015-07-02T12:40:12Z</time>
      </trkpt>
      <trkpt lat="49.2459" lon="1.12548">
        <ele>114.751144</ele>
        <time>2015-07-02T12:40:17Z</time>
      </trkpt>
      <trkpt lat="49.24584" lon="1.12551">
        <ele>114.751144</ele>
        <time>2015-07-02T12:40:22Z</time>
      </trkpt>
      <trkpt lat="49.24582" lon="1.12555">
        <ele>114.81511</ele>
        <time>2015-07-02T12:40:27Z</time>
      </trkpt>
      <trkpt lat="49.24581" lon="1.12554">
        <ele>114.81511</ele>
        <time>2015-07-02T12:40:32Z</time>
      </trkpt>
      <trkpt lat="49.24582" lon="1.12554">
        <ele>114.81511</ele>
        <time>2015-07-02T12:40:37Z</time>
      </trkpt>
      <trkpt lat="49.2458" lon="1.12559">
        <ele>114.81511</ele>
        <time>2015-07-02T12:40:42Z</time>
      </trkpt>
      <trkpt lat="49.24578" lon="1.12567">
        <ele>114.921616</ele>
        <time>2015-07-02T12:40:47Z</time>
      </trkpt>
      <trkpt lat="49.24577" lon="1.12575">
        <ele>114.921616</ele>
        <time>2015-07-02T12:40:52Z</time>
      </trkpt>
      <trkpt lat="49.24577" lon="1.12583">
        <ele>115.054276</ele>
        <time>2015-07-02T12:40:57Z</time>
      </trkpt>
      <trkpt lat="49.24575" lon="1.12589">
        <ele>115.054276</ele>
        <time>2015-07-02T12:41:02Z</time>
      </trkpt>
      <trkpt lat="49.24573" lon="1.12598">
        <ele>115.226654</ele>
        <time>2015-07-02T12:41:07Z</time>
      </trkpt>
      <trkpt lat="49.24572" lon="1.12608">
        <ele>115.226654</ele>
        <time>2015-07-02T12:41:12Z</time>
      </trkpt>
      <trkpt lat="49.2457" lon="1.12617">
        <ele>115.407974</ele>
        <time>2015-07-02T12:41:17Z</time>
      </trkpt>
      <trkpt lat="49.24569" lon="1.12624">
        <ele>115.407974</ele>
        <time>2015-07-02T12:41:22Z</time>
      </trkpt>
      <trkpt lat="49.24568" lon="1.12631">
        <ele>115.58411</ele>
        <time>2015-07-02T12:41:27Z</time>
      </trkpt>
      <trkpt lat="49.24566" lon="1.12641">
        <ele>115.58411</ele>
        <time>2015-07-02T12:41:32Z</time>
      </trkpt>
      <trkpt lat="49.24564" lon="1.12652">
        <ele>115.71315</ele>
        <time>2015-07-02T12:41:37Z</time>
      </trkpt>
      <trkpt lat="49.24561" lon="1.1266">
        <ele>115.71315</ele>
        <time>2015-07-02T12:41:42Z</time>
      </trkpt>
      <trkpt lat="49.24559" lon="1.12668">
        <ele>115.90051</ele>
        <time>2015-07-02T12:41:47Z</time>
      </trkpt>
      <trkpt lat="49.24558" lon="1.12677">
        <ele>115.90051</ele>
        <time>2015-07-02T12:41:52Z</time>
      </trkpt>
      <trkpt lat="49.24555" lon="1.12687">
        <ele>116.09959</ele>
        <time>2015-07-02T12:41:57Z</time>
      </trkpt>
      <trkpt lat="49.24554" lon="1.12695">
        <ele>116.09959</ele>
        <time>2015-07-02T12:42:02Z</time>
      </trkpt>
      <trkpt lat="49.24552" lon="1.12705">
        <ele>116.26713</ele>
        <time>2015-07-02T12:42:07Z</time>
      </trkpt>
      <trkpt lat="49.2455" lon="1.12716">
        <ele>116.26713</ele>
        <time>2015-07-02T12:42:12Z</time>
      </trkpt>
      <trkpt lat="49.24549" lon="1.12726">
        <ele>116.464035</ele>
        <time>2015-07-02T12:42:17Z</time>
      </trkpt>
      <trkpt lat="49.24547" lon="1.12736">
        <ele>116.464035</ele>
        <time>2015-07-02T12:42:22Z</time>
      </trkpt>
      <trkpt lat="49.24545" lon="1.12744">
        <ele>116.68898</ele>
        <time>2015-07-02T12:42:27Z</time>
      </trkpt>
      <trkpt lat="49.24542" lon="1.12752">
        <ele>116.68898</ele>
        <time>2015-07-02T12:42:32Z</time>
      </trkpt>
      <trkpt lat="49.24541" lon="1.12762">
        <ele>116.92625</ele>
        <time>2015-07-02T12:42:37Z</time>
      </trkpt>
      <trkpt lat="49.24539" lon="1.1277">
        <ele>116.92625</ele>
        <time>2015-07-02T12:42:42Z</time>
      </trkpt>
      <trkpt lat="49.24537" lon="1.12778">
        <ele>117.11796</ele>
        <time>2015-07-02T12:42:47Z</time>
      </trkpt>
      <trkpt lat="49.24535" lon="1.12788">
        <ele>117.11796</ele>
        <time>2015-07-02T12:42:52Z</time>
      </trkpt>
      <trkpt lat="49.24535" lon="1.12799">
        <ele>117.282684</ele>
        <time>2015-07-02T12:42:57Z</time>
      </trkpt>
      <trkpt lat="49.24533" lon="1.12808">
        <ele>117.282684</ele>
        <time>2015-07-02T12:43:02Z</time>
      </trkpt>
      <trkpt lat="49.24531" lon="1.12818">
        <ele>117.466484</ele>
        <time>2015-07-02T12:43:07Z</time>
      </trkpt>
      <trkpt lat="49.24529" lon="1.12826">
        <ele>117.466484</ele>
        <time>2015-07-02T12:43:12Z</time>
      </trkpt>
      <trkpt lat="49.24527" lon="1.12836">
        <ele>117.63992</ele>
        <time>2015-07-02T12:43:17Z</time>
      </trkpt>
      <trkpt lat="49.24525" lon="1.12846">
        <ele>117.63992</ele>
        <time>2015-07-02T12:43:22Z</time>
      </trkpt>
      <trkpt lat="49.24523" lon="1.12853">
        <ele>117.79013</ele>
        <time>2015-07-02T12:43:27Z</time>
      </trkpt>
      <trkpt lat="49.24521" lon="1.12863">
        <ele>117.79013</ele>
        <time>2015-07-02T12:43:32Z</time>
      </trkpt>
      <trkpt lat="49.24519" lon="1.12872">
        <ele>118.00613</ele>
        <time>2015-07-02T12:43:37Z</time>
      </trkpt>
      <trkpt lat="49.24518" lon="1.12881">
        <ele>118.00613</ele>
        <time>2015-07-02T12:43:42Z</time>
      </trkpt>
      <trkpt lat="49.24517" lon="1.12893">
        <ele>118.21163</ele>
        <time>2015-07-02T12:43:47Z</time>
      </trkpt>
      <trkpt lat="49.24514" lon="1.12904">
        <ele>118.21163</ele>
        <time>2015-07-02T12:43:52Z</time>
      </trkpt>
      <trkpt lat="49.24513" lon="1.12913">
        <ele>118.36482</ele>
        <time>2015-07-02T12:43:57Z</time>
      </trkpt>
      <trkpt lat="49.24512" lon="1.12921">
        <ele>118.36482</ele>
        <time>2015-07-02T12:44:02Z</time>
      </trkpt>
      <trkpt lat="49.24509" lon="1.12928">
        <ele>118.4847</ele>
        <time>2015-07-02T12:44:07Z</time>
      </trkpt>
      <trkpt lat="49.24507" lon="1.12939">
        <ele>118.4847</ele>
        <time>2015-07-02T12:44:12Z</time>
      </trkpt>
      <trkpt lat="49.24504" lon="1.12948">
        <ele>118.704254</ele>
        <time>2015-07-02T12:44:17Z</time>
      </trkpt>
      <trkpt lat="49.24503" lon="1.12957">
        <ele>118.704254</ele>
        <time>2015-07-02T12:44:22Z</time>
      </trkpt>
      <trkpt lat="49.24502" lon="1.12967">
        <ele>118.87256</ele>
        <time>2015-07-02T12:44:27Z</time>
      </trkpt>
      <trkpt lat="49.245" lon="1.12981">
        <ele>119.00843</ele>
        <time>2015-07-02T12:44:32Z</time>
      </trkpt>
      <trkpt lat="49.24498" lon="1.12989">
        <ele>119.00843</ele>
        <time>2015-07-02T12:44:37Z</time>
      </trkpt>
      <trkpt lat="49.24496" lon="1.13001">
        <ele>119.20143</ele>
        <time>2015-07-02T12:44:42Z</time>
      </trkpt>
      <trkpt lat="49.24494" lon="1.13009">
        <ele>119.20143</ele>
        <time>2015-07-02T12:44:47Z</time>
      </trkpt>
      <trkpt lat="49.24492" lon="1.13017">
        <ele>119.34701</ele>
        <time>2015-07-02T12:44:52Z</time>
      </trkpt>
      <trkpt lat="49.2449" lon="1.13029">
        <ele>119.34701</ele>
        <time>2015-07-02T12:44:57Z</time>
      </trkpt>
      <trkpt lat="49.24488" lon="1.13039">
        <ele>119.50691</ele>
        <time>2015-07-02T12:45:02Z</time>
      </trkpt>
      <trkpt lat="49.24486" lon="1.13046">
        <ele>119.50691</ele>
        <time>2015-07-02T12:45:07Z</time>
      </trkpt>
      <trkpt lat="49.24484" lon="1.13052">
        <ele>119.62303</ele>
        <time>2015-07-02T12:45:12Z</time>
      </trkpt>
      <trkpt lat="49.24481" lon="1.13058">
        <ele>119.62303</ele>
        <time>2015-07-02T12:45:17Z</time>
      </trkpt>
      <trkpt lat="49.24479" lon="1.13071">
        <ele>119.46865</ele>
        <time>2015-07-02T12:45:22Z</time>
      </trkpt>
      <trkpt lat="49.24479" lon="1.13085">
        <ele>119.36768</ele>
        <time>2015-07-02T12:45:27Z</time>
      </trkpt>
      <trkpt lat="49.24477" lon="1.13096">
        <ele>119.36768</ele>
        <time>2015-07-02T12:45:32Z</time>
      </trkpt>
      <trkpt lat="49.24475" lon="1.13104">
        <ele>119.40389</ele>
        <time>2015-07-02T12:45:37Z</time>
      </trkpt>
      <trkpt lat="49.24474" lon="1.13111">
        <ele>119.40389</ele>
        <time>2015-07-02T12:45:42Z</time>
      </trkpt>
      <trkpt lat="49.24474" lon="1.1312">
        <ele>119.38067</ele>
        <time>2015-07-02T12:45:47Z</time>
      </trkpt>
      <trkpt lat="49.24473" lon="1.1313">
        <ele>119.38067</ele>
        <time>2015-07-02T12:45:52Z</time>
      </trkpt>
      <trkpt lat="49.24468" lon="1.1314">
        <ele>119.274506</ele>
        <time>2015-07-02T12:45:57Z</time>
      </trkpt>
      <trkpt lat="49.24465" lon="1.13149">
        <ele>119.274506</ele>
        <time>2015-07-02T12:46:02Z</time>
      </trkpt>
      <trkpt lat="49.24464" lon="1.13158">
        <ele>119.222336</ele>
        <time>2015-07-02T12:46:07Z</time>
      </trkpt>
      <trkpt lat="49.24461" lon="1.13168">
        <ele>119.222336</ele>
        <time>2015-07-02T12:46:12Z</time>
      </trkpt>
      <trkpt lat="49.24461" lon="1.13177">
        <ele>119.13471</ele>
        <time>2015-07-02T12:46:17Z</time>
      </trkpt>
      <trkpt lat="49.24459" lon="1.13187">
        <ele>119.13471</ele>
        <time>2015-07-02T12:46:22Z</time>
      </trkpt>
      <trkpt lat="49.24456" lon="1.13196">
        <ele>118.799095</ele>
        <time>2015-07-02T12:46:27Z</time>
      </trkpt>
      <trkpt lat="49.24453" lon="1.13207">
        <ele>118.799095</ele>
        <time>2015-07-02T12:46:32Z</time>
      </trkpt>
      <trkpt lat="49.2445" lon="1.13216">
        <ele>118.40834</ele>
        <time>2015-07-02T12:46:37Z</time>
      </trkpt>
      <trkpt lat="49.24449" lon="1.13224">
        <ele>118.40834</ele>
        <time>2015-07-02T12:46:42Z</time>
      </trkpt>
      <trkpt lat="49.24447" lon="1.13233">
        <ele>117.92509</ele>
        <time>2015-07-02T12:46:47Z</time>
      </trkpt>
      <trkpt lat="49.24444" lon="1.13244">
        <ele>117.92509</ele>
        <time>2015-07-02T12:46:52Z</time>
      </trkpt>
      <trkpt lat="49.24442" lon="1.13255">
        <ele>117.44463</ele>
        <time>2015-07-02T12:46:57Z</time>
      </trkpt>
      <trkpt lat="49.24441" lon="1.13264">
        <ele>117.44463</ele>
        <time>2015-07-02T12:47:02Z</time>
      </trkpt>
      <trkpt lat="49.2444" lon="1.13273">
        <ele>116.95435</ele>
        <time>2015-07-02T12:47:07Z</time>
      </trkpt>
      <trkpt lat="49.24439" lon="1.13282">
        <ele>116.95435</ele>
        <time>2015-07-02T12:47:12Z</time>
      </trkpt>
      <trkpt lat="49.24437" lon="1.13294">
        <ele>116.384895</ele>
        <time>2015-07-02T12:47:17Z</time>
      </trkpt>
      <trkpt lat="49.24434" lon="1.13301">
        <ele>116.384895</ele>
        <time>2015-07-02T12:47:22Z</time>
      </trkpt>
      <trkpt lat="49.24431" lon="1.1331">
        <ele>115.75864</ele>
        <time>2015-07-02T12:47:27Z</time>
      </trkpt>
      <trkpt lat="49.2443" lon="1.1332">
        <ele>115.75864</ele>
        <time>2015-07-02T12:47:32Z</time>
      </trkpt>
      <trkpt lat="49.24429" lon="1.13329">
        <ele>115.125244</ele>
        <time>2015-07-02T12:47:37Z</time>
      </trkpt>
      <trkpt lat="49.24428" lon="1.13337">
        <ele>115.125244</ele>
        <time>2015-07-02T12:47:42Z</time>
      </trkpt>
      <trkpt lat="49.24425" lon="1.13346">
        <ele>114.47306</ele>
        <time>2015-07-02T12:47:47Z</time>
      </trkpt>
      <trkpt lat="49.24423" lon="1.13356">
        <ele>114.47306</ele>
        <time>2015-07-02T12:47:52Z</time>
      </trkpt>
      <trkpt lat="49.24422" lon="1.13366">
        <ele>113.90656</ele>
        <time>2015-07-02T12:47:57Z</time>
      </trkpt>
      <trkpt lat="49.24422" lon="1.13376">
        <ele>113.90656</ele>
        <time>2015-07-02T12:48:02Z</time>
      </trkpt>
      <trkpt lat="49.24421" lon="1.13388">
        <ele>113.40699</ele>
        <time>2015-07-02T12:48:07Z</time>
      </trkpt>
      <trkpt lat="49.24418" lon="1.13396">
        <ele>113.40699</ele>
        <time>2015-07-02T12:48:12Z</time>
      </trkpt>
      <trkpt lat="49.24416" lon="1.13405">
        <ele>112.87022</ele>
        <time>2015-07-02T12:48:17Z</time>
      </trkpt>
      <trkpt lat="49.24416" lon="1.13414">
        <ele>112.87022</ele>
        <time>2015-07-02T12:48:22Z</time>
      </trkpt>
      <trkpt lat="49.24415" lon="1.13423">
        <ele>112.2863</ele>
        <time>2015-07-02T12:48:27Z</time>
      </trkpt>
      <trkpt lat="49.24413" lon="1.13434">
        <ele>112.2863</ele>
        <time>2015-07-02T12:48:32Z</time>
      </trkpt>
      <trkpt lat="49.24411" lon="1.13443">
        <ele>111.73256</ele>
        <time>2015-07-02T12:48:37Z</time>
      </trkpt>
      <trkpt lat="49.2441" lon="1.13451">
        <ele>111.73256</ele>
        <time>2015-07-02T12:48:42Z</time>
      </trkpt>
      <trkpt lat="49.24409" lon="1.13452">
        <ele>111.73256</ele>
        <time>2015-07-02T12:48:47Z</time>
      </trkpt>
      <trkpt lat="49.24405" lon="1.13461">
        <ele>111.25166</ele>
        <time>2015-07-02T12:48:52Z</time>
      </trkpt>
      <trkpt lat="49.24403" lon="1.1347">
        <ele>111.25166</ele>
        <time>2015-07-02T12:48:57Z</time>
      </trkpt>
      <trkpt lat="49.24402" lon="1.13478">
        <ele>110.83965</ele>
        <time>2015-07-02T12:49:02Z</time>
      </trkpt>
      <trkpt lat="49.244" lon="1.13489">
        <ele>110.83965</ele>
        <time>2015-07-02T12:49:07Z</time>
      </trkpt>
      <trkpt lat="49.24398" lon="1.13497">
        <ele>110.463776</ele>
        <time>2015-07-02T12:49:12Z</time>
      </trkpt>
      <trkpt lat="49.24397" lon="1.13506">
        <ele>110.463776</ele>
        <time>2015-07-02T12:49:17Z</time>
      </trkpt>
      <trkpt lat="49.24397" lon="1.13517">
        <ele>110.136765</ele>
        <time>2015-07-02T12:49:22Z</time>
      </trkpt>
      <trkpt lat="49.24397" lon="1.13526">
        <ele>110.136765</ele>
        <time>2015-07-02T12:49:27Z</time>
      </trkpt>
      <trkpt lat="49.24394" lon="1.13536">
        <ele>109.88463</ele>
        <time>2015-07-02T12:49:32Z</time>
      </trkpt>
      <trkpt lat="49.24394" lon="1.13543">
        <ele>109.88463</ele>
        <time>2015-07-02T12:49:37Z</time>
      </trkpt>
      <trkpt lat="49.24392" lon="1.13553">
        <ele>109.630325</ele>
        <time>2015-07-02T12:49:42Z</time>
      </trkpt>
      <trkpt lat="49.24389" lon="1.13561">
        <ele>109.630325</ele>
        <time>2015-07-02T12:49:47Z</time>
      </trkpt>
      <trkpt lat="49.24387" lon="1.13569">
        <ele>109.40331</ele>
        <time>2015-07-02T12:49:52Z</time>
      </trkpt>
      <trkpt lat="49.24385" lon="1.13579">
        <ele>109.40331</ele>
        <time>2015-07-02T12:49:57Z</time>
      </trkpt>
      <trkpt lat="49.24381" lon="1.13587">
        <ele>109.24515</ele>
        <time>2015-07-02T12:50:02Z</time>
      </trkpt>
      <trkpt lat="49.24379" lon="1.13597">
        <ele>109.24515</ele>
        <time>2015-07-02T12:50:07Z</time>
      </trkpt>
      <trkpt lat="49.24377" lon="1.13605">
        <ele>109.16528</ele>
        <time>2015-07-02T12:50:12Z</time>
      </trkpt>
      <trkpt lat="49.24376" lon="1.13614">
        <ele>109.16528</ele>
        <time>2015-07-02T12:50:17Z</time>
      </trkpt>
      <trkpt lat="49.24379" lon="1.13621">
        <ele>109.10016</ele>
        <time>2015-07-02T12:50:22Z</time>
      </trkpt>
      <trkpt lat="49.24378" lon="1.13629">
        <ele>109.11033</ele>
        <time>2015-07-02T12:50:27Z</time>
      </trkpt>
      <trkpt lat="49.24376" lon="1.13635">
        <ele>109.12051</ele>
        <time>2015-07-02T12:50:32Z</time>
      </trkpt>
      <trkpt lat="49.24375" lon="1.13645">
        <ele>109.12051</ele>
        <time>2015-07-02T12:50:37Z</time>
      </trkpt>
      <trkpt lat="49.24374" lon="1.13652">
        <ele>109.34921</ele>
        <time>2015-07-02T12:50:42Z</time>
      </trkpt>
      <trkpt lat="49.24375" lon="1.13659">
        <ele>109.34921</ele>
        <time>2015-07-02T12:50:47Z</time>
      </trkpt>
      <trkpt lat="49.24375" lon="1.13665">
        <ele>109.34921</ele>
        <time>2015-07-02T12:50:52Z</time>
      </trkpt>
      <trkpt lat="49.2438" lon="1.13671">
        <ele>109.61132</ele>
        <time>2015-07-02T12:50:57Z</time>
      </trkpt>
      <trkpt lat="49.2438" lon="1.13672">
        <ele>109.61132</ele>
        <time>2015-07-02T12:51:02Z</time>
      </trkpt>
      <trkpt lat="49.24379" lon="1.13669">
        <ele>109.61132</ele>
        <time>2015-07-02T12:51:07Z</time>
      </trkpt>
      <trkpt lat="49.24381" lon="1.13666">
        <ele>109.61132</ele>
        <time>2015-07-02T12:51:12Z</time>
      </trkpt>
      <trkpt lat="49.24384" lon="1.13667">
        <ele>109.61132</ele>
        <time>2015-07-02T12:51:17Z</time>
      </trkpt>
      <trkpt lat="49.24387" lon="1.13666">
        <ele>109.629295</ele>
        <time>2015-07-02T12:51:22Z</time>
      </trkpt>
      <trkpt lat="49.24389" lon="1.13662">
        <ele>109.629295</ele>
        <time>2015-07-02T12:51:27Z</time>
      </trkpt>
      <trkpt lat="49.24388" lon="1.13665">
        <ele>109.629295</ele>
        <time>2015-07-02T12:51:32Z</time>
      </trkpt>
      <trkpt lat="49.24387" lon="1.1367">
        <ele>109.629295</ele>
        <time>2015-07-02T12:51:37Z</time>
      </trkpt>
      <trkpt lat="49.24389" lon="1.13673">
        <ele>109.62224</ele>
        <time>2015-07-02T12:51:42Z</time>
      </trkpt>
      <trkpt lat="49.24389" lon="1.13673">
        <ele>109.62224</ele>
        <time>2015-07-02T12:51:47Z</time>
      </trkpt>
      <trkpt lat="49.24389" lon="1.13673">
        <ele>109.62224</ele>
        <time>2015-07-02T12:51:52Z</time>
      </trkpt>
      <trkpt lat="49.24389" lon="1.13672">
        <ele>109.62224</ele>
        <time>2015-07-02T12:52:27Z</time>
      </trkpt>
      <trkpt lat="49.24389" lon="1.13671">
        <ele>109.62224</ele>
        <time>2015-07-02T12:52:32Z</time>
      </trkpt>
      <trkpt lat="49.24389" lon="1.13671">
        <ele>109.62224</ele>
        <time>2015-07-02T12:52:37Z</time>
      </trkpt>
      <trkpt lat="49.24389" lon="1.13672">
        <ele>109.62224</ele>
        <time>2015-07-02T12:52:57Z</time>
      </trkpt>
      <trkpt lat="49.24389" lon="1.13672">
        <ele>109.62224</ele>
        <time>2015-07-02T12:53:02Z</time>
      </trkpt>
      <trkpt lat="49.24388" lon="1.13674">
        <ele>109.62224</ele>
        <time>2015-07-02T13:30:55Z</time>
      </trkpt>
      <trkpt lat="49.24388" lon="1.13672">
        <ele>109.62224</ele>
        <time>2015-07-02T13:31:00Z</time>
      </trkpt>
      <trkpt lat="49.24388" lon="1.13672">
        <ele>109.62224</ele>
        <time>2015-07-02T13:31:05Z</time>
      </trkpt>
      <trkpt lat="49.24385" lon="1.13667">
        <ele>109.04382</ele>
        <time>2015-07-02T13:32:20Z</time>
      </trkpt>
      <trkpt lat="49.24385" lon="1.13667">
        <ele>109.04382</ele>
        <time>2015-07-02T13:32:25Z</time>
      </trkpt>
      <trkpt lat="49.24385" lon="1.13666">
        <ele>109.04382</ele>
        <time>2015-07-02T13:37:50Z</time>
      </trkpt>
      <trkpt lat="49.24385" lon="1.13666">
        <ele>109.04382</ele>
        <time>2015-07-02T13:37:55Z</time>
      </trkpt>
      <trkpt lat="49.24386" lon="1.13668">
        <ele>109.04382</ele>
        <time>2015-07-02T13:39:15Z</time>
      </trkpt>
      <trkpt lat="49.24384" lon="1.13674">
        <ele>109.04382</ele>
        <time>2015-07-02T13:39:20Z</time>
      </trkpt>
      <trkpt lat="49.2438" lon="1.13682">
        <ele>107.76412</ele>
        <time>2015-07-02T13:39:25Z</time>
      </trkpt>
      <trkpt lat="49.24377" lon="1.13691">
        <ele>107.76412</ele>
        <time>2015-07-02T13:39:30Z</time>
      </trkpt>
      <trkpt lat="49.24373" lon="1.13703">
        <ele>106.75994</ele>
        <time>2015-07-02T13:39:35Z</time>
      </trkpt>
      <trkpt lat="49.2437" lon="1.13709">
        <ele>106.75994</ele>
        <time>2015-07-02T13:39:40Z</time>
      </trkpt>
      <trkpt lat="49.24368" lon="1.13717">
        <ele>105.85473</ele>
        <time>2015-07-02T13:39:45Z</time>
      </trkpt>
      <trkpt lat="49.24366" lon="1.13725">
        <ele>105.85473</ele>
        <time>2015-07-02T13:39:50Z</time>
      </trkpt>
      <trkpt lat="49.24365" lon="1.13735">
        <ele>105.115135</ele>
        <time>2015-07-02T13:39:55Z</time>
      </trkpt>
      <trkpt lat="49.24365" lon="1.13742">
        <ele>105.115135</ele>
        <time>2015-07-02T13:40:00Z</time>
      </trkpt>
      <trkpt lat="49.24364" lon="1.13757">
        <ele>104.674515</ele>
        <time>2015-07-02T13:40:05Z</time>
      </trkpt>
      <trkpt lat="49.24363" lon="1.13766">
        <ele>104.674515</ele>
        <time>2015-07-02T13:40:10Z</time>
      </trkpt>
      <trkpt lat="49.24362" lon="1.13778">
        <ele>104.56905</ele>
        <time>2015-07-02T13:40:15Z</time>
      </trkpt>
      <trkpt lat="49.24362" lon="1.13784">
        <ele>104.56905</ele>
        <time>2015-07-02T13:40:20Z</time>
      </trkpt>
      <trkpt lat="49.24363" lon="1.13794">
        <ele>104.78809</ele>
        <time>2015-07-02T13:40:25Z</time>
      </trkpt>
      <trkpt lat="49.24364" lon="1.13801">
        <ele>104.78809</ele>
        <time>2015-07-02T13:40:30Z</time>
      </trkpt>
      <trkpt lat="49.24365" lon="1.13811">
        <ele>105.16231</ele>
        <time>2015-07-02T13:40:35Z</time>
      </trkpt>
      <trkpt lat="49.24364" lon="1.1382">
        <ele>105.16231</ele>
        <time>2015-07-02T13:40:40Z</time>
      </trkpt>
      <trkpt lat="49.24363" lon="1.1383">
        <ele>105.60639</ele>
        <time>2015-07-02T13:40:45Z</time>
      </trkpt>
      <trkpt lat="49.24364" lon="1.13834">
        <ele>105.60639</ele>
        <time>2015-07-02T13:40:50Z</time>
      </trkpt>
      <trkpt lat="49.24363" lon="1.13846">
        <ele>106.055504</ele>
        <time>2015-07-02T13:40:55Z</time>
      </trkpt>
      <trkpt lat="49.24362" lon="1.13858">
        <ele>106.055504</ele>
        <time>2015-07-02T13:41:00Z</time>
      </trkpt>
      <trkpt lat="49.24363" lon="1.13866">
        <ele>106.42073</ele>
        <time>2015-07-02T13:41:05Z</time>
      </trkpt>
      <trkpt lat="49.24363" lon="1.13873">
        <ele>106.42073</ele>
        <time>2015-07-02T13:41:10Z</time>
      </trkpt>
      <trkpt lat="49.24364" lon="1.13886">
        <ele>106.764046</ele>
        <time>2015-07-02T13:41:15Z</time>
      </trkpt>
      <trkpt lat="49.24362" lon="1.13895">
        <ele>106.764046</ele>
        <time>2015-07-02T13:41:20Z</time>
      </trkpt>
      <trkpt lat="49.24361" lon="1.13905">
        <ele>107.11408</ele>
        <time>2015-07-02T13:41:25Z</time>
      </trkpt>
      <trkpt lat="49.24361" lon="1.1391">
        <ele>107.11408</ele>
        <time>2015-07-02T13:41:30Z</time>
      </trkpt>
      <trkpt lat="49.24359" lon="1.13922">
        <ele>107.55503</ele>
        <time>2015-07-02T13:41:35Z</time>
      </trkpt>
      <trkpt lat="49.24359" lon="1.13931">
        <ele>107.55503</ele>
        <time>2015-07-02T13:41:40Z</time>
      </trkpt>
      <trkpt lat="49.24358" lon="1.13946">
        <ele>108.10701</ele>
        <time>2015-07-02T13:41:45Z</time>
      </trkpt>
      <trkpt lat="49.24358" lon="1.13951">
        <ele>108.10701</ele>
        <time>2015-07-02T13:41:50Z</time>
      </trkpt>
      <trkpt lat="49.24357" lon="1.13963">
        <ele>108.70189</ele>
        <time>2015-07-02T13:41:55Z</time>
      </trkpt>
      <trkpt lat="49.24357" lon="1.13967">
        <ele>108.70189</ele>
        <time>2015-07-02T13:42:00Z</time>
      </trkpt>
      <trkpt lat="49.24356" lon="1.13974">
        <ele>108.70189</ele>
        <time>2015-07-02T13:42:05Z</time>
      </trkpt>
      <trkpt lat="49.24354" lon="1.13983">
        <ele>109.23322</ele>
        <time>2015-07-02T13:42:10Z</time>
      </trkpt>
      <trkpt lat="49.24353" lon="1.13985">
        <ele>109.23322</ele>
        <time>2015-07-02T13:42:15Z</time>
      </trkpt>
      <trkpt lat="49.24353" lon="1.13988">
        <ele>109.23322</ele>
        <time>2015-07-02T13:42:20Z</time>
      </trkpt>
      <trkpt lat="49.24353" lon="1.13991">
        <ele>109.23322</ele>
        <time>2015-07-02T13:42:25Z</time>
      </trkpt>
      <trkpt lat="49.24351" lon="1.13993">
        <ele>109.23322</ele>
        <time>2015-07-02T13:42:30Z</time>
      </trkpt>
      <trkpt lat="49.24351" lon="1.13993">
        <ele>109.23322</ele>
        <time>2015-07-02T13:42:35Z</time>
      </trkpt>
      <trkpt lat="49.24352" lon="1.13993">
        <ele>109.66024</ele>
        <time>2015-07-02T13:42:40Z</time>
      </trkpt>
      <trkpt lat="49.24353" lon="1.13993">
        <ele>109.66024</ele>
        <time>2015-07-02T13:42:45Z</time>
      </trkpt>
      <trkpt lat="49.24353" lon="1.13993">
        <ele>109.66024</ele>
        <time>2015-07-02T13:42:50Z</time>
      </trkpt>
      <trkpt lat="49.24357" lon="1.13998">
        <ele>109.66024</ele>
        <time>2015-07-02T13:43:05Z</time>
      </trkpt>
      <trkpt lat="49.24364" lon="1.14005">
        <ele>110.93986</ele>
        <time>2015-07-02T13:43:10Z</time>
      </trkpt>
      <trkpt lat="49.24371" lon="1.14013">
        <ele>110.93986</ele>
        <time>2015-07-02T13:43:15Z</time>
      </trkpt>
      <trkpt lat="49.24377" lon="1.1402">
        <ele>112.68816</ele>
        <time>2015-07-02T13:43:20Z</time>
      </trkpt>
      <trkpt lat="49.24381" lon="1.14022">
        <ele>112.68816</ele>
        <time>2015-07-02T13:43:25Z</time>
      </trkpt>
      <trkpt lat="49.24385" lon="1.14024">
        <ele>112.68816</ele>
        <time>2015-07-02T13:43:30Z</time>
      </trkpt>
      <trkpt lat="49.24393" lon="1.14027">
        <ele>114.82199</ele>
        <time>2015-07-02T13:43:35Z</time>
      </trkpt>
      <trkpt lat="49.24399" lon="1.14029">
        <ele>114.82199</ele>
        <time>2015-07-02T13:43:40Z</time>
      </trkpt>
      <trkpt lat="49.24404" lon="1.1403">
        <ele>116.98948</ele>
        <time>2015-07-02T13:43:45Z</time>
      </trkpt>
      <trkpt lat="49.24406" lon="1.1403">
        <ele>116.98948</ele>
        <time>2015-07-02T13:43:50Z</time>
      </trkpt>
      <trkpt lat="49.24417" lon="1.14032">
        <ele>119.06632</ele>
        <time>2015-07-02T13:43:55Z</time>
      </trkpt>
      <trkpt lat="49.24423" lon="1.14034">
        <ele>119.06632</ele>
        <time>2015-07-02T13:44:00Z</time>
      </trkpt>
      <trkpt lat="49.2443" lon="1.14036">
        <ele>120.88005</ele>
        <time>2015-07-02T13:44:05Z</time>
      </trkpt>
      <trkpt lat="49.24435" lon="1.14037">
        <ele>120.88005</ele>
        <time>2015-07-02T13:44:10Z</time>
      </trkpt>
      <trkpt lat="49.24443" lon="1.14041">
        <ele>122.415825</ele>
        <time>2015-07-02T13:44:15Z</time>
      </trkpt>
      <trkpt lat="49.24445" lon="1.14044">
        <ele>122.415825</ele>
        <time>2015-07-02T13:44:20Z</time>
      </trkpt>
      <trkpt lat="49.24451" lon="1.14048">
        <ele>123.8193</ele>
        <time>2015-07-02T13:44:25Z</time>
      </trkpt>
      <trkpt lat="49.24456" lon="1.1405">
        <ele>123.8193</ele>
        <time>2015-07-02T13:44:30Z</time>
      </trkpt>
      <trkpt lat="49.24469" lon="1.14054">
        <ele>125.05297</ele>
        <time>2015-07-02T13:44:35Z</time>
      </trkpt>
      <trkpt lat="49.24474" lon="1.14057">
        <ele>125.05297</ele>
        <time>2015-07-02T13:44:40Z</time>
      </trkpt>
      <trkpt lat="49.2448" lon="1.14059">
        <ele>126.16916</ele>
        <time>2015-07-02T13:44:45Z</time>
      </trkpt>
      <trkpt lat="49.24484" lon="1.1406">
        <ele>126.16916</ele>
        <time>2015-07-02T13:44:50Z</time>
      </trkpt>
      <trkpt lat="49.24489" lon="1.14065">
        <ele>127.08709</ele>
        <time>2015-07-02T13:44:55Z</time>
      </trkpt>
      <trkpt lat="49.24494" lon="1.14068">
        <ele>127.08709</ele>
        <time>2015-07-02T13:45:00Z</time>
      </trkpt>
      <trkpt lat="49.24502" lon="1.14071">
        <ele>127.73259</ele>
        <time>2015-07-02T13:45:05Z</time>
      </trkpt>
      <trkpt lat="49.24505" lon="1.14072">
        <ele>127.73259</ele>
        <time>2015-07-02T13:45:10Z</time>
      </trkpt>
      <trkpt lat="49.24512" lon="1.14075">
        <ele>128.16753</ele>
        <time>2015-07-02T13:45:15Z</time>
      </trkpt>
      <trkpt lat="49.24516" lon="1.14079">
        <ele>128.16753</ele>
        <time>2015-07-02T13:45:20Z</time>
      </trkpt>
      <trkpt lat="49.24525" lon="1.14085">
        <ele>128.56519</ele>
        <time>2015-07-02T13:45:25Z</time>
      </trkpt>
      <trkpt lat="49.24531" lon="1.14086">
        <ele>128.56519</ele>
        <time>2015-07-02T13:45:30Z</time>
      </trkpt>
      <trkpt lat="49.24535" lon="1.14089">
        <ele>128.82697</ele>
        <time>2015-07-02T13:45:35Z</time>
      </trkpt>
      <trkpt lat="49.24539" lon="1.1409">
        <ele>128.82697</ele>
        <time>2015-07-02T13:45:40Z</time>
      </trkpt>
      <trkpt lat="49.24542" lon="1.14091">
        <ele>128.82697</ele>
        <time>2015-07-02T13:45:45Z</time>
      </trkpt>
      <trkpt lat="49.24547" lon="1.14093">
        <ele>128.91963</ele>
        <time>2015-07-02T13:45:50Z</time>
      </trkpt>
      <trkpt lat="49.24559" lon="1.14095">
        <ele>128.79851</ele>
        <time>2015-07-02T13:45:55Z</time>
      </trkpt>
      <trkpt lat="49.24562" lon="1.14095">
        <ele>128.79851</ele>
        <time>2015-07-02T13:46:00Z</time>
      </trkpt>
      <trkpt lat="49.24571" lon="1.141">
        <ele>128.5238</ele>
        <time>2015-07-02T13:46:05Z</time>
      </trkpt>
      <trkpt lat="49.24574" lon="1.14103">
        <ele>128.5238</ele>
        <time>2015-07-02T13:46:10Z</time>
      </trkpt>
      <trkpt lat="49.24581" lon="1.14111">
        <ele>128.0365</ele>
        <time>2015-07-02T13:46:15Z</time>
      </trkpt>
      <trkpt lat="49.24584" lon="1.14114">
        <ele>128.0365</ele>
        <time>2015-07-02T13:46:20Z</time>
      </trkpt>
      <trkpt lat="49.24588" lon="1.14117">
        <ele>128.0365</ele>
        <time>2015-07-02T13:46:25Z</time>
      </trkpt>
      <trkpt lat="49.24593" lon="1.14117">
        <ele>127.066376</ele>
        <time>2015-07-02T13:46:30Z</time>
      </trkpt>
      <trkpt lat="49.24599" lon="1.14118">
        <ele>127.066376</ele>
        <time>2015-07-02T13:46:35Z</time>
      </trkpt>
      <trkpt lat="49.24607" lon="1.14117">
        <ele>125.71038</ele>
        <time>2015-07-02T13:46:40Z</time>
      </trkpt>
      <trkpt lat="49.24613" lon="1.14118">
        <ele>125.71038</ele>
        <time>2015-07-02T13:46:45Z</time>
      </trkpt>
      <trkpt lat="49.24617" lon="1.14116">
        <ele>124.20354</ele>
        <time>2015-07-02T13:46:50Z</time>
      </trkpt>
      <trkpt lat="49.24627" lon="1.14122">
        <ele>122.562294</ele>
        <time>2015-07-02T13:46:55Z</time>
      </trkpt>
      <trkpt lat="49.24633" lon="1.14125">
        <ele>122.562294</ele>
        <time>2015-07-02T13:47:00Z</time>
      </trkpt>
      <trkpt lat="49.24637" lon="1.14126">
        <ele>120.80226</ele>
        <time>2015-07-02T13:47:05Z</time>
      </trkpt>
      <trkpt lat="49.24641" lon="1.14128">
        <ele>120.80226</ele>
        <time>2015-07-02T13:47:10Z</time>
      </trkpt>
      <trkpt lat="49.24643" lon="1.14131">
        <ele>120.80226</ele>
        <time>2015-07-02T13:47:15Z</time>
      </trkpt>
      <trkpt lat="49.24649" lon="1.14133">
        <ele>118.75089</ele>
        <time>2015-07-02T13:47:20Z</time>
      </trkpt>
      <trkpt lat="49.24655" lon="1.14136">
        <ele>118.75089</ele>
        <time>2015-07-02T13:47:25Z</time>
      </trkpt>
      <trkpt lat="49.24662" lon="1.14138">
        <ele>116.52289</ele>
        <time>2015-07-02T13:47:30Z</time>
      </trkpt>
      <trkpt lat="49.24668" lon="1.1414">
        <ele>116.52289</ele>
        <time>2015-07-02T13:47:35Z</time>
      </trkpt>
      <trkpt lat="49.24671" lon="1.14142">
        <ele>114.16733</ele>
        <time>2015-07-02T13:47:40Z</time>
      </trkpt>
      <trkpt lat="49.24678" lon="1.14143">
        <ele>114.16733</ele>
        <time>2015-07-02T13:47:45Z</time>
      </trkpt>
      <trkpt lat="49.24681" lon="1.14145">
        <ele>111.6291</ele>
        <time>2015-07-02T13:47:50Z</time>
      </trkpt>
      <trkpt lat="49.24689" lon="1.14145">
        <ele>111.6291</ele>
        <time>2015-07-02T13:47:55Z</time>
      </trkpt>
      <trkpt lat="49.24695" lon="1.14149">
        <ele>108.92961</ele>
        <time>2015-07-02T13:48:00Z</time>
      </trkpt>
      <trkpt lat="49.24703" lon="1.14152">
        <ele>108.92961</ele>
        <time>2015-07-02T13:48:05Z</time>
      </trkpt>
      <trkpt lat="49.24706" lon="1.14152">
        <ele>106.11787</ele>
        <time>2015-07-02T13:48:10Z</time>
      </trkpt>
      <trkpt lat="49.24709" lon="1.14154">
        <ele>106.11787</ele>
        <time>2015-07-02T13:48:15Z</time>
      </trkpt>
      <trkpt lat="49.24712" lon="1.14156">
        <ele>106.11787</ele>
        <time>2015-07-02T13:48:20Z</time>
      </trkpt>
      <trkpt lat="49.24716" lon="1.14158">
        <ele>103.18183</ele>
        <time>2015-07-02T13:48:25Z</time>
      </trkpt>
      <trkpt lat="49.24715" lon="1.14158">
        <ele>103.18183</ele>
        <time>2015-07-02T13:48:30Z</time>
      </trkpt>
      <trkpt lat="49.24714" lon="1.14158">
        <ele>103.18183</ele>
        <time>2015-07-02T13:48:35Z</time>
      </trkpt>
      <trkpt lat="49.24714" lon="1.14158">
        <ele>103.18183</ele>
        <time>2015-07-02T13:48:40Z</time>
      </trkpt>
      <trkpt lat="49.24715" lon="1.14156">
        <ele>103.18183</ele>
        <time>2015-07-02T13:48:45Z</time>
      </trkpt>
      <trkpt lat="49.24716" lon="1.14157">
        <ele>103.18183</ele>
        <time>2015-07-02T13:48:50Z</time>
      </trkpt>
      <trkpt lat="49.24716" lon="1.14157">
        <ele>103.18183</ele>
        <time>2015-07-02T13:48:55Z</time>
      </trkpt>
      <trkpt lat="49.24716" lon="1.14156">
        <ele>103.18183</ele>
        <time>2015-07-02T13:49:00Z</time>
      </trkpt>
      <trkpt lat="49.24716" lon="1.14154">
        <ele>103.18183</ele>
        <time>2015-07-02T13:49:05Z</time>
      </trkpt>
      <trkpt lat="49.24715" lon="1.14156">
        <ele>103.18183</ele>
        <time>2015-07-02T13:49:10Z</time>
      </trkpt>
      <trkpt lat="49.24716" lon="1.14165">
        <ele>99.17382</ele>
        <time>2015-07-02T13:49:15Z</time>
      </trkpt>
      <trkpt lat="49.24717" lon="1.14173">
        <ele>99.17382</ele>
        <time>2015-07-02T13:49:20Z</time>
      </trkpt>
      <trkpt lat="49.24718" lon="1.14182">
        <ele>95.40912</ele>
        <time>2015-07-02T13:49:25Z</time>
      </trkpt>
      <trkpt lat="49.24719" lon="1.14192">
        <ele>95.40912</ele>
        <time>2015-07-02T13:49:30Z</time>
      </trkpt>
      <trkpt lat="49.2472" lon="1.14198">
        <ele>91.88058</ele>
        <time>2015-07-02T13:49:35Z</time>
      </trkpt>
      <trkpt lat="49.2472" lon="1.14202">
        <ele>91.88058</ele>
        <time>2015-07-02T13:49:40Z</time>
      </trkpt>
      <trkpt lat="49.2472" lon="1.14213">
        <ele>88.46543</ele>
        <time>2015-07-02T13:49:45Z</time>
      </trkpt>
      <trkpt lat="49.2472" lon="1.14219">
        <ele>88.46543</ele>
        <time>2015-07-02T13:49:50Z</time>
      </trkpt>
      <trkpt lat="49.24721" lon="1.14232">
        <ele>85.222336</ele>
        <time>2015-07-02T13:49:55Z</time>
      </trkpt>
      <trkpt lat="49.24722" lon="1.14238">
        <ele>85.222336</ele>
        <time>2015-07-02T13:50:00Z</time>
      </trkpt>
      <trkpt lat="49.24724" lon="1.14247">
        <ele>82.23376</ele>
        <time>2015-07-02T13:50:05Z</time>
      </trkpt>
      <trkpt lat="49.24726" lon="1.14252">
        <ele>82.23376</ele>
        <time>2015-07-02T13:50:10Z</time>
      </trkpt>
      <trkpt lat="49.24726" lon="1.14263">
        <ele>79.44546</ele>
        <time>2015-07-02T13:50:15Z</time>
      </trkpt>
      <trkpt lat="49.24729" lon="1.14267">
        <ele>79.44546</ele>
        <time>2015-07-02T13:50:20Z</time>
      </trkpt>
      <trkpt lat="49.24728" lon="1.1428">
        <ele>76.80639</ele>
        <time>2015-07-02T13:50:25Z</time>
      </trkpt>
      <trkpt lat="49.24727" lon="1.14286">
        <ele>76.80639</ele>
        <time>2015-07-02T13:50:30Z</time>
      </trkpt>
      <trkpt lat="49.24727" lon="1.14299">
        <ele>74.42711</ele>
        <time>2015-07-02T13:50:35Z</time>
      </trkpt>
      <trkpt lat="49.24726" lon="1.14305">
        <ele>74.42711</ele>
        <time>2015-07-02T13:50:40Z</time>
      </trkpt>
      <trkpt lat="49.24727" lon="1.14311">
        <ele>74.42711</ele>
        <time>2015-07-02T13:50:45Z</time>
      </trkpt>
      <trkpt lat="49.24727" lon="1.14316">
        <ele>72.279396</ele>
        <time>2015-07-02T13:50:50Z</time>
      </trkpt>
      <trkpt lat="49.24726" lon="1.14329">
        <ele>72.279396</ele>
        <time>2015-07-02T13:50:55Z</time>
      </trkpt>
      <trkpt lat="49.24728" lon="1.14335">
        <ele>70.393845</ele>
        <time>2015-07-02T13:51:00Z</time>
      </trkpt>
      <trkpt lat="49.2473" lon="1.14348">
        <ele>70.393845</ele>
        <time>2015-07-02T13:51:05Z</time>
      </trkpt>
      <trkpt lat="49.2473" lon="1.14356">
        <ele>68.78344</ele>
        <time>2015-07-02T13:51:10Z</time>
      </trkpt>
      <trkpt lat="49.24731" lon="1.14364">
        <ele>68.78344</ele>
        <time>2015-07-02T13:51:15Z</time>
      </trkpt>
      <trkpt lat="49.24731" lon="1.14375">
        <ele>67.44479</ele>
        <time>2015-07-02T13:51:20Z</time>
      </trkpt>
      <trkpt lat="49.2473" lon="1.14382">
        <ele>67.44479</ele>
        <time>2015-07-02T13:51:25Z</time>
      </trkpt>
      <trkpt lat="49.24731" lon="1.1439">
        <ele>66.40261</ele>
        <time>2015-07-02T13:51:30Z</time>
      </trkpt>
      <trkpt lat="49.2473" lon="1.14404">
        <ele>66.40261</ele>
        <time>2015-07-02T13:51:35Z</time>
      </trkpt>
      <trkpt lat="49.2473" lon="1.14412">
        <ele>65.63553</ele>
        <time>2015-07-02T13:51:40Z</time>
      </trkpt>
      <trkpt lat="49.24733" lon="1.14418">
        <ele>65.63553</ele>
        <time>2015-07-02T13:51:45Z</time>
      </trkpt>
      <trkpt lat="49.24734" lon="1.14427">
        <ele>65.151596</ele>
        <time>2015-07-02T13:51:50Z</time>
      </trkpt>
      <trkpt lat="49.24733" lon="1.14442">
        <ele>64.914085</ele>
        <time>2015-07-02T13:51:55Z</time>
      </trkpt>
      <trkpt lat="49.24734" lon="1.14452">
        <ele>64.914085</ele>
        <time>2015-07-02T13:52:00Z</time>
      </trkpt>
      <trkpt lat="49.24734" lon="1.14458">
        <ele>64.93134</ele>
        <time>2015-07-02T13:52:05Z</time>
      </trkpt>
      <trkpt lat="49.24735" lon="1.14465">
        <ele>64.93134</ele>
        <time>2015-07-02T13:52:10Z</time>
      </trkpt>
      <trkpt lat="49.24736" lon="1.14472">
        <ele>65.02292</ele>
        <time>2015-07-02T13:52:15Z</time>
      </trkpt>
      <trkpt lat="49.24738" lon="1.14478">
        <ele>65.02292</ele>
        <time>2015-07-02T13:52:20Z</time>
      </trkpt>
      <trkpt lat="49.24739" lon="1.14487">
        <ele>64.93481</ele>
        <time>2015-07-02T13:52:25Z</time>
      </trkpt>
      <trkpt lat="49.24739" lon="1.14496">
        <ele>64.93481</ele>
        <time>2015-07-02T13:52:30Z</time>
      </trkpt>
      <trkpt lat="49.2474" lon="1.14504">
        <ele>64.792366</ele>
        <time>2015-07-02T13:52:35Z</time>
      </trkpt>
      <trkpt lat="49.24741" lon="1.14509">
        <ele>64.792366</ele>
        <time>2015-07-02T13:52:40Z</time>
      </trkpt>
      <trkpt lat="49.24743" lon="1.14523">
        <ele>64.65415</ele>
        <time>2015-07-02T13:52:45Z</time>
      </trkpt>
      <trkpt lat="49.24742" lon="1.14533">
        <ele>64.65415</ele>
        <time>2015-07-02T13:52:50Z</time>
      </trkpt>
      <trkpt lat="49.24742" lon="1.14545">
        <ele>64.588776</ele>
        <time>2015-07-02T13:52:55Z</time>
      </trkpt>
      <trkpt lat="49.24743" lon="1.14552">
        <ele>64.588776</ele>
        <time>2015-07-02T13:53:00Z</time>
      </trkpt>
      <trkpt lat="49.24743" lon="1.14562">
        <ele>64.501015</ele>
        <time>2015-07-02T13:53:05Z</time>
      </trkpt>
      <trkpt lat="49.24744" lon="1.14572">
        <ele>64.501015</ele>
        <time>2015-07-02T13:53:10Z</time>
      </trkpt>
      <trkpt lat="49.24744" lon="1.14581">
        <ele>64.37472</ele>
        <time>2015-07-02T13:53:15Z</time>
      </trkpt>
      <trkpt lat="49.24745" lon="1.14589">
        <ele>64.37472</ele>
        <time>2015-07-02T13:53:20Z</time>
      </trkpt>
      <trkpt lat="49.24746" lon="1.146">
        <ele>64.25267</ele>
        <time>2015-07-02T13:53:25Z</time>
      </trkpt>
      <trkpt lat="49.24747" lon="1.14608">
        <ele>64.25267</ele>
        <time>2015-07-02T13:53:30Z</time>
      </trkpt>
      <trkpt lat="49.24747" lon="1.1462">
        <ele>64.2177</ele>
        <time>2015-07-02T13:53:35Z</time>
      </trkpt>
      <trkpt lat="49.24748" lon="1.14627">
        <ele>64.2177</ele>
        <time>2015-07-02T13:53:40Z</time>
      </trkpt>
      <trkpt lat="49.24749" lon="1.14639">
        <ele>64.21662</ele>
        <time>2015-07-02T13:53:45Z</time>
      </trkpt>
      <trkpt lat="49.24749" lon="1.14645">
        <ele>64.21662</ele>
        <time>2015-07-02T13:53:50Z</time>
      </trkpt>
      <trkpt lat="49.24749" lon="1.14658">
        <ele>64.24329</ele>
        <time>2015-07-02T13:53:55Z</time>
      </trkpt>
      <trkpt lat="49.2475" lon="1.14664">
        <ele>64.24329</ele>
        <time>2015-07-02T13:54:00Z</time>
      </trkpt>
      <trkpt lat="49.24751" lon="1.14676">
        <ele>64.27758</ele>
        <time>2015-07-02T13:54:05Z</time>
      </trkpt>
      <trkpt lat="49.24752" lon="1.14685">
        <ele>64.27758</ele>
        <time>2015-07-02T13:54:10Z</time>
      </trkpt>
      <trkpt lat="49.24752" lon="1.14693">
        <ele>64.31521</ele>
        <time>2015-07-02T13:54:15Z</time>
      </trkpt>
      <trkpt lat="49.24753" lon="1.14701">
        <ele>64.31521</ele>
        <time>2015-07-02T13:54:20Z</time>
      </trkpt>
      <trkpt lat="49.24753" lon="1.14709">
        <ele>64.48197</ele>
        <time>2015-07-02T13:54:25Z</time>
      </trkpt>
      <trkpt lat="49.24753" lon="1.14721">
        <ele>64.48197</ele>
        <time>2015-07-02T13:54:30Z</time>
      </trkpt>
      <trkpt lat="49.24754" lon="1.14732">
        <ele>64.76441</ele>
        <time>2015-07-02T13:54:35Z</time>
      </trkpt>
      <trkpt lat="49.24754" lon="1.14736">
        <ele>64.76441</ele>
        <time>2015-07-02T13:54:40Z</time>
      </trkpt>
      <trkpt lat="49.24754" lon="1.14747">
        <ele>65.06331</ele>
        <time>2015-07-02T13:54:45Z</time>
      </trkpt>
      <trkpt lat="49.24755" lon="1.14755">
        <ele>65.06331</ele>
        <time>2015-07-02T13:54:50Z</time>
      </trkpt>
      <trkpt lat="49.24755" lon="1.14763">
        <ele>65.402054</ele>
        <time>2015-07-02T13:54:55Z</time>
      </trkpt>
      <trkpt lat="49.24755" lon="1.1477">
        <ele>65.402054</ele>
        <time>2015-07-02T13:55:00Z</time>
      </trkpt>
      <trkpt lat="49.24754" lon="1.14782">
        <ele>65.77344</ele>
        <time>2015-07-02T13:55:05Z</time>
      </trkpt>
      <trkpt lat="49.24755" lon="1.1479">
        <ele>65.77344</ele>
        <time>2015-07-02T13:55:10Z</time>
      </trkpt>
      <trkpt lat="49.24755" lon="1.14802">
        <ele>65.9258</ele>
        <time>2015-07-02T13:55:15Z</time>
      </trkpt>
      <trkpt lat="49.24755" lon="1.14807">
        <ele>65.9258</ele>
        <time>2015-07-02T13:55:20Z</time>
      </trkpt>
      <trkpt lat="49.24754" lon="1.14817">
        <ele>66.14545</ele>
        <time>2015-07-02T13:55:25Z</time>
      </trkpt>
      <trkpt lat="49.24753" lon="1.14818">
        <ele>66.14545</ele>
        <time>2015-07-02T13:55:30Z</time>
      </trkpt>
      <trkpt lat="49.24748" lon="1.1482">
        <ele>66.14545</ele>
        <time>2015-07-02T13:55:35Z</time>
      </trkpt>
      <trkpt lat="49.24747" lon="1.14821">
        <ele>66.14545</ele>
        <time>2015-07-02T13:55:40Z</time>
      </trkpt>
      <trkpt lat="49.24747" lon="1.14828">
        <ele>66.5967</ele>
        <time>2015-07-02T13:55:45Z</time>
      </trkpt>
      <trkpt lat="49.24747" lon="1.14835">
        <ele>66.5967</ele>
        <time>2015-07-02T13:55:50Z</time>
      </trkpt>
      <trkpt lat="49.24748" lon="1.14843">
        <ele>67.08537</ele>
        <time>2015-07-02T13:55:55Z</time>
      </trkpt>
      <trkpt lat="49.24748" lon="1.14847">
        <ele>67.08537</ele>
        <time>2015-07-02T13:56:00Z</time>
      </trkpt>
      <trkpt lat="49.24746" lon="1.14866">
        <ele>67.907104</ele>
        <time>2015-07-02T13:56:05Z</time>
      </trkpt>
      <trkpt lat="49.24744" lon="1.14877">
        <ele>67.907104</ele>
        <time>2015-07-02T13:56:10Z</time>
      </trkpt>
      <trkpt lat="49.24741" lon="1.14889">
        <ele>69.061195</ele>
        <time>2015-07-02T13:56:15Z</time>
      </trkpt>
      <trkpt lat="49.2474" lon="1.14901">
        <ele>69.061195</ele>
        <time>2015-07-02T13:56:20Z</time>
      </trkpt>
      <trkpt lat="49.2474" lon="1.14908">
        <ele>70.63263</ele>
        <time>2015-07-02T13:56:25Z</time>
      </trkpt>
      <trkpt lat="49.24739" lon="1.14913">
        <ele>70.63263</ele>
        <time>2015-07-02T13:56:30Z</time>
      </trkpt>
      <trkpt lat="49.24738" lon="1.1492">
        <ele>70.63263</ele>
        <time>2015-07-02T13:56:35Z</time>
      </trkpt>
      <trkpt lat="49.24736" lon="1.14928">
        <ele>72.48294</ele>
        <time>2015-07-02T13:56:40Z</time>
      </trkpt>
      <trkpt lat="49.24735" lon="1.14937">
        <ele>72.48294</ele>
        <time>2015-07-02T13:56:45Z</time>
      </trkpt>
      <trkpt lat="49.24735" lon="1.14947">
        <ele>74.45438</ele>
        <time>2015-07-02T13:56:50Z</time>
      </trkpt>
      <trkpt lat="49.24734" lon="1.14957">
        <ele>74.45438</ele>
        <time>2015-07-02T13:56:55Z</time>
      </trkpt>
      <trkpt lat="49.24734" lon="1.14962">
        <ele>76.371735</ele>
        <time>2015-07-02T13:57:00Z</time>
      </trkpt>
      <trkpt lat="49.24732" lon="1.14972">
        <ele>76.371735</ele>
        <time>2015-07-02T13:57:05Z</time>
      </trkpt>
      <trkpt lat="49.24731" lon="1.14979">
        <ele>77.98654</ele>
        <time>2015-07-02T13:57:10Z</time>
      </trkpt>
      <trkpt lat="49.24727" lon="1.14989">
        <ele>77.98654</ele>
        <time>2015-07-02T13:57:15Z</time>
      </trkpt>
      <trkpt lat="49.24724" lon="1.14996">
        <ele>79.40105</ele>
        <time>2015-07-02T13:57:20Z</time>
      </trkpt>
      <trkpt lat="49.24721" lon="1.15008">
        <ele>79.40105</ele>
        <time>2015-07-02T13:57:25Z</time>
      </trkpt>
      <trkpt lat="49.24718" lon="1.15016">
        <ele>80.60985</ele>
        <time>2015-07-02T13:57:30Z</time>
      </trkpt>
      <trkpt lat="49.24717" lon="1.15026">
        <ele>80.60985</ele>
        <time>2015-07-02T13:57:35Z</time>
      </trkpt>
      <trkpt lat="49.24714" lon="1.15033">
        <ele>81.68073</ele>
        <time>2015-07-02T13:57:40Z</time>
      </trkpt>
      <trkpt lat="49.24711" lon="1.15046">
        <ele>82.69151</ele>
        <time>2015-07-02T13:57:45Z</time>
      </trkpt>
      <trkpt lat="49.2471" lon="1.1505">
        <ele>82.69151</ele>
        <time>2015-07-02T13:57:50Z</time>
      </trkpt>
      <trkpt lat="49.24707" lon="1.15058">
        <ele>82.69151</ele>
        <time>2015-07-02T13:57:55Z</time>
      </trkpt>
      <trkpt lat="49.24706" lon="1.15064">
        <ele>83.642555</ele>
        <time>2015-07-02T13:58:00Z</time>
      </trkpt>
      <trkpt lat="49.24703" lon="1.15072">
        <ele>83.642555</ele>
        <time>2015-07-02T13:58:05Z</time>
      </trkpt>
      <trkpt lat="49.247" lon="1.15082">
        <ele>84.4625</ele>
        <time>2015-07-02T13:58:10Z</time>
      </trkpt>
      <trkpt lat="49.24697" lon="1.15092">
        <ele>84.4625</ele>
        <time>2015-07-02T13:58:15Z</time>
      </trkpt>
      <trkpt lat="49.24693" lon="1.15098">
        <ele>85.15783</ele>
        <time>2015-07-02T13:58:20Z</time>
      </trkpt>
      <trkpt lat="49.24689" lon="1.15109">
        <ele>85.15783</ele>
        <time>2015-07-02T13:58:25Z</time>
      </trkpt>
      <trkpt lat="49.24689" lon="1.15113">
        <ele>85.69183</ele>
        <time>2015-07-02T13:58:30Z</time>
      </trkpt>
      <trkpt lat="49.24685" lon="1.15122">
        <ele>85.69183</ele>
        <time>2015-07-02T13:58:35Z</time>
      </trkpt>
      <trkpt lat="49.24682" lon="1.15127">
        <ele>86.0023</ele>
        <time>2015-07-02T13:58:40Z</time>
      </trkpt>
      <trkpt lat="49.24678" lon="1.15136">
        <ele>86.0023</ele>
        <time>2015-07-02T13:58:45Z</time>
      </trkpt>
      <trkpt lat="49.24676" lon="1.15143">
        <ele>86.090004</ele>
        <time>2015-07-02T13:58:50Z</time>
      </trkpt>
      <trkpt lat="49.24674" lon="1.15152">
        <ele>86.090004</ele>
        <time>2015-07-02T13:58:55Z</time>
      </trkpt>
      <trkpt lat="49.2467" lon="1.15162">
        <ele>86.1438</ele>
        <time>2015-07-02T13:59:00Z</time>
      </trkpt>
      <trkpt lat="49.24667" lon="1.1517">
        <ele>86.1438</ele>
        <time>2015-07-02T13:59:05Z</time>
      </trkpt>
      <trkpt lat="49.24665" lon="1.15176">
        <ele>86.10833</ele>
        <time>2015-07-02T13:59:10Z</time>
      </trkpt>
      <trkpt lat="49.24659" lon="1.15189">
        <ele>85.9903</ele>
        <time>2015-07-02T13:59:15Z</time>
      </trkpt>
      <trkpt lat="49.24656" lon="1.15191">
        <ele>85.9903</ele>
        <time>2015-07-02T13:59:20Z</time>
      </trkpt>
      <trkpt lat="49.2465" lon="1.15201">
        <ele>85.88279</ele>
        <time>2015-07-02T13:59:25Z</time>
      </trkpt>
      <trkpt lat="49.24648" lon="1.15205">
        <ele>85.88279</ele>
        <time>2015-07-02T13:59:30Z</time>
      </trkpt>
      <trkpt lat="49.24646" lon="1.15211">
        <ele>85.88279</ele>
        <time>2015-07-02T13:59:35Z</time>
      </trkpt>
      <trkpt lat="49.24647" lon="1.15212">
        <ele>85.872086</ele>
        <time>2015-07-02T13:59:40Z</time>
      </trkpt>
      <trkpt lat="49.24647" lon="1.15214">
        <ele>85.872086</ele>
        <time>2015-07-02T13:59:45Z</time>
      </trkpt>
      <trkpt lat="49.24647" lon="1.15216">
        <ele>85.872086</ele>
        <time>2015-07-02T13:59:50Z</time>
      </trkpt>
      <trkpt lat="49.24647" lon="1.15216">
        <ele>85.872086</ele>
        <time>2015-07-02T13:59:55Z</time>
      </trkpt>
      <trkpt lat="49.24647" lon="1.15219">
        <ele>85.872086</ele>
        <time>2015-07-02T14:00:00Z</time>
      </trkpt>
      <trkpt lat="49.24647" lon="1.1522">
        <ele>85.872086</ele>
        <time>2015-07-02T14:00:05Z</time>
      </trkpt>
      <trkpt lat="49.24646" lon="1.15221">
        <ele>85.872086</ele>
        <time>2015-07-02T14:00:10Z</time>
      </trkpt>
      <trkpt lat="49.24648" lon="1.15221">
        <ele>85.872086</ele>
        <time>2015-07-02T14:00:15Z</time>
      </trkpt>
      <trkpt lat="49.24649" lon="1.15222">
        <ele>84.84184</ele>
        <time>2015-07-02T14:00:20Z</time>
      </trkpt>
      <trkpt lat="49.24651" lon="1.15222">
        <ele>84.84184</ele>
        <time>2015-07-02T14:00:25Z</time>
      </trkpt>
      <trkpt lat="49.24655" lon="1.1522">
        <ele>84.84184</ele>
        <time>2015-07-02T14:00:30Z</time>
      </trkpt>
      <trkpt lat="49.24655" lon="1.15219">
        <ele>84.84184</ele>
        <time>2015-07-02T14:00:35Z</time>
      </trkpt>
      <trkpt lat="49.24655" lon="1.15218">
        <ele>84.84184</ele>
        <time>2015-07-02T14:00:40Z</time>
      </trkpt>
      <trkpt lat="49.24656" lon="1.15218">
        <ele>84.84184</ele>
        <time>2015-07-02T14:00:45Z</time>
      </trkpt>
      <trkpt lat="49.24656" lon="1.1522">
        <ele>83.54766</ele>
        <time>2015-07-02T14:00:50Z</time>
      </trkpt>
      <trkpt lat="49.24655" lon="1.15219">
        <ele>83.54766</ele>
        <time>2015-07-02T14:00:55Z</time>
      </trkpt>
      <trkpt lat="49.24654" lon="1.15217">
        <ele>83.54766</ele>
        <time>2015-07-02T14:01:00Z</time>
      </trkpt>
      <trkpt lat="49.24653" lon="1.15218">
        <ele>83.54766</ele>
        <time>2015-07-02T14:01:05Z</time>
      </trkpt>
      <trkpt lat="49.2465" lon="1.15218">
        <ele>83.54766</ele>
        <time>2015-07-02T14:01:10Z</time>
      </trkpt>
      <trkpt lat="49.24649" lon="1.15218">
        <ele>83.54766</ele>
        <time>2015-07-02T14:01:15Z</time>
      </trkpt>
      <trkpt lat="49.24649" lon="1.15218">
        <ele>83.54766</ele>
        <time>2015-07-02T14:01:20Z</time>
      </trkpt>
      <trkpt lat="49.24649" lon="1.15218">
        <ele>83.54766</ele>
        <time>2015-07-02T14:01:25Z</time>
      </trkpt>
      <trkpt lat="49.2465" lon="1.15218">
        <ele>82.099594</ele>
        <time>2015-07-02T14:02:00Z</time>
      </trkpt>
      <trkpt lat="49.24652" lon="1.1522">
        <ele>82.099594</ele>
        <time>2015-07-02T14:02:05Z</time>
      </trkpt>
      <trkpt lat="49.24654" lon="1.15221">
        <ele>82.099594</ele>
        <time>2015-07-02T14:02:10Z</time>
      </trkpt>
      <trkpt lat="49.24658" lon="1.15225">
        <ele>80.484795</ele>
        <time>2015-07-02T14:02:15Z</time>
      </trkpt>
      <trkpt lat="49.24668" lon="1.15232">
        <ele>78.95126</ele>
        <time>2015-07-02T14:02:20Z</time>
      </trkpt>
      <trkpt lat="49.24681" lon="1.15245">
        <ele>77.555664</ele>
        <time>2015-07-02T14:02:25Z</time>
      </trkpt>
      <trkpt lat="49.24688" lon="1.15254">
        <ele>77.555664</ele>
        <time>2015-07-02T14:02:30Z</time>
      </trkpt>
      <trkpt lat="49.24696" lon="1.15259">
        <ele>76.40772</ele>
        <time>2015-07-02T14:02:35Z</time>
      </trkpt>
      <trkpt lat="49.24703" lon="1.15263">
        <ele>76.40772</ele>
        <time>2015-07-02T14:02:40Z</time>
      </trkpt>
      <trkpt lat="49.24711" lon="1.15265">
        <ele>75.33463</ele>
        <time>2015-07-02T14:02:45Z</time>
      </trkpt>
      <trkpt lat="49.24714" lon="1.15266">
        <ele>75.33463</ele>
        <time>2015-07-02T14:02:50Z</time>
      </trkpt>
      <trkpt lat="49.24717" lon="1.15267">
        <ele>75.33463</ele>
        <time>2015-07-02T14:02:55Z</time>
      </trkpt>
      <trkpt lat="49.24721" lon="1.15269">
        <ele>74.19042</ele>
        <time>2015-07-02T14:03:00Z</time>
      </trkpt>
      <trkpt lat="49.24732" lon="1.15274">
        <ele>73.157074</ele>
        <time>2015-07-02T14:03:05Z</time>
      </trkpt>
      <trkpt lat="49.24735" lon="1.15276">
        <ele>73.157074</ele>
        <time>2015-07-02T14:03:10Z</time>
      </trkpt>
      <trkpt lat="49.24738" lon="1.15278">
        <ele>73.157074</ele>
        <time>2015-07-02T14:03:15Z</time>
      </trkpt>
      <trkpt lat="49.24745" lon="1.15285">
        <ele>72.0714</ele>
        <time>2015-07-02T14:03:20Z</time>
      </trkpt>
      <trkpt lat="49.24751" lon="1.15287">
        <ele>72.0714</ele>
        <time>2015-07-02T14:03:25Z</time>
      </trkpt>
      <trkpt lat="49.24758" lon="1.15291">
        <ele>71.0561</ele>
        <time>2015-07-02T14:03:30Z</time>
      </trkpt>
      <trkpt lat="49.24758" lon="1.15291">
        <ele>71.0561</ele>
        <time>2015-07-02T14:03:35Z</time>
      </trkpt>
      <trkpt lat="49.24763" lon="1.15282">
        <ele>71.0561</ele>
        <time>2015-07-02T14:03:40Z</time>
      </trkpt>
      <trkpt lat="49.24764" lon="1.15283">
        <ele>70.066086</ele>
        <time>2015-07-02T14:03:45Z</time>
      </trkpt>
      <trkpt lat="49.24764" lon="1.15283">
        <ele>70.066086</ele>
        <time>2015-07-02T14:03:50Z</time>
      </trkpt>
      <trkpt lat="49.24766" lon="1.15284">
        <ele>70.066086</ele>
        <time>2015-07-02T14:03:55Z</time>
      </trkpt>
      <trkpt lat="49.24767" lon="1.15292">
        <ele>70.066086</ele>
        <time>2015-07-02T14:04:00Z</time>
      </trkpt>
      <trkpt lat="49.24771" lon="1.15295">
        <ele>68.51183</ele>
        <time>2015-07-02T14:04:05Z</time>
      </trkpt>
      <trkpt lat="49.24772" lon="1.15296">
        <ele>68.51183</ele>
        <time>2015-07-02T14:04:10Z</time>
      </trkpt>
      <trkpt lat="49.24775" lon="1.15298">
        <ele>68.51183</ele>
        <time>2015-07-02T14:04:15Z</time>
      </trkpt>
      <trkpt lat="49.24781" lon="1.15301">
        <ele>66.79977</ele>
        <time>2015-07-02T14:04:20Z</time>
      </trkpt>
      <trkpt lat="49.24784" lon="1.15304">
        <ele>66.79977</ele>
        <time>2015-07-02T14:04:25Z</time>
      </trkpt>
      <trkpt lat="49.24795" lon="1.15307">
        <ele>65.04741</ele>
        <time>2015-07-02T14:04:30Z</time>
      </trkpt>
      <trkpt lat="49.24803" lon="1.15317">
        <ele>63.40694</ele>
        <time>2015-07-02T14:04:35Z</time>
      </trkpt>
      <trkpt lat="49.24807" lon="1.15319">
        <ele>63.40694</ele>
        <time>2015-07-02T14:04:40Z</time>
      </trkpt>
      <trkpt lat="49.24814" lon="1.15323">
        <ele>61.932465</ele>
        <time>2015-07-02T14:04:45Z</time>
      </trkpt>
      <trkpt lat="49.24819" lon="1.15325">
        <ele>61.932465</ele>
        <time>2015-07-02T14:04:50Z</time>
      </trkpt>
      <trkpt lat="49.24824" lon="1.15328">
        <ele>60.630318</ele>
        <time>2015-07-02T14:04:55Z</time>
      </trkpt>
      <trkpt lat="49.24828" lon="1.1533">
        <ele>60.630318</ele>
        <time>2015-07-02T14:05:00Z</time>
      </trkpt>
      <trkpt lat="49.24836" lon="1.15334">
        <ele>59.2608</ele>
        <time>2015-07-02T14:05:05Z</time>
      </trkpt>
      <trkpt lat="49.24841" lon="1.15338">
        <ele>59.2608</ele>
        <time>2015-07-02T14:05:10Z</time>
      </trkpt>
      <trkpt lat="49.24849" lon="1.15341">
        <ele>58.019814</ele>
        <time>2015-07-02T14:05:15Z</time>
      </trkpt>
      <trkpt lat="49.2485" lon="1.15343">
        <ele>58.019814</ele>
        <time>2015-07-02T14:05:20Z</time>
      </trkpt>
      <trkpt lat="49.24855" lon="1.15344">
        <ele>58.019814</ele>
        <time>2015-07-02T14:05:25Z</time>
      </trkpt>
      <trkpt lat="49.24859" lon="1.15346">
        <ele>56.756954</ele>
        <time>2015-07-02T14:05:30Z</time>
      </trkpt>
      <trkpt lat="49.24862" lon="1.15348">
        <ele>56.756954</ele>
        <time>2015-07-02T14:05:35Z</time>
      </trkpt>
      <trkpt lat="49.24864" lon="1.15348">
        <ele>56.756954</ele>
        <time>2015-07-02T14:05:40Z</time>
      </trkpt>
      <trkpt lat="49.24866" lon="1.15349">
        <ele>56.756954</ele>
        <time>2015-07-02T14:05:45Z</time>
      </trkpt>
      <trkpt lat="49.24869" lon="1.1535">
        <ele>55.621033</ele>
        <time>2015-07-02T14:05:50Z</time>
      </trkpt>
      <trkpt lat="49.24871" lon="1.15352">
        <ele>55.621033</ele>
        <time>2015-07-02T14:05:55Z</time>
      </trkpt>
      <trkpt lat="49.24872" lon="1.15353">
        <ele>55.621033</ele>
        <time>2015-07-02T14:06:00Z</time>
      </trkpt>
      <trkpt lat="49.24875" lon="1.15355">
        <ele>55.621033</ele>
        <time>2015-07-02T14:06:05Z</time>
      </trkpt>
      <trkpt lat="49.24875" lon="1.15356">
        <ele>55.621033</ele>
        <time>2015-07-02T14:06:10Z</time>
      </trkpt>
      <trkpt lat="49.24876" lon="1.1536">
        <ele>54.792686</ele>
        <time>2015-07-02T14:06:15Z</time>
      </trkpt>
      <trkpt lat="49.24877" lon="1.15361">
        <ele>54.792686</ele>
        <time>2015-07-02T14:06:20Z</time>
      </trkpt>
      <trkpt lat="49.24877" lon="1.15361">
        <ele>54.792686</ele>
        <time>2015-07-02T14:06:25Z</time>
      </trkpt>
      <trkpt lat="49.24878" lon="1.15362">
        <ele>54.792686</ele>
        <time>2015-07-02T14:06:30Z</time>
      </trkpt>
      <trkpt lat="49.24879" lon="1.15363">
        <ele>54.792686</ele>
        <time>2015-07-02T14:06:35Z</time>
      </trkpt>
      <trkpt lat="49.24879" lon="1.15363">
        <ele>54.792686</ele>
        <time>2015-07-02T14:06:40Z</time>
      </trkpt>
      <trkpt lat="49.2488" lon="1.15363">
        <ele>54.792686</ele>
        <time>2015-07-02T14:06:45Z</time>
      </trkpt>
      <trkpt lat="49.24885" lon="1.15367">
        <ele>54.76978</ele>
        <time>2015-07-02T14:06:50Z</time>
      </trkpt>
      <trkpt lat="49.2489" lon="1.15367">
        <ele>54.76978</ele>
        <time>2015-07-02T14:06:55Z</time>
      </trkpt>
      <trkpt lat="49.24892" lon="1.15368">
        <ele>54.76978</ele>
        <time>2015-07-02T14:07:00Z</time>
      </trkpt>
      <trkpt lat="49.249" lon="1.1537">
        <ele>55.319504</ele>
        <time>2015-07-02T14:07:05Z</time>
      </trkpt>
      <trkpt lat="49.24906" lon="1.15372">
        <ele>55.319504</ele>
        <time>2015-07-02T14:07:10Z</time>
      </trkpt>
      <trkpt lat="49.2491" lon="1.15372">
        <ele>56.152386</ele>
        <time>2015-07-02T14:07:15Z</time>
      </trkpt>
      <trkpt lat="49.24911" lon="1.15374">
        <ele>56.152386</ele>
        <time>2015-07-02T14:07:20Z</time>
      </trkpt>
      <trkpt lat="49.24913" lon="1.15374">
        <ele>56.152386</ele>
        <time>2015-07-02T14:07:25Z</time>
      </trkpt>
      <trkpt lat="49.24914" lon="1.15375">
        <ele>56.152386</ele>
        <time>2015-07-02T14:07:30Z</time>
      </trkpt>
      <trkpt lat="49.24914" lon="1.15375">
        <ele>56.152386</ele>
        <time>2015-07-02T14:07:35Z</time>
      </trkpt>
      <trkpt lat="49.24915" lon="1.15376">
        <ele>56.152386</ele>
        <time>2015-07-02T14:07:45Z</time>
      </trkpt>
      <trkpt lat="49.24915" lon="1.15376">
        <ele>56.152386</ele>
        <time>2015-07-02T14:07:50Z</time>
      </trkpt>
      <trkpt lat="49.24915" lon="1.15376">
        <ele>56.152386</ele>
        <time>2015-07-02T14:07:55Z</time>
      </trkpt>
      <trkpt lat="49.24915" lon="1.15376">
        <ele>56.152386</ele>
        <time>2015-07-02T14:08:00Z</time>
      </trkpt>
      <trkpt lat="49.24917" lon="1.15377">
        <ele>56.152386</ele>
        <time>2015-07-02T14:08:25Z</time>
      </trkpt>
      <trkpt lat="49.2492" lon="1.15379">
        <ele>58.109013</ele>
        <time>2015-07-02T14:08:30Z</time>
      </trkpt>
      <trkpt lat="49.2492" lon="1.15379">
        <ele>58.109013</ele>
        <time>2015-07-02T14:08:35Z</time>
      </trkpt>
      <trkpt lat="49.24925" lon="1.1538">
        <ele>58.109013</ele>
        <time>2015-07-02T14:08:45Z</time>
      </trkpt>
      <trkpt lat="49.24926" lon="1.15381">
        <ele>58.109013</ele>
        <time>2015-07-02T14:08:50Z</time>
      </trkpt>
      <trkpt lat="49.24926" lon="1.15381">
        <ele>58.109013</ele>
        <time>2015-07-02T14:08:55Z</time>
      </trkpt>
      <trkpt lat="49.24927" lon="1.15381">
        <ele>58.109013</ele>
        <time>2015-07-02T14:09:00Z</time>
      </trkpt>
      <trkpt lat="49.2493" lon="1.15383">
        <ele>60.927402</ele>
        <time>2015-07-02T14:09:05Z</time>
      </trkpt>
      <trkpt lat="49.24934" lon="1.15386">
        <ele>60.927402</ele>
        <time>2015-07-02T14:09:10Z</time>
      </trkpt>
      <trkpt lat="49.24937" lon="1.1539">
        <ele>60.927402</ele>
        <time>2015-07-02T14:09:15Z</time>
      </trkpt>
      <trkpt lat="49.24939" lon="1.15392">
        <ele>63.930027</ele>
        <time>2015-07-02T14:09:20Z</time>
      </trkpt>
      <trkpt lat="49.24941" lon="1.15394">
        <ele>63.930027</ele>
        <time>2015-07-02T14:09:25Z</time>
      </trkpt>
      <trkpt lat="49.24947" lon="1.15398">
        <ele>63.930027</ele>
        <time>2015-07-02T14:09:30Z</time>
      </trkpt>
      <trkpt lat="49.24949" lon="1.15401">
        <ele>67.07946</ele>
        <time>2015-07-02T14:09:35Z</time>
      </trkpt>
      <trkpt lat="49.24952" lon="1.15402">
        <ele>67.07946</ele>
        <time>2015-07-02T14:09:40Z</time>
      </trkpt>
      <trkpt lat="49.24956" lon="1.15403">
        <ele>67.07946</ele>
        <time>2015-07-02T14:09:45Z</time>
      </trkpt>
      <trkpt lat="49.24957" lon="1.15402">
        <ele>67.07946</ele>
        <time>2015-07-02T14:09:50Z</time>
      </trkpt>
      <trkpt lat="49.24957" lon="1.15402">
        <ele>67.07946</ele>
        <time>2015-07-02T14:09:55Z</time>
      </trkpt>
      <trkpt lat="49.24957" lon="1.15402">
        <ele>67.07946</ele>
        <time>2015-07-02T14:10:00Z</time>
      </trkpt>
      <trkpt lat="49.24957" lon="1.15402">
        <ele>67.07946</ele>
        <time>2015-07-02T14:10:05Z</time>
      </trkpt>
      <trkpt lat="49.24958" lon="1.15403">
        <ele>70.441505</ele>
        <time>2015-07-02T14:10:10Z</time>
      </trkpt>
      <trkpt lat="49.24958" lon="1.15403">
        <ele>70.441505</ele>
        <time>2015-07-02T14:10:15Z</time>
      </trkpt>
      <trkpt lat="49.24959" lon="1.15404">
        <ele>70.441505</ele>
        <time>2015-07-02T14:10:35Z</time>
      </trkpt>
      <trkpt lat="49.24961" lon="1.15404">
        <ele>70.441505</ele>
        <time>2015-07-02T14:10:40Z</time>
      </trkpt>
      <trkpt lat="49.24961" lon="1.15404">
        <ele>70.441505</ele>
        <time>2015-07-02T14:10:45Z</time>
      </trkpt>
      <trkpt lat="49.24964" lon="1.15405">
        <ele>70.441505</ele>
        <time>2015-07-02T14:10:55Z</time>
      </trkpt>
      <trkpt lat="49.24965" lon="1.15406">
        <ele>70.441505</ele>
        <time>2015-07-02T14:11:00Z</time>
      </trkpt>
      <trkpt lat="49.24967" lon="1.15406">
        <ele>74.58098</ele>
        <time>2015-07-02T14:11:05Z</time>
      </trkpt>
      <trkpt lat="49.24967" lon="1.15406">
        <ele>74.58098</ele>
        <time>2015-07-02T14:11:10Z</time>
      </trkpt>
      <trkpt lat="49.24971" lon="1.15408">
        <ele>74.58098</ele>
        <time>2015-07-02T14:11:30Z</time>
      </trkpt>
      <trkpt lat="49.24971" lon="1.15408">
        <ele>74.58098</ele>
        <time>2015-07-02T14:11:35Z</time>
      </trkpt>
      <trkpt lat="49.24972" lon="1.1541">
        <ele>74.58098</ele>
        <time>2015-07-02T14:11:40Z</time>
      </trkpt>
      <trkpt lat="49.24973" lon="1.15411">
        <ele>74.58098</ele>
        <time>2015-07-02T14:11:45Z</time>
      </trkpt>
      <trkpt lat="49.24979" lon="1.15419">
        <ele>79.39942</ele>
        <time>2015-07-02T14:11:55Z</time>
      </trkpt>
      <trkpt lat="49.24984" lon="1.15427">
        <ele>79.39942</ele>
        <time>2015-07-02T14:12:00Z</time>
      </trkpt>
      <trkpt lat="49.24986" lon="1.15428">
        <ele>79.39942</ele>
        <time>2015-07-02T14:12:05Z</time>
      </trkpt>
      <trkpt lat="49.24993" lon="1.15432">
        <ele>84.24177</ele>
        <time>2015-07-02T14:12:15Z</time>
      </trkpt>
      <trkpt lat="49.25002" lon="1.15437">
        <ele>88.84702</ele>
        <time>2015-07-02T14:12:20Z</time>
      </trkpt>
      <trkpt lat="49.25009" lon="1.15441">
        <ele>88.84702</ele>
        <time>2015-07-02T14:12:25Z</time>
      </trkpt>
      <trkpt lat="49.25012" lon="1.15442">
        <ele>93.13273</ele>
        <time>2015-07-02T14:12:30Z</time>
      </trkpt>
      <trkpt lat="49.25016" lon="1.15441">
        <ele>93.13273</ele>
        <time>2015-07-02T14:12:35Z</time>
      </trkpt>
      <trkpt lat="49.2502" lon="1.15442">
        <ele>93.13273</ele>
        <time>2015-07-02T14:12:40Z</time>
      </trkpt>
      <trkpt lat="49.25025" lon="1.15444">
        <ele>97.21091</ele>
        <time>2015-07-02T14:12:45Z</time>
      </trkpt>
      <trkpt lat="49.25028" lon="1.1545">
        <ele>97.21091</ele>
        <time>2015-07-02T14:12:50Z</time>
      </trkpt>
      <trkpt lat="49.25032" lon="1.15452">
        <ele>100.95558</ele>
        <time>2015-07-02T14:12:55Z</time>
      </trkpt>
      <trkpt lat="49.25034" lon="1.15456">
        <ele>100.95558</ele>
        <time>2015-07-02T14:13:00Z</time>
      </trkpt>
      <trkpt lat="49.25035" lon="1.15454">
        <ele>100.95558</ele>
        <time>2015-07-02T14:13:05Z</time>
      </trkpt>
      <trkpt lat="49.25036" lon="1.15452">
        <ele>100.95558</ele>
        <time>2015-07-02T14:13:10Z</time>
      </trkpt>
      <trkpt lat="49.25039" lon="1.15448">
        <ele>104.654724</ele>
        <time>2015-07-02T14:13:15Z</time>
      </trkpt>
      <trkpt lat="49.25043" lon="1.15442">
        <ele>104.654724</ele>
        <time>2015-07-02T14:13:20Z</time>
      </trkpt>
      <trkpt lat="49.25044" lon="1.15444">
        <ele>104.654724</ele>
        <time>2015-07-02T14:13:25Z</time>
      </trkpt>
      <trkpt lat="49.25044" lon="1.15448">
        <ele>108.244064</ele>
        <time>2015-07-02T14:13:30Z</time>
      </trkpt>
      <trkpt lat="49.25044" lon="1.15452">
        <ele>108.244064</ele>
        <time>2015-07-02T14:13:35Z</time>
      </trkpt>
      <trkpt lat="49.25044" lon="1.15454">
        <ele>108.244064</ele>
        <time>2015-07-02T14:13:40Z</time>
      </trkpt>
      <trkpt lat="49.25044" lon="1.15455">
        <ele>108.244064</ele>
        <time>2015-07-02T14:13:45Z</time>
      </trkpt>
      <trkpt lat="49.25044" lon="1.15455">
        <ele>108.244064</ele>
        <time>2015-07-02T14:13:50Z</time>
      </trkpt>
      <trkpt lat="49.25043" lon="1.15455">
        <ele>108.244064</ele>
        <time>2015-07-02T14:13:55Z</time>
      </trkpt>
      <trkpt lat="49.25043" lon="1.15455">
        <ele>108.244064</ele>
        <time>2015-07-02T14:14:00Z</time>
      </trkpt>
      <trkpt lat="49.25045" lon="1.15456">
        <ele>108.244064</ele>
        <time>2015-07-02T14:15:05Z</time>
      </trkpt>
      <trkpt lat="49.25046" lon="1.15456">
        <ele>108.244064</ele>
        <time>2015-07-02T14:15:10Z</time>
      </trkpt>
      <trkpt lat="49.25051" lon="1.15461">
        <ele>112.09696</ele>
        <time>2015-07-02T14:15:15Z</time>
      </trkpt>
      <trkpt lat="49.25054" lon="1.15464">
        <ele>112.09696</ele>
        <time>2015-07-02T14:15:20Z</time>
      </trkpt>
      <trkpt lat="49.25061" lon="1.15473">
        <ele>115.63657</ele>
        <time>2015-07-02T14:15:25Z</time>
      </trkpt>
      <trkpt lat="49.25067" lon="1.15477">
        <ele>115.63657</ele>
        <time>2015-07-02T14:15:30Z</time>
      </trkpt>
      <trkpt lat="49.25072" lon="1.15479">
        <ele>119.07897</ele>
        <time>2015-07-02T14:15:35Z</time>
      </trkpt>
      <trkpt lat="49.2508" lon="1.15481">
        <ele>119.07897</ele>
        <time>2015-07-02T14:15:40Z</time>
      </trkpt>
      <trkpt lat="49.25085" lon="1.15484">
        <ele>122.36549</ele>
        <time>2015-07-02T14:15:45Z</time>
      </trkpt>
      <trkpt lat="49.25089" lon="1.15487">
        <ele>122.36549</ele>
        <time>2015-07-02T14:15:50Z</time>
      </trkpt>
      <trkpt lat="49.25095" lon="1.15488">
        <ele>125.5146</ele>
        <time>2015-07-02T14:15:55Z</time>
      </trkpt>
      <trkpt lat="49.25099" lon="1.15488">
        <ele>125.5146</ele>
        <time>2015-07-02T14:16:00Z</time>
      </trkpt>
      <trkpt lat="49.25105" lon="1.1549">
        <ele>128.42876</ele>
        <time>2015-07-02T14:16:05Z</time>
      </trkpt>
      <trkpt lat="49.2511" lon="1.15491">
        <ele>128.42876</ele>
        <time>2015-07-02T14:16:10Z</time>
      </trkpt>
      <trkpt lat="49.25112" lon="1.15497">
        <ele>131.10501</ele>
        <time>2015-07-02T14:16:15Z</time>
      </trkpt>
      <trkpt lat="49.25114" lon="1.15498">
        <ele>131.10501</ele>
        <time>2015-07-02T14:16:20Z</time>
      </trkpt>
      <trkpt lat="49.25116" lon="1.155">
        <ele>131.10501</ele>
        <time>2015-07-02T14:16:25Z</time>
      </trkpt>
      <trkpt lat="49.25123" lon="1.15502">
        <ele>133.21011</ele>
        <time>2015-07-02T14:16:30Z</time>
      </trkpt>
      <trkpt lat="49.25127" lon="1.15504">
        <ele>133.21011</ele>
        <time>2015-07-02T14:16:35Z</time>
      </trkpt>
      <trkpt lat="49.25131" lon="1.15506">
        <ele>133.21011</ele>
        <time>2015-07-02T14:16:40Z</time>
      </trkpt>
      <trkpt lat="49.25137" lon="1.15509">
        <ele>134.49483</ele>
        <time>2015-07-02T14:16:45Z</time>
      </trkpt>
      <trkpt lat="49.2514" lon="1.1551">
        <ele>134.49483</ele>
        <time>2015-07-02T14:16:50Z</time>
      </trkpt>
      <trkpt lat="49.25148" lon="1.15513">
        <ele>135.19196</ele>
        <time>2015-07-02T14:16:55Z</time>
      </trkpt>
      <trkpt lat="49.25152" lon="1.15517">
        <ele>135.19196</ele>
        <time>2015-07-02T14:17:00Z</time>
      </trkpt>
      <trkpt lat="49.25155" lon="1.1552">
        <ele>135.19196</ele>
        <time>2015-07-02T14:17:05Z</time>
      </trkpt>
      <trkpt lat="49.25154" lon="1.15521">
        <ele>135.37492</ele>
        <time>2015-07-02T14:17:10Z</time>
      </trkpt>
      <trkpt lat="49.25152" lon="1.15521">
        <ele>135.37492</ele>
        <time>2015-07-02T14:17:15Z</time>
      </trkpt>
      <trkpt lat="49.25152" lon="1.15521">
        <ele>135.37492</ele>
        <time>2015-07-02T14:17:20Z</time>
      </trkpt>
      <trkpt lat="49.25152" lon="1.15522">
        <ele>135.37492</ele>
        <time>2015-07-02T14:17:55Z</time>
      </trkpt>
      <trkpt lat="49.25152" lon="1.15522">
        <ele>135.37492</ele>
        <time>2015-07-02T14:18:00Z</time>
      </trkpt>
      <trkpt lat="49.25152" lon="1.15525">
        <ele>135.37492</ele>
        <time>2015-07-02T14:18:05Z</time>
      </trkpt>
      <trkpt lat="49.25151" lon="1.15535">
        <ele>135.41612</ele>
        <time>2015-07-02T14:18:10Z</time>
      </trkpt>
      <trkpt lat="49.25149" lon="1.15545">
        <ele>135.41612</ele>
        <time>2015-07-02T14:18:15Z</time>
      </trkpt>
      <trkpt lat="49.25145" lon="1.15556">
        <ele>135.25763</ele>
        <time>2015-07-02T14:18:20Z</time>
      </trkpt>
      <trkpt lat="49.25144" lon="1.15567">
        <ele>135.25763</ele>
        <time>2015-07-02T14:18:25Z</time>
      </trkpt>
      <trkpt lat="49.25143" lon="1.15572">
        <ele>134.90417</ele>
        <time>2015-07-02T14:18:30Z</time>
      </trkpt>
      <trkpt lat="49.25142" lon="1.15581">
        <ele>134.90417</ele>
        <time>2015-07-02T14:18:35Z</time>
      </trkpt>
      <trkpt lat="49.25142" lon="1.15587">
        <ele>134.38962</ele>
        <time>2015-07-02T14:18:40Z</time>
      </trkpt>
      <trkpt lat="49.25141" lon="1.15595">
        <ele>134.38962</ele>
        <time>2015-07-02T14:18:45Z</time>
      </trkpt>
      <trkpt lat="49.2514" lon="1.15601">
        <ele>133.74596</ele>
        <time>2015-07-02T14:18:50Z</time>
      </trkpt>
      <trkpt lat="49.25135" lon="1.15612">
        <ele>133.74596</ele>
        <time>2015-07-02T14:18:55Z</time>
      </trkpt>
      <trkpt lat="49.25131" lon="1.1562">
        <ele>132.93117</ele>
        <time>2015-07-02T14:19:00Z</time>
      </trkpt>
      <trkpt lat="49.25125" lon="1.15629">
        <ele>132.93117</ele>
        <time>2015-07-02T14:19:05Z</time>
      </trkpt>
      <trkpt lat="49.25123" lon="1.15632">
        <ele>132.0078</ele>
        <time>2015-07-02T14:19:10Z</time>
      </trkpt>
      <trkpt lat="49.25119" lon="1.15641">
        <ele>132.0078</ele>
        <time>2015-07-02T14:19:15Z</time>
      </trkpt>
      <trkpt lat="49.25115" lon="1.15649">
        <ele>131.04851</ele>
        <time>2015-07-02T14:19:20Z</time>
      </trkpt>
      <trkpt lat="49.25112" lon="1.15654">
        <ele>131.04851</ele>
        <time>2015-07-02T14:19:25Z</time>
      </trkpt>
      <trkpt lat="49.2511" lon="1.15659">
        <ele>131.04851</ele>
        <time>2015-07-02T14:19:30Z</time>
      </trkpt>
      <trkpt lat="49.25107" lon="1.15669">
        <ele>130.0199</ele>
        <time>2015-07-02T14:19:35Z</time>
      </trkpt>
      <trkpt lat="49.25103" lon="1.15681">
        <ele>130.0199</ele>
        <time>2015-07-02T14:19:40Z</time>
      </trkpt>
      <trkpt lat="49.25102" lon="1.1569">
        <ele>128.83356</ele>
        <time>2015-07-02T14:19:45Z</time>
      </trkpt>
      <trkpt lat="49.251" lon="1.15699">
        <ele>128.83356</ele>
        <time>2015-07-02T14:19:50Z</time>
      </trkpt>
      <trkpt lat="49.25098" lon="1.15712">
        <ele>127.45118</ele>
        <time>2015-07-02T14:19:55Z</time>
      </trkpt>
      <trkpt lat="49.25098" lon="1.15719">
        <ele>127.45118</ele>
        <time>2015-07-02T14:20:00Z</time>
      </trkpt>
      <trkpt lat="49.25095" lon="1.15731">
        <ele>125.99634</ele>
        <time>2015-07-02T14:20:05Z</time>
      </trkpt>
      <trkpt lat="49.25095" lon="1.15738">
        <ele>125.99634</ele>
        <time>2015-07-02T14:20:10Z</time>
      </trkpt>
      <trkpt lat="49.25093" lon="1.15748">
        <ele>124.612465</ele>
        <time>2015-07-02T14:20:15Z</time>
      </trkpt>
      <trkpt lat="49.2509" lon="1.15756">
        <ele>124.612465</ele>
        <time>2015-07-02T14:20:20Z</time>
      </trkpt>
      <trkpt lat="49.25086" lon="1.15765">
        <ele>123.11512</ele>
        <time>2015-07-02T14:20:25Z</time>
      </trkpt>
      <trkpt lat="49.25085" lon="1.1577">
        <ele>123.11512</ele>
        <time>2015-07-02T14:20:30Z</time>
      </trkpt>
      <trkpt lat="49.25084" lon="1.15779">
        <ele>121.52097</ele>
        <time>2015-07-02T14:20:35Z</time>
      </trkpt>
      <trkpt lat="49.25083" lon="1.15786">
        <ele>121.52097</ele>
        <time>2015-07-02T14:20:40Z</time>
      </trkpt>
      <trkpt lat="49.25081" lon="1.15799">
        <ele>119.88884</ele>
        <time>2015-07-02T14:20:45Z</time>
      </trkpt>
      <trkpt lat="49.25079" lon="1.15807">
        <ele>119.88884</ele>
        <time>2015-07-02T14:20:50Z</time>
      </trkpt>
      <trkpt lat="49.25077" lon="1.15818">
        <ele>118.374054</ele>
        <time>2015-07-02T14:20:55Z</time>
      </trkpt>
      <trkpt lat="49.25075" lon="1.15828">
        <ele>118.374054</ele>
        <time>2015-07-02T14:21:00Z</time>
      </trkpt>
      <trkpt lat="49.25073" lon="1.15842">
        <ele>116.94715</ele>
        <time>2015-07-02T14:21:05Z</time>
      </trkpt>
      <trkpt lat="49.25073" lon="1.15848">
        <ele>116.94715</ele>
        <time>2015-07-02T14:21:10Z</time>
      </trkpt>
      <trkpt lat="49.2507" lon="1.15856">
        <ele>115.565956</ele>
        <time>2015-07-02T14:21:15Z</time>
      </trkpt>
      <trkpt lat="49.25069" lon="1.15865">
        <ele>115.565956</ele>
        <time>2015-07-02T14:21:20Z</time>
      </trkpt>
      <trkpt lat="49.25068" lon="1.15877">
        <ele>114.219955</ele>
        <time>2015-07-02T14:21:25Z</time>
      </trkpt>
      <trkpt lat="49.25067" lon="1.15886">
        <ele>114.219955</ele>
        <time>2015-07-02T14:21:30Z</time>
      </trkpt>
      <trkpt lat="49.25069" lon="1.15896">
        <ele>112.97115</ele>
        <time>2015-07-02T14:21:35Z</time>
      </trkpt>
      <trkpt lat="49.25071" lon="1.15905">
        <ele>112.97115</ele>
        <time>2015-07-02T14:21:40Z</time>
      </trkpt>
      <trkpt lat="49.25071" lon="1.15917">
        <ele>111.703606</ele>
        <time>2015-07-02T14:21:45Z</time>
      </trkpt>
      <trkpt lat="49.25072" lon="1.1592">
        <ele>111.703606</ele>
        <time>2015-07-02T14:21:50Z</time>
      </trkpt>
      <trkpt lat="49.2507" lon="1.15933">
        <ele>110.51149</ele>
        <time>2015-07-02T14:21:55Z</time>
      </trkpt>
      <trkpt lat="49.25071" lon="1.15942">
        <ele>110.51149</ele>
        <time>2015-07-02T14:22:00Z</time>
      </trkpt>
      <trkpt lat="49.25073" lon="1.15951">
        <ele>109.33755</ele>
        <time>2015-07-02T14:22:05Z</time>
      </trkpt>
      <trkpt lat="49.25073" lon="1.15959">
        <ele>109.33755</ele>
        <time>2015-07-02T14:22:10Z</time>
      </trkpt>
      <trkpt lat="49.25075" lon="1.15969">
        <ele>108.15729</ele>
        <time>2015-07-02T14:22:15Z</time>
      </trkpt>
      <trkpt lat="49.25077" lon="1.15977">
        <ele>108.15729</ele>
        <time>2015-07-02T14:22:20Z</time>
      </trkpt>
      <trkpt lat="49.25076" lon="1.15992">
        <ele>107.10637</ele>
        <time>2015-07-02T14:22:25Z</time>
      </trkpt>
      <trkpt lat="49.25075" lon="1.16001">
        <ele>107.10637</ele>
        <time>2015-07-02T14:22:30Z</time>
      </trkpt>
      <trkpt lat="49.25073" lon="1.16012">
        <ele>106.122536</ele>
        <time>2015-07-02T14:22:35Z</time>
      </trkpt>
      <trkpt lat="49.25074" lon="1.1602">
        <ele>106.122536</ele>
        <time>2015-07-02T14:22:40Z</time>
      </trkpt>
      <trkpt lat="49.25076" lon="1.16027">
        <ele>105.21981</ele>
        <time>2015-07-02T14:22:45Z</time>
      </trkpt>
      <trkpt lat="49.25078" lon="1.16038">
        <ele>105.21981</ele>
        <time>2015-07-02T14:22:50Z</time>
      </trkpt>
      <trkpt lat="49.25081" lon="1.16046">
        <ele>104.39631</ele>
        <time>2015-07-02T14:22:55Z</time>
      </trkpt>
      <trkpt lat="49.2508" lon="1.16055">
        <ele>104.39631</ele>
        <time>2015-07-02T14:23:00Z</time>
      </trkpt>
      <trkpt lat="49.25082" lon="1.16064">
        <ele>103.606636</ele>
        <time>2015-07-02T14:23:05Z</time>
      </trkpt>
      <trkpt lat="49.25081" lon="1.16066">
        <ele>103.606636</ele>
        <time>2015-07-02T14:23:10Z</time>
      </trkpt>
      <trkpt lat="49.25079" lon="1.1608">
        <ele>102.77963</ele>
        <time>2015-07-02T14:23:15Z</time>
      </trkpt>
      <trkpt lat="49.25078" lon="1.16085">
        <ele>102.77963</ele>
        <time>2015-07-02T14:23:20Z</time>
      </trkpt>
      <trkpt lat="49.25076" lon="1.16099">
        <ele>101.93573</ele>
        <time>2015-07-02T14:23:25Z</time>
      </trkpt>
      <trkpt lat="49.25072" lon="1.16107">
        <ele>101.93573</ele>
        <time>2015-07-02T14:23:30Z</time>
      </trkpt>
      <trkpt lat="49.2507" lon="1.16121">
        <ele>101.13696</ele>
        <time>2015-07-02T14:23:35Z</time>
      </trkpt>
      <trkpt lat="49.2507" lon="1.1613">
        <ele>101.13696</ele>
        <time>2015-07-02T14:23:40Z</time>
      </trkpt>
      <trkpt lat="49.25069" lon="1.16142">
        <ele>100.48373</ele>
        <time>2015-07-02T14:23:45Z</time>
      </trkpt>
      <trkpt lat="49.25069" lon="1.16146">
        <ele>100.48373</ele>
        <time>2015-07-02T14:23:50Z</time>
      </trkpt>
      <trkpt lat="49.25068" lon="1.16154">
        <ele>100.48373</ele>
        <time>2015-07-02T14:23:55Z</time>
      </trkpt>
      <trkpt lat="49.25067" lon="1.16164">
        <ele>99.85229</ele>
        <time>2015-07-02T14:24:00Z</time>
      </trkpt>
      <trkpt lat="49.25065" lon="1.16173">
        <ele>99.85229</ele>
        <time>2015-07-02T14:24:05Z</time>
      </trkpt>
      <trkpt lat="49.25064" lon="1.16178">
        <ele>99.27189</ele>
        <time>2015-07-02T14:24:10Z</time>
      </trkpt>
      <trkpt lat="49.25063" lon="1.1619">
        <ele>99.27189</ele>
        <time>2015-07-02T14:24:15Z</time>
      </trkpt>
      <trkpt lat="49.25064" lon="1.16199">
        <ele>98.71166</ele>
        <time>2015-07-02T14:24:20Z</time>
      </trkpt>
      <trkpt lat="49.25061" lon="1.16211">
        <ele>98.71166</ele>
        <time>2015-07-02T14:24:25Z</time>
      </trkpt>
      <trkpt lat="49.25059" lon="1.16222">
        <ele>98.2581</ele>
        <time>2015-07-02T14:24:30Z</time>
      </trkpt>
      <trkpt lat="49.25058" lon="1.16232">
        <ele>98.2581</ele>
        <time>2015-07-02T14:24:35Z</time>
      </trkpt>
      <trkpt lat="49.25059" lon="1.16238">
        <ele>97.97648</ele>
        <time>2015-07-02T14:24:40Z</time>
      </trkpt>
      <trkpt lat="49.25061" lon="1.16238">
        <ele>97.97648</ele>
        <time>2015-07-02T14:24:45Z</time>
      </trkpt>
      <trkpt lat="49.25063" lon="1.16235">
        <ele>97.97648</ele>
        <time>2015-07-02T14:24:50Z</time>
      </trkpt>
      <trkpt lat="49.25064" lon="1.16233">
        <ele>97.97648</ele>
        <time>2015-07-02T14:24:55Z</time>
      </trkpt>
      <trkpt lat="49.25064" lon="1.16233">
        <ele>97.97648</ele>
        <time>2015-07-02T14:25:00Z</time>
      </trkpt>
      <trkpt lat="49.25064" lon="1.16238">
        <ele>97.52313</ele>
        <time>2015-07-02T14:25:05Z</time>
      </trkpt>
      <trkpt lat="49.25065" lon="1.16244">
        <ele>97.52313</ele>
        <time>2015-07-02T14:25:10Z</time>
      </trkpt>
      <trkpt lat="49.25066" lon="1.16252">
        <ele>97.06998</ele>
        <time>2015-07-02T14:25:15Z</time>
      </trkpt>
      <trkpt lat="49.25071" lon="1.16251">
        <ele>97.06998</ele>
        <time>2015-07-02T14:25:20Z</time>
      </trkpt>
      <trkpt lat="49.25073" lon="1.16251">
        <ele>97.06998</ele>
        <time>2015-07-02T14:25:25Z</time>
      </trkpt>
      <trkpt lat="49.25074" lon="1.16251">
        <ele>97.06998</ele>
        <time>2015-07-02T14:25:30Z</time>
      </trkpt>
      <trkpt lat="49.25078" lon="1.16253">
        <ele>96.70412</ele>
        <time>2015-07-02T14:25:35Z</time>
      </trkpt>
      <trkpt lat="49.25081" lon="1.16254">
        <ele>96.70412</ele>
        <time>2015-07-02T14:25:40Z</time>
      </trkpt>
      <trkpt lat="49.25084" lon="1.16257">
        <ele>96.70412</ele>
        <time>2015-07-02T14:25:45Z</time>
      </trkpt>
      <trkpt lat="49.25088" lon="1.16261">
        <ele>96.53473</ele>
        <time>2015-07-02T14:25:50Z</time>
      </trkpt>
      <trkpt lat="49.25092" lon="1.16265">
        <ele>96.53473</ele>
        <time>2015-07-02T14:25:55Z</time>
      </trkpt>
      <trkpt lat="49.25098" lon="1.16267">
        <ele>96.34525</ele>
        <time>2015-07-02T14:26:00Z</time>
      </trkpt>
      <trkpt lat="49.25103" lon="1.16271">
        <ele>96.34525</ele>
        <time>2015-07-02T14:26:05Z</time>
      </trkpt>
      <trkpt lat="49.25108" lon="1.16275">
        <ele>96.10793</ele>
        <time>2015-07-02T14:26:10Z</time>
      </trkpt>
      <trkpt lat="49.25117" lon="1.16278">
        <ele>96.10793</ele>
        <time>2015-07-02T14:26:15Z</time>
      </trkpt>
      <trkpt lat="49.25121" lon="1.16279">
        <ele>95.82593</ele>
        <time>2015-07-02T14:26:20Z</time>
      </trkpt>
      <trkpt lat="49.25128" lon="1.16283">
        <ele>95.82593</ele>
        <time>2015-07-02T14:26:25Z</time>
      </trkpt>
      <trkpt lat="49.25132" lon="1.16283">
        <ele>95.41572</ele>
        <time>2015-07-02T14:26:30Z</time>
      </trkpt>
      <trkpt lat="49.2514" lon="1.16291">
        <ele>95.04522</ele>
        <time>2015-07-02T14:26:35Z</time>
      </trkpt>
      <trkpt lat="49.25145" lon="1.16295">
        <ele>95.04522</ele>
        <time>2015-07-02T14:26:40Z</time>
      </trkpt>
      <trkpt lat="49.25152" lon="1.16297">
        <ele>94.68247</ele>
        <time>2015-07-02T14:26:45Z</time>
      </trkpt>
      <trkpt lat="49.25157" lon="1.16299">
        <ele>94.68247</ele>
        <time>2015-07-02T14:26:50Z</time>
      </trkpt>
      <trkpt lat="49.25162" lon="1.16302">
        <ele>94.2113</ele>
        <time>2015-07-02T14:26:55Z</time>
      </trkpt>
      <trkpt lat="49.25169" lon="1.16304">
        <ele>94.2113</ele>
        <time>2015-07-02T14:27:00Z</time>
      </trkpt>
      <trkpt lat="49.25176" lon="1.1631">
        <ele>93.7261</ele>
        <time>2015-07-02T14:27:05Z</time>
      </trkpt>
      <trkpt lat="49.2518" lon="1.16314">
        <ele>93.7261</ele>
        <time>2015-07-02T14:27:10Z</time>
      </trkpt>
      <trkpt lat="49.25187" lon="1.16319">
        <ele>93.27104</ele>
        <time>2015-07-02T14:27:15Z</time>
      </trkpt>
      <trkpt lat="49.2519" lon="1.16322">
        <ele>93.27104</ele>
        <time>2015-07-02T14:27:20Z</time>
      </trkpt>
      <trkpt lat="49.25195" lon="1.16327">
        <ele>92.80048</ele>
        <time>2015-07-02T14:27:25Z</time>
      </trkpt>
      <trkpt lat="49.25198" lon="1.16331">
        <ele>92.80048</ele>
        <time>2015-07-02T14:27:30Z</time>
      </trkpt>
      <trkpt lat="49.25204" lon="1.16337">
        <ele>92.3586</ele>
        <time>2015-07-02T14:27:35Z</time>
      </trkpt>
      <trkpt lat="49.25207" lon="1.16341">
        <ele>92.3586</ele>
        <time>2015-07-02T14:27:40Z</time>
      </trkpt>
      <trkpt lat="49.25212" lon="1.16345">
        <ele>92.18793</ele>
        <time>2015-07-02T14:27:45Z</time>
      </trkpt>
      <trkpt lat="49.25219" lon="1.16344">
        <ele>92.18793</ele>
        <time>2015-07-02T14:27:50Z</time>
      </trkpt>
      <trkpt lat="49.25224" lon="1.16346">
        <ele>92.19539</ele>
        <time>2015-07-02T14:27:55Z</time>
      </trkpt>
      <trkpt lat="49.25232" lon="1.16349">
        <ele>92.19539</ele>
        <time>2015-07-02T14:28:00Z</time>
      </trkpt>
      <trkpt lat="49.25238" lon="1.16352">
        <ele>92.250946</ele>
        <time>2015-07-02T14:28:05Z</time>
      </trkpt>
      <trkpt lat="49.25246" lon="1.16356">
        <ele>92.250946</ele>
        <time>2015-07-02T14:28:10Z</time>
      </trkpt>
      <trkpt lat="49.2525" lon="1.16358">
        <ele>92.37808</ele>
        <time>2015-07-02T14:28:15Z</time>
      </trkpt>
      <trkpt lat="49.25256" lon="1.16358">
        <ele>92.37808</ele>
        <time>2015-07-02T14:28:20Z</time>
      </trkpt>
      <trkpt lat="49.25262" lon="1.16363">
        <ele>92.425415</ele>
        <time>2015-07-02T14:28:25Z</time>
      </trkpt>
      <trkpt lat="49.25268" lon="1.16365">
        <ele>92.425415</ele>
        <time>2015-07-02T14:28:30Z</time>
      </trkpt>
      <trkpt lat="49.25272" lon="1.16366">
        <ele>92.16641</ele>
        <time>2015-07-02T14:28:35Z</time>
      </trkpt>
      <trkpt lat="49.25275" lon="1.16367">
        <ele>92.16641</ele>
        <time>2015-07-02T14:28:40Z</time>
      </trkpt>
      <trkpt lat="49.25282" lon="1.1637">
        <ele>91.55057</ele>
        <time>2015-07-02T14:28:45Z</time>
      </trkpt>
      <trkpt lat="49.25285" lon="1.16373">
        <ele>91.55057</ele>
        <time>2015-07-02T14:28:50Z</time>
      </trkpt>
      <trkpt lat="49.25288" lon="1.16376">
        <ele>91.55057</ele>
        <time>2015-07-02T14:28:55Z</time>
      </trkpt>
      <trkpt lat="49.25294" lon="1.16377">
        <ele>90.474434</ele>
        <time>2015-07-02T14:29:00Z</time>
      </trkpt>
      <trkpt lat="49.25302" lon="1.16382">
        <ele>90.474434</ele>
        <time>2015-07-02T14:29:05Z</time>
      </trkpt>
      <trkpt lat="49.25306" lon="1.16385">
        <ele>89.23257</ele>
        <time>2015-07-02T14:29:10Z</time>
      </trkpt>
      <trkpt lat="49.25307" lon="1.16382">
        <ele>88.186775</ele>
        <time>2015-07-02T14:29:15Z</time>
      </trkpt>
      <trkpt lat="49.25339" lon="1.16379">
        <ele>87.14098</ele>
        <time>2015-07-02T14:29:40Z</time>
      </trkpt>
      <trkpt lat="49.2535" lon="1.16394">
        <ele>86.09519</ele>
        <time>2015-07-02T14:29:45Z</time>
      </trkpt>
      <trkpt lat="49.25352" lon="1.16394">
        <ele>86.09519</ele>
        <time>2015-07-02T14:29:50Z</time>
      </trkpt>
      <trkpt lat="49.25357" lon="1.16397">
        <ele>86.09519</ele>
        <time>2015-07-02T14:29:55Z</time>
      </trkpt>
      <trkpt lat="49.2536" lon="1.164">
        <ele>83.067665</ele>
        <time>2015-07-02T14:30:00Z</time>
      </trkpt>
      <trkpt lat="49.25362" lon="1.16402">
        <ele>83.067665</ele>
        <time>2015-07-02T14:30:05Z</time>
      </trkpt>
      <trkpt lat="49.25368" lon="1.16407">
        <ele>80.26396</ele>
        <time>2015-07-02T14:30:10Z</time>
      </trkpt>
      <trkpt lat="49.25373" lon="1.16412">
        <ele>80.26396</ele>
        <time>2015-07-02T14:30:15Z</time>
      </trkpt>
      <trkpt lat="49.25378" lon="1.16415">
        <ele>77.63049</ele>
        <time>2015-07-02T14:30:20Z</time>
      </trkpt>
      <trkpt lat="49.25383" lon="1.16417">
        <ele>77.63049</ele>
        <time>2015-07-02T14:30:25Z</time>
      </trkpt>
      <trkpt lat="49.25387" lon="1.16422">
        <ele>75.07383</ele>
        <time>2015-07-02T14:30:30Z</time>
      </trkpt>
      <trkpt lat="49.25391" lon="1.16425">
        <ele>75.07383</ele>
        <time>2015-07-02T14:30:35Z</time>
      </trkpt>
      <trkpt lat="49.25396" lon="1.16429">
        <ele>72.7521</ele>
        <time>2015-07-02T14:30:40Z</time>
      </trkpt>
      <trkpt lat="49.25401" lon="1.16436">
        <ele>72.7521</ele>
        <time>2015-07-02T14:30:45Z</time>
      </trkpt>
      <trkpt lat="49.25405" lon="1.16439">
        <ele>70.88314</ele>
        <time>2015-07-02T14:30:50Z</time>
      </trkpt>
      <trkpt lat="49.25415" lon="1.16438">
        <ele>69.537735</ele>
        <time>2015-07-02T14:30:55Z</time>
      </trkpt>
      <trkpt lat="49.25421" lon="1.16433">
        <ele>69.537735</ele>
        <time>2015-07-02T14:31:00Z</time>
      </trkpt>
      <trkpt lat="49.25426" lon="1.16427">
        <ele>68.679</ele>
        <time>2015-07-02T14:31:05Z</time>
      </trkpt>
      <trkpt lat="49.2543" lon="1.16421">
        <ele>68.679</ele>
        <time>2015-07-02T14:31:10Z</time>
      </trkpt>
      <trkpt lat="49.25434" lon="1.16412">
        <ele>68.15606</ele>
        <time>2015-07-02T14:31:15Z</time>
      </trkpt>
      <trkpt lat="49.25439" lon="1.16402">
        <ele>68.15606</ele>
        <time>2015-07-02T14:31:20Z</time>
      </trkpt>
      <trkpt lat="49.25442" lon="1.16399">
        <ele>67.640724</ele>
        <time>2015-07-02T14:31:25Z</time>
      </trkpt>
      <trkpt lat="49.25447" lon="1.16395">
        <ele>67.640724</ele>
        <time>2015-07-02T14:31:30Z</time>
      </trkpt>
      <trkpt lat="49.25451" lon="1.16389">
        <ele>67.08822</ele>
        <time>2015-07-02T14:31:35Z</time>
      </trkpt>
      <trkpt lat="49.25456" lon="1.16384">
        <ele>67.08822</ele>
        <time>2015-07-02T14:31:40Z</time>
      </trkpt>
      <trkpt lat="49.2546" lon="1.1638">
        <ele>66.51474</ele>
        <time>2015-07-02T14:31:45Z</time>
      </trkpt>
      <trkpt lat="49.25465" lon="1.16376">
        <ele>66.51474</ele>
        <time>2015-07-02T14:31:50Z</time>
      </trkpt>
      <trkpt lat="49.25472" lon="1.16372">
        <ele>65.77678</ele>
        <time>2015-07-02T14:31:55Z</time>
      </trkpt>
      <trkpt lat="49.25476" lon="1.16368">
        <ele>65.77678</ele>
        <time>2015-07-02T14:32:00Z</time>
      </trkpt>
      <trkpt lat="49.25479" lon="1.16367">
        <ele>65.77678</ele>
        <time>2015-07-02T14:32:05Z</time>
      </trkpt>
      <trkpt lat="49.25485" lon="1.16361">
        <ele>64.84265</ele>
        <time>2015-07-02T14:32:10Z</time>
      </trkpt>
      <trkpt lat="49.25492" lon="1.16356">
        <ele>64.84265</ele>
        <time>2015-07-02T14:32:15Z</time>
      </trkpt>
      <trkpt lat="49.25495" lon="1.16352">
        <ele>63.971714</ele>
        <time>2015-07-02T14:32:20Z</time>
      </trkpt>
      <trkpt lat="49.25501" lon="1.16346">
        <ele>63.971714</ele>
        <time>2015-07-02T14:32:25Z</time>
      </trkpt>
      <trkpt lat="49.25507" lon="1.16342">
        <ele>63.187897</ele>
        <time>2015-07-02T14:32:30Z</time>
      </trkpt>
      <trkpt lat="49.25514" lon="1.16336">
        <ele>63.187897</ele>
        <time>2015-07-02T14:32:35Z</time>
      </trkpt>
      <trkpt lat="49.25518" lon="1.16331">
        <ele>62.570732</ele>
        <time>2015-07-02T14:32:40Z</time>
      </trkpt>
      <trkpt lat="49.25524" lon="1.16324">
        <ele>62.570732</ele>
        <time>2015-07-02T14:32:45Z</time>
      </trkpt>
      <trkpt lat="49.25528" lon="1.16319">
        <ele>62.063705</ele>
        <time>2015-07-02T14:32:50Z</time>
      </trkpt>
      <trkpt lat="49.25532" lon="1.16312">
        <ele>62.063705</ele>
        <time>2015-07-02T14:32:55Z</time>
      </trkpt>
      <trkpt lat="49.25538" lon="1.16306">
        <ele>61.64294</ele>
        <time>2015-07-02T14:33:00Z</time>
      </trkpt>
      <trkpt lat="49.25543" lon="1.16301">
        <ele>61.64294</ele>
        <time>2015-07-02T14:33:05Z</time>
      </trkpt>
      <trkpt lat="49.25547" lon="1.16296">
        <ele>61.32929</ele>
        <time>2015-07-02T14:33:10Z</time>
      </trkpt>
      <trkpt lat="49.25553" lon="1.16289">
        <ele>61.32929</ele>
        <time>2015-07-02T14:33:15Z</time>
      </trkpt>
      <trkpt lat="49.25557" lon="1.16284">
        <ele>61.112923</ele>
        <time>2015-07-02T14:33:20Z</time>
      </trkpt>
      <trkpt lat="49.25562" lon="1.16277">
        <ele>61.112923</ele>
        <time>2015-07-02T14:33:25Z</time>
      </trkpt>
      <trkpt lat="49.25566" lon="1.1627">
        <ele>61.013287</ele>
        <time>2015-07-02T14:33:30Z</time>
      </trkpt>
      <trkpt lat="49.25571" lon="1.16265">
        <ele>61.013287</ele>
        <time>2015-07-02T14:33:35Z</time>
      </trkpt>
      <trkpt lat="49.25576" lon="1.1626">
        <ele>60.903957</ele>
        <time>2015-07-02T14:33:40Z</time>
      </trkpt>
      <trkpt lat="49.25582" lon="1.16254">
        <ele>60.903957</ele>
        <time>2015-07-02T14:33:45Z</time>
      </trkpt>
      <trkpt lat="49.25586" lon="1.16248">
        <ele>60.797523</ele>
        <time>2015-07-02T14:33:50Z</time>
      </trkpt>
      <trkpt lat="49.2559" lon="1.16242">
        <ele>60.797523</ele>
        <time>2015-07-02T14:33:55Z</time>
      </trkpt>
      <trkpt lat="49.25593" lon="1.16236">
        <ele>60.72008</ele>
        <time>2015-07-02T14:34:00Z</time>
      </trkpt>
      <trkpt lat="49.25599" lon="1.16227">
        <ele>60.72008</ele>
        <time>2015-07-02T14:34:05Z</time>
      </trkpt>
      <trkpt lat="49.25602" lon="1.16222">
        <ele>60.6525</ele>
        <time>2015-07-02T14:34:10Z</time>
      </trkpt>
      <trkpt lat="49.25606" lon="1.16216">
        <ele>60.6525</ele>
        <time>2015-07-02T14:34:15Z</time>
      </trkpt>
      <trkpt lat="49.2561" lon="1.1621">
        <ele>60.66353</ele>
        <time>2015-07-02T14:34:20Z</time>
      </trkpt>
      <trkpt lat="49.25611" lon="1.1621">
        <ele>60.66353</ele>
        <time>2015-07-02T14:34:25Z</time>
      </trkpt>
      <trkpt lat="49.25616" lon="1.16204">
        <ele>60.66353</ele>
        <time>2015-07-02T14:34:30Z</time>
      </trkpt>
      <trkpt lat="49.25621" lon="1.16197">
        <ele>60.773438</ele>
        <time>2015-07-02T14:34:35Z</time>
      </trkpt>
      <trkpt lat="49.25626" lon="1.16191">
        <ele>60.773438</ele>
        <time>2015-07-02T14:34:40Z</time>
      </trkpt>
      <trkpt lat="49.2563" lon="1.16186">
        <ele>60.914318</ele>
        <time>2015-07-02T14:34:45Z</time>
      </trkpt>
      <trkpt lat="49.25636" lon="1.16181">
        <ele>60.914318</ele>
        <time>2015-07-02T14:34:50Z</time>
      </trkpt>
      <trkpt lat="49.25639" lon="1.16173">
        <ele>61.080833</ele>
        <time>2015-07-02T14:34:55Z</time>
      </trkpt>
      <trkpt lat="49.25643" lon="1.16166">
        <ele>61.080833</ele>
        <time>2015-07-02T14:35:00Z</time>
      </trkpt>
      <trkpt lat="49.25647" lon="1.16159">
        <ele>61.21038</ele>
        <time>2015-07-02T14:35:05Z</time>
      </trkpt>
      <trkpt lat="49.25649" lon="1.16151">
        <ele>61.21038</ele>
        <time>2015-07-02T14:35:10Z</time>
      </trkpt>
      <trkpt lat="49.25654" lon="1.16145">
        <ele>61.389236</ele>
        <time>2015-07-02T14:35:15Z</time>
      </trkpt>
      <trkpt lat="49.25658" lon="1.16136">
        <ele>61.389236</ele>
        <time>2015-07-02T14:35:20Z</time>
      </trkpt>
      <trkpt lat="49.25664" lon="1.16127">
        <ele>61.55313</ele>
        <time>2015-07-02T14:35:25Z</time>
      </trkpt>
      <trkpt lat="49.25669" lon="1.16122">
        <ele>61.55313</ele>
        <time>2015-07-02T14:35:30Z</time>
      </trkpt>
      <trkpt lat="49.25673" lon="1.16115">
        <ele>61.70028</ele>
        <time>2015-07-02T14:35:35Z</time>
      </trkpt>
      <trkpt lat="49.25676" lon="1.16109">
        <ele>61.70028</ele>
        <time>2015-07-02T14:35:40Z</time>
      </trkpt>
      <trkpt lat="49.25679" lon="1.16102">
        <ele>61.829144</ele>
        <time>2015-07-02T14:35:45Z</time>
      </trkpt>
      <trkpt lat="49.25681" lon="1.16096">
        <ele>61.829144</ele>
        <time>2015-07-02T14:35:50Z</time>
      </trkpt>
      <trkpt lat="49.25687" lon="1.1609">
        <ele>61.981647</ele>
        <time>2015-07-02T14:35:55Z</time>
      </trkpt>
      <trkpt lat="49.25692" lon="1.16086">
        <ele>61.981647</ele>
        <time>2015-07-02T14:36:00Z</time>
      </trkpt>
      <trkpt lat="49.25698" lon="1.1608">
        <ele>62.167828</ele>
        <time>2015-07-02T14:36:05Z</time>
      </trkpt>
      <trkpt lat="49.25701" lon="1.16075">
        <ele>62.167828</ele>
        <time>2015-07-02T14:36:10Z</time>
      </trkpt>
      <trkpt lat="49.25706" lon="1.16068">
        <ele>62.425785</ele>
        <time>2015-07-02T14:36:15Z</time>
      </trkpt>
      <trkpt lat="49.2571" lon="1.16064">
        <ele>62.425785</ele>
        <time>2015-07-02T14:36:20Z</time>
      </trkpt>
      <trkpt lat="49.25715" lon="1.16057">
        <ele>62.833935</ele>
        <time>2015-07-02T14:36:25Z</time>
      </trkpt>
      <trkpt lat="49.25718" lon="1.1605">
        <ele>62.833935</ele>
        <time>2015-07-02T14:36:30Z</time>
      </trkpt>
      <trkpt lat="49.25722" lon="1.16045">
        <ele>63.363712</ele>
        <time>2015-07-02T14:36:35Z</time>
      </trkpt>
      <trkpt lat="49.25727" lon="1.16038">
        <ele>63.363712</ele>
        <time>2015-07-02T14:36:40Z</time>
      </trkpt>
      <trkpt lat="49.25731" lon="1.16031">
        <ele>64.03163</ele>
        <time>2015-07-02T14:36:45Z</time>
      </trkpt>
      <trkpt lat="49.25736" lon="1.16025">
        <ele>64.03163</ele>
        <time>2015-07-02T14:36:50Z</time>
      </trkpt>
      <trkpt lat="49.25739" lon="1.16019">
        <ele>64.679756</ele>
        <time>2015-07-02T14:36:55Z</time>
      </trkpt>
      <trkpt lat="49.25742" lon="1.1601">
        <ele>64.679756</ele>
        <time>2015-07-02T14:37:00Z</time>
      </trkpt>
      <trkpt lat="49.25745" lon="1.16004">
        <ele>65.2916</ele>
        <time>2015-07-02T14:37:05Z</time>
      </trkpt>
      <trkpt lat="49.2575" lon="1.15997">
        <ele>65.2916</ele>
        <time>2015-07-02T14:37:10Z</time>
      </trkpt>
      <trkpt lat="49.25754" lon="1.15991">
        <ele>66.01062</ele>
        <time>2015-07-02T14:37:15Z</time>
      </trkpt>
      <trkpt lat="49.25758" lon="1.15984">
        <ele>66.01062</ele>
        <time>2015-07-02T14:37:20Z</time>
      </trkpt>
      <trkpt lat="49.25764" lon="1.15976">
        <ele>66.78218</ele>
        <time>2015-07-02T14:37:25Z</time>
      </trkpt>
      <trkpt lat="49.25768" lon="1.1597">
        <ele>66.78218</ele>
        <time>2015-07-02T14:37:30Z</time>
      </trkpt>
      <trkpt lat="49.25772" lon="1.15966">
        <ele>67.642075</ele>
        <time>2015-07-02T14:37:35Z</time>
      </trkpt>
      <trkpt lat="49.25778" lon="1.15958">
        <ele>67.642075</ele>
        <time>2015-07-02T14:37:40Z</time>
      </trkpt>
      <trkpt lat="49.2578" lon="1.15949">
        <ele>68.43599</ele>
        <time>2015-07-02T14:37:45Z</time>
      </trkpt>
      <trkpt lat="49.2578" lon="1.15939">
        <ele>68.43599</ele>
        <time>2015-07-02T14:37:50Z</time>
      </trkpt>
      <trkpt lat="49.25783" lon="1.15931">
        <ele>69.1077</ele>
        <time>2015-07-02T14:37:55Z</time>
      </trkpt>
      <trkpt lat="49.25786" lon="1.15925">
        <ele>69.1077</ele>
        <time>2015-07-02T14:38:00Z</time>
      </trkpt>
      <trkpt lat="49.25788" lon="1.15922">
        <ele>69.1077</ele>
        <time>2015-07-02T14:38:05Z</time>
      </trkpt>
      <trkpt lat="49.25788" lon="1.15922">
        <ele>69.1077</ele>
        <time>2015-07-02T14:38:10Z</time>
      </trkpt>
      <trkpt lat="49.25789" lon="1.15919">
        <ele>70.0379</ele>
        <time>2015-07-02T14:38:15Z</time>
      </trkpt>
      <trkpt lat="49.25795" lon="1.15913">
        <ele>70.0379</ele>
        <time>2015-07-02T14:38:20Z</time>
      </trkpt>
      <trkpt lat="49.258" lon="1.1591">
        <ele>71.131966</ele>
        <time>2015-07-02T14:38:25Z</time>
      </trkpt>
      <trkpt lat="49.25802" lon="1.15904">
        <ele>71.131966</ele>
        <time>2015-07-02T14:38:30Z</time>
      </trkpt>
      <trkpt lat="49.25803" lon="1.15901">
        <ele>71.131966</ele>
        <time>2015-07-02T14:38:35Z</time>
      </trkpt>
      <trkpt lat="49.25805" lon="1.15899">
        <ele>72.316284</ele>
        <time>2015-07-02T14:38:40Z</time>
      </trkpt>
      <trkpt lat="49.25806" lon="1.15898">
        <ele>72.316284</ele>
        <time>2015-07-02T14:38:45Z</time>
      </trkpt>
      <trkpt lat="49.25807" lon="1.15898">
        <ele>72.316284</ele>
        <time>2015-07-02T14:38:50Z</time>
      </trkpt>
      <trkpt lat="49.25809" lon="1.15895">
        <ele>72.316284</ele>
        <time>2015-07-02T14:38:55Z</time>
      </trkpt>
      <trkpt lat="49.25811" lon="1.15893">
        <ele>72.316284</ele>
        <time>2015-07-02T14:39:00Z</time>
      </trkpt>
      <trkpt lat="49.25815" lon="1.15889">
        <ele>73.66662</ele>
        <time>2015-07-02T14:39:05Z</time>
      </trkpt>
      <trkpt lat="49.25816" lon="1.15888">
        <ele>73.66662</ele>
        <time>2015-07-02T14:39:10Z</time>
      </trkpt>
      <trkpt lat="49.2582" lon="1.15884">
        <ele>73.66662</ele>
        <time>2015-07-02T14:39:15Z</time>
      </trkpt>
      <trkpt lat="49.25825" lon="1.15882">
        <ele>75.00785</ele>
        <time>2015-07-02T14:39:20Z</time>
      </trkpt>
      <trkpt lat="49.25831" lon="1.15882">
        <ele>75.00785</ele>
        <time>2015-07-02T14:39:25Z</time>
      </trkpt>
      <trkpt lat="49.25835" lon="1.15885">
        <ele>76.30756</ele>
        <time>2015-07-02T14:39:30Z</time>
      </trkpt>
      <trkpt lat="49.25837" lon="1.15886">
        <ele>76.30756</ele>
        <time>2015-07-02T14:39:35Z</time>
      </trkpt>
      <trkpt lat="49.25837" lon="1.15886">
        <ele>76.30756</ele>
        <time>2015-07-02T14:39:40Z</time>
      </trkpt>
      <trkpt lat="49.25837" lon="1.15888">
        <ele>76.30756</ele>
        <time>2015-07-02T14:39:50Z</time>
      </trkpt>
      <trkpt lat="49.25837" lon="1.15888">
        <ele>76.30756</ele>
        <time>2015-07-02T14:39:55Z</time>
      </trkpt>
      <trkpt lat="49.25839" lon="1.1589">
        <ele>76.30756</ele>
        <time>2015-07-02T14:40:50Z</time>
      </trkpt>
      <trkpt lat="49.2584" lon="1.15891">
        <ele>76.30756</ele>
        <time>2015-07-02T14:40:55Z</time>
      </trkpt>
      <trkpt lat="49.25839" lon="1.15893">
        <ele>76.30756</ele>
        <time>2015-07-02T14:42:30Z</time>
      </trkpt>
      <trkpt lat="49.25842" lon="1.15897">
        <ele>79.22208</ele>
        <time>2015-07-02T14:42:35Z</time>
      </trkpt>
      <trkpt lat="49.25845" lon="1.15901">
        <ele>79.22208</ele>
        <time>2015-07-02T14:42:40Z</time>
      </trkpt>
      <trkpt lat="49.25848" lon="1.15903">
        <ele>79.22208</ele>
        <time>2015-07-02T14:42:45Z</time>
      </trkpt>
      <trkpt lat="49.25852" lon="1.1591">
        <ele>81.80854</ele>
        <time>2015-07-02T14:42:50Z</time>
      </trkpt>
      <trkpt lat="49.25855" lon="1.15914">
        <ele>81.80854</ele>
        <time>2015-07-02T14:42:55Z</time>
      </trkpt>
      <trkpt lat="49.25858" lon="1.15918">
        <ele>81.80854</ele>
        <time>2015-07-02T14:43:00Z</time>
      </trkpt>
      <trkpt lat="49.25859" lon="1.15919">
        <ele>83.93962</ele>
        <time>2015-07-02T14:43:05Z</time>
      </trkpt>
      <trkpt lat="49.25862" lon="1.1592">
        <ele>83.93962</ele>
        <time>2015-07-02T14:43:10Z</time>
      </trkpt>
      <trkpt lat="49.25865" lon="1.15922">
        <ele>83.93962</ele>
        <time>2015-07-02T14:43:15Z</time>
      </trkpt>
      <trkpt lat="49.25865" lon="1.15922">
        <ele>83.93962</ele>
        <time>2015-07-02T14:43:20Z</time>
      </trkpt>
      <trkpt lat="49.25868" lon="1.15923">
        <ele>85.74372</ele>
        <time>2015-07-02T14:43:25Z</time>
      </trkpt>
      <trkpt lat="49.2587" lon="1.15923">
        <ele>85.74372</ele>
        <time>2015-07-02T14:43:30Z</time>
      </trkpt>
      <trkpt lat="49.25872" lon="1.15923">
        <ele>85.74372</ele>
        <time>2015-07-02T14:43:35Z</time>
      </trkpt>
      <trkpt lat="49.25873" lon="1.15923">
        <ele>85.74372</ele>
        <time>2015-07-02T14:43:40Z</time>
      </trkpt>
      <trkpt lat="49.25876" lon="1.15926">
        <ele>85.74372</ele>
        <time>2015-07-02T14:43:45Z</time>
      </trkpt>
      <trkpt lat="49.25876" lon="1.15926">
        <ele>85.74372</ele>
        <time>2015-07-02T14:43:50Z</time>
      </trkpt>
      <trkpt lat="49.25877" lon="1.15929">
        <ele>87.65795</ele>
        <time>2015-07-02T14:43:55Z</time>
      </trkpt>
      <trkpt lat="49.25879" lon="1.1593">
        <ele>87.65795</ele>
        <time>2015-07-02T14:44:00Z</time>
      </trkpt>
      <trkpt lat="49.25888" lon="1.15936">
        <ele>89.65483</ele>
        <time>2015-07-02T14:44:05Z</time>
      </trkpt>
      <trkpt lat="49.25891" lon="1.15938">
        <ele>89.65483</ele>
        <time>2015-07-02T14:44:10Z</time>
      </trkpt>
      <trkpt lat="49.25895" lon="1.15938">
        <ele>89.65483</ele>
        <time>2015-07-02T14:44:15Z</time>
      </trkpt>
      <trkpt lat="49.259" lon="1.15942">
        <ele>91.68001</ele>
        <time>2015-07-02T14:44:20Z</time>
      </trkpt>
      <trkpt lat="49.25903" lon="1.15945">
        <ele>91.68001</ele>
        <time>2015-07-02T14:44:25Z</time>
      </trkpt>
      <trkpt lat="49.25904" lon="1.15946">
        <ele>91.68001</ele>
        <time>2015-07-02T14:44:30Z</time>
      </trkpt>
      <trkpt lat="49.25906" lon="1.15946">
        <ele>91.68001</ele>
        <time>2015-07-02T14:44:35Z</time>
      </trkpt>
      <trkpt lat="49.25908" lon="1.15947">
        <ele>93.61117</ele>
        <time>2015-07-02T14:44:40Z</time>
      </trkpt>
      <trkpt lat="49.25912" lon="1.15949">
        <ele>93.61117</ele>
        <time>2015-07-02T14:44:45Z</time>
      </trkpt>
      <trkpt lat="49.25915" lon="1.1595">
        <ele>93.61117</ele>
        <time>2015-07-02T14:44:50Z</time>
      </trkpt>
      <trkpt lat="49.25916" lon="1.1595">
        <ele>93.61117</ele>
        <time>2015-07-02T14:44:55Z</time>
      </trkpt>
      <trkpt lat="49.2592" lon="1.15951">
        <ele>95.45069</ele>
        <time>2015-07-02T14:45:00Z</time>
      </trkpt>
      <trkpt lat="49.25921" lon="1.15953">
        <ele>95.45069</ele>
        <time>2015-07-02T14:45:05Z</time>
      </trkpt>
      <trkpt lat="49.25924" lon="1.15955">
        <ele>95.45069</ele>
        <time>2015-07-02T14:45:10Z</time>
      </trkpt>
      <trkpt lat="49.25925" lon="1.15958">
        <ele>95.45069</ele>
        <time>2015-07-02T14:45:15Z</time>
      </trkpt>
      <trkpt lat="49.25929" lon="1.1596">
        <ele>97.18681</ele>
        <time>2015-07-02T14:45:20Z</time>
      </trkpt>
      <trkpt lat="49.25933" lon="1.15962">
        <ele>97.18681</ele>
        <time>2015-07-02T14:45:25Z</time>
      </trkpt>
      <trkpt lat="49.25938" lon="1.15963">
        <ele>98.75144</ele>
        <time>2015-07-02T14:45:30Z</time>
      </trkpt>
      <trkpt lat="49.2594" lon="1.15966">
        <ele>98.75144</ele>
        <time>2015-07-02T14:45:35Z</time>
      </trkpt>
      <trkpt lat="49.25943" lon="1.15969">
        <ele>98.75144</ele>
        <time>2015-07-02T14:45:40Z</time>
      </trkpt>
      <trkpt lat="49.25948" lon="1.15971">
        <ele>100.183014</ele>
        <time>2015-07-02T14:45:45Z</time>
      </trkpt>
      <trkpt lat="49.25949" lon="1.15971">
        <ele>100.183014</ele>
        <time>2015-07-02T14:45:50Z</time>
      </trkpt>
      <trkpt lat="49.25953" lon="1.1597">
        <ele>100.183014</ele>
        <time>2015-07-02T14:45:55Z</time>
      </trkpt>
      <trkpt lat="49.25954" lon="1.15971">
        <ele>100.183014</ele>
        <time>2015-07-02T14:46:00Z</time>
      </trkpt>
      <trkpt lat="49.25956" lon="1.15974">
        <ele>101.60416</ele>
        <time>2015-07-02T14:46:05Z</time>
      </trkpt>
      <trkpt lat="49.25959" lon="1.15976">
        <ele>101.60416</ele>
        <time>2015-07-02T14:46:10Z</time>
      </trkpt>
      <trkpt lat="49.25965" lon="1.1598">
        <ele>102.941315</ele>
        <time>2015-07-02T14:46:15Z</time>
      </trkpt>
      <trkpt lat="49.25968" lon="1.15981">
        <ele>102.941315</ele>
        <time>2015-07-02T14:46:20Z</time>
      </trkpt>
      <trkpt lat="49.2597" lon="1.15983">
        <ele>102.941315</ele>
        <time>2015-07-02T14:46:25Z</time>
      </trkpt>
      <trkpt lat="49.25974" lon="1.15984">
        <ele>104.11234</ele>
        <time>2015-07-02T14:46:30Z</time>
      </trkpt>
      <trkpt lat="49.25979" lon="1.15989">
        <ele>104.11234</ele>
        <time>2015-07-02T14:46:35Z</time>
      </trkpt>
      <trkpt lat="49.25985" lon="1.15992">
        <ele>105.08495</ele>
        <time>2015-07-02T14:46:40Z</time>
      </trkpt>
      <trkpt lat="49.25991" lon="1.15997">
        <ele>105.08495</ele>
        <time>2015-07-02T14:46:45Z</time>
      </trkpt>
      <trkpt lat="49.25994" lon="1.15998">
        <ele>105.97405</ele>
        <time>2015-07-02T14:46:50Z</time>
      </trkpt>
      <trkpt lat="49.25995" lon="1.16001">
        <ele>105.97405</ele>
        <time>2015-07-02T14:46:55Z</time>
      </trkpt>
      <trkpt lat="49.25996" lon="1.16002">
        <ele>105.97405</ele>
        <time>2015-07-02T14:47:00Z</time>
      </trkpt>
      <trkpt lat="49.25997" lon="1.16002">
        <ele>105.97405</ele>
        <time>2015-07-02T14:47:05Z</time>
      </trkpt>
      <trkpt lat="49.26" lon="1.16004">
        <ele>105.97405</ele>
        <time>2015-07-02T14:47:10Z</time>
      </trkpt>
      <trkpt lat="49.26005" lon="1.16008">
        <ele>106.48295</ele>
        <time>2015-07-02T14:47:15Z</time>
      </trkpt>
      <trkpt lat="49.26008" lon="1.16012">
        <ele>106.48295</ele>
        <time>2015-07-02T14:47:20Z</time>
      </trkpt>
      <trkpt lat="49.26012" lon="1.16015">
        <ele>106.48295</ele>
        <time>2015-07-02T14:47:25Z</time>
      </trkpt>
      <trkpt lat="49.26017" lon="1.16017">
        <ele>106.58293</ele>
        <time>2015-07-02T14:47:30Z</time>
      </trkpt>
      <trkpt lat="49.26022" lon="1.16021">
        <ele>106.58293</ele>
        <time>2015-07-02T14:47:35Z</time>
      </trkpt>
      <trkpt lat="49.2603" lon="1.16024">
        <ele>106.94038</ele>
        <time>2015-07-02T14:47:40Z</time>
      </trkpt>
      <trkpt lat="49.26039" lon="1.16031">
        <ele>107.45153</ele>
        <time>2015-07-02T14:47:45Z</time>
      </trkpt>
      <trkpt lat="49.26049" lon="1.1604">
        <ele>108.1064</ele>
        <time>2015-07-02T14:47:50Z</time>
      </trkpt>
      <trkpt lat="49.2606" lon="1.16042">
        <ele>108.86655</ele>
        <time>2015-07-02T14:47:55Z</time>
      </trkpt>
      <trkpt lat="49.26065" lon="1.16044">
        <ele>108.86655</ele>
        <time>2015-07-02T14:48:00Z</time>
      </trkpt>
      <trkpt lat="49.26074" lon="1.16046">
        <ele>109.79703</ele>
        <time>2015-07-02T14:48:05Z</time>
      </trkpt>
      <trkpt lat="49.26079" lon="1.16049">
        <ele>109.79703</ele>
        <time>2015-07-02T14:48:10Z</time>
      </trkpt>
      <trkpt lat="49.26086" lon="1.16053">
        <ele>110.87121</ele>
        <time>2015-07-02T14:48:15Z</time>
      </trkpt>
      <trkpt lat="49.26092" lon="1.16056">
        <ele>110.87121</ele>
        <time>2015-07-02T14:48:20Z</time>
      </trkpt>
      <trkpt lat="49.26097" lon="1.16057">
        <ele>112.0785</ele>
        <time>2015-07-02T14:48:25Z</time>
      </trkpt>
      <trkpt lat="49.26102" lon="1.1606">
        <ele>112.0785</ele>
        <time>2015-07-02T14:48:30Z</time>
      </trkpt>
      <trkpt lat="49.26107" lon="1.16063">
        <ele>113.33669</ele>
        <time>2015-07-02T14:48:35Z</time>
      </trkpt>
      <trkpt lat="49.26111" lon="1.16065">
        <ele>113.33669</ele>
        <time>2015-07-02T14:48:40Z</time>
      </trkpt>
      <trkpt lat="49.26117" lon="1.16067">
        <ele>114.58394</ele>
        <time>2015-07-02T14:48:45Z</time>
      </trkpt>
      <trkpt lat="49.26123" lon="1.16071">
        <ele>114.58394</ele>
        <time>2015-07-02T14:48:50Z</time>
      </trkpt>
      <trkpt lat="49.26128" lon="1.16073">
        <ele>115.791824</ele>
        <time>2015-07-02T14:48:55Z</time>
      </trkpt>
      <trkpt lat="49.26134" lon="1.16077">
        <ele>115.791824</ele>
        <time>2015-07-02T14:49:00Z</time>
      </trkpt>
      <trkpt lat="49.26139" lon="1.16082">
        <ele>116.97741</ele>
        <time>2015-07-02T14:49:05Z</time>
      </trkpt>
      <trkpt lat="49.26144" lon="1.16084">
        <ele>116.97741</ele>
        <time>2015-07-02T14:49:10Z</time>
      </trkpt>
      <trkpt lat="49.26148" lon="1.16087">
        <ele>118.05573</ele>
        <time>2015-07-02T14:49:15Z</time>
      </trkpt>
      <trkpt lat="49.26153" lon="1.16091">
        <ele>118.05573</ele>
        <time>2015-07-02T14:49:20Z</time>
      </trkpt>
      <trkpt lat="49.26158" lon="1.16096">
        <ele>119.00604</ele>
        <time>2015-07-02T14:49:25Z</time>
      </trkpt>
      <trkpt lat="49.26164" lon="1.16099">
        <ele>119.00604</ele>
        <time>2015-07-02T14:49:30Z</time>
      </trkpt>
      <trkpt lat="49.26169" lon="1.16102">
        <ele>119.780685</ele>
        <time>2015-07-02T14:49:35Z</time>
      </trkpt>
      <trkpt lat="49.26175" lon="1.16105">
        <ele>119.780685</ele>
        <time>2015-07-02T14:49:40Z</time>
      </trkpt>
      <trkpt lat="49.2618" lon="1.16107">
        <ele>120.48013</ele>
        <time>2015-07-02T14:49:45Z</time>
      </trkpt>
      <trkpt lat="49.26185" lon="1.1611">
        <ele>120.48013</ele>
        <time>2015-07-02T14:49:50Z</time>
      </trkpt>
      <trkpt lat="49.26191" lon="1.16113">
        <ele>121.12567</ele>
        <time>2015-07-02T14:49:55Z</time>
      </trkpt>
      <trkpt lat="49.26197" lon="1.16116">
        <ele>121.12567</ele>
        <time>2015-07-02T14:50:00Z</time>
      </trkpt>
      <trkpt lat="49.26203" lon="1.16121">
        <ele>121.679535</ele>
        <time>2015-07-02T14:50:05Z</time>
      </trkpt>
      <trkpt lat="49.26208" lon="1.16123">
        <ele>121.679535</ele>
        <time>2015-07-02T14:50:10Z</time>
      </trkpt>
      <trkpt lat="49.26212" lon="1.16124">
        <ele>121.679535</ele>
        <time>2015-07-02T14:50:15Z</time>
      </trkpt>
      <trkpt lat="49.26215" lon="1.16127">
        <ele>122.19347</ele>
        <time>2015-07-02T14:50:20Z</time>
      </trkpt>
      <trkpt lat="49.26223" lon="1.16131">
        <ele>122.19347</ele>
        <time>2015-07-02T14:50:25Z</time>
      </trkpt>
      <trkpt lat="49.26228" lon="1.16134">
        <ele>122.62907</ele>
        <time>2015-07-02T14:50:30Z</time>
      </trkpt>
      <trkpt lat="49.26232" lon="1.16139">
        <ele>122.62907</ele>
        <time>2015-07-02T14:50:35Z</time>
      </trkpt>
      <trkpt lat="49.26236" lon="1.1614">
        <ele>123.02301</ele>
        <time>2015-07-02T14:50:40Z</time>
      </trkpt>
      <trkpt lat="49.2624" lon="1.16142">
        <ele>123.02301</ele>
        <time>2015-07-02T14:50:45Z</time>
      </trkpt>
      <trkpt lat="49.26246" lon="1.16145">
        <ele>123.467064</ele>
        <time>2015-07-02T14:50:50Z</time>
      </trkpt>
      <trkpt lat="49.26251" lon="1.16148">
        <ele>123.467064</ele>
        <time>2015-07-02T14:50:55Z</time>
      </trkpt>
      <trkpt lat="49.26256" lon="1.16151">
        <ele>123.94519</ele>
        <time>2015-07-02T14:51:00Z</time>
      </trkpt>
      <trkpt lat="49.26262" lon="1.16154">
        <ele>123.94519</ele>
        <time>2015-07-02T14:51:05Z</time>
      </trkpt>
      <trkpt lat="49.26267" lon="1.16157">
        <ele>124.370384</ele>
        <time>2015-07-02T14:51:10Z</time>
      </trkpt>
      <trkpt lat="49.26271" lon="1.16159">
        <ele>124.370384</ele>
        <time>2015-07-02T14:51:15Z</time>
      </trkpt>
      <trkpt lat="49.26277" lon="1.16163">
        <ele>124.63332</ele>
        <time>2015-07-02T14:51:20Z</time>
      </trkpt>
      <trkpt lat="49.26283" lon="1.16166">
        <ele>124.63332</ele>
        <time>2015-07-02T14:51:25Z</time>
      </trkpt>
      <trkpt lat="49.26287" lon="1.16169">
        <ele>124.80608</ele>
        <time>2015-07-02T14:51:30Z</time>
      </trkpt>
      <trkpt lat="49.26293" lon="1.16171">
        <ele>124.80608</ele>
        <time>2015-07-02T14:51:35Z</time>
      </trkpt>
      <trkpt lat="49.263" lon="1.16175">
        <ele>124.85477</ele>
        <time>2015-07-02T14:51:40Z</time>
      </trkpt>
      <trkpt lat="49.26305" lon="1.16179">
        <ele>124.85477</ele>
        <time>2015-07-02T14:51:45Z</time>
      </trkpt>
      <trkpt lat="49.26311" lon="1.16181">
        <ele>124.935646</ele>
        <time>2015-07-02T14:51:50Z</time>
      </trkpt>
      <trkpt lat="49.26315" lon="1.16183">
        <ele>124.935646</ele>
        <time>2015-07-02T14:51:55Z</time>
      </trkpt>
      <trkpt lat="49.26321" lon="1.16187">
        <ele>125.07808</ele>
        <time>2015-07-02T14:52:00Z</time>
      </trkpt>
      <trkpt lat="49.26327" lon="1.16191">
        <ele>125.07808</ele>
        <time>2015-07-02T14:52:05Z</time>
      </trkpt>
      <trkpt lat="49.26331" lon="1.16194">
        <ele>125.1361</ele>
        <time>2015-07-02T14:52:10Z</time>
      </trkpt>
      <trkpt lat="49.26337" lon="1.16196">
        <ele>125.1361</ele>
        <time>2015-07-02T14:52:15Z</time>
      </trkpt>
      <trkpt lat="49.26342" lon="1.16198">
        <ele>124.93144</ele>
        <time>2015-07-02T14:52:20Z</time>
      </trkpt>
      <trkpt lat="49.26348" lon="1.16203">
        <ele>124.93144</ele>
        <time>2015-07-02T14:52:25Z</time>
      </trkpt>
      <trkpt lat="49.26353" lon="1.16206">
        <ele>124.31398</ele>
        <time>2015-07-02T14:52:30Z</time>
      </trkpt>
      <trkpt lat="49.26359" lon="1.16209">
        <ele>124.31398</ele>
        <time>2015-07-02T14:52:35Z</time>
      </trkpt>
      <trkpt lat="49.26367" lon="1.16214">
        <ele>123.693375</ele>
        <time>2015-07-02T14:52:40Z</time>
      </trkpt>
      <trkpt lat="49.26372" lon="1.16215">
        <ele>123.693375</ele>
        <time>2015-07-02T14:52:45Z</time>
      </trkpt>
      <trkpt lat="49.26378" lon="1.16215">
        <ele>123.05999</ele>
        <time>2015-07-02T14:52:50Z</time>
      </trkpt>
      <trkpt lat="49.26384" lon="1.16213">
        <ele>123.05999</ele>
        <time>2015-07-02T14:52:55Z</time>
      </trkpt>
      <trkpt lat="49.26389" lon="1.16207">
        <ele>122.43369</ele>
        <time>2015-07-02T14:53:00Z</time>
      </trkpt>
      <trkpt lat="49.26393" lon="1.16199">
        <ele>122.43369</ele>
        <time>2015-07-02T14:53:05Z</time>
      </trkpt>
      <trkpt lat="49.26396" lon="1.16193">
        <ele>121.77514</ele>
        <time>2015-07-02T14:53:10Z</time>
      </trkpt>
      <trkpt lat="49.26398" lon="1.16187">
        <ele>121.77514</ele>
        <time>2015-07-02T14:53:15Z</time>
      </trkpt>
      <trkpt lat="49.26401" lon="1.16181">
        <ele>121.04786</ele>
        <time>2015-07-02T14:53:20Z</time>
      </trkpt>
      <trkpt lat="49.26405" lon="1.16175">
        <ele>121.04786</ele>
        <time>2015-07-02T14:53:25Z</time>
      </trkpt>
      <trkpt lat="49.26409" lon="1.16175">
        <ele>120.218155</ele>
        <time>2015-07-02T14:53:30Z</time>
      </trkpt>
      <trkpt lat="49.26412" lon="1.16177">
        <ele>120.218155</ele>
        <time>2015-07-02T14:53:35Z</time>
      </trkpt>
      <trkpt lat="49.26411" lon="1.16179">
        <ele>120.218155</ele>
        <time>2015-07-02T14:53:40Z</time>
      </trkpt>
      <trkpt lat="49.26411" lon="1.16186">
        <ele>119.29822</ele>
        <time>2015-07-02T14:53:45Z</time>
      </trkpt>
      <trkpt lat="49.26411" lon="1.1619">
        <ele>119.29822</ele>
        <time>2015-07-02T14:53:50Z</time>
      </trkpt>
      <trkpt lat="49.26414" lon="1.16195">
        <ele>119.29822</ele>
        <time>2015-07-02T14:53:55Z</time>
      </trkpt>
      <trkpt lat="49.26415" lon="1.16203">
        <ele>118.48684</ele>
        <time>2015-07-02T14:54:00Z</time>
      </trkpt>
      <trkpt lat="49.26416" lon="1.16211">
        <ele>118.48684</ele>
        <time>2015-07-02T14:54:05Z</time>
      </trkpt>
      <trkpt lat="49.26415" lon="1.16223">
        <ele>117.73718</ele>
        <time>2015-07-02T14:54:10Z</time>
      </trkpt>
      <trkpt lat="49.26415" lon="1.1623">
        <ele>117.73718</ele>
        <time>2015-07-02T14:54:15Z</time>
      </trkpt>
      <trkpt lat="49.26415" lon="1.1624">
        <ele>117.048805</ele>
        <time>2015-07-02T14:54:20Z</time>
      </trkpt>
      <trkpt lat="49.26415" lon="1.16243">
        <ele>117.048805</ele>
        <time>2015-07-02T14:54:25Z</time>
      </trkpt>
      <trkpt lat="49.26417" lon="1.16242">
        <ele>117.048805</ele>
        <time>2015-07-02T14:54:30Z</time>
      </trkpt>
      <trkpt lat="49.26418" lon="1.16243">
        <ele>117.048805</ele>
        <time>2015-07-02T14:54:35Z</time>
      </trkpt>
      <trkpt lat="49.26419" lon="1.16245">
        <ele>117.048805</ele>
        <time>2015-07-02T14:54:40Z</time>
      </trkpt>
      <trkpt lat="49.26418" lon="1.16253">
        <ele>116.63716</ele>
        <time>2015-07-02T14:54:45Z</time>
      </trkpt>
      <trkpt lat="49.26421" lon="1.16263">
        <ele>116.63716</ele>
        <time>2015-07-02T14:54:50Z</time>
      </trkpt>
      <trkpt lat="49.26421" lon="1.16264">
        <ele>116.63716</ele>
        <time>2015-07-02T14:54:55Z</time>
      </trkpt>
      <trkpt lat="49.26422" lon="1.16259">
        <ele>116.57128</ele>
        <time>2015-07-02T14:55:00Z</time>
      </trkpt>
      <trkpt lat="49.2642" lon="1.1627">
        <ele>116.57128</ele>
        <time>2015-07-02T14:55:05Z</time>
      </trkpt>
      <trkpt lat="49.26419" lon="1.16279">
        <ele>116.45286</ele>
        <time>2015-07-02T14:55:10Z</time>
      </trkpt>
      <trkpt lat="49.26417" lon="1.16288">
        <ele>116.45286</ele>
        <time>2015-07-02T14:55:15Z</time>
      </trkpt>
      <trkpt lat="49.26417" lon="1.16298">
        <ele>116.14346</ele>
        <time>2015-07-02T14:55:20Z</time>
      </trkpt>
      <trkpt lat="49.26416" lon="1.16312">
        <ele>115.86111</ele>
        <time>2015-07-02T14:55:25Z</time>
      </trkpt>
      <trkpt lat="49.26417" lon="1.16323">
        <ele>115.86111</ele>
        <time>2015-07-02T14:55:30Z</time>
      </trkpt>
      <trkpt lat="49.26416" lon="1.16329">
        <ele>115.57703</ele>
        <time>2015-07-02T14:55:35Z</time>
      </trkpt>
      <trkpt lat="49.26416" lon="1.16341">
        <ele>115.57703</ele>
        <time>2015-07-02T14:55:40Z</time>
      </trkpt>
      <trkpt lat="49.26416" lon="1.16352">
        <ele>115.495026</ele>
        <time>2015-07-02T14:55:45Z</time>
      </trkpt>
      <trkpt lat="49.26415" lon="1.16359">
        <ele>115.495026</ele>
        <time>2015-07-02T14:55:50Z</time>
      </trkpt>
      <trkpt lat="49.26416" lon="1.16376">
        <ele>115.41417</ele>
        <time>2015-07-02T14:55:55Z</time>
      </trkpt>
      <trkpt lat="49.26417" lon="1.16386">
        <ele>115.41417</ele>
        <time>2015-07-02T14:56:00Z</time>
      </trkpt>
      <trkpt lat="49.26411" lon="1.16396">
        <ele>115.26346</ele>
        <time>2015-07-02T14:56:05Z</time>
      </trkpt>
      <trkpt lat="49.26411" lon="1.16403">
        <ele>115.26346</ele>
        <time>2015-07-02T14:56:10Z</time>
      </trkpt>
      <trkpt lat="49.26409" lon="1.1641">
        <ele>114.9772</ele>
        <time>2015-07-02T14:56:15Z</time>
      </trkpt>
      <trkpt lat="49.26407" lon="1.16417">
        <ele>114.9772</ele>
        <time>2015-07-02T14:56:20Z</time>
      </trkpt>
      <trkpt lat="49.26406" lon="1.16427">
        <ele>114.37953</ele>
        <time>2015-07-02T14:56:25Z</time>
      </trkpt>
      <trkpt lat="49.26405" lon="1.16439">
        <ele>114.37953</ele>
        <time>2015-07-02T14:56:30Z</time>
      </trkpt>
      <trkpt lat="49.26404" lon="1.16451">
        <ele>113.66855</ele>
        <time>2015-07-02T14:56:35Z</time>
      </trkpt>
      <trkpt lat="49.26402" lon="1.16457">
        <ele>113.66855</ele>
        <time>2015-07-02T14:56:40Z</time>
      </trkpt>
      <trkpt lat="49.26401" lon="1.16465">
        <ele>112.725395</ele>
        <time>2015-07-02T14:56:45Z</time>
      </trkpt>
      <trkpt lat="49.26401" lon="1.16473">
        <ele>112.725395</ele>
        <time>2015-07-02T14:56:50Z</time>
      </trkpt>
      <trkpt lat="49.264" lon="1.16483">
        <ele>111.728714</ele>
        <time>2015-07-02T14:56:55Z</time>
      </trkpt>
      <trkpt lat="49.264" lon="1.1649">
        <ele>111.728714</ele>
        <time>2015-07-02T14:57:00Z</time>
      </trkpt>
      <trkpt lat="49.26402" lon="1.16501">
        <ele>110.84408</ele>
        <time>2015-07-02T14:57:05Z</time>
      </trkpt>
      <trkpt lat="49.26403" lon="1.16514">
        <ele>110.84408</ele>
        <time>2015-07-02T14:57:10Z</time>
      </trkpt>
      <trkpt lat="49.26402" lon="1.16526">
        <ele>110.33979</ele>
        <time>2015-07-02T14:57:15Z</time>
      </trkpt>
      <trkpt lat="49.26403" lon="1.16528">
        <ele>110.33979</ele>
        <time>2015-07-02T14:57:20Z</time>
      </trkpt>
      <trkpt lat="49.26402" lon="1.16529">
        <ele>110.33979</ele>
        <time>2015-07-02T14:57:25Z</time>
      </trkpt>
      <trkpt lat="49.264" lon="1.16543">
        <ele>109.88681</ele>
        <time>2015-07-02T14:57:30Z</time>
      </trkpt>
      <trkpt lat="49.264" lon="1.1655">
        <ele>109.88681</ele>
        <time>2015-07-02T14:57:35Z</time>
      </trkpt>
      <trkpt lat="49.26399" lon="1.16552">
        <ele>109.88681</ele>
        <time>2015-07-02T14:57:40Z</time>
      </trkpt>
      <trkpt lat="49.26399" lon="1.16561">
        <ele>109.41062</ele>
        <time>2015-07-02T14:57:45Z</time>
      </trkpt>
      <trkpt lat="49.264" lon="1.16575">
        <ele>109.01509</ele>
        <time>2015-07-02T14:57:50Z</time>
      </trkpt>
      <trkpt lat="49.26401" lon="1.16584">
        <ele>109.01509</ele>
        <time>2015-07-02T14:57:55Z</time>
      </trkpt>
      <trkpt lat="49.26401" lon="1.16585">
        <ele>109.01509</ele>
        <time>2015-07-02T14:58:00Z</time>
      </trkpt>
      <trkpt lat="49.26403" lon="1.16586">
        <ele>109.01509</ele>
        <time>2015-07-02T14:58:05Z</time>
      </trkpt>
      <trkpt lat="49.26404" lon="1.16587">
        <ele>108.4935</ele>
        <time>2015-07-02T14:58:10Z</time>
      </trkpt>
      <trkpt lat="49.26408" lon="1.16586">
        <ele>108.4935</ele>
        <time>2015-07-02T14:58:15Z</time>
      </trkpt>
      <trkpt lat="49.26413" lon="1.16588">
        <ele>107.76986</ele>
        <time>2015-07-02T14:58:20Z</time>
      </trkpt>
      <trkpt lat="49.26417" lon="1.16589">
        <ele>107.76986</ele>
        <time>2015-07-02T14:58:25Z</time>
      </trkpt>
      <trkpt lat="49.2642" lon="1.16591">
        <ele>107.76986</ele>
        <time>2015-07-02T14:58:30Z</time>
      </trkpt>
      <trkpt lat="49.26423" lon="1.16592">
        <ele>106.673386</ele>
        <time>2015-07-02T14:58:35Z</time>
      </trkpt>
      <trkpt lat="49.26425" lon="1.16595">
        <ele>106.673386</ele>
        <time>2015-07-02T14:58:40Z</time>
      </trkpt>
      <trkpt lat="49.26434" lon="1.16599">
        <ele>105.49353</ele>
        <time>2015-07-02T14:58:45Z</time>
      </trkpt>
      <trkpt lat="49.2644" lon="1.16602">
        <ele>105.49353</ele>
        <time>2015-07-02T14:58:50Z</time>
      </trkpt>
      <trkpt lat="49.26446" lon="1.16601">
        <ele>104.38336</ele>
        <time>2015-07-02T14:58:55Z</time>
      </trkpt>
      <trkpt lat="49.26453" lon="1.166">
        <ele>104.38336</ele>
        <time>2015-07-02T14:59:00Z</time>
      </trkpt>
      <trkpt lat="49.26457" lon="1.16598">
        <ele>103.34029</ele>
        <time>2015-07-02T14:59:05Z</time>
      </trkpt>
      <trkpt lat="49.26459" lon="1.16596">
        <ele>103.34029</ele>
        <time>2015-07-02T14:59:10Z</time>
      </trkpt>
      <trkpt lat="49.26464" lon="1.16593">
        <ele>103.34029</ele>
        <time>2015-07-02T14:59:15Z</time>
      </trkpt>
      <trkpt lat="49.26466" lon="1.16592">
        <ele>102.63547</ele>
        <time>2015-07-02T14:59:20Z</time>
      </trkpt>
      <trkpt lat="49.26473" lon="1.16593">
        <ele>102.63547</ele>
        <time>2015-07-02T14:59:25Z</time>
      </trkpt>
      <trkpt lat="49.26478" lon="1.16593">
        <ele>102.37497</ele>
        <time>2015-07-02T14:59:30Z</time>
      </trkpt>
      <trkpt lat="49.2648" lon="1.16592">
        <ele>102.37497</ele>
        <time>2015-07-02T14:59:35Z</time>
      </trkpt>
      <trkpt lat="49.26491" lon="1.16589">
        <ele>102.39637</ele>
        <time>2015-07-02T14:59:40Z</time>
      </trkpt>
      <trkpt lat="49.26498" lon="1.16588">
        <ele>102.39637</ele>
        <time>2015-07-02T14:59:45Z</time>
      </trkpt>
      <trkpt lat="49.26504" lon="1.16586">
        <ele>102.490654</ele>
        <time>2015-07-02T14:59:50Z</time>
      </trkpt>
      <trkpt lat="49.26509" lon="1.16588">
        <ele>102.490654</ele>
        <time>2015-07-02T14:59:55Z</time>
      </trkpt>
      <trkpt lat="49.26515" lon="1.16586">
        <ele>102.49271</ele>
        <time>2015-07-02T15:00:00Z</time>
      </trkpt>
      <trkpt lat="49.26521" lon="1.16586">
        <ele>102.49271</ele>
        <time>2015-07-02T15:00:05Z</time>
      </trkpt>
      <trkpt lat="49.26529" lon="1.16585">
        <ele>102.40826</ele>
        <time>2015-07-02T15:00:10Z</time>
      </trkpt>
      <trkpt lat="49.26537" lon="1.16585">
        <ele>102.40826</ele>
        <time>2015-07-02T15:00:15Z</time>
      </trkpt>
      <trkpt lat="49.26544" lon="1.16583">
        <ele>102.22842</ele>
        <time>2015-07-02T15:00:20Z</time>
      </trkpt>
      <trkpt lat="49.26547" lon="1.16584">
        <ele>102.22842</ele>
        <time>2015-07-02T15:00:25Z</time>
      </trkpt>
      <trkpt lat="49.26556" lon="1.16583">
        <ele>101.84426</ele>
        <time>2015-07-02T15:00:30Z</time>
      </trkpt>
      <trkpt lat="49.26562" lon="1.16586">
        <ele>101.84426</ele>
        <time>2015-07-02T15:00:35Z</time>
      </trkpt>
      <trkpt lat="49.26566" lon="1.16588">
        <ele>101.55893</ele>
        <time>2015-07-02T15:00:40Z</time>
      </trkpt>
      <trkpt lat="49.2657" lon="1.16589">
        <ele>101.55893</ele>
        <time>2015-07-02T15:00:45Z</time>
      </trkpt>
      <trkpt lat="49.26576" lon="1.16587">
        <ele>101.292694</ele>
        <time>2015-07-02T15:00:50Z</time>
      </trkpt>
      <trkpt lat="49.26581" lon="1.16587">
        <ele>101.292694</ele>
        <time>2015-07-02T15:00:55Z</time>
      </trkpt>
      <trkpt lat="49.26588" lon="1.16591">
        <ele>100.97161</ele>
        <time>2015-07-02T15:01:00Z</time>
      </trkpt>
      <trkpt lat="49.26592" lon="1.16592">
        <ele>100.97161</ele>
        <time>2015-07-02T15:01:05Z</time>
      </trkpt>
      <trkpt lat="49.266" lon="1.16592">
        <ele>100.51286</ele>
        <time>2015-07-02T15:01:10Z</time>
      </trkpt>
      <trkpt lat="49.26604" lon="1.16592">
        <ele>100.51286</ele>
        <time>2015-07-02T15:01:15Z</time>
      </trkpt>
      <trkpt lat="49.26605" lon="1.16592">
        <ele>100.51286</ele>
        <time>2015-07-02T15:01:20Z</time>
      </trkpt>
      <trkpt lat="49.26605" lon="1.16592">
        <ele>100.51286</ele>
        <time>2015-07-02T15:01:25Z</time>
      </trkpt>
      <trkpt lat="49.26606" lon="1.16592">
        <ele>100.51286</ele>
        <time>2015-07-02T15:01:35Z</time>
      </trkpt>
      <trkpt lat="49.26607" lon="1.16592">
        <ele>100.51286</ele>
        <time>2015-07-02T15:01:40Z</time>
      </trkpt>
      <trkpt lat="49.26607" lon="1.16592">
        <ele>100.51286</ele>
        <time>2015-07-02T15:01:45Z</time>
      </trkpt>
      <trkpt lat="49.26608" lon="1.16593">
        <ele>100.18595</ele>
        <time>2015-07-02T15:02:00Z</time>
      </trkpt>
      <trkpt lat="49.26612" lon="1.16592">
        <ele>100.18595</ele>
        <time>2015-07-02T15:02:05Z</time>
      </trkpt>
      <trkpt lat="49.26614" lon="1.1659">
        <ele>100.18595</ele>
        <time>2015-07-02T15:02:10Z</time>
      </trkpt>
      <trkpt lat="49.26618" lon="1.16589">
        <ele>99.69256</ele>
        <time>2015-07-02T15:02:20Z</time>
      </trkpt>
      <trkpt lat="49.26625" lon="1.16587">
        <ele>99.69256</ele>
        <time>2015-07-02T15:02:25Z</time>
      </trkpt>
      <trkpt lat="49.26628" lon="1.16587">
        <ele>99.419655</ele>
        <time>2015-07-02T15:02:30Z</time>
      </trkpt>
      <trkpt lat="49.2663" lon="1.16588">
        <ele>99.419655</ele>
        <time>2015-07-02T15:02:35Z</time>
      </trkpt>
      <trkpt lat="49.26632" lon="1.16587">
        <ele>99.419655</ele>
        <time>2015-07-02T15:02:40Z</time>
      </trkpt>
      <trkpt lat="49.26634" lon="1.16588">
        <ele>99.419655</ele>
        <time>2015-07-02T15:02:45Z</time>
      </trkpt>
      <trkpt lat="49.26635" lon="1.16589">
        <ele>99.419655</ele>
        <time>2015-07-02T15:02:50Z</time>
      </trkpt>
      <trkpt lat="49.26635" lon="1.16589">
        <ele>99.419655</ele>
        <time>2015-07-02T15:02:55Z</time>
      </trkpt>
      <trkpt lat="49.2664" lon="1.16587">
        <ele>99.56661</ele>
        <time>2015-07-02T15:03:00Z</time>
      </trkpt>
      <trkpt lat="49.26643" lon="1.16587">
        <ele>99.56661</ele>
        <time>2015-07-02T15:03:05Z</time>
      </trkpt>
      <trkpt lat="49.26656" lon="1.16582">
        <ele>99.95669</ele>
        <time>2015-07-02T15:03:10Z</time>
      </trkpt>
      <trkpt lat="49.26658" lon="1.16582">
        <ele>99.95669</ele>
        <time>2015-07-02T15:03:15Z</time>
      </trkpt>
      <trkpt lat="49.26659" lon="1.16583">
        <ele>99.95669</ele>
        <time>2015-07-02T15:03:20Z</time>
      </trkpt>
      <trkpt lat="49.26659" lon="1.16583">
        <ele>99.95669</ele>
        <time>2015-07-02T15:03:25Z</time>
      </trkpt>
      <trkpt lat="49.26662" lon="1.16584">
        <ele>99.95669</ele>
        <time>2015-07-02T15:03:30Z</time>
      </trkpt>
      <trkpt lat="49.26662" lon="1.16584">
        <ele>99.95669</ele>
        <time>2015-07-02T15:03:35Z</time>
      </trkpt>
      <trkpt lat="49.26665" lon="1.16584">
        <ele>100.540726</ele>
        <time>2015-07-02T15:03:40Z</time>
      </trkpt>
      <trkpt lat="49.26671" lon="1.16584">
        <ele>100.540726</ele>
        <time>2015-07-02T15:03:45Z</time>
      </trkpt>
      <trkpt lat="49.26676" lon="1.16586">
        <ele>101.22941</ele>
        <time>2015-07-02T15:03:50Z</time>
      </trkpt>
      <trkpt lat="49.2668" lon="1.16585">
        <ele>101.22941</ele>
        <time>2015-07-02T15:03:55Z</time>
      </trkpt>
      <trkpt lat="49.26684" lon="1.16584">
        <ele>101.22941</ele>
        <time>2015-07-02T15:04:00Z</time>
      </trkpt>
      <trkpt lat="49.26689" lon="1.16586">
        <ele>101.99732</ele>
        <time>2015-07-02T15:04:05Z</time>
      </trkpt>
      <trkpt lat="49.26694" lon="1.16587">
        <ele>101.99732</ele>
        <time>2015-07-02T15:04:10Z</time>
      </trkpt>
      <trkpt lat="49.26702" lon="1.16586">
        <ele>102.835144</ele>
        <time>2015-07-02T15:04:15Z</time>
      </trkpt>
      <trkpt lat="49.26707" lon="1.16588">
        <ele>102.835144</ele>
        <time>2015-07-02T15:04:20Z</time>
      </trkpt>
      <trkpt lat="49.26711" lon="1.16589">
        <ele>103.82053</ele>
        <time>2015-07-02T15:04:25Z</time>
      </trkpt>
      <trkpt lat="49.26712" lon="1.16589">
        <ele>103.82053</ele>
        <time>2015-07-02T15:04:30Z</time>
      </trkpt>
      <trkpt lat="49.26714" lon="1.1659">
        <ele>103.82053</ele>
        <time>2015-07-02T15:04:35Z</time>
      </trkpt>
      <trkpt lat="49.26719" lon="1.16593">
        <ele>103.82053</ele>
        <time>2015-07-02T15:04:40Z</time>
      </trkpt>
      <trkpt lat="49.26726" lon="1.16595">
        <ele>104.90977</ele>
        <time>2015-07-02T15:04:45Z</time>
      </trkpt>
      <trkpt lat="49.26731" lon="1.16599">
        <ele>104.90977</ele>
        <time>2015-07-02T15:04:50Z</time>
      </trkpt>
      <trkpt lat="49.26737" lon="1.16597">
        <ele>105.96121</ele>
        <time>2015-07-02T15:04:55Z</time>
      </trkpt>
      <trkpt lat="49.2674" lon="1.16598">
        <ele>105.96121</ele>
        <time>2015-07-02T15:05:00Z</time>
      </trkpt>
      <trkpt lat="49.26743" lon="1.16596">
        <ele>105.96121</ele>
        <time>2015-07-02T15:05:05Z</time>
      </trkpt>
      <trkpt lat="49.26745" lon="1.16595">
        <ele>105.96121</ele>
        <time>2015-07-02T15:05:10Z</time>
      </trkpt>
      <trkpt lat="49.26748" lon="1.16595">
        <ele>107.20408</ele>
        <time>2015-07-02T15:05:15Z</time>
      </trkpt>
      <trkpt lat="49.26753" lon="1.16595">
        <ele>107.20408</ele>
        <time>2015-07-02T15:05:20Z</time>
      </trkpt>
      <trkpt lat="49.26756" lon="1.16595">
        <ele>107.20408</ele>
        <time>2015-07-02T15:05:25Z</time>
      </trkpt>
      <trkpt lat="49.2676" lon="1.16598">
        <ele>108.85029</ele>
        <time>2015-07-02T15:05:30Z</time>
      </trkpt>
      <trkpt lat="49.26771" lon="1.16595">
        <ele>110.388954</ele>
        <time>2015-07-02T15:05:35Z</time>
      </trkpt>
      <trkpt lat="49.26778" lon="1.16597">
        <ele>110.388954</ele>
        <time>2015-07-02T15:05:40Z</time>
      </trkpt>
      <trkpt lat="49.26782" lon="1.16597">
        <ele>111.88035</ele>
        <time>2015-07-02T15:05:45Z</time>
      </trkpt>
      <trkpt lat="49.26786" lon="1.16597">
        <ele>111.88035</ele>
        <time>2015-07-02T15:05:50Z</time>
      </trkpt>
      <trkpt lat="49.26789" lon="1.16597">
        <ele>111.88035</ele>
        <time>2015-07-02T15:05:55Z</time>
      </trkpt>
      <trkpt lat="49.26792" lon="1.16596">
        <ele>113.3517</ele>
        <time>2015-07-02T15:06:00Z</time>
      </trkpt>
      <trkpt lat="49.26795" lon="1.16599">
        <ele>113.3517</ele>
        <time>2015-07-02T15:06:05Z</time>
      </trkpt>
      <trkpt lat="49.268" lon="1.16599">
        <ele>113.3517</ele>
        <time>2015-07-02T15:06:10Z</time>
      </trkpt>
      <trkpt lat="49.26804" lon="1.16598">
        <ele>114.813995</ele>
        <time>2015-07-02T15:06:15Z</time>
      </trkpt>
      <trkpt lat="49.26809" lon="1.16598">
        <ele>114.813995</ele>
        <time>2015-07-02T15:06:20Z</time>
      </trkpt>
      <trkpt lat="49.26815" lon="1.16597">
        <ele>116.20548</ele>
        <time>2015-07-02T15:06:25Z</time>
      </trkpt>
      <trkpt lat="49.26822" lon="1.16601">
        <ele>116.20548</ele>
        <time>2015-07-02T15:06:30Z</time>
      </trkpt>
      <trkpt lat="49.26826" lon="1.16603">
        <ele>117.57014</ele>
        <time>2015-07-02T15:06:35Z</time>
      </trkpt>
      <trkpt lat="49.2683" lon="1.16604">
        <ele>117.57014</ele>
        <time>2015-07-02T15:06:40Z</time>
      </trkpt>
      <trkpt lat="49.26834" lon="1.16603">
        <ele>117.57014</ele>
        <time>2015-07-02T15:06:45Z</time>
      </trkpt>
      <trkpt lat="49.26838" lon="1.16604">
        <ele>118.97773</ele>
        <time>2015-07-02T15:06:50Z</time>
      </trkpt>
      <trkpt lat="49.26844" lon="1.16603">
        <ele>118.97773</ele>
        <time>2015-07-02T15:06:55Z</time>
      </trkpt>
      <trkpt lat="49.26848" lon="1.16605">
        <ele>120.26232</ele>
        <time>2015-07-02T15:07:00Z</time>
      </trkpt>
      <trkpt lat="49.26853" lon="1.16603">
        <ele>120.26232</ele>
        <time>2015-07-02T15:07:05Z</time>
      </trkpt>
      <trkpt lat="49.26858" lon="1.16605">
        <ele>121.42917</ele>
        <time>2015-07-02T15:07:10Z</time>
      </trkpt>
      <trkpt lat="49.26865" lon="1.16607">
        <ele>121.42917</ele>
        <time>2015-07-02T15:07:15Z</time>
      </trkpt>
      <trkpt lat="49.26869" lon="1.16606">
        <ele>122.48358</ele>
        <time>2015-07-02T15:07:20Z</time>
      </trkpt>
      <trkpt lat="49.26874" lon="1.16607">
        <ele>122.48358</ele>
        <time>2015-07-02T15:07:25Z</time>
      </trkpt>
      <trkpt lat="49.26878" lon="1.16606">
        <ele>123.43094</ele>
        <time>2015-07-02T15:07:30Z</time>
      </trkpt>
      <trkpt lat="49.26882" lon="1.16607">
        <ele>123.43094</ele>
        <time>2015-07-02T15:07:35Z</time>
      </trkpt>
      <trkpt lat="49.26889" lon="1.16607">
        <ele>124.31987</ele>
        <time>2015-07-02T15:07:40Z</time>
      </trkpt>
      <trkpt lat="49.26893" lon="1.16607">
        <ele>124.31987</ele>
        <time>2015-07-02T15:07:45Z</time>
      </trkpt>
      <trkpt lat="49.26899" lon="1.16608">
        <ele>125.18133</ele>
        <time>2015-07-02T15:07:50Z</time>
      </trkpt>
      <trkpt lat="49.26905" lon="1.16612">
        <ele>125.18133</ele>
        <time>2015-07-02T15:07:55Z</time>
      </trkpt>
      <trkpt lat="49.26909" lon="1.16613">
        <ele>126.02978</ele>
        <time>2015-07-02T15:08:00Z</time>
      </trkpt>
      <trkpt lat="49.26915" lon="1.16612">
        <ele>126.02978</ele>
        <time>2015-07-02T15:08:05Z</time>
      </trkpt>
      <trkpt lat="49.26919" lon="1.16612">
        <ele>126.90758</ele>
        <time>2015-07-02T15:08:10Z</time>
      </trkpt>
      <trkpt lat="49.26924" lon="1.16613">
        <ele>126.90758</ele>
        <time>2015-07-02T15:08:15Z</time>
      </trkpt>
      <trkpt lat="49.26927" lon="1.16613">
        <ele>126.90758</ele>
        <time>2015-07-02T15:08:20Z</time>
      </trkpt>
      <trkpt lat="49.26933" lon="1.16613">
        <ele>127.79639</ele>
        <time>2015-07-02T15:08:25Z</time>
      </trkpt>
      <trkpt lat="49.26938" lon="1.16613">
        <ele>127.79639</ele>
        <time>2015-07-02T15:08:30Z</time>
      </trkpt>
      <trkpt lat="49.26942" lon="1.16613">
        <ele>127.79639</ele>
        <time>2015-07-02T15:08:35Z</time>
      </trkpt>
      <trkpt lat="49.26945" lon="1.16615">
        <ele>128.44872</ele>
        <time>2015-07-02T15:08:40Z</time>
      </trkpt>
      <trkpt lat="49.2695" lon="1.16616">
        <ele>128.44872</ele>
        <time>2015-07-02T15:08:45Z</time>
      </trkpt>
      <trkpt lat="49.26956" lon="1.16619">
        <ele>128.82333</ele>
        <time>2015-07-02T15:08:50Z</time>
      </trkpt>
      <trkpt lat="49.2696" lon="1.16619">
        <ele>128.82333</ele>
        <time>2015-07-02T15:08:55Z</time>
      </trkpt>
      <trkpt lat="49.26966" lon="1.16618">
        <ele>128.98386</ele>
        <time>2015-07-02T15:09:00Z</time>
      </trkpt>
      <trkpt lat="49.26969" lon="1.16618">
        <ele>128.98386</ele>
        <time>2015-07-02T15:09:05Z</time>
      </trkpt>
      <trkpt lat="49.26975" lon="1.1662">
        <ele>128.90341</ele>
        <time>2015-07-02T15:09:10Z</time>
      </trkpt>
      <trkpt lat="49.26985" lon="1.16621">
        <ele>128.78845</ele>
        <time>2015-07-02T15:09:15Z</time>
      </trkpt>
      <trkpt lat="49.26993" lon="1.16621">
        <ele>128.78845</ele>
        <time>2015-07-02T15:09:20Z</time>
      </trkpt>
      <trkpt lat="49.26999" lon="1.16621">
        <ele>128.74397</ele>
        <time>2015-07-02T15:09:25Z</time>
      </trkpt>
      <trkpt lat="49.27004" lon="1.16621">
        <ele>128.74397</ele>
        <time>2015-07-02T15:09:30Z</time>
      </trkpt>
      <trkpt lat="49.27008" lon="1.16621">
        <ele>128.73741</ele>
        <time>2015-07-02T15:09:35Z</time>
      </trkpt>
      <trkpt lat="49.27013" lon="1.16621">
        <ele>128.73741</ele>
        <time>2015-07-02T15:09:40Z</time>
      </trkpt>
      <trkpt lat="49.27019" lon="1.16621">
        <ele>128.62328</ele>
        <time>2015-07-02T15:09:45Z</time>
      </trkpt>
      <trkpt lat="49.27023" lon="1.1662">
        <ele>128.62328</ele>
        <time>2015-07-02T15:09:50Z</time>
      </trkpt>
      <trkpt lat="49.27028" lon="1.16621">
        <ele>128.36798</ele>
        <time>2015-07-02T15:09:55Z</time>
      </trkpt>
      <trkpt lat="49.27035" lon="1.16623">
        <ele>128.36798</ele>
        <time>2015-07-02T15:10:00Z</time>
      </trkpt>
      <trkpt lat="49.27038" lon="1.16626">
        <ele>128.28671</ele>
        <time>2015-07-02T15:10:05Z</time>
      </trkpt>
      <trkpt lat="49.27044" lon="1.16626">
        <ele>128.28671</ele>
        <time>2015-07-02T15:10:10Z</time>
      </trkpt>
      <trkpt lat="49.27053" lon="1.16627">
        <ele>128.2531</ele>
        <time>2015-07-02T15:10:15Z</time>
      </trkpt>
      <trkpt lat="49.27058" lon="1.16629">
        <ele>128.2531</ele>
        <time>2015-07-02T15:10:20Z</time>
      </trkpt>
      <trkpt lat="49.27064" lon="1.1663">
        <ele>128.27968</ele>
        <time>2015-07-02T15:10:25Z</time>
      </trkpt>
      <trkpt lat="49.2707" lon="1.1663">
        <ele>128.27968</ele>
        <time>2015-07-02T15:10:30Z</time>
      </trkpt>
      <trkpt lat="49.27077" lon="1.16632">
        <ele>128.36348</ele>
        <time>2015-07-02T15:10:35Z</time>
      </trkpt>
      <trkpt lat="49.27084" lon="1.16631">
        <ele>128.36348</ele>
        <time>2015-07-02T15:10:40Z</time>
      </trkpt>
      <trkpt lat="49.27091" lon="1.16632">
        <ele>128.57365</ele>
        <time>2015-07-02T15:10:45Z</time>
      </trkpt>
      <trkpt lat="49.27098" lon="1.16632">
        <ele>128.57365</ele>
        <time>2015-07-02T15:10:50Z</time>
      </trkpt>
      <trkpt lat="49.27104" lon="1.16632">
        <ele>128.97394</ele>
        <time>2015-07-02T15:10:55Z</time>
      </trkpt>
      <trkpt lat="49.27112" lon="1.16631">
        <ele>128.97394</ele>
        <time>2015-07-02T15:11:00Z</time>
      </trkpt>
      <trkpt lat="49.27118" lon="1.16632">
        <ele>129.52197</ele>
        <time>2015-07-02T15:11:05Z</time>
      </trkpt>
      <trkpt lat="49.27124" lon="1.16634">
        <ele>129.52197</ele>
        <time>2015-07-02T15:11:10Z</time>
      </trkpt>
      <trkpt lat="49.27128" lon="1.16634">
        <ele>130.00516</ele>
        <time>2015-07-02T15:11:15Z</time>
      </trkpt>
      <trkpt lat="49.27132" lon="1.16636">
        <ele>130.00516</ele>
        <time>2015-07-02T15:11:20Z</time>
      </trkpt>
      <trkpt lat="49.27138" lon="1.16635">
        <ele>130.39963</ele>
        <time>2015-07-02T15:11:25Z</time>
      </trkpt>
      <trkpt lat="49.27142" lon="1.16634">
        <ele>130.39963</ele>
        <time>2015-07-02T15:11:30Z</time>
      </trkpt>
      <trkpt lat="49.27144" lon="1.16635">
        <ele>130.39963</ele>
        <time>2015-07-02T15:11:35Z</time>
      </trkpt>
      <trkpt lat="49.27144" lon="1.16635">
        <ele>130.39963</ele>
        <time>2015-07-02T15:11:40Z</time>
      </trkpt>
      <trkpt lat="49.27145" lon="1.16635">
        <ele>130.39963</ele>
        <time>2015-07-02T15:12:10Z</time>
      </trkpt>
      <trkpt lat="49.27145" lon="1.16635">
        <ele>130.39963</ele>
        <time>2015-07-02T15:12:15Z</time>
      </trkpt>
      <trkpt lat="49.27145" lon="1.16635">
        <ele>130.39963</ele>
        <time>2015-07-02T15:12:20Z</time>
      </trkpt>
      <trkpt lat="49.27145" lon="1.16635">
        <ele>130.39963</ele>
        <time>2015-07-02T15:12:25Z</time>
      </trkpt>
      <trkpt lat="49.27149" lon="1.16636">
        <ele>131.10144</ele>
        <time>2015-07-02T15:13:50Z</time>
      </trkpt>
      <trkpt lat="49.27153" lon="1.16635">
        <ele>131.10144</ele>
        <time>2015-07-02T15:13:55Z</time>
      </trkpt>
      <trkpt lat="49.27161" lon="1.1663">
        <ele>132.2029</ele>
        <time>2015-07-02T15:14:00Z</time>
      </trkpt>
      <trkpt lat="49.27165" lon="1.16625">
        <ele>132.2029</ele>
        <time>2015-07-02T15:14:05Z</time>
      </trkpt>
      <trkpt lat="49.27171" lon="1.16622">
        <ele>133.50017</ele>
        <time>2015-07-02T15:14:10Z</time>
      </trkpt>
      <trkpt lat="49.27175" lon="1.1662">
        <ele>133.50017</ele>
        <time>2015-07-02T15:14:15Z</time>
      </trkpt>
      <trkpt lat="49.27179" lon="1.1662">
        <ele>133.50017</ele>
        <time>2015-07-02T15:14:20Z</time>
      </trkpt>
      <trkpt lat="49.27184" lon="1.16621">
        <ele>134.68854</ele>
        <time>2015-07-02T15:14:25Z</time>
      </trkpt>
      <trkpt lat="49.2719" lon="1.16621">
        <ele>134.68854</ele>
        <time>2015-07-02T15:14:30Z</time>
      </trkpt>
      <trkpt lat="49.27194" lon="1.16623">
        <ele>135.6878</ele>
        <time>2015-07-02T15:14:35Z</time>
      </trkpt>
      <trkpt lat="49.27198" lon="1.16624">
        <ele>135.6878</ele>
        <time>2015-07-02T15:14:40Z</time>
      </trkpt>
      <trkpt lat="49.27205" lon="1.16626">
        <ele>136.4962</ele>
        <time>2015-07-02T15:14:45Z</time>
      </trkpt>
      <trkpt lat="49.27213" lon="1.16627">
        <ele>136.4962</ele>
        <time>2015-07-02T15:14:50Z</time>
      </trkpt>
      <trkpt lat="49.27219" lon="1.16627">
        <ele>137.25679</ele>
        <time>2015-07-02T15:14:55Z</time>
      </trkpt>
      <trkpt lat="49.27223" lon="1.16627">
        <ele>137.25679</ele>
        <time>2015-07-02T15:15:00Z</time>
      </trkpt>
      <trkpt lat="49.27231" lon="1.16626">
        <ele>137.84286</ele>
        <time>2015-07-02T15:15:05Z</time>
      </trkpt>
      <trkpt lat="49.27237" lon="1.16627">
        <ele>137.84286</ele>
        <time>2015-07-02T15:15:10Z</time>
      </trkpt>
      <trkpt lat="49.27244" lon="1.16626">
        <ele>138.16632</ele>
        <time>2015-07-02T15:15:15Z</time>
      </trkpt>
      <trkpt lat="49.2725" lon="1.16628">
        <ele>138.16632</ele>
        <time>2015-07-02T15:15:20Z</time>
      </trkpt>
      <trkpt lat="49.27255" lon="1.1663">
        <ele>138.42015</ele>
        <time>2015-07-02T15:15:25Z</time>
      </trkpt>
      <trkpt lat="49.27261" lon="1.16634">
        <ele>138.42015</ele>
        <time>2015-07-02T15:15:30Z</time>
      </trkpt>
      <trkpt lat="49.27265" lon="1.16634">
        <ele>138.62482</ele>
        <time>2015-07-02T15:15:35Z</time>
      </trkpt>
      <trkpt lat="49.27272" lon="1.16635">
        <ele>138.62482</ele>
        <time>2015-07-02T15:15:40Z</time>
      </trkpt>
      <trkpt lat="49.27278" lon="1.16636">
        <ele>138.7562</ele>
        <time>2015-07-02T15:15:45Z</time>
      </trkpt>
      <trkpt lat="49.27283" lon="1.16635">
        <ele>138.7562</ele>
        <time>2015-07-02T15:15:50Z</time>
      </trkpt>
      <trkpt lat="49.27286" lon="1.16636">
        <ele>138.7562</ele>
        <time>2015-07-02T15:15:55Z</time>
      </trkpt>
      <trkpt lat="49.27294" lon="1.16635">
        <ele>138.89304</ele>
        <time>2015-07-02T15:16:00Z</time>
      </trkpt>
      <trkpt lat="49.27298" lon="1.16635">
        <ele>138.89304</ele>
        <time>2015-07-02T15:16:05Z</time>
      </trkpt>
      <trkpt lat="49.27301" lon="1.16636">
        <ele>138.89304</ele>
        <time>2015-07-02T15:16:10Z</time>
      </trkpt>
      <trkpt lat="49.27308" lon="1.16638">
        <ele>138.84886</ele>
        <time>2015-07-02T15:16:15Z</time>
      </trkpt>
      <trkpt lat="49.27315" lon="1.16637">
        <ele>138.84886</ele>
        <time>2015-07-02T15:16:20Z</time>
      </trkpt>
      <trkpt lat="49.27321" lon="1.16636">
        <ele>138.75407</ele>
        <time>2015-07-02T15:16:25Z</time>
      </trkpt>
      <trkpt lat="49.27327" lon="1.16635">
        <ele>138.75407</ele>
        <time>2015-07-02T15:16:30Z</time>
      </trkpt>
      <trkpt lat="49.27335" lon="1.16636">
        <ele>138.67195</ele>
        <time>2015-07-02T15:16:35Z</time>
      </trkpt>
      <trkpt lat="49.2734" lon="1.16637">
        <ele>138.67195</ele>
        <time>2015-07-02T15:16:40Z</time>
      </trkpt>
      <trkpt lat="49.27344" lon="1.16637">
        <ele>138.48816</ele>
        <time>2015-07-02T15:16:45Z</time>
      </trkpt>
      <trkpt lat="49.27349" lon="1.16637">
        <ele>138.48816</ele>
        <time>2015-07-02T15:16:50Z</time>
      </trkpt>
      <trkpt lat="49.27354" lon="1.1664">
        <ele>138.0826</ele>
        <time>2015-07-02T15:16:55Z</time>
      </trkpt>
      <trkpt lat="49.27361" lon="1.1664">
        <ele>138.0826</ele>
        <time>2015-07-02T15:17:00Z</time>
      </trkpt>
      <trkpt lat="49.27367" lon="1.16639">
        <ele>137.63283</ele>
        <time>2015-07-02T15:17:05Z</time>
      </trkpt>
      <trkpt lat="49.27372" lon="1.1664">
        <ele>137.63283</ele>
        <time>2015-07-02T15:17:10Z</time>
      </trkpt>
      <trkpt lat="49.27378" lon="1.16641">
        <ele>137.18816</ele>
        <time>2015-07-02T15:17:15Z</time>
      </trkpt>
      <trkpt lat="49.27384" lon="1.1664">
        <ele>137.18816</ele>
        <time>2015-07-02T15:17:20Z</time>
      </trkpt>
      <trkpt lat="49.27389" lon="1.16641">
        <ele>136.65013</ele>
        <time>2015-07-02T15:17:25Z</time>
      </trkpt>
      <trkpt lat="49.27394" lon="1.16642">
        <ele>136.65013</ele>
        <time>2015-07-02T15:17:30Z</time>
      </trkpt>
      <trkpt lat="49.274" lon="1.16643">
        <ele>136.04303</ele>
        <time>2015-07-02T15:17:35Z</time>
      </trkpt>
      <trkpt lat="49.27407" lon="1.16642">
        <ele>136.04303</ele>
        <time>2015-07-02T15:17:40Z</time>
      </trkpt>
      <trkpt lat="49.27413" lon="1.16642">
        <ele>135.4183</ele>
        <time>2015-07-02T15:17:45Z</time>
      </trkpt>
      <trkpt lat="49.27419" lon="1.16642">
        <ele>135.4183</ele>
        <time>2015-07-02T15:17:50Z</time>
      </trkpt>
      <trkpt lat="49.27425" lon="1.16641">
        <ele>134.69392</ele>
        <time>2015-07-02T15:17:55Z</time>
      </trkpt>
      <trkpt lat="49.27431" lon="1.16641">
        <ele>134.69392</ele>
        <time>2015-07-02T15:18:00Z</time>
      </trkpt>
      <trkpt lat="49.27437" lon="1.16644">
        <ele>133.93823</ele>
        <time>2015-07-02T15:18:05Z</time>
      </trkpt>
      <trkpt lat="49.27442" lon="1.16646">
        <ele>133.93823</ele>
        <time>2015-07-02T15:18:10Z</time>
      </trkpt>
      <trkpt lat="49.27448" lon="1.16646">
        <ele>133.22899</ele>
        <time>2015-07-02T15:18:15Z</time>
      </trkpt>
      <trkpt lat="49.27453" lon="1.16648">
        <ele>133.22899</ele>
        <time>2015-07-02T15:18:20Z</time>
      </trkpt>
      <trkpt lat="49.27459" lon="1.16648">
        <ele>132.5083</ele>
        <time>2015-07-02T15:18:25Z</time>
      </trkpt>
      <trkpt lat="49.27465" lon="1.1665">
        <ele>132.5083</ele>
        <time>2015-07-02T15:18:30Z</time>
      </trkpt>
      <trkpt lat="49.27471" lon="1.1665">
        <ele>131.78018</ele>
        <time>2015-07-02T15:18:35Z</time>
      </trkpt>
      <trkpt lat="49.27477" lon="1.16651">
        <ele>131.78018</ele>
        <time>2015-07-02T15:18:40Z</time>
      </trkpt>
      <trkpt lat="49.27482" lon="1.16652">
        <ele>131.07707</ele>
        <time>2015-07-02T15:18:45Z</time>
      </trkpt>
      <trkpt lat="49.27488" lon="1.16653">
        <ele>131.07707</ele>
        <time>2015-07-02T15:18:50Z</time>
      </trkpt>
      <trkpt lat="49.27493" lon="1.16654">
        <ele>130.37128</ele>
        <time>2015-07-02T15:18:55Z</time>
      </trkpt>
      <trkpt lat="49.275" lon="1.16655">
        <ele>130.37128</ele>
        <time>2015-07-02T15:19:00Z</time>
      </trkpt>
      <trkpt lat="49.27506" lon="1.16655">
        <ele>129.76672</ele>
        <time>2015-07-02T15:19:05Z</time>
      </trkpt>
      <trkpt lat="49.27512" lon="1.16656">
        <ele>129.76672</ele>
        <time>2015-07-02T15:19:10Z</time>
      </trkpt>
      <trkpt lat="49.27517" lon="1.16658">
        <ele>129.21526</ele>
        <time>2015-07-02T15:19:15Z</time>
      </trkpt>
      <trkpt lat="49.27526" lon="1.16657">
        <ele>129.21526</ele>
        <time>2015-07-02T15:19:20Z</time>
      </trkpt>
      <trkpt lat="49.27532" lon="1.16655">
        <ele>128.68639</ele>
        <time>2015-07-02T15:19:25Z</time>
      </trkpt>
      <trkpt lat="49.27538" lon="1.16654">
        <ele>128.68639</ele>
        <time>2015-07-02T15:19:30Z</time>
      </trkpt>
      <trkpt lat="49.27544" lon="1.16656">
        <ele>128.16617</ele>
        <time>2015-07-02T15:19:35Z</time>
      </trkpt>
      <trkpt lat="49.2755" lon="1.16657">
        <ele>128.16617</ele>
        <time>2015-07-02T15:19:40Z</time>
      </trkpt>
      <trkpt lat="49.27555" lon="1.16655">
        <ele>127.742424</ele>
        <time>2015-07-02T15:19:45Z</time>
      </trkpt>
      <trkpt lat="49.27562" lon="1.16656">
        <ele>127.742424</ele>
        <time>2015-07-02T15:19:50Z</time>
      </trkpt>
      <trkpt lat="49.27566" lon="1.16657">
        <ele>127.43854</ele>
        <time>2015-07-02T15:19:55Z</time>
      </trkpt>
      <trkpt lat="49.27571" lon="1.16657">
        <ele>127.43854</ele>
        <time>2015-07-02T15:20:00Z</time>
      </trkpt>
      <trkpt lat="49.27575" lon="1.16657">
        <ele>127.43854</ele>
        <time>2015-07-02T15:20:05Z</time>
      </trkpt>
      <trkpt lat="49.27581" lon="1.16658">
        <ele>127.37662</ele>
        <time>2015-07-02T15:20:10Z</time>
      </trkpt>
      <trkpt lat="49.27585" lon="1.16657">
        <ele>127.37662</ele>
        <time>2015-07-02T15:20:15Z</time>
      </trkpt>
      <trkpt lat="49.2759" lon="1.16658">
        <ele>127.42407</ele>
        <time>2015-07-02T15:20:20Z</time>
      </trkpt>
      <trkpt lat="49.27598" lon="1.16662">
        <ele>127.42407</ele>
        <time>2015-07-02T15:20:25Z</time>
      </trkpt>
      <trkpt lat="49.27603" lon="1.16663">
        <ele>127.67382</ele>
        <time>2015-07-02T15:20:30Z</time>
      </trkpt>
      <trkpt lat="49.27609" lon="1.16664">
        <ele>127.67382</ele>
        <time>2015-07-02T15:20:35Z</time>
      </trkpt>
      <trkpt lat="49.27614" lon="1.16662">
        <ele>127.96633</ele>
        <time>2015-07-02T15:20:40Z</time>
      </trkpt>
      <trkpt lat="49.27621" lon="1.16666">
        <ele>127.96633</ele>
        <time>2015-07-02T15:20:45Z</time>
      </trkpt>
      <trkpt lat="49.27625" lon="1.16666">
        <ele>128.34096</ele>
        <time>2015-07-02T15:20:50Z</time>
      </trkpt>
      <trkpt lat="49.27632" lon="1.16666">
        <ele>128.34096</ele>
        <time>2015-07-02T15:20:55Z</time>
      </trkpt>
      <trkpt lat="49.27638" lon="1.16666">
        <ele>128.74739</ele>
        <time>2015-07-02T15:21:00Z</time>
      </trkpt>
      <trkpt lat="49.27646" lon="1.16663">
        <ele>128.74739</ele>
        <time>2015-07-02T15:21:05Z</time>
      </trkpt>
      <trkpt lat="49.2765" lon="1.16662">
        <ele>129.18213</ele>
        <time>2015-07-02T15:21:10Z</time>
      </trkpt>
      <trkpt lat="49.27655" lon="1.16663">
        <ele>129.18213</ele>
        <time>2015-07-02T15:21:15Z</time>
      </trkpt>
      <trkpt lat="49.2766" lon="1.16665">
        <ele>129.58415</ele>
        <time>2015-07-02T15:21:20Z</time>
      </trkpt>
      <trkpt lat="49.27666" lon="1.16668">
        <ele>129.58415</ele>
        <time>2015-07-02T15:21:25Z</time>
      </trkpt>
      <trkpt lat="49.27672" lon="1.16667">
        <ele>129.94023</ele>
        <time>2015-07-02T15:21:30Z</time>
      </trkpt>
      <trkpt lat="49.27678" lon="1.16668">
        <ele>129.94023</ele>
        <time>2015-07-02T15:21:35Z</time>
      </trkpt>
      <trkpt lat="49.27684" lon="1.16669">
        <ele>130.35347</ele>
        <time>2015-07-02T15:21:40Z</time>
      </trkpt>
      <trkpt lat="49.27691" lon="1.16669">
        <ele>130.35347</ele>
        <time>2015-07-02T15:21:45Z</time>
      </trkpt>
      <trkpt lat="49.27698" lon="1.16669">
        <ele>130.65982</ele>
        <time>2015-07-02T15:21:50Z</time>
      </trkpt>
      <trkpt lat="49.27703" lon="1.16671">
        <ele>130.65982</ele>
        <time>2015-07-02T15:21:55Z</time>
      </trkpt>
      <trkpt lat="49.27708" lon="1.16671">
        <ele>130.93817</ele>
        <time>2015-07-02T15:22:00Z</time>
      </trkpt>
      <trkpt lat="49.27713" lon="1.16671">
        <ele>130.93817</ele>
        <time>2015-07-02T15:22:05Z</time>
      </trkpt>
      <trkpt lat="49.27719" lon="1.16673">
        <ele>131.29047</ele>
        <time>2015-07-02T15:22:10Z</time>
      </trkpt>
      <trkpt lat="49.27724" lon="1.16677">
        <ele>131.29047</ele>
        <time>2015-07-02T15:22:15Z</time>
      </trkpt>
      <trkpt lat="49.27731" lon="1.16677">
        <ele>131.63803</ele>
        <time>2015-07-02T15:22:20Z</time>
      </trkpt>
      <trkpt lat="49.27739" lon="1.16676">
        <ele>131.63803</ele>
        <time>2015-07-02T15:22:25Z</time>
      </trkpt>
      <trkpt lat="49.27745" lon="1.16678">
        <ele>131.9224</ele>
        <time>2015-07-02T15:22:30Z</time>
      </trkpt>
      <trkpt lat="49.27749" lon="1.16677">
        <ele>131.9224</ele>
        <time>2015-07-02T15:22:35Z</time>
      </trkpt>
      <trkpt lat="49.27755" lon="1.16676">
        <ele>132.26247</ele>
        <time>2015-07-02T15:22:40Z</time>
      </trkpt>
      <trkpt lat="49.27761" lon="1.16677">
        <ele>132.26247</ele>
        <time>2015-07-02T15:22:45Z</time>
      </trkpt>
      <trkpt lat="49.27765" lon="1.16679">
        <ele>132.68184</ele>
        <time>2015-07-02T15:22:50Z</time>
      </trkpt>
      <trkpt lat="49.27771" lon="1.16679">
        <ele>132.68184</ele>
        <time>2015-07-02T15:22:55Z</time>
      </trkpt>
      <trkpt lat="49.27778" lon="1.16685">
        <ele>133.02917</ele>
        <time>2015-07-02T15:23:00Z</time>
      </trkpt>
      <trkpt lat="49.27787" lon="1.16684">
        <ele>133.02917</ele>
        <time>2015-07-02T15:23:05Z</time>
      </trkpt>
      <trkpt lat="49.27792" lon="1.16682">
        <ele>133.22215</ele>
        <time>2015-07-02T15:23:10Z</time>
      </trkpt>
      <trkpt lat="49.27796" lon="1.16683">
        <ele>133.22215</ele>
        <time>2015-07-02T15:23:15Z</time>
      </trkpt>
      <trkpt lat="49.27799" lon="1.16683">
        <ele>133.22215</ele>
        <time>2015-07-02T15:23:20Z</time>
      </trkpt>
      <trkpt lat="49.27808" lon="1.16686">
        <ele>133.27138</ele>
        <time>2015-07-02T15:23:25Z</time>
      </trkpt>
      <trkpt lat="49.27813" lon="1.16688">
        <ele>133.27138</ele>
        <time>2015-07-02T15:23:30Z</time>
      </trkpt>
      <trkpt lat="49.27819" lon="1.16688">
        <ele>133.20152</ele>
        <time>2015-07-02T15:23:35Z</time>
      </trkpt>
      <trkpt lat="49.27825" lon="1.16687">
        <ele>133.20152</ele>
        <time>2015-07-02T15:23:40Z</time>
      </trkpt>
      <trkpt lat="49.27831" lon="1.16687">
        <ele>133.10785</ele>
        <time>2015-07-02T15:23:45Z</time>
      </trkpt>
      <trkpt lat="49.27837" lon="1.16689">
        <ele>133.10785</ele>
        <time>2015-07-02T15:23:50Z</time>
      </trkpt>
      <trkpt lat="49.27843" lon="1.16687">
        <ele>133.09308</ele>
        <time>2015-07-02T15:23:55Z</time>
      </trkpt>
      <trkpt lat="49.27848" lon="1.16687">
        <ele>133.09308</ele>
        <time>2015-07-02T15:24:00Z</time>
      </trkpt>
      <trkpt lat="49.27854" lon="1.1669">
        <ele>132.97841</ele>
        <time>2015-07-02T15:24:05Z</time>
      </trkpt>
      <trkpt lat="49.2786" lon="1.16689">
        <ele>132.97841</ele>
        <time>2015-07-02T15:24:10Z</time>
      </trkpt>
      <trkpt lat="49.27864" lon="1.16688">
        <ele>132.7714</ele>
        <time>2015-07-02T15:24:15Z</time>
      </trkpt>
      <trkpt lat="49.2787" lon="1.1669">
        <ele>132.7714</ele>
        <time>2015-07-02T15:24:20Z</time>
      </trkpt>
      <trkpt lat="49.27875" lon="1.1669">
        <ele>132.49365</ele>
        <time>2015-07-02T15:24:25Z</time>
      </trkpt>
      <trkpt lat="49.27879" lon="1.1669">
        <ele>132.49365</ele>
        <time>2015-07-02T15:24:30Z</time>
      </trkpt>
      <trkpt lat="49.27884" lon="1.1669">
        <ele>132.06462</ele>
        <time>2015-07-02T15:24:35Z</time>
      </trkpt>
      <trkpt lat="49.27891" lon="1.1669">
        <ele>132.06462</ele>
        <time>2015-07-02T15:24:40Z</time>
      </trkpt>
      <trkpt lat="49.27899" lon="1.16688">
        <ele>131.55415</ele>
        <time>2015-07-02T15:24:45Z</time>
      </trkpt>
      <trkpt lat="49.279" lon="1.16689">
        <ele>131.55415</ele>
        <time>2015-07-02T15:24:50Z</time>
      </trkpt>
      <trkpt lat="49.27899" lon="1.16688">
        <ele>131.55415</ele>
        <time>2015-07-02T15:24:55Z</time>
      </trkpt>
      <trkpt lat="49.27899" lon="1.16687">
        <ele>131.55415</ele>
        <time>2015-07-02T15:25:00Z</time>
      </trkpt>
      <trkpt lat="49.279" lon="1.16688">
        <ele>131.55415</ele>
        <time>2015-07-02T15:25:05Z</time>
      </trkpt>
      <trkpt lat="49.27905" lon="1.16691">
        <ele>130.88307</ele>
        <time>2015-07-02T15:25:10Z</time>
      </trkpt>
      <trkpt lat="49.27913" lon="1.16692">
        <ele>130.88307</ele>
        <time>2015-07-02T15:25:15Z</time>
      </trkpt>
      <trkpt lat="49.2792" lon="1.16691">
        <ele>130.1226</ele>
        <time>2015-07-02T15:25:20Z</time>
      </trkpt>
      <trkpt lat="49.27924" lon="1.16693">
        <ele>130.1226</ele>
        <time>2015-07-02T15:25:25Z</time>
      </trkpt>
      <trkpt lat="49.2793" lon="1.16694">
        <ele>129.26694</ele>
        <time>2015-07-02T15:25:30Z</time>
      </trkpt>
      <trkpt lat="49.27938" lon="1.16694">
        <ele>129.26694</ele>
        <time>2015-07-02T15:25:35Z</time>
      </trkpt>
      <trkpt lat="49.27943" lon="1.16696">
        <ele>128.36853</ele>
        <time>2015-07-02T15:25:40Z</time>
      </trkpt>
      <trkpt lat="49.27948" lon="1.16696">
        <ele>128.36853</ele>
        <time>2015-07-02T15:25:45Z</time>
      </trkpt>
      <trkpt lat="49.27954" lon="1.16696">
        <ele>127.37529</ele>
        <time>2015-07-02T15:25:50Z</time>
      </trkpt>
      <trkpt lat="49.27958" lon="1.16697">
        <ele>127.37529</ele>
        <time>2015-07-02T15:25:55Z</time>
      </trkpt>
      <trkpt lat="49.27965" lon="1.16697">
        <ele>126.38323</ele>
        <time>2015-07-02T15:26:00Z</time>
      </trkpt>
      <trkpt lat="49.27973" lon="1.16698">
        <ele>126.38323</ele>
        <time>2015-07-02T15:26:05Z</time>
      </trkpt>
      <trkpt lat="49.27978" lon="1.16698">
        <ele>125.38043</ele>
        <time>2015-07-02T15:26:10Z</time>
      </trkpt>
      <trkpt lat="49.27985" lon="1.16697">
        <ele>125.38043</ele>
        <time>2015-07-02T15:26:15Z</time>
      </trkpt>
      <trkpt lat="49.2799" lon="1.16697">
        <ele>124.24056</ele>
        <time>2015-07-02T15:26:20Z</time>
      </trkpt>
      <trkpt lat="49.27995" lon="1.16698">
        <ele>124.24056</ele>
        <time>2015-07-02T15:26:25Z</time>
      </trkpt>
      <trkpt lat="49.28" lon="1.167">
        <ele>123.01982</ele>
        <time>2015-07-02T15:26:30Z</time>
      </trkpt>
      <trkpt lat="49.28008" lon="1.167">
        <ele>123.01982</ele>
        <time>2015-07-02T15:26:35Z</time>
      </trkpt>
      <trkpt lat="49.28012" lon="1.16699">
        <ele>121.828125</ele>
        <time>2015-07-02T15:26:40Z</time>
      </trkpt>
      <trkpt lat="49.28018" lon="1.16699">
        <ele>121.828125</ele>
        <time>2015-07-02T15:26:45Z</time>
      </trkpt>
      <trkpt lat="49.28024" lon="1.16701">
        <ele>120.60864</ele>
        <time>2015-07-02T15:26:50Z</time>
      </trkpt>
      <trkpt lat="49.28028" lon="1.167">
        <ele>120.60864</ele>
        <time>2015-07-02T15:26:55Z</time>
      </trkpt>
      <trkpt lat="49.28028" lon="1.16701">
        <ele>120.60864</ele>
        <time>2015-07-02T15:27:00Z</time>
      </trkpt>
      <trkpt lat="49.28028" lon="1.16703">
        <ele>120.60864</ele>
        <time>2015-07-02T15:27:05Z</time>
      </trkpt>
      <trkpt lat="49.28027" lon="1.167">
        <ele>120.60864</ele>
        <time>2015-07-02T15:27:10Z</time>
      </trkpt>
      <trkpt lat="49.28027" lon="1.167">
        <ele>120.60864</ele>
        <time>2015-07-02T15:27:15Z</time>
      </trkpt>
      <trkpt lat="49.28028" lon="1.16699">
        <ele>120.60864</ele>
        <time>2015-07-02T15:27:20Z</time>
      </trkpt>
      <trkpt lat="49.28028" lon="1.16699">
        <ele>120.60864</ele>
        <time>2015-07-02T15:27:25Z</time>
      </trkpt>
      <trkpt lat="49.28027" lon="1.16699">
        <ele>120.60864</ele>
        <time>2015-07-02T15:27:30Z</time>
      </trkpt>
      <trkpt lat="49.28028" lon="1.16698">
        <ele>119.179054</ele>
        <time>2015-07-02T15:27:35Z</time>
      </trkpt>
      <trkpt lat="49.28029" lon="1.16699">
        <ele>119.179054</ele>
        <time>2015-07-02T15:27:40Z</time>
      </trkpt>
      <trkpt lat="49.2803" lon="1.167">
        <ele>119.179054</ele>
        <time>2015-07-02T15:27:45Z</time>
      </trkpt>
      <trkpt lat="49.28029" lon="1.16702">
        <ele>119.179054</ele>
        <time>2015-07-02T15:27:50Z</time>
      </trkpt>
      <trkpt lat="49.28029" lon="1.16704">
        <ele>119.179054</ele>
        <time>2015-07-02T15:27:55Z</time>
      </trkpt>
      <trkpt lat="49.28029" lon="1.16702">
        <ele>119.179054</ele>
        <time>2015-07-02T15:28:00Z</time>
      </trkpt>
      <trkpt lat="49.28031" lon="1.167">
        <ele>117.65917</ele>
        <time>2015-07-02T15:28:05Z</time>
      </trkpt>
      <trkpt lat="49.28032" lon="1.16707">
        <ele>117.65917</ele>
        <time>2015-07-02T15:28:10Z</time>
      </trkpt>
      <trkpt lat="49.28031" lon="1.16719">
        <ele>116.16019</ele>
        <time>2015-07-02T15:28:15Z</time>
      </trkpt>
      <trkpt lat="49.28029" lon="1.16725">
        <ele>116.16019</ele>
        <time>2015-07-02T15:28:20Z</time>
      </trkpt>
      <trkpt lat="49.28029" lon="1.16731">
        <ele>116.16019</ele>
        <time>2015-07-02T15:28:25Z</time>
      </trkpt>
      <trkpt lat="49.28027" lon="1.16742">
        <ele>114.72735</ele>
        <time>2015-07-02T15:28:30Z</time>
      </trkpt>
      <trkpt lat="49.28027" lon="1.16748">
        <ele>114.72735</ele>
        <time>2015-07-02T15:28:35Z</time>
      </trkpt>
      <trkpt lat="49.28025" lon="1.16757">
        <ele>113.43115</ele>
        <time>2015-07-02T15:28:40Z</time>
      </trkpt>
      <trkpt lat="49.28023" lon="1.16765">
        <ele>113.43115</ele>
        <time>2015-07-02T15:28:45Z</time>
      </trkpt>
      <trkpt lat="49.28022" lon="1.16775">
        <ele>112.26438</ele>
        <time>2015-07-02T15:28:50Z</time>
      </trkpt>
      <trkpt lat="49.28022" lon="1.16782">
        <ele>112.26438</ele>
        <time>2015-07-02T15:28:55Z</time>
      </trkpt>
      <trkpt lat="49.28022" lon="1.16792">
        <ele>111.20549</ele>
        <time>2015-07-02T15:29:00Z</time>
      </trkpt>
      <trkpt lat="49.28022" lon="1.16803">
        <ele>111.20549</ele>
        <time>2015-07-02T15:29:05Z</time>
      </trkpt>
      <trkpt lat="49.28021" lon="1.16812">
        <ele>110.30618</ele>
        <time>2015-07-02T15:29:10Z</time>
      </trkpt>
      <trkpt lat="49.2802" lon="1.16822">
        <ele>110.30618</ele>
        <time>2015-07-02T15:29:15Z</time>
      </trkpt>
      <trkpt lat="49.28019" lon="1.16831">
        <ele>109.527374</ele>
        <time>2015-07-02T15:29:20Z</time>
      </trkpt>
      <trkpt lat="49.28018" lon="1.16838">
        <ele>109.527374</ele>
        <time>2015-07-02T15:29:25Z</time>
      </trkpt>
      <trkpt lat="49.28017" lon="1.16847">
        <ele>108.890076</ele>
        <time>2015-07-02T15:29:30Z</time>
      </trkpt>
      <trkpt lat="49.28016" lon="1.16856">
        <ele>108.890076</ele>
        <time>2015-07-02T15:29:35Z</time>
      </trkpt>
      <trkpt lat="49.28016" lon="1.16865">
        <ele>108.398865</ele>
        <time>2015-07-02T15:29:40Z</time>
      </trkpt>
      <trkpt lat="49.28014" lon="1.16874">
        <ele>108.398865</ele>
        <time>2015-07-02T15:29:45Z</time>
      </trkpt>
      <trkpt lat="49.28013" lon="1.16881">
        <ele>108.01425</ele>
        <time>2015-07-02T15:29:50Z</time>
      </trkpt>
      <trkpt lat="49.28013" lon="1.1689">
        <ele>108.01425</ele>
        <time>2015-07-02T15:29:55Z</time>
      </trkpt>
      <trkpt lat="49.28013" lon="1.169">
        <ele>107.67047</ele>
        <time>2015-07-02T15:30:00Z</time>
      </trkpt>
      <trkpt lat="49.28011" lon="1.16909">
        <ele>107.67047</ele>
        <time>2015-07-02T15:30:05Z</time>
      </trkpt>
      <trkpt lat="49.28011" lon="1.16919">
        <ele>107.36405</ele>
        <time>2015-07-02T15:30:10Z</time>
      </trkpt>
      <trkpt lat="49.2801" lon="1.16928">
        <ele>107.36405</ele>
        <time>2015-07-02T15:30:15Z</time>
      </trkpt>
      <trkpt lat="49.2801" lon="1.16939">
        <ele>107.178085</ele>
        <time>2015-07-02T15:30:20Z</time>
      </trkpt>
      <trkpt lat="49.2801" lon="1.16949">
        <ele>107.178085</ele>
        <time>2015-07-02T15:30:25Z</time>
      </trkpt>
      <trkpt lat="49.28008" lon="1.1696">
        <ele>107.03064</ele>
        <time>2015-07-02T15:30:30Z</time>
      </trkpt>
      <trkpt lat="49.28007" lon="1.16969">
        <ele>107.03064</ele>
        <time>2015-07-02T15:30:35Z</time>
      </trkpt>
      <trkpt lat="49.28006" lon="1.16977">
        <ele>106.96095</ele>
        <time>2015-07-02T15:30:40Z</time>
      </trkpt>
      <trkpt lat="49.28006" lon="1.16985">
        <ele>106.96095</ele>
        <time>2015-07-02T15:30:45Z</time>
      </trkpt>
      <trkpt lat="49.28006" lon="1.16993">
        <ele>107.0051</ele>
        <time>2015-07-02T15:30:50Z</time>
      </trkpt>
      <trkpt lat="49.28005" lon="1.17001">
        <ele>107.0051</ele>
        <time>2015-07-02T15:30:55Z</time>
      </trkpt>
      <trkpt lat="49.28005" lon="1.1701">
        <ele>106.90796</ele>
        <time>2015-07-02T15:31:00Z</time>
      </trkpt>
      <trkpt lat="49.28005" lon="1.1702">
        <ele>106.90796</ele>
        <time>2015-07-02T15:31:05Z</time>
      </trkpt>
      <trkpt lat="49.28005" lon="1.17031">
        <ele>106.64967</ele>
        <time>2015-07-02T15:31:10Z</time>
      </trkpt>
      <trkpt lat="49.28004" lon="1.17037">
        <ele>106.64967</ele>
        <time>2015-07-02T15:31:15Z</time>
      </trkpt>
      <trkpt lat="49.28004" lon="1.17046">
        <ele>106.399635</ele>
        <time>2015-07-02T15:31:20Z</time>
      </trkpt>
      <trkpt lat="49.28002" lon="1.17061">
        <ele>106.2427</ele>
        <time>2015-07-02T15:31:25Z</time>
      </trkpt>
      <trkpt lat="49.28001" lon="1.17066">
        <ele>106.2427</ele>
        <time>2015-07-02T15:31:30Z</time>
      </trkpt>
      <trkpt lat="49.28001" lon="1.17077">
        <ele>106.17074</ele>
        <time>2015-07-02T15:31:35Z</time>
      </trkpt>
      <trkpt lat="49.28001" lon="1.17082">
        <ele>106.17074</ele>
        <time>2015-07-02T15:31:40Z</time>
      </trkpt>
      <trkpt lat="49.28" lon="1.17092">
        <ele>106.14717</ele>
        <time>2015-07-02T15:31:45Z</time>
      </trkpt>
      <trkpt lat="49.27998" lon="1.17102">
        <ele>106.14717</ele>
        <time>2015-07-02T15:31:50Z</time>
      </trkpt>
      <trkpt lat="49.27998" lon="1.17109">
        <ele>106.181206</ele>
        <time>2015-07-02T15:31:55Z</time>
      </trkpt>
      <trkpt lat="49.27997" lon="1.17121">
        <ele>106.181206</ele>
        <time>2015-07-02T15:32:00Z</time>
      </trkpt>
      <trkpt lat="49.27996" lon="1.17131">
        <ele>106.19473</ele>
        <time>2015-07-02T15:32:05Z</time>
      </trkpt>
      <trkpt lat="49.27994" lon="1.1714">
        <ele>106.19473</ele>
        <time>2015-07-02T15:32:10Z</time>
      </trkpt>
      <trkpt lat="49.27994" lon="1.17149">
        <ele>106.273994</ele>
        <time>2015-07-02T15:32:15Z</time>
      </trkpt>
      <trkpt lat="49.27993" lon="1.17157">
        <ele>106.273994</ele>
        <time>2015-07-02T15:32:20Z</time>
      </trkpt>
      <trkpt lat="49.27991" lon="1.17164">
        <ele>106.49872</ele>
        <time>2015-07-02T15:32:25Z</time>
      </trkpt>
      <trkpt lat="49.27989" lon="1.17176">
        <ele>106.49872</ele>
        <time>2015-07-02T15:32:30Z</time>
      </trkpt>
      <trkpt lat="49.27987" lon="1.17184">
        <ele>106.98562</ele>
        <time>2015-07-02T15:32:35Z</time>
      </trkpt>
      <trkpt lat="49.27986" lon="1.17195">
        <ele>106.98562</ele>
        <time>2015-07-02T15:32:40Z</time>
      </trkpt>
      <trkpt lat="49.27985" lon="1.17205">
        <ele>107.74125</ele>
        <time>2015-07-02T15:32:45Z</time>
      </trkpt>
      <trkpt lat="49.27983" lon="1.17214">
        <ele>107.74125</ele>
        <time>2015-07-02T15:32:50Z</time>
      </trkpt>
      <trkpt lat="49.27981" lon="1.17221">
        <ele>108.727745</ele>
        <time>2015-07-02T15:32:55Z</time>
      </trkpt>
      <trkpt lat="49.27981" lon="1.17231">
        <ele>108.727745</ele>
        <time>2015-07-02T15:33:00Z</time>
      </trkpt>
      <trkpt lat="49.27979" lon="1.17241">
        <ele>109.75086</ele>
        <time>2015-07-02T15:33:05Z</time>
      </trkpt>
      <trkpt lat="49.27979" lon="1.1725">
        <ele>109.75086</ele>
        <time>2015-07-02T15:33:10Z</time>
      </trkpt>
      <trkpt lat="49.27977" lon="1.17258">
        <ele>110.81796</ele>
        <time>2015-07-02T15:33:15Z</time>
      </trkpt>
      <trkpt lat="49.27978" lon="1.17271">
        <ele>110.81796</ele>
        <time>2015-07-02T15:33:20Z</time>
      </trkpt>
      <trkpt lat="49.27978" lon="1.17277">
        <ele>111.87812</ele>
        <time>2015-07-02T15:33:25Z</time>
      </trkpt>
      <trkpt lat="49.27978" lon="1.17287">
        <ele>111.87812</ele>
        <time>2015-07-02T15:33:30Z</time>
      </trkpt>
      <trkpt lat="49.27979" lon="1.17294">
        <ele>112.95632</ele>
        <time>2015-07-02T15:33:35Z</time>
      </trkpt>
      <trkpt lat="49.27978" lon="1.17302">
        <ele>112.95632</ele>
        <time>2015-07-02T15:33:40Z</time>
      </trkpt>
      <trkpt lat="49.27974" lon="1.17314">
        <ele>113.960434</ele>
        <time>2015-07-02T15:33:45Z</time>
      </trkpt>
      <trkpt lat="49.27974" lon="1.17321">
        <ele>113.960434</ele>
        <time>2015-07-02T15:33:50Z</time>
      </trkpt>
      <trkpt lat="49.27977" lon="1.17319">
        <ele>113.960434</ele>
        <time>2015-07-02T15:33:55Z</time>
      </trkpt>
      <trkpt lat="49.27984" lon="1.17317">
        <ele>114.76218</ele>
        <time>2015-07-02T15:34:00Z</time>
      </trkpt>
      <trkpt lat="49.27986" lon="1.17317">
        <ele>114.76218</ele>
        <time>2015-07-02T15:34:05Z</time>
      </trkpt>
      <trkpt lat="49.27985" lon="1.17321">
        <ele>114.76218</ele>
        <time>2015-07-02T15:34:10Z</time>
      </trkpt>
      <trkpt lat="49.27984" lon="1.17319">
        <ele>114.76218</ele>
        <time>2015-07-02T15:34:15Z</time>
      </trkpt>
      <trkpt lat="49.27984" lon="1.17319">
        <ele>114.76218</ele>
        <time>2015-07-02T15:34:20Z</time>
      </trkpt>
      <trkpt lat="49.27985" lon="1.1732">
        <ele>114.76218</ele>
        <time>2015-07-02T15:34:30Z</time>
      </trkpt>
      <trkpt lat="49.27985" lon="1.1732">
        <ele>114.76218</ele>
        <time>2015-07-02T15:34:35Z</time>
      </trkpt>
      <trkpt lat="49.27988" lon="1.17321">
        <ele>115.28655</ele>
        <time>2015-07-02T15:34:40Z</time>
      </trkpt>
      <trkpt lat="49.27993" lon="1.17326">
        <ele>115.28655</ele>
        <time>2015-07-02T15:34:45Z</time>
      </trkpt>
      <trkpt lat="49.28" lon="1.17331">
        <ele>116.07023</ele>
        <time>2015-07-02T15:34:50Z</time>
      </trkpt>
      <trkpt lat="49.28005" lon="1.17332">
        <ele>116.07023</ele>
        <time>2015-07-02T15:34:55Z</time>
      </trkpt>
      <trkpt lat="49.28009" lon="1.17332">
        <ele>116.990135</ele>
        <time>2015-07-02T15:35:00Z</time>
      </trkpt>
      <trkpt lat="49.28014" lon="1.17329">
        <ele>116.990135</ele>
        <time>2015-07-02T15:35:05Z</time>
      </trkpt>
      <trkpt lat="49.28021" lon="1.17329">
        <ele>118.09048</ele>
        <time>2015-07-02T15:35:10Z</time>
      </trkpt>
      <trkpt lat="49.28026" lon="1.17329">
        <ele>118.09048</ele>
        <time>2015-07-02T15:35:15Z</time>
      </trkpt>
      <trkpt lat="49.28033" lon="1.17331">
        <ele>119.253296</ele>
        <time>2015-07-02T15:35:20Z</time>
      </trkpt>
      <trkpt lat="49.2804" lon="1.17331">
        <ele>119.253296</ele>
        <time>2015-07-02T15:35:25Z</time>
      </trkpt>
      <trkpt lat="49.28047" lon="1.17328">
        <ele>120.34039</ele>
        <time>2015-07-02T15:35:30Z</time>
      </trkpt>
      <trkpt lat="49.28053" lon="1.17331">
        <ele>120.34039</ele>
        <time>2015-07-02T15:35:35Z</time>
      </trkpt>
      <trkpt lat="49.28059" lon="1.17331">
        <ele>121.36815</ele>
        <time>2015-07-02T15:35:40Z</time>
      </trkpt>
      <trkpt lat="49.28063" lon="1.17332">
        <ele>121.36815</ele>
        <time>2015-07-02T15:35:45Z</time>
      </trkpt>
      <trkpt lat="49.28069" lon="1.17335">
        <ele>122.3232</ele>
        <time>2015-07-02T15:35:50Z</time>
      </trkpt>
      <trkpt lat="49.28074" lon="1.17335">
        <ele>122.3232</ele>
        <time>2015-07-02T15:35:55Z</time>
      </trkpt>
      <trkpt lat="49.28078" lon="1.17335">
        <ele>123.17908</ele>
        <time>2015-07-02T15:36:00Z</time>
      </trkpt>
      <trkpt lat="49.28084" lon="1.17334">
        <ele>123.17908</ele>
        <time>2015-07-02T15:36:05Z</time>
      </trkpt>
      <trkpt lat="49.28092" lon="1.17335">
        <ele>123.96927</ele>
        <time>2015-07-02T15:36:10Z</time>
      </trkpt>
      <trkpt lat="49.28097" lon="1.17337">
        <ele>123.96927</ele>
        <time>2015-07-02T15:36:15Z</time>
      </trkpt>
      <trkpt lat="49.28102" lon="1.17336">
        <ele>124.68189</ele>
        <time>2015-07-02T15:36:20Z</time>
      </trkpt>
      <trkpt lat="49.28108" lon="1.17336">
        <ele>124.68189</ele>
        <time>2015-07-02T15:36:25Z</time>
      </trkpt>
      <trkpt lat="49.28115" lon="1.17335">
        <ele>125.21977</ele>
        <time>2015-07-02T15:36:30Z</time>
      </trkpt>
      <trkpt lat="49.28119" lon="1.17334">
        <ele>125.21977</ele>
        <time>2015-07-02T15:36:35Z</time>
      </trkpt>
      <trkpt lat="49.28126" lon="1.17333">
        <ele>125.72405</ele>
        <time>2015-07-02T15:36:40Z</time>
      </trkpt>
      <trkpt lat="49.28131" lon="1.17338">
        <ele>125.72405</ele>
        <time>2015-07-02T15:36:45Z</time>
      </trkpt>
      <trkpt lat="49.28139" lon="1.17342">
        <ele>126.09515</ele>
        <time>2015-07-02T15:36:50Z</time>
      </trkpt>
      <trkpt lat="49.28143" lon="1.17343">
        <ele>126.09515</ele>
        <time>2015-07-02T15:36:55Z</time>
      </trkpt>
      <trkpt lat="49.28149" lon="1.17342">
        <ele>126.31329</ele>
        <time>2015-07-02T15:37:00Z</time>
      </trkpt>
      <trkpt lat="49.28154" lon="1.17342">
        <ele>126.31329</ele>
        <time>2015-07-02T15:37:05Z</time>
      </trkpt>
      <trkpt lat="49.28161" lon="1.17343">
        <ele>126.41835</ele>
        <time>2015-07-02T15:37:10Z</time>
      </trkpt>
      <trkpt lat="49.28168" lon="1.17342">
        <ele>126.41835</ele>
        <time>2015-07-02T15:37:15Z</time>
      </trkpt>
      <trkpt lat="49.28173" lon="1.17343">
        <ele>126.462074</ele>
        <time>2015-07-02T15:37:20Z</time>
      </trkpt>
      <trkpt lat="49.28181" lon="1.17349">
        <ele>126.462074</ele>
        <time>2015-07-02T15:37:25Z</time>
      </trkpt>
      <trkpt lat="49.28185" lon="1.17348">
        <ele>126.31972</ele>
        <time>2015-07-02T15:37:30Z</time>
      </trkpt>
      <trkpt lat="49.2819" lon="1.1735">
        <ele>126.31972</ele>
        <time>2015-07-02T15:37:35Z</time>
      </trkpt>
      <trkpt lat="49.28197" lon="1.1735">
        <ele>126.135704</ele>
        <time>2015-07-02T15:37:40Z</time>
      </trkpt>
      <trkpt lat="49.28207" lon="1.17349">
        <ele>125.89993</ele>
        <time>2015-07-02T15:37:45Z</time>
      </trkpt>
      <trkpt lat="49.28212" lon="1.1735">
        <ele>125.89993</ele>
        <time>2015-07-02T15:37:50Z</time>
      </trkpt>
      <trkpt lat="49.28217" lon="1.17352">
        <ele>125.35822</ele>
        <time>2015-07-02T15:37:55Z</time>
      </trkpt>
      <trkpt lat="49.28223" lon="1.17352">
        <ele>125.35822</ele>
        <time>2015-07-02T15:38:00Z</time>
      </trkpt>
      <trkpt lat="49.28231" lon="1.17354">
        <ele>124.65068</ele>
        <time>2015-07-02T15:38:05Z</time>
      </trkpt>
      <trkpt lat="49.28237" lon="1.17354">
        <ele>124.65068</ele>
        <time>2015-07-02T15:38:10Z</time>
      </trkpt>
      <trkpt lat="49.28242" lon="1.17352">
        <ele>123.893196</ele>
        <time>2015-07-02T15:38:15Z</time>
      </trkpt>
      <trkpt lat="49.28247" lon="1.17351">
        <ele>123.893196</ele>
        <time>2015-07-02T15:38:20Z</time>
      </trkpt>
      <trkpt lat="49.28254" lon="1.1735">
        <ele>123.09245</ele>
        <time>2015-07-02T15:38:25Z</time>
      </trkpt>
      <trkpt lat="49.28258" lon="1.17351">
        <ele>123.09245</ele>
        <time>2015-07-02T15:38:30Z</time>
      </trkpt>
      <trkpt lat="49.28266" lon="1.17352">
        <ele>122.37005</ele>
        <time>2015-07-02T15:38:35Z</time>
      </trkpt>
      <trkpt lat="49.28271" lon="1.17354">
        <ele>122.37005</ele>
        <time>2015-07-02T15:38:40Z</time>
      </trkpt>
      <trkpt lat="49.28277" lon="1.17354">
        <ele>121.679924</ele>
        <time>2015-07-02T15:38:45Z</time>
      </trkpt>
      <trkpt lat="49.28284" lon="1.17354">
        <ele>121.679924</ele>
        <time>2015-07-02T15:38:50Z</time>
      </trkpt>
      <trkpt lat="49.28289" lon="1.17353">
        <ele>120.95046</ele>
        <time>2015-07-02T15:38:55Z</time>
      </trkpt>
      <trkpt lat="49.28296" lon="1.17354">
        <ele>120.95046</ele>
        <time>2015-07-02T15:39:00Z</time>
      </trkpt>
      <trkpt lat="49.28301" lon="1.17354">
        <ele>119.95692</ele>
        <time>2015-07-02T15:39:05Z</time>
      </trkpt>
      <trkpt lat="49.28308" lon="1.17358">
        <ele>119.95692</ele>
        <time>2015-07-02T15:39:10Z</time>
      </trkpt>
      <trkpt lat="49.28313" lon="1.1736">
        <ele>118.77996</ele>
        <time>2015-07-02T15:39:15Z</time>
      </trkpt>
      <trkpt lat="49.2832" lon="1.17358">
        <ele>118.77996</ele>
        <time>2015-07-02T15:39:20Z</time>
      </trkpt>
      <trkpt lat="49.28327" lon="1.17357">
        <ele>117.59572</ele>
        <time>2015-07-02T15:39:25Z</time>
      </trkpt>
      <trkpt lat="49.28333" lon="1.17358">
        <ele>117.59572</ele>
        <time>2015-07-02T15:39:30Z</time>
      </trkpt>
      <trkpt lat="49.28338" lon="1.1736">
        <ele>116.35118</ele>
        <time>2015-07-02T15:39:35Z</time>
      </trkpt>
      <trkpt lat="49.28345" lon="1.1736">
        <ele>116.35118</ele>
        <time>2015-07-02T15:39:40Z</time>
      </trkpt>
      <trkpt lat="49.28352" lon="1.17361">
        <ele>114.96853</ele>
        <time>2015-07-02T15:39:45Z</time>
      </trkpt>
      <trkpt lat="49.28357" lon="1.17362">
        <ele>114.96853</ele>
        <time>2015-07-02T15:39:50Z</time>
      </trkpt>
      <trkpt lat="49.28363" lon="1.17361">
        <ele>113.592155</ele>
        <time>2015-07-02T15:39:55Z</time>
      </trkpt>
      <trkpt lat="49.2837" lon="1.17361">
        <ele>113.592155</ele>
        <time>2015-07-02T15:40:00Z</time>
      </trkpt>
      <trkpt lat="49.28375" lon="1.17361">
        <ele>112.25489</ele>
        <time>2015-07-02T15:40:05Z</time>
      </trkpt>
      <trkpt lat="49.28381" lon="1.17363">
        <ele>112.25489</ele>
        <time>2015-07-02T15:40:10Z</time>
      </trkpt>
      <trkpt lat="49.28387" lon="1.17364">
        <ele>110.97255</ele>
        <time>2015-07-02T15:40:15Z</time>
      </trkpt>
      <trkpt lat="49.28392" lon="1.17364">
        <ele>110.97255</ele>
        <time>2015-07-02T15:40:20Z</time>
      </trkpt>
      <trkpt lat="49.28398" lon="1.17367">
        <ele>109.73072</ele>
        <time>2015-07-02T15:40:25Z</time>
      </trkpt>
      <trkpt lat="49.28405" lon="1.17368">
        <ele>109.73072</ele>
        <time>2015-07-02T15:40:30Z</time>
      </trkpt>
      <trkpt lat="49.28412" lon="1.17368">
        <ele>108.515854</ele>
        <time>2015-07-02T15:40:35Z</time>
      </trkpt>
      <trkpt lat="49.28416" lon="1.17368">
        <ele>108.515854</ele>
        <time>2015-07-02T15:40:40Z</time>
      </trkpt>
      <trkpt lat="49.28423" lon="1.1737">
        <ele>107.28641</ele>
        <time>2015-07-02T15:40:45Z</time>
      </trkpt>
      <trkpt lat="49.28428" lon="1.17369">
        <ele>107.28641</ele>
        <time>2015-07-02T15:40:50Z</time>
      </trkpt>
      <trkpt lat="49.28435" lon="1.17369">
        <ele>106.03265</ele>
        <time>2015-07-02T15:40:55Z</time>
      </trkpt>
      <trkpt lat="49.2844" lon="1.17369">
        <ele>106.03265</ele>
        <time>2015-07-02T15:41:00Z</time>
      </trkpt>
      <trkpt lat="49.28448" lon="1.17368">
        <ele>104.84641</ele>
        <time>2015-07-02T15:41:05Z</time>
      </trkpt>
      <trkpt lat="49.28453" lon="1.17371">
        <ele>104.84641</ele>
        <time>2015-07-02T15:41:10Z</time>
      </trkpt>
      <trkpt lat="49.28455" lon="1.17374">
        <ele>104.84641</ele>
        <time>2015-07-02T15:41:15Z</time>
      </trkpt>
      <trkpt lat="49.28454" lon="1.17382">
        <ele>103.27927</ele>
        <time>2015-07-02T15:41:20Z</time>
      </trkpt>
      <trkpt lat="49.28453" lon="1.17382">
        <ele>103.27927</ele>
        <time>2015-07-02T15:41:25Z</time>
      </trkpt>
      <trkpt lat="49.28452" lon="1.17378">
        <ele>103.27927</ele>
        <time>2015-07-02T15:41:30Z</time>
      </trkpt>
      <trkpt lat="49.28453" lon="1.17377">
        <ele>103.27927</ele>
        <time>2015-07-02T15:41:35Z</time>
      </trkpt>
      <trkpt lat="49.28454" lon="1.17377">
        <ele>103.27927</ele>
        <time>2015-07-02T15:41:40Z</time>
      </trkpt>
      <trkpt lat="49.28452" lon="1.17377">
        <ele>103.27927</ele>
        <time>2015-07-02T15:41:45Z</time>
      </trkpt>
      <trkpt lat="49.2845" lon="1.17377">
        <ele>101.637245</ele>
        <time>2015-07-02T15:41:50Z</time>
      </trkpt>
      <trkpt lat="49.2845" lon="1.17377">
        <ele>101.637245</ele>
        <time>2015-07-02T15:41:55Z</time>
      </trkpt>
      <trkpt lat="49.28451" lon="1.17376">
        <ele>101.637245</ele>
        <time>2015-07-02T15:42:10Z</time>
      </trkpt>
      <trkpt lat="49.28458" lon="1.17365">
        <ele>100.290474</ele>
        <time>2015-07-02T15:42:15Z</time>
      </trkpt>
      <trkpt lat="49.28466" lon="1.17361">
        <ele>100.290474</ele>
        <time>2015-07-02T15:42:20Z</time>
      </trkpt>
      <trkpt lat="49.28473" lon="1.17363">
        <ele>99.56653</ele>
        <time>2015-07-02T15:42:25Z</time>
      </trkpt>
      <trkpt lat="49.28479" lon="1.17368">
        <ele>99.56653</ele>
        <time>2015-07-02T15:42:30Z</time>
      </trkpt>
      <trkpt lat="49.28485" lon="1.17369">
        <ele>99.75265</ele>
        <time>2015-07-02T15:42:35Z</time>
      </trkpt>
      <trkpt lat="49.28491" lon="1.17368">
        <ele>99.75265</ele>
        <time>2015-07-02T15:42:40Z</time>
      </trkpt>
      <trkpt lat="49.28499" lon="1.17368">
        <ele>100.36294</ele>
        <time>2015-07-02T15:42:45Z</time>
      </trkpt>
      <trkpt lat="49.28507" lon="1.17369">
        <ele>100.36294</ele>
        <time>2015-07-02T15:42:50Z</time>
      </trkpt>
      <trkpt lat="49.28513" lon="1.17371">
        <ele>101.06119</ele>
        <time>2015-07-02T15:42:55Z</time>
      </trkpt>
      <trkpt lat="49.28518" lon="1.17373">
        <ele>101.06119</ele>
        <time>2015-07-02T15:43:00Z</time>
      </trkpt>
      <trkpt lat="49.28524" lon="1.17375">
        <ele>101.62204</ele>
        <time>2015-07-02T15:43:05Z</time>
      </trkpt>
      <trkpt lat="49.28529" lon="1.17377">
        <ele>101.62204</ele>
        <time>2015-07-02T15:43:10Z</time>
      </trkpt>
      <trkpt lat="49.28536" lon="1.17378">
        <ele>101.96668</ele>
        <time>2015-07-02T15:43:15Z</time>
      </trkpt>
      <trkpt lat="49.2854" lon="1.17379">
        <ele>101.96668</ele>
        <time>2015-07-02T15:43:20Z</time>
      </trkpt>
      <trkpt lat="49.28545" lon="1.1738">
        <ele>102.05147</ele>
        <time>2015-07-02T15:43:25Z</time>
      </trkpt>
      <trkpt lat="49.2855" lon="1.17379">
        <ele>102.05147</ele>
        <time>2015-07-02T15:43:30Z</time>
      </trkpt>
      <trkpt lat="49.28557" lon="1.1738">
        <ele>101.98075</ele>
        <time>2015-07-02T15:43:35Z</time>
      </trkpt>
      <trkpt lat="49.28562" lon="1.17381">
        <ele>101.98075</ele>
        <time>2015-07-02T15:43:40Z</time>
      </trkpt>
      <trkpt lat="49.28568" lon="1.17383">
        <ele>101.80837</ele>
        <time>2015-07-02T15:43:45Z</time>
      </trkpt>
      <trkpt lat="49.28575" lon="1.17384">
        <ele>101.80837</ele>
        <time>2015-07-02T15:43:50Z</time>
      </trkpt>
      <trkpt lat="49.28582" lon="1.17386">
        <ele>101.36831</ele>
        <time>2015-07-02T15:43:55Z</time>
      </trkpt>
      <trkpt lat="49.28589" lon="1.17386">
        <ele>101.36831</ele>
        <time>2015-07-02T15:44:00Z</time>
      </trkpt>
      <trkpt lat="49.28597" lon="1.17386">
        <ele>100.83889</ele>
        <time>2015-07-02T15:44:05Z</time>
      </trkpt>
      <trkpt lat="49.28606" lon="1.17388">
        <ele>100.2847</ele>
        <time>2015-07-02T15:44:10Z</time>
      </trkpt>
      <trkpt lat="49.28611" lon="1.17387">
        <ele>100.2847</ele>
        <time>2015-07-02T15:44:15Z</time>
      </trkpt>
      <trkpt lat="49.28618" lon="1.17388">
        <ele>99.66475</ele>
        <time>2015-07-02T15:44:20Z</time>
      </trkpt>
      <trkpt lat="49.28622" lon="1.17388">
        <ele>99.66475</ele>
        <time>2015-07-02T15:44:25Z</time>
      </trkpt>
      <trkpt lat="49.28625" lon="1.17389">
        <ele>99.66475</ele>
        <time>2015-07-02T15:44:30Z</time>
      </trkpt>
      <trkpt lat="49.28631" lon="1.17391">
        <ele>99.17178</ele>
        <time>2015-07-02T15:44:35Z</time>
      </trkpt>
      <trkpt lat="49.28638" lon="1.17389">
        <ele>99.17178</ele>
        <time>2015-07-02T15:44:40Z</time>
      </trkpt>
      <trkpt lat="49.28646" lon="1.17389">
        <ele>98.91195</ele>
        <time>2015-07-02T15:44:45Z</time>
      </trkpt>
      <trkpt lat="49.28654" lon="1.17391">
        <ele>98.91195</ele>
        <time>2015-07-02T15:44:50Z</time>
      </trkpt>
      <trkpt lat="49.2866" lon="1.17394">
        <ele>98.63706</ele>
        <time>2015-07-02T15:44:55Z</time>
      </trkpt>
      <trkpt lat="49.28665" lon="1.17394">
        <ele>98.63706</ele>
        <time>2015-07-02T15:45:00Z</time>
      </trkpt>
      <trkpt lat="49.28671" lon="1.17393">
        <ele>98.30452</ele>
        <time>2015-07-02T15:45:05Z</time>
      </trkpt>
      <trkpt lat="49.28678" lon="1.17392">
        <ele>98.30452</ele>
        <time>2015-07-02T15:45:10Z</time>
      </trkpt>
      <trkpt lat="49.28683" lon="1.17393">
        <ele>97.990295</ele>
        <time>2015-07-02T15:45:15Z</time>
      </trkpt>
      <trkpt lat="49.28692" lon="1.17396">
        <ele>97.990295</ele>
        <time>2015-07-02T15:45:20Z</time>
      </trkpt>
      <trkpt lat="49.28698" lon="1.17396">
        <ele>97.72147</ele>
        <time>2015-07-02T15:45:25Z</time>
      </trkpt>
      <trkpt lat="49.28706" lon="1.17396">
        <ele>97.72147</ele>
        <time>2015-07-02T15:45:30Z</time>
      </trkpt>
      <trkpt lat="49.28712" lon="1.17395">
        <ele>97.59506</ele>
        <time>2015-07-02T15:45:35Z</time>
      </trkpt>
      <trkpt lat="49.28719" lon="1.17395">
        <ele>97.59506</ele>
        <time>2015-07-02T15:45:40Z</time>
      </trkpt>
      <trkpt lat="49.28728" lon="1.17397">
        <ele>97.45554</ele>
        <time>2015-07-02T15:45:45Z</time>
      </trkpt>
      <trkpt lat="49.28734" lon="1.17396">
        <ele>97.45554</ele>
        <time>2015-07-02T15:45:50Z</time>
      </trkpt>
      <trkpt lat="49.2874" lon="1.17397">
        <ele>97.11562</ele>
        <time>2015-07-02T15:45:55Z</time>
      </trkpt>
      <trkpt lat="49.28744" lon="1.174">
        <ele>97.11562</ele>
        <time>2015-07-02T15:46:00Z</time>
      </trkpt>
      <trkpt lat="49.28748" lon="1.174">
        <ele>97.11562</ele>
        <time>2015-07-02T15:46:05Z</time>
      </trkpt>
      <trkpt lat="49.28757" lon="1.17403">
        <ele>96.31586</ele>
        <time>2015-07-02T15:46:10Z</time>
      </trkpt>
      <trkpt lat="49.2876" lon="1.17403">
        <ele>96.31586</ele>
        <time>2015-07-02T15:46:15Z</time>
      </trkpt>
      <trkpt lat="49.28763" lon="1.17403">
        <ele>96.31586</ele>
        <time>2015-07-02T15:46:20Z</time>
      </trkpt>
      <trkpt lat="49.2877" lon="1.17402">
        <ele>95.01889</ele>
        <time>2015-07-02T15:46:25Z</time>
      </trkpt>
      <trkpt lat="49.28777" lon="1.17401">
        <ele>95.01889</ele>
        <time>2015-07-02T15:46:30Z</time>
      </trkpt>
      <trkpt lat="49.28782" lon="1.17403">
        <ele>93.5806</ele>
        <time>2015-07-02T15:46:35Z</time>
      </trkpt>
      <trkpt lat="49.28787" lon="1.17403">
        <ele>93.5806</ele>
        <time>2015-07-02T15:46:40Z</time>
      </trkpt>
      <trkpt lat="49.28794" lon="1.17403">
        <ele>92.3167</ele>
        <time>2015-07-02T15:46:45Z</time>
      </trkpt>
      <trkpt lat="49.288" lon="1.17405">
        <ele>92.3167</ele>
        <time>2015-07-02T15:46:50Z</time>
      </trkpt>
      <trkpt lat="49.28807" lon="1.17406">
        <ele>91.2454</ele>
        <time>2015-07-02T15:46:55Z</time>
      </trkpt>
      <trkpt lat="49.28813" lon="1.17408">
        <ele>91.2454</ele>
        <time>2015-07-02T15:47:00Z</time>
      </trkpt>
      <trkpt lat="49.28819" lon="1.17409">
        <ele>90.32534</ele>
        <time>2015-07-02T15:47:05Z</time>
      </trkpt>
      <trkpt lat="49.28826" lon="1.17409">
        <ele>90.32534</ele>
        <time>2015-07-02T15:47:10Z</time>
      </trkpt>
      <trkpt lat="49.2883" lon="1.17411">
        <ele>89.44571</ele>
        <time>2015-07-02T15:47:15Z</time>
      </trkpt>
      <trkpt lat="49.28836" lon="1.1741">
        <ele>89.44571</ele>
        <time>2015-07-02T15:47:20Z</time>
      </trkpt>
      <trkpt lat="49.28842" lon="1.17412">
        <ele>88.71987</ele>
        <time>2015-07-02T15:47:25Z</time>
      </trkpt>
      <trkpt lat="49.28844" lon="1.17412">
        <ele>88.71987</ele>
        <time>2015-07-02T15:47:30Z</time>
      </trkpt>
      <trkpt lat="49.28848" lon="1.17412">
        <ele>88.71987</ele>
        <time>2015-07-02T15:47:35Z</time>
      </trkpt>
      <trkpt lat="49.28853" lon="1.17414">
        <ele>88.021805</ele>
        <time>2015-07-02T15:47:40Z</time>
      </trkpt>
      <trkpt lat="49.28857" lon="1.17416">
        <ele>88.021805</ele>
        <time>2015-07-02T15:47:45Z</time>
      </trkpt>
      <trkpt lat="49.28865" lon="1.17414">
        <ele>87.29229</ele>
        <time>2015-07-02T15:47:50Z</time>
      </trkpt>
      <trkpt lat="49.28872" lon="1.17412">
        <ele>87.29229</ele>
        <time>2015-07-02T15:47:55Z</time>
      </trkpt>
      <trkpt lat="49.28876" lon="1.17413">
        <ele>86.4333</ele>
        <time>2015-07-02T15:48:00Z</time>
      </trkpt>
      <trkpt lat="49.28883" lon="1.17414">
        <ele>86.4333</ele>
        <time>2015-07-02T15:48:05Z</time>
      </trkpt>
      <trkpt lat="49.28887" lon="1.17415">
        <ele>85.49841</ele>
        <time>2015-07-02T15:48:10Z</time>
      </trkpt>
      <trkpt lat="49.28894" lon="1.17415">
        <ele>85.49841</ele>
        <time>2015-07-02T15:48:15Z</time>
      </trkpt>
      <trkpt lat="49.28901" lon="1.17415">
        <ele>84.62397</ele>
        <time>2015-07-02T15:48:20Z</time>
      </trkpt>
      <trkpt lat="49.28907" lon="1.17416">
        <ele>84.62397</ele>
        <time>2015-07-02T15:48:25Z</time>
      </trkpt>
      <trkpt lat="49.28915" lon="1.17419">
        <ele>83.820786</ele>
        <time>2015-07-02T15:48:30Z</time>
      </trkpt>
      <trkpt lat="49.28919" lon="1.17419">
        <ele>83.820786</ele>
        <time>2015-07-02T15:48:35Z</time>
      </trkpt>
      <trkpt lat="49.28927" lon="1.17418">
        <ele>83.09864</ele>
        <time>2015-07-02T15:48:40Z</time>
      </trkpt>
      <trkpt lat="49.28933" lon="1.17418">
        <ele>83.09864</ele>
        <time>2015-07-02T15:48:45Z</time>
      </trkpt>
      <trkpt lat="49.28938" lon="1.17419">
        <ele>82.49519</ele>
        <time>2015-07-02T15:48:50Z</time>
      </trkpt>
      <trkpt lat="49.28946" lon="1.1742">
        <ele>82.49519</ele>
        <time>2015-07-02T15:48:55Z</time>
      </trkpt>
      <trkpt lat="49.28951" lon="1.17424">
        <ele>81.987305</ele>
        <time>2015-07-02T15:49:00Z</time>
      </trkpt>
      <trkpt lat="49.2896" lon="1.17424">
        <ele>81.987305</ele>
        <time>2015-07-02T15:49:05Z</time>
      </trkpt>
      <trkpt lat="49.28964" lon="1.17424">
        <ele>81.55325</ele>
        <time>2015-07-02T15:49:10Z</time>
      </trkpt>
      <trkpt lat="49.2897" lon="1.17424">
        <ele>81.55325</ele>
        <time>2015-07-02T15:49:15Z</time>
      </trkpt>
      <trkpt lat="49.28976" lon="1.17424">
        <ele>81.14385</ele>
        <time>2015-07-02T15:49:20Z</time>
      </trkpt>
      <trkpt lat="49.28984" lon="1.17425">
        <ele>81.14385</ele>
        <time>2015-07-02T15:49:25Z</time>
      </trkpt>
      <trkpt lat="49.28991" lon="1.17425">
        <ele>80.61258</ele>
        <time>2015-07-02T15:49:30Z</time>
      </trkpt>
      <trkpt lat="49.28998" lon="1.17425">
        <ele>80.61258</ele>
        <time>2015-07-02T15:49:35Z</time>
      </trkpt>
      <trkpt lat="49.29002" lon="1.17427">
        <ele>80.14103</ele>
        <time>2015-07-02T15:49:40Z</time>
      </trkpt>
      <trkpt lat="49.29009" lon="1.17426">
        <ele>80.14103</ele>
        <time>2015-07-02T15:49:45Z</time>
      </trkpt>
      <trkpt lat="49.29017" lon="1.17425">
        <ele>79.681114</ele>
        <time>2015-07-02T15:49:50Z</time>
      </trkpt>
      <trkpt lat="49.29024" lon="1.17427">
        <ele>79.681114</ele>
        <time>2015-07-02T15:49:55Z</time>
      </trkpt>
      <trkpt lat="49.29029" lon="1.1743">
        <ele>79.2747</ele>
        <time>2015-07-02T15:50:00Z</time>
      </trkpt>
      <trkpt lat="49.29035" lon="1.17431">
        <ele>79.2747</ele>
        <time>2015-07-02T15:50:05Z</time>
      </trkpt>
      <trkpt lat="49.29041" lon="1.17431">
        <ele>79.13334</ele>
        <time>2015-07-02T15:50:10Z</time>
      </trkpt>
      <trkpt lat="49.29049" lon="1.17431">
        <ele>79.13334</ele>
        <time>2015-07-02T15:50:15Z</time>
      </trkpt>
      <trkpt lat="49.29055" lon="1.1743">
        <ele>79.19293</ele>
        <time>2015-07-02T15:50:20Z</time>
      </trkpt>
      <trkpt lat="49.29062" lon="1.1743">
        <ele>79.19293</ele>
        <time>2015-07-02T15:50:25Z</time>
      </trkpt>
      <trkpt lat="49.29066" lon="1.17431">
        <ele>79.37907</ele>
        <time>2015-07-02T15:50:30Z</time>
      </trkpt>
      <trkpt lat="49.29073" lon="1.17432">
        <ele>79.37907</ele>
        <time>2015-07-02T15:50:35Z</time>
      </trkpt>
      <trkpt lat="49.29078" lon="1.17436">
        <ele>79.57925</ele>
        <time>2015-07-02T15:50:40Z</time>
      </trkpt>
      <trkpt lat="49.29084" lon="1.17437">
        <ele>79.57925</ele>
        <time>2015-07-02T15:50:45Z</time>
      </trkpt>
      <trkpt lat="49.2909" lon="1.17437">
        <ele>79.703606</ele>
        <time>2015-07-02T15:50:50Z</time>
      </trkpt>
      <trkpt lat="49.29096" lon="1.17437">
        <ele>79.703606</ele>
        <time>2015-07-02T15:50:55Z</time>
      </trkpt>
      <trkpt lat="49.29101" lon="1.17438">
        <ele>79.813225</ele>
        <time>2015-07-02T15:51:00Z</time>
      </trkpt>
      <trkpt lat="49.29109" lon="1.17439">
        <ele>79.813225</ele>
        <time>2015-07-02T15:51:05Z</time>
      </trkpt>
      <trkpt lat="49.29118" lon="1.17443">
        <ele>79.96477</ele>
        <time>2015-07-02T15:51:10Z</time>
      </trkpt>
      <trkpt lat="49.29122" lon="1.17444">
        <ele>79.96477</ele>
        <time>2015-07-02T15:51:15Z</time>
      </trkpt>
      <trkpt lat="49.2913" lon="1.17444">
        <ele>80.080925</ele>
        <time>2015-07-02T15:51:20Z</time>
      </trkpt>
      <trkpt lat="49.29136" lon="1.17442">
        <ele>80.080925</ele>
        <time>2015-07-02T15:51:25Z</time>
      </trkpt>
      <trkpt lat="49.29141" lon="1.17442">
        <ele>80.20551</ele>
        <time>2015-07-02T15:51:30Z</time>
      </trkpt>
      <trkpt lat="49.29146" lon="1.17442">
        <ele>80.20551</ele>
        <time>2015-07-02T15:51:35Z</time>
      </trkpt>
      <trkpt lat="49.29154" lon="1.17441">
        <ele>80.36471</ele>
        <time>2015-07-02T15:51:40Z</time>
      </trkpt>
      <trkpt lat="49.29161" lon="1.17443">
        <ele>80.36471</ele>
        <time>2015-07-02T15:51:45Z</time>
      </trkpt>
      <trkpt lat="49.29169" lon="1.17445">
        <ele>80.40978</ele>
        <time>2015-07-02T15:51:50Z</time>
      </trkpt>
      <trkpt lat="49.29175" lon="1.17444">
        <ele>80.40978</ele>
        <time>2015-07-02T15:51:55Z</time>
      </trkpt>
      <trkpt lat="49.29179" lon="1.17447">
        <ele>80.39063</ele>
        <time>2015-07-02T15:52:00Z</time>
      </trkpt>
      <trkpt lat="49.29183" lon="1.17448">
        <ele>80.39063</ele>
        <time>2015-07-02T15:52:05Z</time>
      </trkpt>
      <trkpt lat="49.29191" lon="1.1745">
        <ele>80.310486</ele>
        <time>2015-07-02T15:52:10Z</time>
      </trkpt>
      <trkpt lat="49.29198" lon="1.17451">
        <ele>80.310486</ele>
        <time>2015-07-02T15:52:15Z</time>
      </trkpt>
      <trkpt lat="49.29205" lon="1.1745">
        <ele>80.12931</ele>
        <time>2015-07-02T15:52:20Z</time>
      </trkpt>
      <trkpt lat="49.29211" lon="1.17446">
        <ele>80.12931</ele>
        <time>2015-07-02T15:52:25Z</time>
      </trkpt>
      <trkpt lat="49.29215" lon="1.17445">
        <ele>79.96888</ele>
        <time>2015-07-02T15:52:30Z</time>
      </trkpt>
      <trkpt lat="49.29221" lon="1.17446">
        <ele>79.96888</ele>
        <time>2015-07-02T15:52:35Z</time>
      </trkpt>
      <trkpt lat="49.29226" lon="1.17446">
        <ele>79.783455</ele>
        <time>2015-07-02T15:52:40Z</time>
      </trkpt>
      <trkpt lat="49.29232" lon="1.17448">
        <ele>79.783455</ele>
        <time>2015-07-02T15:52:45Z</time>
      </trkpt>
      <trkpt lat="49.29235" lon="1.17448">
        <ele>79.60287</ele>
        <time>2015-07-02T15:52:50Z</time>
      </trkpt>
      <trkpt lat="49.29241" lon="1.17451">
        <ele>79.60287</ele>
        <time>2015-07-02T15:52:55Z</time>
      </trkpt>
      <trkpt lat="49.29248" lon="1.17453">
        <ele>79.23859</ele>
        <time>2015-07-02T15:53:00Z</time>
      </trkpt>
      <trkpt lat="49.29254" lon="1.17452">
        <ele>79.23859</ele>
        <time>2015-07-02T15:53:05Z</time>
      </trkpt>
      <trkpt lat="49.29261" lon="1.17452">
        <ele>78.804726</ele>
        <time>2015-07-02T15:53:10Z</time>
      </trkpt>
      <trkpt lat="49.29267" lon="1.17453">
        <ele>78.804726</ele>
        <time>2015-07-02T15:53:15Z</time>
      </trkpt>
      <trkpt lat="49.29275" lon="1.17453">
        <ele>78.36401</ele>
        <time>2015-07-02T15:53:20Z</time>
      </trkpt>
      <trkpt lat="49.29281" lon="1.17454">
        <ele>78.36401</ele>
        <time>2015-07-02T15:53:25Z</time>
      </trkpt>
      <trkpt lat="49.29288" lon="1.17455">
        <ele>78.11875</ele>
        <time>2015-07-02T15:53:30Z</time>
      </trkpt>
      <trkpt lat="49.29296" lon="1.17456">
        <ele>78.11875</ele>
        <time>2015-07-02T15:53:35Z</time>
      </trkpt>
      <trkpt lat="49.29302" lon="1.17459">
        <ele>78.054085</ele>
        <time>2015-07-02T15:53:40Z</time>
      </trkpt>
      <trkpt lat="49.29308" lon="1.17459">
        <ele>78.054085</ele>
        <time>2015-07-02T15:53:45Z</time>
      </trkpt>
      <trkpt lat="49.29314" lon="1.17461">
        <ele>77.96847</ele>
        <time>2015-07-02T15:53:50Z</time>
      </trkpt>
      <trkpt lat="49.29319" lon="1.1746">
        <ele>77.96847</ele>
        <time>2015-07-02T15:53:55Z</time>
      </trkpt>
      <trkpt lat="49.29324" lon="1.17462">
        <ele>77.74727</ele>
        <time>2015-07-02T15:54:00Z</time>
      </trkpt>
      <trkpt lat="49.29329" lon="1.17462">
        <ele>77.74727</ele>
        <time>2015-07-02T15:54:05Z</time>
      </trkpt>
      <trkpt lat="49.29337" lon="1.17465">
        <ele>77.37119</ele>
        <time>2015-07-02T15:54:10Z</time>
      </trkpt>
      <trkpt lat="49.29343" lon="1.17465">
        <ele>77.37119</ele>
        <time>2015-07-02T15:54:15Z</time>
      </trkpt>
      <trkpt lat="49.29351" lon="1.17466">
        <ele>76.89486</ele>
        <time>2015-07-02T15:54:20Z</time>
      </trkpt>
      <trkpt lat="49.29357" lon="1.17467">
        <ele>76.89486</ele>
        <time>2015-07-02T15:54:25Z</time>
      </trkpt>
      <trkpt lat="49.29362" lon="1.17468">
        <ele>76.455666</ele>
        <time>2015-07-02T15:54:30Z</time>
      </trkpt>
      <trkpt lat="49.2937" lon="1.17468">
        <ele>76.455666</ele>
        <time>2015-07-02T15:54:35Z</time>
      </trkpt>
      <trkpt lat="49.29376" lon="1.17468">
        <ele>75.96466</ele>
        <time>2015-07-02T15:54:40Z</time>
      </trkpt>
      <trkpt lat="49.29383" lon="1.17469">
        <ele>75.96466</ele>
        <time>2015-07-02T15:54:45Z</time>
      </trkpt>
      <trkpt lat="49.29389" lon="1.1747">
        <ele>75.49813</ele>
        <time>2015-07-02T15:54:50Z</time>
      </trkpt>
      <trkpt lat="49.29394" lon="1.1747">
        <ele>75.49813</ele>
        <time>2015-07-02T15:54:55Z</time>
      </trkpt>
      <trkpt lat="49.29401" lon="1.17471">
        <ele>75.12671</ele>
        <time>2015-07-02T15:55:00Z</time>
      </trkpt>
      <trkpt lat="49.29409" lon="1.1747">
        <ele>75.12671</ele>
        <time>2015-07-02T15:55:05Z</time>
      </trkpt>
      <trkpt lat="49.29414" lon="1.17471">
        <ele>74.84353</ele>
        <time>2015-07-02T15:55:10Z</time>
      </trkpt>
      <trkpt lat="49.2942" lon="1.1747">
        <ele>74.84353</ele>
        <time>2015-07-02T15:55:15Z</time>
      </trkpt>
      <trkpt lat="49.29425" lon="1.17471">
        <ele>74.685234</ele>
        <time>2015-07-02T15:55:20Z</time>
      </trkpt>
      <trkpt lat="49.2943" lon="1.17472">
        <ele>74.685234</ele>
        <time>2015-07-02T15:55:25Z</time>
      </trkpt>
      <trkpt lat="49.29438" lon="1.17473">
        <ele>74.4981</ele>
        <time>2015-07-02T15:55:30Z</time>
      </trkpt>
      <trkpt lat="49.29446" lon="1.17473">
        <ele>74.4981</ele>
        <time>2015-07-02T15:55:35Z</time>
      </trkpt>
      <trkpt lat="49.29451" lon="1.17473">
        <ele>74.26949</ele>
        <time>2015-07-02T15:55:40Z</time>
      </trkpt>
      <trkpt lat="49.29455" lon="1.17474">
        <ele>74.26949</ele>
        <time>2015-07-02T15:55:45Z</time>
      </trkpt>
      <trkpt lat="49.2946" lon="1.17475">
        <ele>74.08871</ele>
        <time>2015-07-02T15:55:50Z</time>
      </trkpt>
      <trkpt lat="49.29466" lon="1.17475">
        <ele>74.08871</ele>
        <time>2015-07-02T15:55:55Z</time>
      </trkpt>
      <trkpt lat="49.29466" lon="1.17477">
        <ele>74.08871</ele>
        <time>2015-07-02T15:56:00Z</time>
      </trkpt>
      <trkpt lat="49.2947" lon="1.17471">
        <ele>73.6925</ele>
        <time>2015-07-02T15:56:05Z</time>
      </trkpt>
      <trkpt lat="49.29471" lon="1.1747">
        <ele>73.6925</ele>
        <time>2015-07-02T15:56:10Z</time>
      </trkpt>
      <trkpt lat="49.29475" lon="1.17471">
        <ele>73.6925</ele>
        <time>2015-07-02T15:56:15Z</time>
      </trkpt>
      <trkpt lat="49.29481" lon="1.17473">
        <ele>72.62141</ele>
        <time>2015-07-02T15:56:20Z</time>
      </trkpt>
      <trkpt lat="49.29487" lon="1.17474">
        <ele>72.62141</ele>
        <time>2015-07-02T15:56:25Z</time>
      </trkpt>
      <trkpt lat="49.29493" lon="1.17474">
        <ele>71.51807</ele>
        <time>2015-07-02T15:56:30Z</time>
      </trkpt>
      <trkpt lat="49.29498" lon="1.17475">
        <ele>71.51807</ele>
        <time>2015-07-02T15:56:35Z</time>
      </trkpt>
      <trkpt lat="49.29504" lon="1.17474">
        <ele>70.60327</ele>
        <time>2015-07-02T15:56:40Z</time>
      </trkpt>
      <trkpt lat="49.29508" lon="1.17474">
        <ele>70.60327</ele>
        <time>2015-07-02T15:56:45Z</time>
      </trkpt>
      <trkpt lat="49.29516" lon="1.17475">
        <ele>69.90818</ele>
        <time>2015-07-02T15:56:50Z</time>
      </trkpt>
      <trkpt lat="49.29523" lon="1.17473">
        <ele>69.90818</ele>
        <time>2015-07-02T15:56:55Z</time>
      </trkpt>
      <trkpt lat="49.29529" lon="1.17474">
        <ele>69.36012</ele>
        <time>2015-07-02T15:57:00Z</time>
      </trkpt>
      <trkpt lat="49.29534" lon="1.17475">
        <ele>69.36012</ele>
        <time>2015-07-02T15:57:05Z</time>
      </trkpt>
      <trkpt lat="49.2954" lon="1.17476">
        <ele>68.905785</ele>
        <time>2015-07-02T15:57:10Z</time>
      </trkpt>
      <trkpt lat="49.29547" lon="1.17476">
        <ele>68.905785</ele>
        <time>2015-07-02T15:57:15Z</time>
      </trkpt>
      <trkpt lat="49.29552" lon="1.17477">
        <ele>68.49548</ele>
        <time>2015-07-02T15:57:20Z</time>
      </trkpt>
      <trkpt lat="49.2956" lon="1.17478">
        <ele>68.49548</ele>
        <time>2015-07-02T15:57:25Z</time>
      </trkpt>
      <trkpt lat="49.29564" lon="1.17479">
        <ele>68.140686</ele>
        <time>2015-07-02T15:57:30Z</time>
      </trkpt>
      <trkpt lat="49.29572" lon="1.1748">
        <ele>68.140686</ele>
        <time>2015-07-02T15:57:35Z</time>
      </trkpt>
      <trkpt lat="49.29578" lon="1.1748">
        <ele>67.73659</ele>
        <time>2015-07-02T15:57:40Z</time>
      </trkpt>
      <trkpt lat="49.29585" lon="1.1748">
        <ele>67.73659</ele>
        <time>2015-07-02T15:57:45Z</time>
      </trkpt>
      <trkpt lat="49.29592" lon="1.17482">
        <ele>67.28705</ele>
        <time>2015-07-02T15:57:50Z</time>
      </trkpt>
      <trkpt lat="49.29597" lon="1.17485">
        <ele>67.28705</ele>
        <time>2015-07-02T15:57:55Z</time>
      </trkpt>
      <trkpt lat="49.29604" lon="1.17485">
        <ele>66.839035</ele>
        <time>2015-07-02T15:58:00Z</time>
      </trkpt>
      <trkpt lat="49.29612" lon="1.17485">
        <ele>66.839035</ele>
        <time>2015-07-02T15:58:05Z</time>
      </trkpt>
      <trkpt lat="49.29619" lon="1.17484">
        <ele>66.46484</ele>
        <time>2015-07-02T15:58:10Z</time>
      </trkpt>
      <trkpt lat="49.29622" lon="1.17483">
        <ele>66.46484</ele>
        <time>2015-07-02T15:58:15Z</time>
      </trkpt>
      <trkpt lat="49.29627" lon="1.17485">
        <ele>66.46484</ele>
        <time>2015-07-02T15:58:20Z</time>
      </trkpt>
      <trkpt lat="49.29635" lon="1.17485">
        <ele>66.05831</ele>
        <time>2015-07-02T15:58:25Z</time>
      </trkpt>
      <trkpt lat="49.29641" lon="1.17485">
        <ele>66.05831</ele>
        <time>2015-07-02T15:58:30Z</time>
      </trkpt>
      <trkpt lat="49.29647" lon="1.17487">
        <ele>65.67968</ele>
        <time>2015-07-02T15:58:35Z</time>
      </trkpt>
      <trkpt lat="49.29653" lon="1.17489">
        <ele>65.67968</ele>
        <time>2015-07-02T15:58:40Z</time>
      </trkpt>
      <trkpt lat="49.29658" lon="1.1749">
        <ele>65.269394</ele>
        <time>2015-07-02T15:58:45Z</time>
      </trkpt>
      <trkpt lat="49.29665" lon="1.17495">
        <ele>65.269394</ele>
        <time>2015-07-02T15:58:50Z</time>
      </trkpt>
      <trkpt lat="49.2967" lon="1.17498">
        <ele>64.71469</ele>
        <time>2015-07-02T15:58:55Z</time>
      </trkpt>
      <trkpt lat="49.29677" lon="1.17501">
        <ele>64.71469</ele>
        <time>2015-07-02T15:59:00Z</time>
      </trkpt>
      <trkpt lat="49.29682" lon="1.17503">
        <ele>63.99796</ele>
        <time>2015-07-02T15:59:05Z</time>
      </trkpt>
      <trkpt lat="49.29688" lon="1.17504">
        <ele>63.99796</ele>
        <time>2015-07-02T15:59:10Z</time>
      </trkpt>
      <trkpt lat="49.29692" lon="1.17511">
        <ele>63.160973</ele>
        <time>2015-07-02T15:59:15Z</time>
      </trkpt>
      <trkpt lat="49.29694" lon="1.17518">
        <ele>63.160973</ele>
        <time>2015-07-02T15:59:20Z</time>
      </trkpt>
      <trkpt lat="49.29697" lon="1.17527">
        <ele>62.15629</ele>
        <time>2015-07-02T15:59:25Z</time>
      </trkpt>
      <trkpt lat="49.29702" lon="1.17531">
        <ele>62.15629</ele>
        <time>2015-07-02T15:59:30Z</time>
      </trkpt>
      <trkpt lat="49.29707" lon="1.17536">
        <ele>61.12774</ele>
        <time>2015-07-02T15:59:35Z</time>
      </trkpt>
      <trkpt lat="49.29715" lon="1.17537">
        <ele>61.12774</ele>
        <time>2015-07-02T15:59:40Z</time>
      </trkpt>
      <trkpt lat="49.29723" lon="1.17538">
        <ele>60.10777</ele>
        <time>2015-07-02T15:59:45Z</time>
      </trkpt>
      <trkpt lat="49.29729" lon="1.17537">
        <ele>60.10777</ele>
        <time>2015-07-02T15:59:50Z</time>
      </trkpt>
      <trkpt lat="49.29735" lon="1.17533">
        <ele>59.05433</ele>
        <time>2015-07-02T15:59:55Z</time>
      </trkpt>
      <trkpt lat="49.29738" lon="1.17532">
        <ele>59.05433</ele>
        <time>2015-07-02T16:00:00Z</time>
      </trkpt>
      <trkpt lat="49.29739" lon="1.17528">
        <ele>59.05433</ele>
        <time>2015-07-02T16:00:05Z</time>
      </trkpt>
      <trkpt lat="49.29737" lon="1.1753">
        <ele>59.05433</ele>
        <time>2015-07-02T16:00:10Z</time>
      </trkpt>
      <trkpt lat="49.29737" lon="1.17532">
        <ele>59.05433</ele>
        <time>2015-07-02T16:00:15Z</time>
      </trkpt>
      <trkpt lat="49.29736" lon="1.17531">
        <ele>57.95735</ele>
        <time>2015-07-02T16:00:20Z</time>
      </trkpt>
      <trkpt lat="49.29737" lon="1.17532">
        <ele>57.95735</ele>
        <time>2015-07-02T16:00:25Z</time>
      </trkpt>
      <trkpt lat="49.29737" lon="1.17533">
        <ele>57.95735</ele>
        <time>2015-07-02T16:00:30Z</time>
      </trkpt>
      <trkpt lat="49.29738" lon="1.17532">
        <ele>57.95735</ele>
        <time>2015-07-02T16:00:35Z</time>
      </trkpt>
      <trkpt lat="49.29739" lon="1.1753">
        <ele>57.95735</ele>
        <time>2015-07-02T16:00:40Z</time>
      </trkpt>
      <trkpt lat="49.29738" lon="1.1753">
        <ele>57.95735</ele>
        <time>2015-07-02T16:00:45Z</time>
      </trkpt>
      <trkpt lat="49.29736" lon="1.17529">
        <ele>57.95735</ele>
        <time>2015-07-02T16:00:50Z</time>
      </trkpt>
      <trkpt lat="49.29737" lon="1.17526">
        <ele>56.894062</ele>
        <time>2015-07-02T16:00:55Z</time>
      </trkpt>
      <trkpt lat="49.29738" lon="1.17526">
        <ele>56.894062</ele>
        <time>2015-07-02T16:01:00Z</time>
      </trkpt>
      <trkpt lat="49.29738" lon="1.17527">
        <ele>56.894062</ele>
        <time>2015-07-02T16:01:05Z</time>
      </trkpt>
      <trkpt lat="49.29738" lon="1.17527">
        <ele>56.894062</ele>
        <time>2015-07-02T16:01:10Z</time>
      </trkpt>
      <trkpt lat="49.29739" lon="1.17527">
        <ele>56.894062</ele>
        <time>2015-07-02T16:01:15Z</time>
      </trkpt>
      <trkpt lat="49.29741" lon="1.17526">
        <ele>56.894062</ele>
        <time>2015-07-02T16:01:20Z</time>
      </trkpt>
      <trkpt lat="49.2974" lon="1.17527">
        <ele>56.894062</ele>
        <time>2015-07-02T16:01:25Z</time>
      </trkpt>
      <trkpt lat="49.29739" lon="1.17526">
        <ele>56.894062</ele>
        <time>2015-07-02T16:01:30Z</time>
      </trkpt>
      <trkpt lat="49.29741" lon="1.17522">
        <ele>55.546776</ele>
        <time>2015-07-02T16:01:35Z</time>
      </trkpt>
      <trkpt lat="49.29742" lon="1.17522">
        <ele>55.546776</ele>
        <time>2015-07-02T16:01:40Z</time>
      </trkpt>
      <trkpt lat="49.29742" lon="1.17526">
        <ele>55.546776</ele>
        <time>2015-07-02T16:01:45Z</time>
      </trkpt>
      <trkpt lat="49.29742" lon="1.17529">
        <ele>55.546776</ele>
        <time>2015-07-02T16:01:50Z</time>
      </trkpt>
      <trkpt lat="49.2974" lon="1.17523">
        <ele>54.342472</ele>
        <time>2015-07-02T16:01:55Z</time>
      </trkpt>
      <trkpt lat="49.2974" lon="1.17521">
        <ele>54.342472</ele>
        <time>2015-07-02T16:02:00Z</time>
      </trkpt>
      <trkpt lat="49.29744" lon="1.1751">
        <ele>53.25839</ele>
        <time>2015-07-02T16:02:05Z</time>
      </trkpt>
      <trkpt lat="49.29751" lon="1.17506">
        <ele>53.25839</ele>
        <time>2015-07-02T16:02:10Z</time>
      </trkpt>
      <trkpt lat="49.29757" lon="1.17502">
        <ele>52.15776</ele>
        <time>2015-07-02T16:02:15Z</time>
      </trkpt>
      <trkpt lat="49.29763" lon="1.17498">
        <ele>52.15776</ele>
        <time>2015-07-02T16:02:20Z</time>
      </trkpt>
      <trkpt lat="49.29767" lon="1.17498">
        <ele>50.91388</ele>
        <time>2015-07-02T16:02:25Z</time>
      </trkpt>
      <trkpt lat="49.29773" lon="1.17499">
        <ele>50.91388</ele>
        <time>2015-07-02T16:02:30Z</time>
      </trkpt>
      <trkpt lat="49.29779" lon="1.17498">
        <ele>49.697906</ele>
        <time>2015-07-02T16:02:35Z</time>
      </trkpt>
      <trkpt lat="49.29786" lon="1.17496">
        <ele>49.697906</ele>
        <time>2015-07-02T16:02:40Z</time>
      </trkpt>
      <trkpt lat="49.29793" lon="1.17494">
        <ele>48.509785</ele>
        <time>2015-07-02T16:02:45Z</time>
      </trkpt>
      <trkpt lat="49.29799" lon="1.17493">
        <ele>48.509785</ele>
        <time>2015-07-02T16:02:50Z</time>
      </trkpt>
      <trkpt lat="49.29804" lon="1.17492">
        <ele>47.49343</ele>
        <time>2015-07-02T16:02:55Z</time>
      </trkpt>
      <trkpt lat="49.29812" lon="1.17492">
        <ele>47.49343</ele>
        <time>2015-07-02T16:03:00Z</time>
      </trkpt>
      <trkpt lat="49.29817" lon="1.17491">
        <ele>46.637554</ele>
        <time>2015-07-02T16:03:05Z</time>
      </trkpt>
      <trkpt lat="49.29824" lon="1.17488">
        <ele>46.637554</ele>
        <time>2015-07-02T16:03:10Z</time>
      </trkpt>
      <trkpt lat="49.29831" lon="1.17487">
        <ele>45.77266</ele>
        <time>2015-07-02T16:03:15Z</time>
      </trkpt>
      <trkpt lat="49.29836" lon="1.17487">
        <ele>45.77266</ele>
        <time>2015-07-02T16:03:20Z</time>
      </trkpt>
      <trkpt lat="49.29842" lon="1.17486">
        <ele>44.9146</ele>
        <time>2015-07-02T16:03:25Z</time>
      </trkpt>
      <trkpt lat="49.29849" lon="1.17485">
        <ele>44.9146</ele>
        <time>2015-07-02T16:03:30Z</time>
      </trkpt>
      <trkpt lat="49.29855" lon="1.17484">
        <ele>43.99154</ele>
        <time>2015-07-02T16:03:35Z</time>
      </trkpt>
      <trkpt lat="49.2986" lon="1.17484">
        <ele>43.99154</ele>
        <time>2015-07-02T16:03:40Z</time>
      </trkpt>
      <trkpt lat="49.29866" lon="1.17485">
        <ele>42.965862</ele>
        <time>2015-07-02T16:03:45Z</time>
      </trkpt>
      <trkpt lat="49.29873" lon="1.17482">
        <ele>42.965862</ele>
        <time>2015-07-02T16:03:50Z</time>
      </trkpt>
      <trkpt lat="49.29881" lon="1.1748">
        <ele>41.860607</ele>
        <time>2015-07-02T16:03:55Z</time>
      </trkpt>
      <trkpt lat="49.29887" lon="1.17479">
        <ele>41.860607</ele>
        <time>2015-07-02T16:04:00Z</time>
      </trkpt>
      <trkpt lat="49.29893" lon="1.17476">
        <ele>40.726105</ele>
        <time>2015-07-02T16:04:05Z</time>
      </trkpt>
      <trkpt lat="49.29899" lon="1.17474">
        <ele>40.726105</ele>
        <time>2015-07-02T16:04:10Z</time>
      </trkpt>
      <trkpt lat="49.29903" lon="1.17471">
        <ele>39.493748</ele>
        <time>2015-07-02T16:04:15Z</time>
      </trkpt>
      <trkpt lat="49.29909" lon="1.17468">
        <ele>39.493748</ele>
        <time>2015-07-02T16:04:20Z</time>
      </trkpt>
      <trkpt lat="49.29913" lon="1.17467">
        <ele>38.27311</ele>
        <time>2015-07-02T16:04:25Z</time>
      </trkpt>
      <trkpt lat="49.2992" lon="1.17466">
        <ele>38.27311</ele>
        <time>2015-07-02T16:04:30Z</time>
      </trkpt>
      <trkpt lat="49.29927" lon="1.17466">
        <ele>37.06477</ele>
        <time>2015-07-02T16:04:35Z</time>
      </trkpt>
      <trkpt lat="49.2993" lon="1.17467">
        <ele>37.06477</ele>
        <time>2015-07-02T16:04:40Z</time>
      </trkpt>
      <trkpt lat="49.29934" lon="1.17469">
        <ele>37.06477</ele>
        <time>2015-07-02T16:04:45Z</time>
      </trkpt>
      <trkpt lat="49.29938" lon="1.17472">
        <ele>35.739468</ele>
        <time>2015-07-02T16:04:50Z</time>
      </trkpt>
      <trkpt lat="49.29945" lon="1.17475">
        <ele>35.739468</ele>
        <time>2015-07-02T16:04:55Z</time>
      </trkpt>
      <trkpt lat="49.29952" lon="1.17476">
        <ele>34.437126</ele>
        <time>2015-07-02T16:05:00Z</time>
      </trkpt>
      <trkpt lat="49.29957" lon="1.17478">
        <ele>34.437126</ele>
        <time>2015-07-02T16:05:05Z</time>
      </trkpt>
      <trkpt lat="49.29964" lon="1.1748">
        <ele>33.22962</ele>
        <time>2015-07-02T16:05:10Z</time>
      </trkpt>
      <trkpt lat="49.2997" lon="1.17484">
        <ele>33.22962</ele>
        <time>2015-07-02T16:05:15Z</time>
      </trkpt>
      <trkpt lat="49.29976" lon="1.17486">
        <ele>32.140003</ele>
        <time>2015-07-02T16:05:20Z</time>
      </trkpt>
      <trkpt lat="49.29983" lon="1.1749">
        <ele>32.140003</ele>
        <time>2015-07-02T16:05:25Z</time>
      </trkpt>
      <trkpt lat="49.29988" lon="1.17491">
        <ele>31.232477</ele>
        <time>2015-07-02T16:05:30Z</time>
      </trkpt>
      <trkpt lat="49.29995" lon="1.17492">
        <ele>31.232477</ele>
        <time>2015-07-02T16:05:35Z</time>
      </trkpt>
      <trkpt lat="49.3" lon="1.17496">
        <ele>30.479506</ele>
        <time>2015-07-02T16:05:40Z</time>
      </trkpt>
      <trkpt lat="49.30005" lon="1.175">
        <ele>30.479506</ele>
        <time>2015-07-02T16:05:45Z</time>
      </trkpt>
      <trkpt lat="49.30009" lon="1.17506">
        <ele>29.768627</ele>
        <time>2015-07-02T16:05:50Z</time>
      </trkpt>
      <trkpt lat="49.30014" lon="1.17513">
        <ele>29.768627</ele>
        <time>2015-07-02T16:05:55Z</time>
      </trkpt>
      <trkpt lat="49.30019" lon="1.17518">
        <ele>29.05313</ele>
        <time>2015-07-02T16:06:00Z</time>
      </trkpt>
      <trkpt lat="49.30022" lon="1.17523">
        <ele>29.05313</ele>
        <time>2015-07-02T16:06:05Z</time>
      </trkpt>
      <trkpt lat="49.30027" lon="1.17531">
        <ele>28.40499</ele>
        <time>2015-07-02T16:06:10Z</time>
      </trkpt>
      <trkpt lat="49.30031" lon="1.17538">
        <ele>28.40499</ele>
        <time>2015-07-02T16:06:15Z</time>
      </trkpt>
      <trkpt lat="49.30035" lon="1.17545">
        <ele>27.876265</ele>
        <time>2015-07-02T16:06:20Z</time>
      </trkpt>
      <trkpt lat="49.30038" lon="1.17554">
        <ele>27.876265</ele>
        <time>2015-07-02T16:06:25Z</time>
      </trkpt>
      <trkpt lat="49.30042" lon="1.17561">
        <ele>27.399536</ele>
        <time>2015-07-02T16:06:30Z</time>
      </trkpt>
      <trkpt lat="49.30045" lon="1.1757">
        <ele>27.399536</ele>
        <time>2015-07-02T16:06:35Z</time>
      </trkpt>
      <trkpt lat="49.30049" lon="1.17577">
        <ele>26.912167</ele>
        <time>2015-07-02T16:06:40Z</time>
      </trkpt>
      <trkpt lat="49.30053" lon="1.17585">
        <ele>26.912167</ele>
        <time>2015-07-02T16:06:45Z</time>
      </trkpt>
      <trkpt lat="49.30056" lon="1.17594">
        <ele>26.572298</ele>
        <time>2015-07-02T16:06:50Z</time>
      </trkpt>
      <trkpt lat="49.30062" lon="1.17604">
        <ele>26.295448</ele>
        <time>2015-07-02T16:07:00Z</time>
      </trkpt>
      <trkpt lat="49.30071" lon="1.17625">
        <ele>25.945517</ele>
        <time>2015-07-02T16:07:10Z</time>
      </trkpt>
      <trkpt lat="49.30075" lon="1.17631">
        <ele>25.945517</ele>
        <time>2015-07-02T16:07:15Z</time>
      </trkpt>
      <trkpt lat="49.30079" lon="1.17636">
        <ele>25.569529</ele>
        <time>2015-07-02T16:07:20Z</time>
      </trkpt>
      <trkpt lat="49.30082" lon="1.17638">
        <ele>25.569529</ele>
        <time>2015-07-02T16:07:25Z</time>
      </trkpt>
      <trkpt lat="49.30083" lon="1.17642">
        <ele>25.569529</ele>
        <time>2015-07-02T16:07:30Z</time>
      </trkpt>
      <trkpt lat="49.30085" lon="1.17643">
        <ele>25.569529</ele>
        <time>2015-07-02T16:07:35Z</time>
      </trkpt>
      <trkpt lat="49.30085" lon="1.17646">
        <ele>25.326427</ele>
        <time>2015-07-02T16:07:40Z</time>
      </trkpt>
      <trkpt lat="49.30083" lon="1.17649">
        <ele>25.326427</ele>
        <time>2015-07-02T16:07:45Z</time>
      </trkpt>
      <trkpt lat="49.30083" lon="1.17651">
        <ele>25.326427</ele>
        <time>2015-07-02T16:07:50Z</time>
      </trkpt>
      <trkpt lat="49.30082" lon="1.17652">
        <ele>25.326427</ele>
        <time>2015-07-02T16:07:55Z</time>
      </trkpt>
      <trkpt lat="49.30081" lon="1.17651">
        <ele>25.326427</ele>
        <time>2015-07-02T16:08:00Z</time>
      </trkpt>
      <trkpt lat="49.30082" lon="1.17652">
        <ele>25.326427</ele>
        <time>2015-07-02T16:08:05Z</time>
      </trkpt>
      <trkpt lat="49.30084" lon="1.17652">
        <ele>25.326427</ele>
        <time>2015-07-02T16:08:10Z</time>
      </trkpt>
      <trkpt lat="49.30085" lon="1.17652">
        <ele>25.190174</ele>
        <time>2015-07-02T16:08:15Z</time>
      </trkpt>
      <trkpt lat="49.30084" lon="1.17651">
        <ele>25.190174</ele>
        <time>2015-07-02T16:08:20Z</time>
      </trkpt>
      <trkpt lat="49.30085" lon="1.17649">
        <ele>25.190174</ele>
        <time>2015-07-02T16:08:25Z</time>
      </trkpt>
      <trkpt lat="49.30086" lon="1.17648">
        <ele>25.190174</ele>
        <time>2015-07-02T16:08:30Z</time>
      </trkpt>
      <trkpt lat="49.30086" lon="1.17651">
        <ele>25.190174</ele>
        <time>2015-07-02T16:08:35Z</time>
      </trkpt>
      <trkpt lat="49.30085" lon="1.17655">
        <ele>25.190174</ele>
        <time>2015-07-02T16:08:40Z</time>
      </trkpt>
      <trkpt lat="49.30084" lon="1.17657">
        <ele>25.237242</ele>
        <time>2015-07-02T16:08:45Z</time>
      </trkpt>
      <trkpt lat="49.30081" lon="1.17657">
        <ele>25.237242</ele>
        <time>2015-07-02T16:08:50Z</time>
      </trkpt>
      <trkpt lat="49.30082" lon="1.17656">
        <ele>25.237242</ele>
        <time>2015-07-02T16:08:55Z</time>
      </trkpt>
      <trkpt lat="49.30082" lon="1.17654">
        <ele>25.237242</ele>
        <time>2015-07-02T16:09:00Z</time>
      </trkpt>
      <trkpt lat="49.30081" lon="1.17651">
        <ele>25.237242</ele>
        <time>2015-07-02T16:09:05Z</time>
      </trkpt>
      <trkpt lat="49.30081" lon="1.17649">
        <ele>25.237242</ele>
        <time>2015-07-02T16:09:10Z</time>
      </trkpt>
      <trkpt lat="49.30085" lon="1.17649">
        <ele>25.22094</ele>
        <time>2015-07-02T16:09:15Z</time>
      </trkpt>
      <trkpt lat="49.30087" lon="1.17649">
        <ele>25.22094</ele>
        <time>2015-07-02T16:09:20Z</time>
      </trkpt>
      <trkpt lat="49.30088" lon="1.17653">
        <ele>25.22094</ele>
        <time>2015-07-02T16:09:25Z</time>
      </trkpt>
      <trkpt lat="49.30089" lon="1.17658">
        <ele>25.22094</ele>
        <time>2015-07-02T16:09:30Z</time>
      </trkpt>
      <trkpt lat="49.30092" lon="1.17664">
        <ele>25.374056</ele>
        <time>2015-07-02T16:09:35Z</time>
      </trkpt>
      <trkpt lat="49.30098" lon="1.17668">
        <ele>25.374056</ele>
        <time>2015-07-02T16:09:40Z</time>
      </trkpt>
      <trkpt lat="49.30103" lon="1.17671">
        <ele>25.594793</ele>
        <time>2015-07-02T16:09:45Z</time>
      </trkpt>
      <trkpt lat="49.30107" lon="1.17674">
        <ele>25.594793</ele>
        <time>2015-07-02T16:09:50Z</time>
      </trkpt>
      <trkpt lat="49.30113" lon="1.17679">
        <ele>25.788677</ele>
        <time>2015-07-02T16:09:55Z</time>
      </trkpt>
      <trkpt lat="49.30119" lon="1.17688">
        <ele>25.788677</ele>
        <time>2015-07-02T16:10:00Z</time>
      </trkpt>
      <trkpt lat="49.30124" lon="1.17691">
        <ele>26.02681</ele>
        <time>2015-07-02T16:10:05Z</time>
      </trkpt>
      <trkpt lat="49.3013" lon="1.17696">
        <ele>26.02681</ele>
        <time>2015-07-02T16:10:10Z</time>
      </trkpt>
      <trkpt lat="49.30136" lon="1.177">
        <ele>26.2453</ele>
        <time>2015-07-02T16:10:15Z</time>
      </trkpt>
      <trkpt lat="49.30143" lon="1.17704">
        <ele>26.2453</ele>
        <time>2015-07-02T16:10:20Z</time>
      </trkpt>
      <trkpt lat="49.30147" lon="1.17707">
        <ele>26.413877</ele>
        <time>2015-07-02T16:10:25Z</time>
      </trkpt>
      <trkpt lat="49.30152" lon="1.17711">
        <ele>26.413877</ele>
        <time>2015-07-02T16:10:30Z</time>
      </trkpt>
      <trkpt lat="49.30159" lon="1.17713">
        <ele>26.360582</ele>
        <time>2015-07-02T16:10:35Z</time>
      </trkpt>
      <trkpt lat="49.30165" lon="1.17715">
        <ele>26.360582</ele>
        <time>2015-07-02T16:10:40Z</time>
      </trkpt>
      <trkpt lat="49.30171" lon="1.17716">
        <ele>26.186169</ele>
        <time>2015-07-02T16:10:45Z</time>
      </trkpt>
      <trkpt lat="49.30178" lon="1.17718">
        <ele>26.186169</ele>
        <time>2015-07-02T16:10:50Z</time>
      </trkpt>
      <trkpt lat="49.30184" lon="1.17719">
        <ele>25.912338</ele>
        <time>2015-07-02T16:10:55Z</time>
      </trkpt>
      <trkpt lat="49.3019" lon="1.17722">
        <ele>25.912338</ele>
        <time>2015-07-02T16:11:00Z</time>
      </trkpt>
      <trkpt lat="49.30196" lon="1.17725">
        <ele>25.530716</ele>
        <time>2015-07-02T16:11:05Z</time>
      </trkpt>
      <trkpt lat="49.30201" lon="1.17728">
        <ele>25.530716</ele>
        <time>2015-07-02T16:11:10Z</time>
      </trkpt>
      <trkpt lat="49.30205" lon="1.17731">
        <ele>24.990673</ele>
        <time>2015-07-02T16:11:15Z</time>
      </trkpt>
      <trkpt lat="49.3021" lon="1.17736">
        <ele>24.990673</ele>
        <time>2015-07-02T16:11:20Z</time>
      </trkpt>
      <trkpt lat="49.30213" lon="1.1774">
        <ele>24.130514</ele>
        <time>2015-07-02T16:11:25Z</time>
      </trkpt>
      <trkpt lat="49.30218" lon="1.17749">
        <ele>24.130514</ele>
        <time>2015-07-02T16:11:30Z</time>
      </trkpt>
      <trkpt lat="49.30223" lon="1.17756">
        <ele>22.959898</ele>
        <time>2015-07-02T16:11:35Z</time>
      </trkpt>
      <trkpt lat="49.30228" lon="1.1776">
        <ele>22.959898</ele>
        <time>2015-07-02T16:11:40Z</time>
      </trkpt>
      <trkpt lat="49.30233" lon="1.17769">
        <ele>21.603981</ele>
        <time>2015-07-02T16:11:45Z</time>
      </trkpt>
      <trkpt lat="49.30236" lon="1.17776">
        <ele>21.603981</ele>
        <time>2015-07-02T16:11:50Z</time>
      </trkpt>
      <trkpt lat="49.3024" lon="1.17779">
        <ele>20.136057</ele>
        <time>2015-07-02T16:11:55Z</time>
      </trkpt>
      <trkpt lat="49.30247" lon="1.17784">
        <ele>20.136057</ele>
        <time>2015-07-02T16:12:00Z</time>
      </trkpt>
      <trkpt lat="49.30252" lon="1.17789">
        <ele>18.826136</ele>
        <time>2015-07-02T16:12:05Z</time>
      </trkpt>
      <trkpt lat="49.30259" lon="1.17795">
        <ele>18.826136</ele>
        <time>2015-07-02T16:12:10Z</time>
      </trkpt>
      <trkpt lat="49.30263" lon="1.178">
        <ele>17.779861</ele>
        <time>2015-07-02T16:12:15Z</time>
      </trkpt>
      <trkpt lat="49.30268" lon="1.17802">
        <ele>17.779861</ele>
        <time>2015-07-02T16:12:20Z</time>
      </trkpt>
      <trkpt lat="49.30274" lon="1.17805">
        <ele>16.690891</ele>
        <time>2015-07-02T16:12:25Z</time>
      </trkpt>
      <trkpt lat="49.30282" lon="1.17807">
        <ele>16.690891</ele>
        <time>2015-07-02T16:12:30Z</time>
      </trkpt>
      <trkpt lat="49.30288" lon="1.1781">
        <ele>15.635785</ele>
        <time>2015-07-02T16:12:35Z</time>
      </trkpt>
      <trkpt lat="49.30295" lon="1.17813">
        <ele>15.635785</ele>
        <time>2015-07-02T16:12:40Z</time>
      </trkpt>
      <trkpt lat="49.30302" lon="1.17816">
        <ele>14.469232</ele>
        <time>2015-07-02T16:12:45Z</time>
      </trkpt>
      <trkpt lat="49.30309" lon="1.1782">
        <ele>14.469232</ele>
        <time>2015-07-02T16:12:50Z</time>
      </trkpt>
      <trkpt lat="49.30314" lon="1.17822">
        <ele>13.359538</ele>
        <time>2015-07-02T16:12:55Z</time>
      </trkpt>
      <trkpt lat="49.30318" lon="1.17822">
        <ele>13.359538</ele>
        <time>2015-07-02T16:13:00Z</time>
      </trkpt>
      <trkpt lat="49.3032" lon="1.17819">
        <ele>13.359538</ele>
        <time>2015-07-02T16:13:05Z</time>
      </trkpt>
      <trkpt lat="49.30325" lon="1.17815">
        <ele>12.217496</ele>
        <time>2015-07-02T16:13:10Z</time>
      </trkpt>
      <trkpt lat="49.30329" lon="1.17806">
        <ele>12.217496</ele>
        <time>2015-07-02T16:13:15Z</time>
      </trkpt>
      <trkpt lat="49.30331" lon="1.17798">
        <ele>11.090233</ele>
        <time>2015-07-02T16:13:20Z</time>
      </trkpt>
      <trkpt lat="49.30335" lon="1.17794">
        <ele>11.090233</ele>
        <time>2015-07-02T16:13:25Z</time>
      </trkpt>
      <trkpt lat="49.30337" lon="1.17787">
        <ele>9.963719</ele>
        <time>2015-07-02T16:13:30Z</time>
      </trkpt>
      <trkpt lat="49.30338" lon="1.17781">
        <ele>9.963719</ele>
        <time>2015-07-02T16:13:35Z</time>
      </trkpt>
      <trkpt lat="49.3034" lon="1.17773">
        <ele>8.983459</ele>
        <time>2015-07-02T16:13:40Z</time>
      </trkpt>
      <trkpt lat="49.30341" lon="1.1777">
        <ele>8.983459</ele>
        <time>2015-07-02T16:13:45Z</time>
      </trkpt>
      <trkpt lat="49.3034" lon="1.17765">
        <ele>8.983459</ele>
        <time>2015-07-02T16:13:50Z</time>
      </trkpt>
      <trkpt lat="49.3034" lon="1.17759">
        <ele>8.053266</ele>
        <time>2015-07-02T16:13:55Z</time>
      </trkpt>
      <trkpt lat="49.3034" lon="1.17754">
        <ele>8.053266</ele>
        <time>2015-07-02T16:14:00Z</time>
      </trkpt>
      <trkpt lat="49.30339" lon="1.17745">
        <ele>7.1559105</ele>
        <time>2015-07-02T16:14:05Z</time>
      </trkpt>
      <trkpt lat="49.3034" lon="1.17745">
        <ele>7.1559105</ele>
        <time>2015-07-02T16:14:10Z</time>
      </trkpt>
      <trkpt lat="49.30342" lon="1.17746">
        <ele>7.1559105</ele>
        <time>2015-07-02T16:14:15Z</time>
      </trkpt>
      <trkpt lat="49.30341" lon="1.17746">
        <ele>7.1559105</ele>
        <time>2015-07-02T16:14:20Z</time>
      </trkpt>
      <trkpt lat="49.3034" lon="1.17744">
        <ele>7.1559105</ele>
        <time>2015-07-02T16:14:25Z</time>
      </trkpt>
      <trkpt lat="49.30338" lon="1.17741">
        <ele>7.1559105</ele>
        <time>2015-07-02T16:14:30Z</time>
      </trkpt>
      <trkpt lat="49.30337" lon="1.17736">
        <ele>6.534719</ele>
        <time>2015-07-02T16:14:35Z</time>
      </trkpt>
      <trkpt lat="49.30339" lon="1.1773">
        <ele>6.534719</ele>
        <time>2015-07-02T16:14:40Z</time>
      </trkpt>
      <trkpt lat="49.30339" lon="1.17727">
        <ele>6.534719</ele>
        <time>2015-07-02T16:14:45Z</time>
      </trkpt>
      <trkpt lat="49.3034" lon="1.17725">
        <ele>6.534719</ele>
        <time>2015-07-02T16:14:50Z</time>
      </trkpt>
      <trkpt lat="49.30337" lon="1.17718">
        <ele>6.1405373</ele>
        <time>2015-07-02T16:14:55Z</time>
      </trkpt>
      <trkpt lat="49.30337" lon="1.17708">
        <ele>6.1405373</ele>
        <time>2015-07-02T16:15:00Z</time>
      </trkpt>
      <trkpt lat="49.30337" lon="1.17704">
        <ele>6.1405373</ele>
        <time>2015-07-02T16:15:05Z</time>
      </trkpt>
      <trkpt lat="49.30337" lon="1.17703">
        <ele>5.739821</ele>
        <time>2015-07-02T16:15:10Z</time>
      </trkpt>
      <trkpt lat="49.30339" lon="1.17703">
        <ele>5.739821</ele>
        <time>2015-07-02T16:15:15Z</time>
      </trkpt>
      <trkpt lat="49.30339" lon="1.17701">
        <ele>5.739821</ele>
        <time>2015-07-02T16:15:20Z</time>
      </trkpt>
      <trkpt lat="49.30338" lon="1.177">
        <ele>5.739821</ele>
        <time>2015-07-02T16:15:25Z</time>
      </trkpt>
      <trkpt lat="49.30338" lon="1.17698">
        <ele>5.739821</ele>
        <time>2015-07-02T16:15:30Z</time>
      </trkpt>
      <trkpt lat="49.30335" lon="1.17691">
        <ele>5.0297174</ele>
        <time>2015-07-02T16:15:35Z</time>
      </trkpt>
      <trkpt lat="49.30332" lon="1.17683">
        <ele>5.0297174</ele>
        <time>2015-07-02T16:15:40Z</time>
      </trkpt>
      <trkpt lat="49.30331" lon="1.17675">
        <ele>4.523086</ele>
        <time>2015-07-02T16:15:45Z</time>
      </trkpt>
      <trkpt lat="49.3033" lon="1.17669">
        <ele>4.523086</ele>
        <time>2015-07-02T16:15:50Z</time>
      </trkpt>
      <trkpt lat="49.30328" lon="1.1766">
        <ele>4.2477856</ele>
        <time>2015-07-02T16:15:55Z</time>
      </trkpt>
      <trkpt lat="49.30327" lon="1.17652">
        <ele>4.2477856</ele>
        <time>2015-07-02T16:16:00Z</time>
      </trkpt>
      <trkpt lat="49.30327" lon="1.17641">
        <ele>4.1857357</ele>
        <time>2015-07-02T16:16:05Z</time>
      </trkpt>
      <trkpt lat="49.30328" lon="1.17631">
        <ele>4.1857357</ele>
        <time>2015-07-02T16:16:10Z</time>
      </trkpt>
      <trkpt lat="49.30329" lon="1.17621">
        <ele>4.2331166</ele>
        <time>2015-07-02T16:16:15Z</time>
      </trkpt>
      <trkpt lat="49.30329" lon="1.17611">
        <ele>4.2331166</ele>
        <time>2015-07-02T16:16:20Z</time>
      </trkpt>
      <trkpt lat="49.30327" lon="1.17603">
        <ele>4.3510714</ele>
        <time>2015-07-02T16:16:25Z</time>
      </trkpt>
      <trkpt lat="49.30325" lon="1.17593">
        <ele>4.3510714</ele>
        <time>2015-07-02T16:16:30Z</time>
      </trkpt>
      <trkpt lat="49.30324" lon="1.17584">
        <ele>4.4745827</ele>
        <time>2015-07-02T16:16:35Z</time>
      </trkpt>
      <trkpt lat="49.30323" lon="1.17575">
        <ele>4.4745827</ele>
        <time>2015-07-02T16:16:40Z</time>
      </trkpt>
      <trkpt lat="49.30323" lon="1.17564">
        <ele>4.6154613</ele>
        <time>2015-07-02T16:16:45Z</time>
      </trkpt>
      <trkpt lat="49.30322" lon="1.17553">
        <ele>4.6154613</ele>
        <time>2015-07-02T16:16:50Z</time>
      </trkpt>
      <trkpt lat="49.30321" lon="1.17545">
        <ele>4.770209</ele>
        <time>2015-07-02T16:16:55Z</time>
      </trkpt>
      <trkpt lat="49.3032" lon="1.17536">
        <ele>4.770209</ele>
        <time>2015-07-02T16:17:00Z</time>
      </trkpt>
      <trkpt lat="49.30321" lon="1.17526">
        <ele>5.0508547</ele>
        <time>2015-07-02T16:17:05Z</time>
      </trkpt>
      <trkpt lat="49.30321" lon="1.17514">
        <ele>5.0508547</ele>
        <time>2015-07-02T16:17:10Z</time>
      </trkpt>
      <trkpt lat="49.30321" lon="1.17505">
        <ele>5.373531</ele>
        <time>2015-07-02T16:17:15Z</time>
      </trkpt>
      <trkpt lat="49.3032" lon="1.17497">
        <ele>5.373531</ele>
        <time>2015-07-02T16:17:20Z</time>
      </trkpt>
      <trkpt lat="49.30321" lon="1.17487">
        <ele>5.703678</ele>
        <time>2015-07-02T16:17:25Z</time>
      </trkpt>
      <trkpt lat="49.30322" lon="1.17476">
        <ele>5.703678</ele>
        <time>2015-07-02T16:17:30Z</time>
      </trkpt>
      <trkpt lat="49.30323" lon="1.17465">
        <ele>5.9804726</ele>
        <time>2015-07-02T16:17:35Z</time>
      </trkpt>
      <trkpt lat="49.30322" lon="1.17457">
        <ele>5.9804726</ele>
        <time>2015-07-02T16:17:40Z</time>
      </trkpt>
      <trkpt lat="49.30323" lon="1.17447">
        <ele>6.2342176</ele>
        <time>2015-07-02T16:17:45Z</time>
      </trkpt>
      <trkpt lat="49.30323" lon="1.17435">
        <ele>6.2342176</ele>
        <time>2015-07-02T16:17:50Z</time>
      </trkpt>
      <trkpt lat="49.30323" lon="1.17425">
        <ele>6.4210463</ele>
        <time>2015-07-02T16:17:55Z</time>
      </trkpt>
      <trkpt lat="49.30324" lon="1.17416">
        <ele>6.4210463</ele>
        <time>2015-07-02T16:18:00Z</time>
      </trkpt>
      <trkpt lat="49.30324" lon="1.17407">
        <ele>6.529376</ele>
        <time>2015-07-02T16:18:05Z</time>
      </trkpt>
      <trkpt lat="49.30324" lon="1.17397">
        <ele>6.529376</ele>
        <time>2015-07-02T16:18:10Z</time>
      </trkpt>
      <trkpt lat="49.30325" lon="1.17385">
        <ele>6.649626</ele>
        <time>2015-07-02T16:18:15Z</time>
      </trkpt>
      <trkpt lat="49.30326" lon="1.17377">
        <ele>6.649626</ele>
        <time>2015-07-02T16:18:20Z</time>
      </trkpt>
      <trkpt lat="49.30326" lon="1.17367">
        <ele>6.7214828</ele>
        <time>2015-07-02T16:18:25Z</time>
      </trkpt>
      <trkpt lat="49.30326" lon="1.1736">
        <ele>6.7214828</ele>
        <time>2015-07-02T16:18:30Z</time>
      </trkpt>
      <trkpt lat="49.30327" lon="1.17352">
        <ele>6.761311</ele>
        <time>2015-07-02T16:18:35Z</time>
      </trkpt>
      <trkpt lat="49.30328" lon="1.17344">
        <ele>6.761311</ele>
        <time>2015-07-02T16:18:40Z</time>
      </trkpt>
      <trkpt lat="49.30329" lon="1.17336">
        <ele>6.8132434</ele>
        <time>2015-07-02T16:18:45Z</time>
      </trkpt>
      <trkpt lat="49.30329" lon="1.17326">
        <ele>6.8132434</ele>
        <time>2015-07-02T16:18:50Z</time>
      </trkpt>
      <trkpt lat="49.30331" lon="1.17316">
        <ele>6.975836</ele>
        <time>2015-07-02T16:18:55Z</time>
      </trkpt>
      <trkpt lat="49.30331" lon="1.17308">
        <ele>6.975836</ele>
        <time>2015-07-02T16:19:00Z</time>
      </trkpt>
      <trkpt lat="49.30331" lon="1.173">
        <ele>7.1672206</ele>
        <time>2015-07-02T16:19:05Z</time>
      </trkpt>
      <trkpt lat="49.3033" lon="1.17292">
        <ele>7.1672206</ele>
        <time>2015-07-02T16:19:10Z</time>
      </trkpt>
      <trkpt lat="49.3033" lon="1.17283">
        <ele>7.3979855</ele>
        <time>2015-07-02T16:19:15Z</time>
      </trkpt>
      <trkpt lat="49.3033" lon="1.17275">
        <ele>7.3979855</ele>
        <time>2015-07-02T16:19:20Z</time>
      </trkpt>
      <trkpt lat="49.3033" lon="1.17267">
        <ele>7.6778903</ele>
        <time>2015-07-02T16:19:25Z</time>
      </trkpt>
      <trkpt lat="49.30331" lon="1.17256">
        <ele>7.6778903</ele>
        <time>2015-07-02T16:19:30Z</time>
      </trkpt>
      <trkpt lat="49.30331" lon="1.17245">
        <ele>7.987077</ele>
        <time>2015-07-02T16:19:35Z</time>
      </trkpt>
      <trkpt lat="49.30333" lon="1.17234">
        <ele>7.987077</ele>
        <time>2015-07-02T16:19:40Z</time>
      </trkpt>
      <trkpt lat="49.30334" lon="1.17227">
        <ele>8.263892</ele>
        <time>2015-07-02T16:19:45Z</time>
      </trkpt>
      <trkpt lat="49.30335" lon="1.17219">
        <ele>8.263892</ele>
        <time>2015-07-02T16:19:50Z</time>
      </trkpt>
      <trkpt lat="49.30336" lon="1.1721">
        <ele>8.509005</ele>
        <time>2015-07-02T16:19:55Z</time>
      </trkpt>
      <trkpt lat="49.30338" lon="1.172">
        <ele>8.509005</ele>
        <time>2015-07-02T16:20:00Z</time>
      </trkpt>
      <trkpt lat="49.30341" lon="1.17193">
        <ele>8.780832</ele>
        <time>2015-07-02T16:20:05Z</time>
      </trkpt>
      <trkpt lat="49.30343" lon="1.17187">
        <ele>8.780832</ele>
        <time>2015-07-02T16:20:10Z</time>
      </trkpt>
      <trkpt lat="49.30346" lon="1.17179">
        <ele>9.133488</ele>
        <time>2015-07-02T16:20:15Z</time>
      </trkpt>
      <trkpt lat="49.30347" lon="1.17169">
        <ele>9.133488</ele>
        <time>2015-07-02T16:20:20Z</time>
      </trkpt>
      <trkpt lat="49.30347" lon="1.17159">
        <ele>9.674589</ele>
        <time>2015-07-02T16:20:25Z</time>
      </trkpt>
      <trkpt lat="49.30345" lon="1.17149">
        <ele>9.674589</ele>
        <time>2015-07-02T16:20:30Z</time>
      </trkpt>
      <trkpt lat="49.30347" lon="1.17139">
        <ele>10.301627</ele>
        <time>2015-07-02T16:20:35Z</time>
      </trkpt>
      <trkpt lat="49.30349" lon="1.17131">
        <ele>10.301627</ele>
        <time>2015-07-02T16:20:40Z</time>
      </trkpt>
      <trkpt lat="49.30352" lon="1.17122">
        <ele>10.905036</ele>
        <time>2015-07-02T16:20:45Z</time>
      </trkpt>
      <trkpt lat="49.30355" lon="1.17112">
        <ele>10.905036</ele>
        <time>2015-07-02T16:20:50Z</time>
      </trkpt>
      <trkpt lat="49.30357" lon="1.17106">
        <ele>11.340198</ele>
        <time>2015-07-02T16:20:55Z</time>
      </trkpt>
      <trkpt lat="49.30357" lon="1.17095">
        <ele>11.340198</ele>
        <time>2015-07-02T16:21:00Z</time>
      </trkpt>
      <trkpt lat="49.30357" lon="1.17089">
        <ele>11.64659</ele>
        <time>2015-07-02T16:21:05Z</time>
      </trkpt>
      <trkpt lat="49.30357" lon="1.17082">
        <ele>11.64659</ele>
        <time>2015-07-02T16:21:10Z</time>
      </trkpt>
      <trkpt lat="49.30358" lon="1.17073">
        <ele>12.048564</ele>
        <time>2015-07-02T16:21:15Z</time>
      </trkpt>
      <trkpt lat="49.3036" lon="1.17059">
        <ele>12.49439</ele>
        <time>2015-07-02T16:21:20Z</time>
      </trkpt>
      <trkpt lat="49.30361" lon="1.17051">
        <ele>12.49439</ele>
        <time>2015-07-02T16:21:25Z</time>
      </trkpt>
      <trkpt lat="49.30362" lon="1.1704">
        <ele>12.993724</ele>
        <time>2015-07-02T16:21:30Z</time>
      </trkpt>
      <trkpt lat="49.30362" lon="1.17032">
        <ele>12.993724</ele>
        <time>2015-07-02T16:21:35Z</time>
      </trkpt>
      <trkpt lat="49.30364" lon="1.17023">
        <ele>13.4977865</ele>
        <time>2015-07-02T16:21:40Z</time>
      </trkpt>
      <trkpt lat="49.30366" lon="1.17014">
        <ele>13.4977865</ele>
        <time>2015-07-02T16:21:45Z</time>
      </trkpt>
      <trkpt lat="49.30368" lon="1.17005">
        <ele>14.033488</ele>
        <time>2015-07-02T16:21:50Z</time>
      </trkpt>
      <trkpt lat="49.30368" lon="1.16994">
        <ele>14.033488</ele>
        <time>2015-07-02T16:21:55Z</time>
      </trkpt>
      <trkpt lat="49.30369" lon="1.16988">
        <ele>14.640151</ele>
        <time>2015-07-02T16:22:00Z</time>
      </trkpt>
      <trkpt lat="49.30371" lon="1.16978">
        <ele>14.640151</ele>
        <time>2015-07-02T16:22:05Z</time>
      </trkpt>
      <trkpt lat="49.3037" lon="1.16963">
        <ele>15.195554</ele>
        <time>2015-07-02T16:22:10Z</time>
      </trkpt>
      <trkpt lat="49.30369" lon="1.16954">
        <ele>15.195554</ele>
        <time>2015-07-02T16:22:15Z</time>
      </trkpt>
      <trkpt lat="49.30368" lon="1.16947">
        <ele>15.428138</ele>
        <time>2015-07-02T16:22:20Z</time>
      </trkpt>
      <trkpt lat="49.30371" lon="1.16936">
        <ele>15.428138</ele>
        <time>2015-07-02T16:22:25Z</time>
      </trkpt>
      <trkpt lat="49.30374" lon="1.16926">
        <ele>15.505185</ele>
        <time>2015-07-02T16:22:30Z</time>
      </trkpt>
      <trkpt lat="49.30377" lon="1.16916">
        <ele>15.505185</ele>
        <time>2015-07-02T16:22:35Z</time>
      </trkpt>
      <trkpt lat="49.30381" lon="1.16908">
        <ele>15.38043</ele>
        <time>2015-07-02T16:22:40Z</time>
      </trkpt>
      <trkpt lat="49.30383" lon="1.169">
        <ele>15.38043</ele>
        <time>2015-07-02T16:22:45Z</time>
      </trkpt>
      <trkpt lat="49.30385" lon="1.16891">
        <ele>15.141329</ele>
        <time>2015-07-02T16:22:50Z</time>
      </trkpt>
      <trkpt lat="49.30387" lon="1.16883">
        <ele>15.141329</ele>
        <time>2015-07-02T16:22:55Z</time>
      </trkpt>
      <trkpt lat="49.3039" lon="1.16874">
        <ele>14.883692</ele>
        <time>2015-07-02T16:23:00Z</time>
      </trkpt>
      <trkpt lat="49.30392" lon="1.16865">
        <ele>14.883692</ele>
        <time>2015-07-02T16:23:05Z</time>
      </trkpt>
      <trkpt lat="49.30394" lon="1.16855">
        <ele>14.66757</ele>
        <time>2015-07-02T16:23:10Z</time>
      </trkpt>
      <trkpt lat="49.30393" lon="1.16848">
        <ele>14.66757</ele>
        <time>2015-07-02T16:23:15Z</time>
      </trkpt>
      <trkpt lat="49.30393" lon="1.16839">
        <ele>14.5197</ele>
        <time>2015-07-02T16:23:20Z</time>
      </trkpt>
      <trkpt lat="49.30394" lon="1.16828">
        <ele>14.5197</ele>
        <time>2015-07-02T16:23:25Z</time>
      </trkpt>
      <trkpt lat="49.30395" lon="1.16817">
        <ele>14.450286</ele>
        <time>2015-07-02T16:23:30Z</time>
      </trkpt>
      <trkpt lat="49.30396" lon="1.16801">
        <ele>14.36771</ele>
        <time>2015-07-02T16:23:35Z</time>
      </trkpt>
      <trkpt lat="49.30395" lon="1.16792">
        <ele>14.36771</ele>
        <time>2015-07-02T16:23:40Z</time>
      </trkpt>
      <trkpt lat="49.30398" lon="1.16781">
        <ele>14.259203</ele>
        <time>2015-07-02T16:23:45Z</time>
      </trkpt>
      <trkpt lat="49.30398" lon="1.16773">
        <ele>14.259203</ele>
        <time>2015-07-02T16:23:50Z</time>
      </trkpt>
      <trkpt lat="49.30399" lon="1.16765">
        <ele>14.098614</ele>
        <time>2015-07-02T16:23:55Z</time>
      </trkpt>
      <trkpt lat="49.30402" lon="1.16758">
        <ele>14.098614</ele>
        <time>2015-07-02T16:24:00Z</time>
      </trkpt>
      <trkpt lat="49.30403" lon="1.1675">
        <ele>13.933928</ele>
        <time>2015-07-02T16:24:05Z</time>
      </trkpt>
      <trkpt lat="49.30404" lon="1.1674">
        <ele>13.933928</ele>
        <time>2015-07-02T16:24:10Z</time>
      </trkpt>
      <trkpt lat="49.30404" lon="1.16731">
        <ele>13.7808075</ele>
        <time>2015-07-02T16:24:15Z</time>
      </trkpt>
      <trkpt lat="49.30406" lon="1.16722">
        <ele>13.7808075</ele>
        <time>2015-07-02T16:24:20Z</time>
      </trkpt>
      <trkpt lat="49.30407" lon="1.16711">
        <ele>13.581685</ele>
        <time>2015-07-02T16:24:25Z</time>
      </trkpt>
      <trkpt lat="49.30409" lon="1.16701">
        <ele>13.581685</ele>
        <time>2015-07-02T16:24:30Z</time>
      </trkpt>
      <trkpt lat="49.30409" lon="1.1669">
        <ele>13.297767</ele>
        <time>2015-07-02T16:24:35Z</time>
      </trkpt>
      <trkpt lat="49.3041" lon="1.1668">
        <ele>13.297767</ele>
        <time>2015-07-02T16:24:40Z</time>
      </trkpt>
      <trkpt lat="49.30411" lon="1.16672">
        <ele>12.994222</ele>
        <time>2015-07-02T16:24:45Z</time>
      </trkpt>
      <trkpt lat="49.30413" lon="1.16662">
        <ele>12.994222</ele>
        <time>2015-07-02T16:24:50Z</time>
      </trkpt>
      <trkpt lat="49.30415" lon="1.16653">
        <ele>12.688254</ele>
        <time>2015-07-02T16:24:55Z</time>
      </trkpt>
      <trkpt lat="49.30416" lon="1.16645">
        <ele>12.688254</ele>
        <time>2015-07-02T16:25:00Z</time>
      </trkpt>
      <trkpt lat="49.30419" lon="1.16637">
        <ele>12.467858</ele>
        <time>2015-07-02T16:25:05Z</time>
      </trkpt>
      <trkpt lat="49.3042" lon="1.16625">
        <ele>12.467858</ele>
        <time>2015-07-02T16:25:10Z</time>
      </trkpt>
      <trkpt lat="49.3042" lon="1.16614">
        <ele>12.299024</ele>
        <time>2015-07-02T16:25:15Z</time>
      </trkpt>
      <trkpt lat="49.30422" lon="1.16601">
        <ele>12.299024</ele>
        <time>2015-07-02T16:25:20Z</time>
      </trkpt>
      <trkpt lat="49.30422" lon="1.16592">
        <ele>12.049207</ele>
        <time>2015-07-02T16:25:25Z</time>
      </trkpt>
      <trkpt lat="49.30424" lon="1.16585">
        <ele>12.049207</ele>
        <time>2015-07-02T16:25:30Z</time>
      </trkpt>
      <trkpt lat="49.30428" lon="1.16573">
        <ele>11.797565</ele>
        <time>2015-07-02T16:25:35Z</time>
      </trkpt>
      <trkpt lat="49.30429" lon="1.16564">
        <ele>11.797565</ele>
        <time>2015-07-02T16:25:40Z</time>
      </trkpt>
      <trkpt lat="49.30429" lon="1.16552">
        <ele>11.516554</ele>
        <time>2015-07-02T16:25:45Z</time>
      </trkpt>
      <trkpt lat="49.3043" lon="1.16542">
        <ele>11.516554</ele>
        <time>2015-07-02T16:25:50Z</time>
      </trkpt>
      <trkpt lat="49.30431" lon="1.16535">
        <ele>11.166302</ele>
        <time>2015-07-02T16:25:55Z</time>
      </trkpt>
      <trkpt lat="49.30433" lon="1.16525">
        <ele>11.166302</ele>
        <time>2015-07-02T16:26:00Z</time>
      </trkpt>
      <trkpt lat="49.30434" lon="1.16516">
        <ele>10.782094</ele>
        <time>2015-07-02T16:26:05Z</time>
      </trkpt>
      <trkpt lat="49.30437" lon="1.16507">
        <ele>10.782094</ele>
        <time>2015-07-02T16:26:10Z</time>
      </trkpt>
      <trkpt lat="49.30438" lon="1.16495">
        <ele>10.382284</ele>
        <time>2015-07-02T16:26:15Z</time>
      </trkpt>
      <trkpt lat="49.30439" lon="1.16485">
        <ele>10.382284</ele>
        <time>2015-07-02T16:26:20Z</time>
      </trkpt>
      <trkpt lat="49.3044" lon="1.16476">
        <ele>9.969485</ele>
        <time>2015-07-02T16:26:25Z</time>
      </trkpt>
      <trkpt lat="49.3044" lon="1.16468">
        <ele>9.969485</ele>
        <time>2015-07-02T16:26:30Z</time>
      </trkpt>
      <trkpt lat="49.3044" lon="1.16459">
        <ele>9.589356</ele>
        <time>2015-07-02T16:26:35Z</time>
      </trkpt>
      <trkpt lat="49.30441" lon="1.16452">
        <ele>9.589356</ele>
        <time>2015-07-02T16:26:40Z</time>
      </trkpt>
      <trkpt lat="49.30442" lon="1.16444">
        <ele>9.212027</ele>
        <time>2015-07-02T16:26:45Z</time>
      </trkpt>
      <trkpt lat="49.30445" lon="1.16436">
        <ele>9.212027</ele>
        <time>2015-07-02T16:26:50Z</time>
      </trkpt>
      <trkpt lat="49.30448" lon="1.16422">
        <ele>8.982711</ele>
        <time>2015-07-02T16:26:55Z</time>
      </trkpt>
      <trkpt lat="49.3045" lon="1.1641">
        <ele>8.982711</ele>
        <time>2015-07-02T16:27:00Z</time>
      </trkpt>
      <trkpt lat="49.30452" lon="1.16402">
        <ele>8.776108</ele>
        <time>2015-07-02T16:27:05Z</time>
      </trkpt>
      <trkpt lat="49.30454" lon="1.16395">
        <ele>8.776108</ele>
        <time>2015-07-02T16:27:10Z</time>
      </trkpt>
      <trkpt lat="49.30456" lon="1.16387">
        <ele>8.620135</ele>
        <time>2015-07-02T16:27:15Z</time>
      </trkpt>
      <trkpt lat="49.30456" lon="1.16378">
        <ele>8.620135</ele>
        <time>2015-07-02T16:27:20Z</time>
      </trkpt>
      <trkpt lat="49.30459" lon="1.16368">
        <ele>8.5260725</ele>
        <time>2015-07-02T16:27:25Z</time>
      </trkpt>
      <trkpt lat="49.30462" lon="1.16358">
        <ele>8.5260725</ele>
        <time>2015-07-02T16:27:30Z</time>
      </trkpt>
      <trkpt lat="49.30465" lon="1.16351">
        <ele>8.374463</ele>
        <time>2015-07-02T16:27:35Z</time>
      </trkpt>
      <trkpt lat="49.30467" lon="1.16338">
        <ele>8.374463</ele>
        <time>2015-07-02T16:27:40Z</time>
      </trkpt>
      <trkpt lat="49.30468" lon="1.16328">
        <ele>8.357389</ele>
        <time>2015-07-02T16:27:45Z</time>
      </trkpt>
      <trkpt lat="49.30469" lon="1.1632">
        <ele>8.357389</ele>
        <time>2015-07-02T16:27:50Z</time>
      </trkpt>
      <trkpt lat="49.30471" lon="1.16309">
        <ele>8.5227165</ele>
        <time>2015-07-02T16:27:55Z</time>
      </trkpt>
      <trkpt lat="49.30473" lon="1.163">
        <ele>8.5227165</ele>
        <time>2015-07-02T16:28:00Z</time>
      </trkpt>
      <trkpt lat="49.30475" lon="1.16292">
        <ele>8.784553</ele>
        <time>2015-07-02T16:28:05Z</time>
      </trkpt>
      <trkpt lat="49.30476" lon="1.16284">
        <ele>8.784553</ele>
        <time>2015-07-02T16:28:10Z</time>
      </trkpt>
      <trkpt lat="49.30478" lon="1.16275">
        <ele>9.04861</ele>
        <time>2015-07-02T16:28:15Z</time>
      </trkpt>
      <trkpt lat="49.30481" lon="1.16262">
        <ele>9.371609</ele>
        <time>2015-07-02T16:28:20Z</time>
      </trkpt>
      <trkpt lat="49.30483" lon="1.16254">
        <ele>9.371609</ele>
        <time>2015-07-02T16:28:25Z</time>
      </trkpt>
      <trkpt lat="49.30483" lon="1.16244">
        <ele>9.791511</ele>
        <time>2015-07-02T16:28:30Z</time>
      </trkpt>
      <trkpt lat="49.30484" lon="1.16236">
        <ele>9.791511</ele>
        <time>2015-07-02T16:28:35Z</time>
      </trkpt>
      <trkpt lat="49.30485" lon="1.16227">
        <ele>10.213505</ele>
        <time>2015-07-02T16:28:40Z</time>
      </trkpt>
      <trkpt lat="49.30488" lon="1.16215">
        <ele>10.213505</ele>
        <time>2015-07-02T16:28:45Z</time>
      </trkpt>
      <trkpt lat="49.30488" lon="1.16206">
        <ele>10.578551</ele>
        <time>2015-07-02T16:28:50Z</time>
      </trkpt>
      <trkpt lat="49.30489" lon="1.16197">
        <ele>10.578551</ele>
        <time>2015-07-02T16:28:55Z</time>
      </trkpt>
      <trkpt lat="49.30491" lon="1.16188">
        <ele>11.048269</ele>
        <time>2015-07-02T16:29:00Z</time>
      </trkpt>
      <trkpt lat="49.30494" lon="1.16177">
        <ele>11.048269</ele>
        <time>2015-07-02T16:29:05Z</time>
      </trkpt>
      <trkpt lat="49.30494" lon="1.16164">
        <ele>11.541534</ele>
        <time>2015-07-02T16:29:10Z</time>
      </trkpt>
      <trkpt lat="49.30495" lon="1.16155">
        <ele>11.541534</ele>
        <time>2015-07-02T16:29:15Z</time>
      </trkpt>
      <trkpt lat="49.30497" lon="1.16144">
        <ele>11.98312</ele>
        <time>2015-07-02T16:29:20Z</time>
      </trkpt>
      <trkpt lat="49.30498" lon="1.16139">
        <ele>11.98312</ele>
        <time>2015-07-02T16:29:25Z</time>
      </trkpt>
      <trkpt lat="49.30499" lon="1.16128">
        <ele>12.447588</ele>
        <time>2015-07-02T16:29:30Z</time>
      </trkpt>
      <trkpt lat="49.30502" lon="1.1612">
        <ele>12.447588</ele>
        <time>2015-07-02T16:29:35Z</time>
      </trkpt>
      <trkpt lat="49.30503" lon="1.16106">
        <ele>12.917502</ele>
        <time>2015-07-02T16:29:40Z</time>
      </trkpt>
      <trkpt lat="49.30504" lon="1.16096">
        <ele>12.917502</ele>
        <time>2015-07-02T16:29:45Z</time>
      </trkpt>
      <trkpt lat="49.30507" lon="1.16087">
        <ele>13.290243</ele>
        <time>2015-07-02T16:29:50Z</time>
      </trkpt>
      <trkpt lat="49.30507" lon="1.16074">
        <ele>13.290243</ele>
        <time>2015-07-02T16:29:55Z</time>
      </trkpt>
      <trkpt lat="49.30509" lon="1.16062">
        <ele>13.528659</ele>
        <time>2015-07-02T16:30:00Z</time>
      </trkpt>
      <trkpt lat="49.30512" lon="1.16051">
        <ele>13.528659</ele>
        <time>2015-07-02T16:30:05Z</time>
      </trkpt>
      <trkpt lat="49.30514" lon="1.16043">
        <ele>13.497846</ele>
        <time>2015-07-02T16:30:10Z</time>
      </trkpt>
      <trkpt lat="49.30515" lon="1.16037">
        <ele>13.497846</ele>
        <time>2015-07-02T16:30:15Z</time>
      </trkpt>
      <trkpt lat="49.30516" lon="1.16029">
        <ele>13.28975</ele>
        <time>2015-07-02T16:30:20Z</time>
      </trkpt>
      <trkpt lat="49.30518" lon="1.16018">
        <ele>13.28975</ele>
        <time>2015-07-02T16:30:25Z</time>
      </trkpt>
      <trkpt lat="49.3052" lon="1.16008">
        <ele>12.990077</ele>
        <time>2015-07-02T16:30:30Z</time>
      </trkpt>
      <trkpt lat="49.30521" lon="1.16003">
        <ele>12.990077</ele>
        <time>2015-07-02T16:30:35Z</time>
      </trkpt>
      <trkpt lat="49.30522" lon="1.15995">
        <ele>12.990077</ele>
        <time>2015-07-02T16:30:40Z</time>
      </trkpt>
      <trkpt lat="49.30523" lon="1.1599">
        <ele>12.606452</ele>
        <time>2015-07-02T16:30:45Z</time>
      </trkpt>
      <trkpt lat="49.30526" lon="1.15981">
        <ele>12.606452</ele>
        <time>2015-07-02T16:30:50Z</time>
      </trkpt>
      <trkpt lat="49.30526" lon="1.15969">
        <ele>12.218242</ele>
        <time>2015-07-02T16:30:55Z</time>
      </trkpt>
      <trkpt lat="49.30527" lon="1.15958">
        <ele>12.218242</ele>
        <time>2015-07-02T16:31:00Z</time>
      </trkpt>
      <trkpt lat="49.30529" lon="1.15951">
        <ele>11.927822</ele>
        <time>2015-07-02T16:31:05Z</time>
      </trkpt>
      <trkpt lat="49.3053" lon="1.15943">
        <ele>11.927822</ele>
        <time>2015-07-02T16:31:10Z</time>
      </trkpt>
      <trkpt lat="49.3053" lon="1.15928">
        <ele>11.700083</ele>
        <time>2015-07-02T16:31:15Z</time>
      </trkpt>
      <trkpt lat="49.30531" lon="1.15922">
        <ele>11.700083</ele>
        <time>2015-07-02T16:31:20Z</time>
      </trkpt>
      <trkpt lat="49.30531" lon="1.15912">
        <ele>11.502311</ele>
        <time>2015-07-02T16:31:25Z</time>
      </trkpt>
      <trkpt lat="49.30532" lon="1.15906">
        <ele>11.502311</ele>
        <time>2015-07-02T16:31:30Z</time>
      </trkpt>
      <trkpt lat="49.30531" lon="1.15894">
        <ele>11.2320595</ele>
        <time>2015-07-02T16:31:35Z</time>
      </trkpt>
      <trkpt lat="49.30533" lon="1.15884">
        <ele>11.2320595</ele>
        <time>2015-07-02T16:31:40Z</time>
      </trkpt>
      <trkpt lat="49.30532" lon="1.15875">
        <ele>10.953125</ele>
        <time>2015-07-02T16:31:45Z</time>
      </trkpt>
      <trkpt lat="49.30531" lon="1.15867">
        <ele>10.953125</ele>
        <time>2015-07-02T16:31:50Z</time>
      </trkpt>
      <trkpt lat="49.30533" lon="1.15859">
        <ele>10.73905</ele>
        <time>2015-07-02T16:31:55Z</time>
      </trkpt>
      <trkpt lat="49.30535" lon="1.15854">
        <ele>10.73905</ele>
        <time>2015-07-02T16:32:00Z</time>
      </trkpt>
      <trkpt lat="49.30536" lon="1.15845">
        <ele>10.628959</ele>
        <time>2015-07-02T16:32:05Z</time>
      </trkpt>
      <trkpt lat="49.30535" lon="1.15837">
        <ele>10.628959</ele>
        <time>2015-07-02T16:32:10Z</time>
      </trkpt>
      <trkpt lat="49.30537" lon="1.15831">
        <ele>10.60116</ele>
        <time>2015-07-02T16:32:15Z</time>
      </trkpt>
      <trkpt lat="49.30539" lon="1.1583">
        <ele>10.60116</ele>
        <time>2015-07-02T16:32:20Z</time>
      </trkpt>
      <trkpt lat="49.30537" lon="1.1583">
        <ele>10.60116</ele>
        <time>2015-07-02T16:32:25Z</time>
      </trkpt>
      <trkpt lat="49.30535" lon="1.15833">
        <ele>10.60116</ele>
        <time>2015-07-02T16:32:30Z</time>
      </trkpt>
      <trkpt lat="49.30536" lon="1.15831">
        <ele>10.60116</ele>
        <time>2015-07-02T16:32:35Z</time>
      </trkpt>
      <trkpt lat="49.30535" lon="1.15827">
        <ele>10.606489</ele>
        <time>2015-07-02T16:32:40Z</time>
      </trkpt>
      <trkpt lat="49.30534" lon="1.15826">
        <ele>10.606489</ele>
        <time>2015-07-02T16:32:45Z</time>
      </trkpt>
      <trkpt lat="49.30534" lon="1.15826">
        <ele>10.606489</ele>
        <time>2015-07-02T16:32:50Z</time>
      </trkpt>
      <trkpt lat="49.30532" lon="1.15824">
        <ele>10.606489</ele>
        <time>2015-07-02T16:32:55Z</time>
      </trkpt>
      <trkpt lat="49.30531" lon="1.15824">
        <ele>10.606489</ele>
        <time>2015-07-02T16:33:00Z</time>
      </trkpt>
      <trkpt lat="49.30532" lon="1.15824">
        <ele>10.606489</ele>
        <time>2015-07-02T16:33:05Z</time>
      </trkpt>
      <trkpt lat="49.30533" lon="1.15824">
        <ele>10.606489</ele>
        <time>2015-07-02T16:33:10Z</time>
      </trkpt>
      <trkpt lat="49.30532" lon="1.15826">
        <ele>10.606489</ele>
        <time>2015-07-02T16:33:15Z</time>
      </trkpt>
      <trkpt lat="49.30533" lon="1.15826">
        <ele>10.606489</ele>
        <time>2015-07-02T16:33:20Z</time>
      </trkpt>
    </trkseg>
  </trk>
</gpx>